GFSNGP_prec_precacc_024.txt.gz
Total_Precipitation_Accumulation
0.12 0.22 0.58 0.38 0.14 0.10 0.37 0.18 0.23 0.08 0.04 0.04 0.04 0.05 0.05 0.04 0.03 0.03 0.03 0.02 0.02 0.00 0.00 0.01 0.05 0.23 0.17 0.14 0.20 0.19 0.16 0.12 0.07 0.04 0.04 0.03 0.02 0.03 0.04 0.03 0.02 0.01 0.03 0.04
0.34 0.25 0.35 0.27 0.07 0.11 0.12 0.04 0.04 0.02 0.04 0.05 0.05 0.03 0.08 0.06 0.02 0.01 0.00 0.00 0.00 0.00 0.00 0.00 0.03 0.08 0.15 0.24 0.15 0.18 0.11 0.10 0.05 0.02 0.03 0.05 0.06 0.03 0.06 0.05 0.04 0.05 0.02 0.02
0.48 0.18 0.19 0.26 0.08 0.06 0.09 0.07 0.03 0.04 0.05 0.07 0.25 0.45 0.39 0.10 0.04 0.02 0.02 0.00 0.00 0.00 0.00 0.00 0.01 0.10 0.49 0.61 0.28 0.28 0.15 0.17 0.17 0.12 0.18 0.17 0.11 0.10 0.08 0.08 0.14 0.12 0.07 0.02
0.82 0.44 0.44 0.25 0.10 0.14 0.15 0.12 0.06 0.05 0.07 0.08 0.13 0.18 0.12 0.04 0.02 0.02 0.01 0.01 0.00 0.00 0.00 0.00 0.01 0.22 0.66 0.60 0.25 0.24 0.21 0.28 0.45 0.36 0.41 0.47 0.52 0.46 0.43 0.34 0.23 0.20 0.13 0.06
0.42 0.30 0.15 0.04 0.07 0.11 0.09 0.08 0.03 0.03 0.02 0.01 0.04 0.13 0.14 0.04 0.02 0.02 0.01 0.01 0.01 0.00 0.00 0.01 0.03 0.11 0.25 0.49 0.71 0.52 0.44 0.47 0.48 0.47 0.53 0.60 0.64 0.59 0.37 0.36 0.31 0.15 0.06 0.02
0.12 0.19 0.08 0.02 0.01 0.02 0.02 0.01 0.00 0.00 0.01 0.00 0.00 0.04 0.22 0.29 0.12 0.05 0.02 0.01 0.01 0.01 0.01 0.03 0.03 0.06 0.16 0.27 0.82 1.03 0.57 0.54 0.57 0.49 0.48 0.44 0.39 0.25 0.20 0.13 0.05 0.01 0.00 0.00
0.09 0.11 0.01 0.00 0.00 0.00 0.00 0.00 0.00 0.00 0.00 0.00 0.00 0.00 0.01 0.16 0.24 0.16 0.10 0.07 0.08 0.09 0.16 0.22 0.17 0.31 0.45 0.38 0.57 0.84 0.63 0.52 0.34 0.32 0.12 0.10 0.06 0.04 0.01 0.00 0.00 0.00 0.00 0.00
0.03 0.03 0.00 0.00 0.00 0.00 0.00 0.00 0.00 0.01 0.01 0.00 0.01 0.00 0.00 0.01 0.04 0.16 0.17 0.15 0.16 0.24 0.54 0.65 0.67 0.56 0.47 0.38 0.26 0.22 0.19 0.17 0.10 0.05 0.01 0.00 0.00 0.00 0.00 0.00 0.00 0.00 0.00 0.00
0.00 0.00 0.00 0.00 0.00 0.00 0.00 0.00 0.00 0.00 0.00 0.00 0.01 0.00 0.00 0.01 0.00 0.00 0.01 0.02 0.05 0.15 0.16 0.09 0.13 0.08 0.09 0.04 0.02 0.00 0.00 0.00 0.00 0.00 0.00 0.00 0.00 0.00 0.00 0.00 0.00 0.00 0.00 0.00
0.00 0.00 0.00 0.00 0.00 0.00 0.00 0.00 0.00 0.01 0.01 0.00 0.00 0.00 0.00 0.00 0.00 0.00 0.00 0.00 0.00 0.00 0.00 0.00 0.00 0.00 0.00 0.00 0.00 0.00 0.00 0.00 0.00 0.00 0.00 0.00 0.00 0.00 0.00 0.00 0.00 0.00 0.00 0.00
0.00 0.00 0.00 0.00 0.00 0.00 0.00 0.00 0.00 0.00 0.00 0.00 0.00 0.00 0.00 0.00 0.00 0.00 0.00 0.00 0.00 0.00 0.00 0.00 0.00 0.00 0.00 0.00 0.00 0.00 0.00 0.00 0.00 0.00 0.00 0.00 0.00 0.00 0.00 0.00 0.00 0.00 0.00 0.00
0.00 0.00 0.00 0.00 0.00 0.00 0.00 0.00 0.00 0.00 0.00 0.00 0.00 0.00 0.00 0.00 0.00 0.00 0.00 0.00 0.00 0.02 0.00 0.00 0.00 0.00 0.00 0.00 0.00 0.00 0.00 0.00 0.00 0.00 0.00 0.00 0.00 0.00 0.00 0.00 0.00 0.00 0.00 0.00
0.00 0.00 0.00 0.00 0.00 0.00 0.00 0.00 0.00 0.00 0.00 0.00 0.00 0.00 0.01 0.00 0.00 0.00 0.00 0.00 0.00 0.02 0.00 0.00 0.00 0.00 0.00 0.00 0.00 0.00 0.00 0.00 0.00 0.00 0.00 0.00 0.00 0.00 0.00 0.00 0.00 0.00 0.00 0.00
0.00 0.00 0.00 0.00 0.00 0.00 0.00 0.00 0.00 0.00 0.00 0.00 0.00 0.00 0.00 0.00 0.00 0.00 0.00 0.00 0.00 0.00 0.00 0.00 0.00 0.00 0.00 0.00 0.00 0.00 0.00 0.00 0.00 0.00 0.00 0.00 0.00 0.00 0.00 0.00 0.00 0.00 0.00 0.00
0.00 0.00 0.00 0.00 0.00 0.00 0.00 0.00 0.00 0.00 0.00 0.00 0.00 0.00 0.00 0.00 0.00 0.00 0.00 0.00 0.00 0.00 0.00 0.00 0.00 0.00 0.00 0.00 0.00 0.00 0.00 0.00 0.00 0.00 0.00 0.00 0.00 0.00 0.00 0.00 0.00 0.00 0.00 0.00
0.00 0.00 0.00 0.00 0.00 0.00 0.00 0.00 0.00 0.00 0.00 0.00 0.00 0.00 0.00 0.00 0.00 0.00 0.00 0.00 0.00 0.00 0.00 0.00 0.00 0.00 0.00 0.00 0.00 0.00 0.00 0.00 0.00 0.00 0.00 0.00 0.00 0.00 0.00 0.00 0.00 0.00 0.00 0.00
0.00 0.00 0.00 0.00 0.00 0.00 0.00 0.00 0.00 0.00 0.01 0.02 0.03 0.02 0.00 0.00 0.00 0.00 0.00 0.00 0.00 0.00 0.00 0.00 0.00 0.00 0.00 0.00 0.00 0.00 0.00 0.00 0.00 0.00 0.00 0.00 0.00 0.00 0.00 0.00 0.00 0.00 0.00 0.00
0.00 0.00 0.00 0.00 0.00 0.00 0.00 0.00 0.00 0.00 0.03 0.06 0.03 0.00 0.00 0.00 0.00 0.00 0.00 0.00 0.00 0.00 0.00 0.00 0.00 0.00 0.00 0.00 0.00 0.00 0.00 0.00 0.00 0.00 0.00 0.00 0.00 0.00 0.00 0.00 0.00 0.00 0.00 0.00
0.00 0.00 0.00 0.00 0.00 0.00 0.00 0.00 0.00 0.00 0.01 0.00 0.00 0.00 0.00 0.00 0.00 0.00 0.00 0.00 0.00 0.00 0.00 0.00 0.00 0.00 0.00 0.00 0.00 0.00 0.00 0.00 0.00 0.00 0.00 0.00 0.00 0.00 0.00 0.00 0.00 0.00 0.00 0.00
0.00 0.00 0.00 0.00 0.00 0.00 0.00 0.00 0.00 0.01 0.02 0.01 0.00 0.00 0.00 0.00 0.00 0.00 0.00 0.00 0.00 0.00 0.00 0.00 0.00 0.00 0.00 0.00 0.00 0.00 0.00 0.00 0.00 0.00 0.00 0.00 0.00 0.00 0.00 0.00 0.00 0.00 0.00 0.00
0.08 0.02 0.00 0.02 0.05 0.05 0.03 0.03 0.05 0.07 0.06 0.03 0.00 0.00 0.00 0.00 0.00 0.00 0.00 0.00 0.00 0.00 0.00 0.00 0.00 0.00 0.00 0.00 0.00 0.00 0.00 0.00 0.00 0.00 0.00 0.00 0.00 0.00 0.00 0.00 0.00 0.00 0.00 0.00
0.07 0.02 0.00 0.01 0.01 0.14 0.17 0.10 0.04 0.04 0.03 0.02 0.00 0.00 0.00 0.00 0.00 0.00 0.00 0.00 0.00 0.00 0.00 0.00 0.00 0.00 0.00 0.00 0.00 0.00 0.00 0.00 0.00 0.00 0.00 0.00 0.00 0.00 0.00 0.00 0.00 0.00 0.00 0.00
0.01 0.01 0.00 0.00 0.00 0.01 0.04 0.10 0.07 0.04 0.02 0.00 0.00 0.00 0.00 0.00 0.00 0.00 0.00 0.00 0.00 0.00 0.00 0.00 0.00 0.00 0.00 0.00 0.00 0.00 0.00 0.00 0.00 0.00 0.00 0.00 0.00 0.00 0.00 0.00 0.00 0.00 0.00 0.00
0.00 0.00 0.00 0.00 0.00 0.00 0.00 0.00 0.01 0.02 0.02 0.00 0.00 0.00 0.00 0.00 0.00 0.00 0.00 0.00 0.00 0.00 0.00 0.00 0.00 0.00 0.00 0.00 0.00 0.00 0.00 0.00 0.00 0.00 0.00 0.00 0.00 0.00 0.00 0.00 0.00 0.00 0.00 0.00
0.00 0.00 0.00 0.00 0.00 0.00 0.00 0.00 0.00 0.00 0.00 0.00 0.00 0.00 0.01 0.01 0.00 0.00 0.00 0.00 0.00 0.00 0.00 0.00 0.00 0.00 0.00 0.00 0.00 0.00 0.00 0.00 0.00 0.00 0.00 0.00 0.00 0.00 0.00 0.00 0.00 0.00 0.01 0.00
0.00 0.00 0.00 0.00 0.00 0.00 0.00 0.00 0.00 0.00 0.00 0.00 0.00 0.01 0.01 0.02 0.01 0.00 0.00 0.00 0.00 0.00 0.00 0.00 0.00 0.00 0.00 0.00 0.00 0.00 0.00 0.00 0.00 0.00 0.00 0.00 0.00 0.00 0.00 0.00 0.00 0.00 0.00 0.00
0.00 0.00 0.00 0.00 0.00 0.00 0.00 0.00 0.00 0.00 0.00 0.00 0.00 0.00 0.01 0.01 0.01 0.00 0.00 0.00 0.00 0.00 0.00 0.00 0.00 0.00 0.00 0.00 0.00 0.00 0.00 0.00 0.00 0.00 0.00 0.00 0.00 0.00 0.00 0.00 0.00 0.00 0.00 0.00

GFSNGP_prec_precacc_027.txt.gz
Total_Precipitation_Accumulation
0.12 0.22 0.58 0.38 0.14 0.10 0.37 0.18 0.23 0.08 0.04 0.04 0.04 0.05 0.05 0.04 0.03 0.03 0.03 0.02 0.02 0.00 0.00 0.01 0.05 0.23 0.17 0.14 0.20 0.19 0.16 0.13 0.09 0.08 0.08 0.06 0.04 0.05 0.05 0.04 0.03 0.02 0.04 0.11
0.34 0.25 0.35 0.27 0.07 0.11 0.12 0.04 0.04 0.02 0.04 0.05 0.05 0.03 0.08 0.06 0.02 0.01 0.00 0.00 0.00 0.00 0.00 0.00 0.03 0.08 0.15 0.24 0.15 0.18 0.11 0.11 0.08 0.08 0.08 0.08 0.08 0.04 0.06 0.05 0.05 0.07 0.06 0.05
0.48 0.18 0.19 0.26 0.08 0.06 0.09 0.07 0.03 0.04 0.05 0.07 0.25 0.45 0.39 0.10 0.04 0.02 0.02 0.00 0.00 0.00 0.00 0.00 0.01 0.10 0.50 0.62 0.28 0.28 0.15 0.17 0.17 0.13 0.20 0.20 0.15 0.12 0.09 0.11 0.19 0.19 0.15 0.16
0.82 0.44 0.44 0.25 0.10 0.14 0.15 0.12 0.06 0.05 0.07 0.08 0.13 0.18 0.12 0.04 0.02 0.02 0.01 0.01 0.00 0.00 0.00 0.00 0.02 0.27 0.81 0.81 0.27 0.25 0.21 0.33 0.57 0.47 0.52 0.58 0.73 0.58 0.55 0.45 0.32 0.32 0.40 0.38
0.42 0.30 0.15 0.04 0.07 0.11 0.09 0.08 0.03 0.03 0.02 0.01 0.04 0.13 0.14 0.04 0.02 0.02 0.01 0.01 0.01 0.00 0.00 0.02 0.05 0.17 0.33 0.72 0.92 0.71 0.61 0.78 0.79 0.69 0.71 0.76 0.84 0.81 0.62 0.66 0.55 0.42 0.29 0.20
0.13 0.20 0.08 0.02 0.01 0.02 0.02 0.01 0.00 0.00 0.01 0.00 0.00 0.04 0.22 0.29 0.12 0.05 0.02 0.01 0.01 0.01 0.02 0.03 0.03 0.07 0.18 0.33 0.92 1.19 0.75 0.70 0.73 0.61 0.57 0.60 0.63 0.49 0.40 0.34 0.25 0.13 0.10 0.07
0.10 0.13 0.01 0.00 0.00 0.00 0.00 0.00 0.00 0.00 0.00 0.00 0.00 0.00 0.01 0.16 0.24 0.16 0.10 0.07 0.09 0.09 0.17 0.22 0.17 0.31 0.47 0.45 0.78 1.04 0.80 0.75 0.47 0.54 0.25 0.26 0.26 0.22 0.12 0.05 0.03 0.02 0.01 0.00
0.04 0.05 0.00 0.00 0.00 0.00 0.00 0.00 0.00 0.01 0.01 0.00 0.01 0.00 0.00 0.01 0.04 0.16 0.17 0.15 0.16 0.24 0.55 0.66 0.68 0.57 0.54 0.44 0.30 0.27 0.34 0.36 0.20 0.13 0.09 0.03 0.02 0.01 0.01 0.00 0.00 0.00 0.00 0.00
0.00 0.00 0.00 0.00 0.00 0.00 0.00 0.00 0.00 0.00 0.00 0.00 0.01 0.00 0.00 0.01 0.00 0.00 0.01 0.02 0.05 0.15 0.16 0.09 0.13 0.10 0.14 0.05 0.02 0.01 0.01 0.00 0.00 0.00 0.00 0.00 0.00 0.00 0.00 0.00 0.00 0.00 0.00 0.00
0.00 0.00 0.00 0.00 0.00 0.00 0.00 0.00 0.00 0.01 0.01 0.00 0.00 0.00 0.00 0.00 0.00 0.00 0.00 0.00 0.00 0.00 0.00 0.00 0.00 0.00 0.00 0.00 0.00 0.00 0.00 0.00 0.00 0.00 0.00 0.00 0.00 0.00 0.00 0.00 0.00 0.00 0.00 0.00
0.00 0.00 0.00 0.00 0.00 0.00 0.00 0.00 0.00 0.00 0.00 0.00 0.00 0.00 0.00 0.00 0.00 0.00 0.00 0.00 0.00 0.00 0.00 0.00 0.00 0.00 0.00 0.00 0.00 0.00 0.00 0.00 0.00 0.00 0.00 0.00 0.00 0.00 0.00 0.00 0.00 0.00 0.00 0.00
0.00 0.00 0.00 0.00 0.00 0.00 0.00 0.00 0.00 0.00 0.00 0.00 0.00 0.00 0.00 0.00 0.00 0.00 0.00 0.00 0.00 0.02 0.00 0.00 0.00 0.00 0.00 0.00 0.00 0.00 0.00 0.00 0.00 0.00 0.00 0.00 0.00 0.00 0.00 0.00 0.00 0.00 0.00 0.00
0.00 0.00 0.00 0.00 0.00 0.00 0.00 0.00 0.00 0.00 0.00 0.00 0.00 0.00 0.01 0.00 0.00 0.00 0.00 0.00 0.00 0.02 0.00 0.00 0.00 0.00 0.00 0.00 0.00 0.00 0.00 0.00 0.00 0.00 0.00 0.00 0.00 0.00 0.00 0.00 0.00 0.00 0.00 0.00
0.00 0.00 0.00 0.00 0.00 0.00 0.00 0.00 0.00 0.00 0.00 0.00 0.00 0.00 0.00 0.00 0.00 0.00 0.00 0.00 0.00 0.00 0.00 0.00 0.00 0.00 0.00 0.00 0.00 0.00 0.00 0.00 0.00 0.00 0.00 0.00 0.00 0.00 0.00 0.00 0.00 0.00 0.00 0.00
0.00 0.00 0.00 0.00 0.00 0.00 0.00 0.00 0.00 0.00 0.00 0.00 0.00 0.00 0.00 0.00 0.00 0.00 0.00 0.00 0.00 0.00 0.00 0.00 0.00 0.00 0.00 0.00 0.00 0.00 0.00 0.00 0.00 0.00 0.00 0.00 0.00 0.00 0.00 0.00 0.00 0.00 0.00 0.00
0.00 0.00 0.00 0.00 0.00 0.00 0.00 0.00 0.00 0.00 0.00 0.01 0.01 0.01 0.00 0.00 0.00 0.00 0.00 0.01 0.01 0.00 0.00 0.00 0.00 0.00 0.00 0.00 0.00 0.00 0.00 0.00 0.00 0.00 0.00 0.00 0.00 0.00 0.00 0.00 0.00 0.00 0.00 0.00
0.00 0.00 0.00 0.00 0.00 0.00 0.00 0.00 0.00 0.00 0.01 0.02 0.03 0.03 0.02 0.01 0.00 0.00 0.00 0.00 0.00 0.00 0.00 0.00 0.00 0.00 0.00 0.00 0.00 0.00 0.00 0.00 0.00 0.00 0.00 0.00 0.00 0.00 0.00 0.00 0.00 0.00 0.00 0.00
0.00 0.00 0.00 0.00 0.00 0.00 0.00 0.00 0.00 0.00 0.03 0.06 0.05 0.03 0.02 0.00 0.00 0.00 0.00 0.00 0.00 0.00 0.00 0.00 0.00 0.00 0.00 0.00 0.00 0.00 0.00 0.00 0.00 0.00 0.00 0.00 0.00 0.00 0.00 0.00 0.00 0.00 0.00 0.00
0.00 0.00 0.00 0.00 0.00 0.00 0.00 0.00 0.00 0.00 0.01 0.00 0.00 0.01 0.01 0.00 0.00 0.00 0.00 0.00 0.00 0.00 0.00 0.00 0.00 0.00 0.00 0.00 0.00 0.00 0.00 0.00 0.00 0.00 0.00 0.00 0.00 0.00 0.00 0.00 0.00 0.00 0.00 0.00
0.03 0.01 0.00 0.00 0.00 0.00 0.00 0.00 0.00 0.01 0.02 0.01 0.01 0.00 0.00 0.00 0.00 0.00 0.00 0.00 0.00 0.00 0.00 0.00 0.00 0.00 0.00 0.00 0.00 0.00 0.00 0.00 0.00 0.00 0.00 0.00 0.00 0.00 0.00 0.00 0.00 0.00 0.00 0.00
0.16 0.11 0.07 0.05 0.06 0.05 0.03 0.03 0.05 0.07 0.06 0.05 0.06 0.01 0.00 0.00 0.00 0.00 0.00 0.00 0.00 0.00 0.00 0.00 0.00 0.00 0.00 0.00 0.00 0.00 0.00 0.00 0.00 0.00 0.00 0.00 0.00 0.00 0.00 0.00 0.00 0.00 0.00 0.00
0.08 0.05 0.01 0.01 0.02 0.16 0.24 0.19 0.12 0.09 0.07 0.08 0.08 0.01 0.00 0.00 0.00 0.00 0.00 0.00 0.00 0.00 0.00 0.00 0.00 0.00 0.00 0.00 0.00 0.00 0.00 0.00 0.00 0.00 0.00 0.00 0.00 0.00 0.00 0.00 0.00 0.00 0.00 0.00
0.01 0.01 0.00 0.00 0.00 0.02 0.08 0.19 0.18 0.15 0.13 0.08 0.05 0.01 0.00 0.00 0.00 0.00 0.00 0.00 0.00 0.00 0.00 0.00 0.00 0.00 0.00 0.00 0.00 0.00 0.00 0.00 0.00 0.00 0.00 0.00 0.00 0.00 0.00 0.00 0.00 0.00 0.00 0.00
0.00 0.00 0.00 0.00 0.00 0.00 0.00 0.01 0.05 0.11 0.13 0.07 0.02 0.01 0.00 0.00 0.00 0.00 0.00 0.00 0.00 0.00 0.00 0.00 0.00 0.00 0.00 0.00 0.00 0.00 0.00 0.00 0.00 0.00 0.00 0.00 0.00 0.00 0.00 0.00 0.00 0.00 0.00 0.00
0.00 0.00 0.00 0.00 0.00 0.00 0.00 0.00 0.00 0.00 0.00 0.02 0.02 0.02 0.02 0.01 0.01 0.00 0.00 0.00 0.00 0.00 0.00 0.00 0.00 0.00 0.00 0.00 0.00 0.00 0.00 0.00 0.00 0.00 0.00 0.00 0.00 0.00 0.00 0.00 0.00 0.00 0.01 0.00
0.00 0.00 0.00 0.00 0.00 0.00 0.00 0.00 0.00 0.00 0.00 0.00 0.00 0.01 0.02 0.02 0.02 0.01 0.00 0.00 0.00 0.00 0.00 0.00 0.00 0.00 0.00 0.00 0.00 0.00 0.00 0.00 0.00 0.00 0.00 0.00 0.00 0.00 0.00 0.00 0.00 0.00 0.00 0.00
0.00 0.00 0.00 0.00 0.00 0.00 0.00 0.00 0.00 0.00 0.00 0.00 0.00 0.00 0.01 0.02 0.03 0.02 0.00 0.00 0.00 0.00 0.00 0.00 0.00 0.00 0.00 0.00 0.00 0.00 0.00 0.00 0.00 0.00 0.00 0.00 0.00 0.00 0.00 0.00 0.00 0.00 0.00 0.00

GFSNGP_prec_precacc_030.txt.gz
Total_Precipitation_Accumulation
0.12 0.22 0.58 0.38 0.14 0.10 0.37 0.18 0.23 0.08 0.04 0.04 0.04 0.05 0.05 0.04 0.03 0.03 0.03 0.02 0.02 0.00 0.00 0.01 0.05 0.23 0.17 0.14 0.20 0.19 0.16 0.13 0.09 0.08 0.08 0.07 0.05 0.05 0.06 0.04 0.04 0.03 0.06 0.13
0.34 0.25 0.35 0.27 0.07 0.11 0.12 0.04 0.04 0.02 0.04 0.05 0.05 0.03 0.08 0.06 0.02 0.01 0.00 0.00 0.00 0.00 0.00 0.00 0.03 0.08 0.15 0.24 0.15 0.18 0.11 0.11 0.08 0.08 0.08 0.09 0.08 0.04 0.07 0.06 0.06 0.09 0.08 0.08
0.48 0.18 0.19 0.26 0.08 0.06 0.09 0.07 0.03 0.04 0.05 0.07 0.25 0.45 0.39 0.10 0.04 0.02 0.02 0.00 0.00 0.00 0.00 0.00 0.01 0.10 0.50 0.63 0.29 0.28 0.15 0.17 0.17 0.13 0.20 0.20 0.15 0.12 0.10 0.13 0.21 0.20 0.18 0.18
0.82 0.44 0.44 0.25 0.10 0.14 0.15 0.12 0.06 0.05 0.07 0.08 0.13 0.18 0.12 0.04 0.02 0.02 0.01 0.01 0.00 0.00 0.00 0.00 0.02 0.27 0.82 0.86 0.28 0.25 0.21 0.33 0.57 0.47 0.52 0.59 0.75 0.62 0.63 0.51 0.39 0.40 0.45 0.46
0.42 0.30 0.15 0.04 0.07 0.11 0.09 0.08 0.03 0.03 0.02 0.01 0.04 0.13 0.14 0.04 0.02 0.02 0.01 0.01 0.01 0.00 0.00 0.02 0.05 0.18 0.34 0.74 0.92 0.72 0.62 0.80 0.80 0.70 0.73 0.83 1.05 1.12 0.78 0.91 0.71 0.57 0.43 0.37
0.14 0.20 0.08 0.02 0.01 0.02 0.02 0.01 0.00 0.00 0.01 0.00 0.00 0.04 0.22 0.29 0.12 0.05 0.02 0.01 0.01 0.01 0.02 0.04 0.03 0.08 0.20 0.35 0.93 1.20 0.79 0.80 0.87 0.73 0.69 0.82 0.88 0.79 0.62 0.48 0.48 0.38 0.26 0.18
0.11 0.14 0.01 0.00 0.00 0.00 0.00 0.00 0.00 0.00 0.00 0.00 0.00 0.00 0.01 0.16 0.24 0.16 0.10 0.07 0.09 0.09 0.17 0.22 0.17 0.32 0.49 0.49 0.81 1.09 0.85 0.83 0.62 0.65 0.34 0.44 0.46 0.39 0.24 0.21 0.18 0.14 0.10 0.05
0.04 0.06 0.00 0.00 0.00 0.00 0.00 0.00 0.00 0.01 0.01 0.00 0.01 0.00 0.00 0.01 0.04 0.16 0.17 0.15 0.16 0.24 0.55 0.66 0.68 0.58 0.54 0.44 0.31 0.33 0.43 0.45 0.28 0.22 0.19 0.14 0.14 0.16 0.12 0.07 0.04 0.01 0.00 0.00
0.00 0.00 0.00 0.00 0.00 0.00 0.00 0.00 0.00 0.00 0.00 0.00 0.01 0.00 0.00 0.01 0.00 0.00 0.01 0.02 0.05 0.15 0.16 0.09 0.13 0.10 0.14 0.05 0.02 0.02 0.02 0.01 0.01 0.01 0.01 0.00 0.00 0.00 0.00 0.00 0.00 0.00 0.00 0.00
0.00 0.00 0.00 0.00 0.00 0.00 0.00 0.00 0.00 0.01 0.01 0.00 0.00 0.00 0.00 0.00 0.00 0.00 0.00 0.00 0.00 0.00 0.00 0.00 0.00 0.00 0.00 0.00 0.00 0.00 0.00 0.00 0.00 0.00 0.00 0.00 0.00 0.00 0.00 0.00 0.00 0.00 0.00 0.00
0.00 0.00 0.00 0.00 0.00 0.00 0.00 0.00 0.00 0.00 0.00 0.00 0.00 0.00 0.00 0.00 0.00 0.00 0.00 0.00 0.00 0.00 0.00 0.00 0.00 0.00 0.00 0.00 0.00 0.00 0.00 0.00 0.00 0.00 0.00 0.00 0.00 0.00 0.00 0.00 0.00 0.00 0.00 0.00
0.00 0.00 0.00 0.00 0.00 0.00 0.00 0.00 0.00 0.00 0.00 0.00 0.00 0.00 0.00 0.00 0.00 0.00 0.00 0.00 0.00 0.02 0.00 0.00 0.00 0.00 0.00 0.00 0.00 0.00 0.00 0.00 0.00 0.00 0.00 0.00 0.00 0.00 0.00 0.00 0.00 0.00 0.00 0.00
0.00 0.00 0.00 0.00 0.00 0.00 0.00 0.00 0.00 0.00 0.00 0.00 0.00 0.00 0.01 0.00 0.00 0.00 0.00 0.00 0.00 0.02 0.00 0.00 0.00 0.00 0.00 0.00 0.00 0.00 0.00 0.00 0.00 0.00 0.00 0.00 0.00 0.00 0.00 0.00 0.00 0.00 0.00 0.00
0.00 0.00 0.00 0.00 0.00 0.00 0.00 0.00 0.00 0.00 0.00 0.00 0.00 0.00 0.00 0.00 0.00 0.00 0.00 0.00 0.00 0.00 0.00 0.00 0.00 0.00 0.00 0.00 0.00 0.00 0.00 0.00 0.00 0.00 0.00 0.00 0.00 0.00 0.00 0.00 0.00 0.00 0.00 0.00
0.00 0.00 0.00 0.00 0.00 0.00 0.00 0.00 0.00 0.00 0.00 0.00 0.00 0.00 0.00 0.00 0.00 0.00 0.00 0.00 0.00 0.00 0.00 0.00 0.00 0.00 0.00 0.00 0.00 0.00 0.00 0.00 0.00 0.00 0.00 0.00 0.00 0.00 0.00 0.00 0.00 0.00 0.00 0.00
0.00 0.00 0.00 0.00 0.00 0.00 0.00 0.00 0.00 0.00 0.00 0.01 0.01 0.01 0.00 0.00 0.00 0.00 0.00 0.01 0.02 0.01 0.00 0.00 0.00 0.00 0.00 0.00 0.00 0.00 0.00 0.00 0.00 0.00 0.00 0.00 0.00 0.00 0.00 0.00 0.00 0.00 0.00 0.00
0.00 0.00 0.00 0.00 0.00 0.00 0.00 0.00 0.00 0.00 0.01 0.02 0.03 0.03 0.02 0.02 0.01 0.00 0.00 0.00 0.01 0.00 0.00 0.00 0.00 0.00 0.00 0.00 0.00 0.00 0.00 0.00 0.00 0.00 0.00 0.00 0.00 0.00 0.00 0.00 0.00 0.00 0.00 0.00
0.00 0.00 0.00 0.00 0.00 0.00 0.00 0.00 0.00 0.00 0.03 0.06 0.05 0.03 0.02 0.01 0.00 0.00 0.00 0.00 0.00 0.00 0.00 0.00 0.00 0.00 0.00 0.00 0.00 0.00 0.00 0.00 0.00 0.00 0.00 0.00 0.00 0.00 0.00 0.00 0.00 0.00 0.00 0.00
0.00 0.00 0.00 0.00 0.00 0.00 0.00 0.00 0.00 0.00 0.01 0.00 0.00 0.01 0.01 0.02 0.00 0.00 0.00 0.00 0.00 0.00 0.00 0.00 0.00 0.00 0.00 0.00 0.00 0.00 0.00 0.00 0.00 0.00 0.00 0.00 0.00 0.00 0.00 0.00 0.00 0.00 0.00 0.00
0.03 0.02 0.01 0.00 0.00 0.00 0.00 0.00 0.00 0.01 0.02 0.01 0.01 0.00 0.00 0.00 0.00 0.00 0.00 0.00 0.00 0.00 0.00 0.00 0.00 0.00 0.00 0.00 0.00 0.00 0.00 0.00 0.00 0.00 0.00 0.00 0.00 0.00 0.00 0.00 0.00 0.00 0.00 0.00
0.17 0.19 0.17 0.19 0.19 0.12 0.05 0.03 0.05 0.07 0.06 0.05 0.07 0.04 0.02 0.00 0.00 0.00 0.00 0.00 0.00 0.00 0.00 0.00 0.00 0.00 0.00 0.00 0.00 0.00 0.00 0.00 0.00 0.00 0.00 0.00 0.00 0.00 0.00 0.00 0.00 0.00 0.00 0.00
0.08 0.06 0.03 0.06 0.06 0.16 0.24 0.20 0.13 0.10 0.09 0.08 0.10 0.06 0.03 0.01 0.00 0.00 0.00 0.00 0.00 0.00 0.00 0.00 0.00 0.00 0.00 0.00 0.00 0.00 0.00 0.00 0.00 0.00 0.00 0.00 0.00 0.00 0.00 0.00 0.00 0.00 0.00 0.00
0.01 0.01 0.00 0.00 0.00 0.02 0.08 0.21 0.20 0.17 0.18 0.16 0.13 0.09 0.04 0.01 0.00 0.00 0.00 0.00 0.00 0.00 0.00 0.00 0.00 0.00 0.00 0.00 0.00 0.00 0.00 0.00 0.00 0.00 0.00 0.00 0.00 0.00 0.00 0.00 0.00 0.00 0.00 0.00
0.00 0.00 0.00 0.00 0.00 0.00 0.00 0.01 0.06 0.14 0.20 0.16 0.11 0.09 0.05 0.02 0.00 0.00 0.00 0.00 0.00 0.00 0.00 0.00 0.00 0.00 0.00 0.00 0.00 0.00 0.00 0.00 0.00 0.00 0.00 0.00 0.00 0.00 0.00 0.00 0.00 0.00 0.00 0.00
0.00 0.00 0.00 0.00 0.00 0.00 0.00 0.00 0.00 0.00 0.01 0.03 0.05 0.06 0.07 0.04 0.01 0.00 0.00 0.00 0.00 0.00 0.00 0.00 0.00 0.00 0.00 0.00 0.00 0.00 0.00 0.00 0.00 0.00 0.00 0.00 0.00 0.00 0.00 0.00 0.00 0.00 0.01 0.00
0.00 0.00 0.00 0.00 0.00 0.00 0.00 0.00 0.00 0.00 0.00 0.00 0.00 0.01 0.02 0.03 0.03 0.02 0.01 0.01 0.00 0.00 0.00 0.00 0.00 0.00 0.00 0.00 0.00 0.00 0.00 0.00 0.00 0.00 0.00 0.00 0.00 0.00 0.00 0.00 0.00 0.00 0.00 0.00
0.00 0.00 0.00 0.00 0.00 0.00 0.00 0.00 0.00 0.00 0.00 0.00 0.00 0.00 0.01 0.02 0.03 0.03 0.02 0.00 0.00 0.00 0.00 0.00 0.00 0.00 0.00 0.00 0.00 0.00 0.00 0.00 0.00 0.00 0.00 0.00 0.00 0.00 0.00 0.00 0.00 0.00 0.00 0.00

GFSNGP_prec_precacc_033.txt.gz
Total_Precipitation_Accumulation
0.12 0.22 0.58 0.38 0.14 0.10 0.37 0.18 0.23 0.08 0.04 0.04 0.04 0.05 0.05 0.04 0.03 0.03 0.03 0.02 0.02 0.00 0.00 0.01 0.05 0.23 0.17 0.14 0.20 0.19 0.16 0.13 0.09 0.08 0.09 0.07 0.05 0.06 0.07 0.06 0.05 0.04 0.06 0.13
0.34 0.25 0.35 0.27 0.07 0.11 0.12 0.04 0.04 0.02 0.04 0.05 0.05 0.03 0.08 0.06 0.02 0.01 0.00 0.00 0.00 0.00 0.00 0.00 0.03 0.08 0.15 0.24 0.15 0.18 0.11 0.11 0.08 0.08 0.08 0.09 0.08 0.05 0.08 0.08 0.07 0.10 0.09 0.10
0.48 0.18 0.19 0.26 0.08 0.06 0.09 0.07 0.03 0.04 0.05 0.07 0.25 0.45 0.39 0.10 0.04 0.02 0.02 0.00 0.00 0.00 0.00 0.00 0.01 0.10 0.50 0.63 0.29 0.28 0.15 0.17 0.17 0.13 0.20 0.20 0.15 0.13 0.11 0.14 0.23 0.22 0.21 0.24
0.82 0.44 0.44 0.25 0.10 0.14 0.15 0.12 0.06 0.05 0.07 0.08 0.13 0.18 0.12 0.04 0.02 0.02 0.01 0.01 0.00 0.00 0.00 0.00 0.02 0.27 0.82 0.86 0.28 0.25 0.22 0.33 0.57 0.48 0.52 0.59 0.75 0.62 0.63 0.51 0.45 0.52 0.54 0.54
0.42 0.30 0.15 0.04 0.07 0.11 0.09 0.08 0.03 0.03 0.02 0.01 0.04 0.13 0.14 0.04 0.02 0.02 0.01 0.01 0.01 0.00 0.00 0.02 0.05 0.18 0.35 0.74 0.92 0.72 0.63 0.80 0.80 0.70 0.74 0.84 1.06 1.13 0.79 0.96 0.76 0.75 0.60 0.50
0.14 0.20 0.08 0.02 0.01 0.02 0.02 0.01 0.00 0.00 0.01 0.00 0.00 0.04 0.22 0.29 0.12 0.05 0.02 0.01 0.01 0.01 0.02 0.04 0.03 0.08 0.20 0.35 0.93 1.20 0.79 0.80 0.87 0.74 0.72 0.88 0.96 0.93 0.71 0.60 0.64 0.55 0.53 0.40
0.11 0.14 0.01 0.00 0.00 0.00 0.01 0.01 0.00 0.00 0.00 0.00 0.00 0.00 0.01 0.16 0.24 0.16 0.10 0.07 0.09 0.09 0.17 0.22 0.17 0.32 0.49 0.49 0.81 1.09 0.86 0.87 0.70 0.73 0.45 0.59 0.65 0.57 0.40 0.31 0.31 0.29 0.26 0.18
0.04 0.06 0.00 0.00 0.00 0.00 0.00 0.00 0.00 0.01 0.01 0.00 0.01 0.00 0.00 0.01 0.04 0.16 0.17 0.15 0.16 0.24 0.55 0.66 0.68 0.58 0.54 0.44 0.32 0.33 0.44 0.46 0.31 0.26 0.23 0.18 0.19 0.24 0.20 0.11 0.08 0.03 0.01 0.00
0.00 0.00 0.00 0.00 0.00 0.00 0.00 0.00 0.00 0.00 0.00 0.00 0.01 0.00 0.00 0.01 0.00 0.00 0.01 0.02 0.05 0.15 0.16 0.09 0.13 0.10 0.14 0.05 0.02 0.02 0.02 0.01 0.01 0.01 0.01 0.00 0.00 0.00 0.00 0.00 0.00 0.00 0.00 0.00
0.00 0.00 0.00 0.00 0.00 0.00 0.00 0.00 0.00 0.01 0.01 0.00 0.00 0.00 0.00 0.00 0.00 0.00 0.00 0.00 0.00 0.00 0.00 0.00 0.00 0.00 0.00 0.00 0.00 0.00 0.00 0.00 0.00 0.00 0.00 0.00 0.00 0.00 0.00 0.00 0.00 0.00 0.00 0.00
0.00 0.00 0.00 0.00 0.00 0.00 0.00 0.00 0.00 0.00 0.00 0.00 0.00 0.00 0.00 0.00 0.00 0.00 0.00 0.00 0.00 0.00 0.00 0.00 0.00 0.00 0.00 0.00 0.00 0.00 0.00 0.00 0.00 0.00 0.00 0.00 0.00 0.00 0.00 0.00 0.00 0.00 0.00 0.00
0.00 0.00 0.00 0.00 0.00 0.00 0.00 0.00 0.00 0.00 0.00 0.00 0.00 0.00 0.00 0.00 0.00 0.00 0.00 0.00 0.00 0.02 0.00 0.00 0.00 0.00 0.00 0.00 0.00 0.00 0.00 0.00 0.00 0.00 0.00 0.00 0.00 0.00 0.00 0.00 0.00 0.00 0.00 0.00
0.00 0.00 0.00 0.00 0.00 0.00 0.00 0.00 0.00 0.00 0.00 0.00 0.00 0.00 0.01 0.00 0.00 0.00 0.00 0.00 0.00 0.02 0.00 0.00 0.00 0.00 0.00 0.00 0.00 0.00 0.00 0.00 0.00 0.00 0.00 0.00 0.00 0.00 0.00 0.00 0.00 0.00 0.00 0.00
0.00 0.00 0.00 0.00 0.00 0.00 0.00 0.00 0.00 0.00 0.00 0.00 0.00 0.00 0.00 0.00 0.00 0.00 0.00 0.00 0.00 0.00 0.00 0.00 0.00 0.00 0.00 0.00 0.00 0.00 0.00 0.00 0.00 0.00 0.00 0.00 0.00 0.00 0.00 0.00 0.00 0.00 0.00 0.00
0.00 0.00 0.00 0.00 0.00 0.00 0.00 0.00 0.00 0.00 0.00 0.00 0.00 0.00 0.00 0.00 0.00 0.00 0.00 0.00 0.00 0.00 0.00 0.00 0.00 0.00 0.00 0.00 0.00 0.00 0.00 0.00 0.00 0.00 0.00 0.00 0.00 0.00 0.00 0.00 0.00 0.00 0.00 0.00
0.00 0.00 0.00 0.00 0.00 0.00 0.00 0.00 0.00 0.00 0.00 0.01 0.01 0.01 0.00 0.00 0.00 0.00 0.00 0.01 0.02 0.01 0.00 0.00 0.00 0.00 0.00 0.00 0.00 0.00 0.00 0.00 0.00 0.00 0.00 0.00 0.00 0.00 0.00 0.00 0.00 0.00 0.00 0.00
0.00 0.00 0.00 0.00 0.00 0.00 0.00 0.00 0.00 0.00 0.01 0.02 0.03 0.03 0.02 0.02 0.01 0.00 0.00 0.00 0.01 0.01 0.00 0.00 0.00 0.00 0.00 0.00 0.00 0.00 0.00 0.00 0.00 0.00 0.00 0.00 0.00 0.00 0.00 0.00 0.00 0.00 0.00 0.00
0.00 0.00 0.00 0.00 0.00 0.00 0.00 0.00 0.00 0.00 0.03 0.06 0.05 0.03 0.02 0.01 0.00 0.00 0.00 0.00 0.00 0.00 0.00 0.00 0.00 0.00 0.00 0.00 0.00 0.00 0.00 0.00 0.00 0.00 0.00 0.00 0.00 0.00 0.00 0.00 0.00 0.00 0.00 0.00
0.00 0.00 0.00 0.00 0.00 0.00 0.00 0.00 0.00 0.00 0.01 0.00 0.00 0.01 0.01 0.02 0.00 0.00 0.00 0.00 0.00 0.00 0.00 0.00 0.00 0.00 0.00 0.00 0.00 0.00 0.00 0.00 0.00 0.00 0.00 0.00 0.00 0.00 0.00 0.00 0.00 0.00 0.00 0.00
0.03 0.03 0.02 0.02 0.02 0.02 0.01 0.01 0.00 0.01 0.02 0.01 0.01 0.00 0.00 0.00 0.00 0.00 0.00 0.00 0.00 0.00 0.00 0.00 0.00 0.00 0.00 0.00 0.00 0.00 0.00 0.00 0.00 0.00 0.00 0.00 0.00 0.00 0.00 0.00 0.00 0.00 0.00 0.00
0.17 0.20 0.21 0.29 0.32 0.24 0.15 0.08 0.06 0.08 0.06 0.05 0.07 0.04 0.03 0.02 0.01 0.00 0.00 0.00 0.00 0.00 0.00 0.00 0.00 0.00 0.00 0.00 0.00 0.00 0.00 0.00 0.00 0.00 0.00 0.00 0.00 0.00 0.00 0.00 0.00 0.00 0.00 0.00
0.08 0.06 0.03 0.07 0.07 0.17 0.25 0.20 0.13 0.10 0.09 0.08 0.10 0.06 0.05 0.03 0.01 0.01 0.01 0.00 0.00 0.00 0.00 0.00 0.00 0.00 0.00 0.00 0.00 0.00 0.00 0.00 0.00 0.00 0.00 0.00 0.00 0.00 0.00 0.00 0.00 0.00 0.00 0.00
0.01 0.01 0.00 0.00 0.00 0.02 0.08 0.21 0.20 0.17 0.19 0.18 0.16 0.13 0.09 0.06 0.06 0.04 0.01 0.00 0.00 0.00 0.00 0.00 0.00 0.00 0.00 0.00 0.00 0.00 0.00 0.00 0.00 0.00 0.00 0.00 0.00 0.00 0.00 0.00 0.00 0.00 0.00 0.00
0.00 0.00 0.00 0.00 0.00 0.00 0.00 0.01 0.06 0.14 0.20 0.18 0.18 0.19 0.16 0.11 0.09 0.04 0.00 0.00 0.00 0.00 0.00 0.00 0.00 0.00 0.00 0.00 0.00 0.00 0.00 0.00 0.00 0.00 0.00 0.00 0.00 0.00 0.00 0.00 0.00 0.00 0.00 0.00
0.00 0.00 0.00 0.00 0.00 0.00 0.00 0.00 0.00 0.00 0.01 0.03 0.06 0.09 0.14 0.13 0.09 0.04 0.03 0.01 0.00 0.00 0.00 0.00 0.00 0.00 0.00 0.00 0.00 0.00 0.00 0.00 0.00 0.00 0.00 0.00 0.00 0.00 0.00 0.00 0.00 0.00 0.01 0.00
0.00 0.00 0.00 0.00 0.00 0.00 0.00 0.00 0.00 0.00 0.00 0.00 0.00 0.01 0.03 0.06 0.06 0.05 0.04 0.03 0.02 0.01 0.00 0.00 0.00 0.00 0.00 0.00 0.00 0.00 0.00 0.00 0.00 0.00 0.00 0.00 0.00 0.00 0.00 0.00 0.00 0.00 0.00 0.00
0.00 0.00 0.00 0.00 0.00 0.00 0.00 0.00 0.00 0.00 0.00 0.00 0.00 0.00 0.01 0.03 0.04 0.04 0.04 0.05 0.03 0.01 0.00 0.00 0.00 0.00 0.00 0.00 0.00 0.00 0.00 0.00 0.00 0.00 0.00 0.00 0.00 0.00 0.00 0.00 0.00 0.00 0.00 0.00

GFSNGP_prec_precacc_036.txt.gz
Total_Precipitation_Accumulation
0.12 0.22 0.58 0.38 0.14 0.10 0.37 0.18 0.23 0.08 0.04 0.04 0.04 0.05 0.05 0.04 0.03 0.03 0.03 0.02 0.02 0.00 0.00 0.01 0.05 0.23 0.17 0.14 0.20 0.19 0.16 0.13 0.09 0.08 0.09 0.07 0.05 0.07 0.07 0.06 0.06 0.04 0.08 0.15
0.34 0.25 0.35 0.27 0.07 0.11 0.12 0.04 0.04 0.02 0.04 0.05 0.05 0.03 0.08 0.06 0.02 0.01 0.00 0.00 0.00 0.00 0.00 0.00 0.03 0.08 0.15 0.24 0.15 0.18 0.11 0.11 0.08 0.08 0.08 0.09 0.08 0.05 0.08 0.08 0.08 0.12 0.11 0.11
0.48 0.18 0.19 0.26 0.08 0.06 0.09 0.07 0.03 0.04 0.05 0.07 0.25 0.45 0.39 0.10 0.04 0.02 0.02 0.00 0.00 0.00 0.00 0.00 0.01 0.11 0.50 0.64 0.29 0.28 0.15 0.17 0.17 0.13 0.20 0.20 0.15 0.13 0.11 0.15 0.24 0.23 0.22 0.25
0.82 0.44 0.44 0.25 0.10 0.14 0.15 0.12 0.06 0.05 0.07 0.08 0.13 0.18 0.12 0.04 0.02 0.02 0.01 0.01 0.00 0.00 0.00 0.00 0.03 0.27 0.82 0.87 0.28 0.25 0.22 0.33 0.57 0.48 0.52 0.60 0.75 0.63 0.64 0.52 0.46 0.53 0.55 0.57
0.42 0.30 0.15 0.04 0.07 0.11 0.09 0.08 0.03 0.03 0.02 0.01 0.04 0.13 0.14 0.04 0.02 0.02 0.01 0.01 0.01 0.00 0.00 0.02 0.05 0.18 0.35 0.75 0.92 0.72 0.63 0.81 0.80 0.70 0.74 0.84 1.06 1.14 0.80 0.97 0.77 0.77 0.67 0.54
0.14 0.21 0.08 0.02 0.01 0.02 0.02 0.02 0.00 0.00 0.01 0.00 0.00 0.04 0.22 0.29 0.12 0.05 0.02 0.01 0.01 0.01 0.02 0.04 0.03 0.08 0.20 0.35 0.94 1.21 0.79 0.80 0.87 0.74 0.73 0.89 0.99 0.98 0.72 0.61 0.65 0.58 0.62 0.56
0.12 0.15 0.01 0.00 0.00 0.00 0.02 0.01 0.00 0.00 0.00 0.00 0.00 0.00 0.01 0.16 0.24 0.16 0.10 0.07 0.09 0.09 0.17 0.22 0.17 0.32 0.49 0.49 0.81 1.09 0.86 0.88 0.70 0.73 0.45 0.61 0.69 0.62 0.47 0.37 0.41 0.41 0.37 0.30
0.05 0.07 0.00 0.00 0.00 0.00 0.00 0.00 0.00 0.01 0.01 0.00 0.01 0.00 0.00 0.01 0.04 0.16 0.17 0.15 0.16 0.24 0.55 0.66 0.68 0.58 0.54 0.44 0.32 0.33 0.44 0.46 0.31 0.26 0.23 0.18 0.19 0.27 0.24 0.14 0.10 0.04 0.01 0.00
0.00 0.00 0.00 0.00 0.00 0.00 0.00 0.00 0.00 0.00 0.00 0.00 0.01 0.00 0.00 0.01 0.00 0.00 0.01 0.02 0.05 0.15 0.16 0.09 0.13 0.10 0.14 0.05 0.02 0.02 0.02 0.01 0.01 0.01 0.01 0.00 0.00 0.00 0.00 0.00 0.00 0.00 0.00 0.00
0.00 0.00 0.00 0.00 0.00 0.00 0.00 0.00 0.00 0.01 0.01 0.00 0.00 0.00 0.00 0.00 0.00 0.00 0.00 0.00 0.00 0.00 0.00 0.00 0.00 0.00 0.00 0.00 0.00 0.00 0.00 0.00 0.00 0.00 0.00 0.00 0.00 0.00 0.00 0.00 0.00 0.00 0.00 0.00
0.00 0.00 0.00 0.00 0.00 0.00 0.00 0.00 0.00 0.00 0.00 0.00 0.00 0.00 0.00 0.00 0.00 0.00 0.00 0.00 0.00 0.00 0.00 0.00 0.00 0.00 0.00 0.00 0.00 0.00 0.00 0.00 0.00 0.00 0.00 0.00 0.00 0.00 0.00 0.00 0.00 0.00 0.00 0.00
0.00 0.00 0.00 0.00 0.00 0.00 0.00 0.00 0.00 0.00 0.00 0.00 0.00 0.00 0.00 0.00 0.00 0.00 0.00 0.00 0.00 0.02 0.00 0.00 0.00 0.00 0.00 0.00 0.00 0.00 0.00 0.00 0.00 0.00 0.00 0.00 0.00 0.00 0.00 0.00 0.00 0.00 0.00 0.00
0.00 0.00 0.00 0.00 0.00 0.00 0.00 0.00 0.00 0.00 0.00 0.00 0.00 0.00 0.01 0.00 0.00 0.00 0.00 0.00 0.00 0.02 0.00 0.00 0.00 0.00 0.00 0.00 0.00 0.00 0.00 0.00 0.00 0.00 0.00 0.00 0.00 0.00 0.00 0.00 0.00 0.00 0.00 0.00
0.00 0.00 0.00 0.00 0.00 0.00 0.00 0.00 0.00 0.00 0.00 0.00 0.00 0.00 0.00 0.00 0.00 0.00 0.00 0.00 0.00 0.00 0.00 0.00 0.00 0.00 0.00 0.00 0.00 0.00 0.00 0.00 0.00 0.00 0.00 0.00 0.00 0.00 0.00 0.00 0.00 0.00 0.00 0.00
0.00 0.00 0.00 0.00 0.00 0.00 0.00 0.00 0.00 0.00 0.00 0.00 0.00 0.00 0.00 0.00 0.00 0.00 0.00 0.00 0.00 0.00 0.00 0.00 0.00 0.00 0.00 0.00 0.00 0.00 0.00 0.00 0.00 0.00 0.00 0.00 0.00 0.00 0.00 0.00 0.00 0.00 0.00 0.00
0.00 0.00 0.00 0.00 0.00 0.00 0.00 0.00 0.00 0.00 0.00 0.01 0.01 0.01 0.00 0.00 0.00 0.00 0.00 0.01 0.02 0.01 0.00 0.00 0.00 0.00 0.00 0.00 0.00 0.00 0.00 0.00 0.00 0.00 0.00 0.00 0.00 0.00 0.00 0.00 0.00 0.00 0.00 0.00
0.00 0.00 0.00 0.00 0.00 0.00 0.00 0.00 0.00 0.00 0.01 0.02 0.03 0.03 0.02 0.02 0.01 0.00 0.00 0.00 0.01 0.01 0.00 0.00 0.00 0.00 0.00 0.00 0.00 0.00 0.00 0.00 0.00 0.00 0.00 0.00 0.00 0.00 0.00 0.00 0.00 0.00 0.00 0.00
0.00 0.00 0.00 0.00 0.00 0.00 0.00 0.00 0.00 0.00 0.03 0.06 0.05 0.03 0.02 0.01 0.00 0.00 0.00 0.00 0.00 0.00 0.00 0.00 0.00 0.00 0.00 0.00 0.00 0.00 0.00 0.00 0.00 0.00 0.00 0.00 0.00 0.00 0.00 0.00 0.00 0.00 0.00 0.00
0.00 0.00 0.00 0.00 0.00 0.00 0.00 0.00 0.00 0.00 0.01 0.00 0.00 0.01 0.01 0.02 0.00 0.00 0.00 0.00 0.00 0.00 0.01 0.01 0.01 0.00 0.00 0.00 0.00 0.00 0.00 0.00 0.00 0.00 0.00 0.00 0.00 0.00 0.00 0.00 0.00 0.00 0.00 0.00
0.03 0.03 0.02 0.03 0.05 0.07 0.06 0.03 0.01 0.02 0.03 0.01 0.01 0.00 0.00 0.00 0.00 0.00 0.00 0.00 0.00 0.00 0.01 0.01 0.01 0.00 0.00 0.00 0.00 0.00 0.00 0.00 0.00 0.00 0.00 0.00 0.00 0.00 0.00 0.00 0.00 0.00 0.00 0.00
0.17 0.20 0.21 0.32 0.34 0.27 0.19 0.12 0.10 0.09 0.06 0.05 0.07 0.04 0.03 0.02 0.01 0.01 0.00 0.00 0.00 0.00 0.00 0.00 0.00 0.00 0.00 0.00 0.00 0.00 0.00 0.00 0.00 0.00 0.00 0.00 0.00 0.00 0.00 0.00 0.00 0.00 0.00 0.00
0.08 0.06 0.03 0.07 0.07 0.17 0.25 0.21 0.13 0.10 0.09 0.08 0.10 0.06 0.05 0.03 0.02 0.01 0.03 0.04 0.03 0.00 0.00 0.00 0.00 0.00 0.00 0.00 0.00 0.00 0.00 0.00 0.00 0.00 0.00 0.00 0.00 0.00 0.00 0.00 0.00 0.00 0.00 0.00
0.01 0.01 0.00 0.00 0.00 0.02 0.08 0.21 0.20 0.17 0.19 0.18 0.16 0.13 0.10 0.09 0.09 0.09 0.10 0.11 0.06 0.00 0.00 0.00 0.00 0.00 0.00 0.00 0.00 0.00 0.00 0.00 0.00 0.00 0.00 0.00 0.00 0.00 0.00 0.00 0.00 0.00 0.00 0.00
0.00 0.00 0.00 0.00 0.00 0.00 0.00 0.01 0.06 0.14 0.20 0.18 0.18 0.20 0.19 0.17 0.16 0.14 0.11 0.08 0.04 0.02 0.01 0.00 0.00 0.00 0.00 0.00 0.00 0.00 0.00 0.00 0.00 0.00 0.00 0.00 0.00 0.00 0.00 0.00 0.00 0.00 0.00 0.00
0.00 0.00 0.00 0.00 0.00 0.00 0.00 0.00 0.00 0.00 0.01 0.03 0.06 0.10 0.15 0.15 0.13 0.10 0.07 0.04 0.05 0.05 0.01 0.00 0.00 0.00 0.00 0.00 0.00 0.00 0.00 0.00 0.00 0.00 0.00 0.00 0.00 0.00 0.00 0.00 0.00 0.00 0.01 0.00
0.00 0.00 0.00 0.00 0.00 0.00 0.00 0.00 0.00 0.00 0.00 0.00 0.00 0.01 0.04 0.07 0.08 0.07 0.08 0.10 0.08 0.07 0.02 0.01 0.00 0.00 0.00 0.00 0.00 0.00 0.00 0.00 0.00 0.00 0.00 0.00 0.00 0.00 0.00 0.00 0.00 0.00 0.00 0.00
0.00 0.00 0.00 0.00 0.00 0.00 0.00 0.00 0.00 0.00 0.00 0.00 0.00 0.00 0.01 0.03 0.06 0.06 0.06 0.11 0.12 0.08 0.01 0.00 0.00 0.00 0.00 0.00 0.00 0.00 0.00 0.00 0.00 0.00 0.00 0.00 0.00 0.00 0.00 0.00 0.00 0.00 0.00 0.00

GFSNGP_prec_precacc_042.txt.gz
Total_Precipitation_Accumulation
0.12 0.22 0.58 0.38 0.14 0.10 0.37 0.18 0.23 0.08 0.04 0.04 0.04 0.05 0.05 0.04 0.03 0.03 0.03 0.02 0.02 0.00 0.00 0.01 0.05 0.23 0.17 0.14 0.20 0.19 0.16 0.13 0.09 0.08 0.09 0.07 0.05 0.07 0.07 0.06 0.06 0.04 0.08 0.15
0.34 0.25 0.35 0.27 0.07 0.11 0.12 0.04 0.04 0.02 0.04 0.05 0.05 0.03 0.08 0.06 0.02 0.01 0.00 0.00 0.00 0.00 0.00 0.00 0.03 0.08 0.15 0.24 0.15 0.18 0.11 0.11 0.08 0.08 0.08 0.09 0.08 0.05 0.08 0.08 0.08 0.12 0.11 0.11
0.48 0.18 0.19 0.26 0.08 0.06 0.09 0.07 0.03 0.04 0.05 0.07 0.25 0.45 0.39 0.10 0.04 0.02 0.02 0.00 0.00 0.00 0.00 0.00 0.01 0.11 0.51 0.64 0.29 0.28 0.15 0.17 0.17 0.13 0.20 0.20 0.15 0.13 0.11 0.15 0.24 0.23 0.22 0.26
0.82 0.44 0.44 0.25 0.10 0.14 0.15 0.12 0.06 0.05 0.07 0.08 0.13 0.18 0.12 0.04 0.02 0.02 0.01 0.01 0.00 0.00 0.00 0.00 0.03 0.28 0.83 0.87 0.28 0.25 0.22 0.33 0.57 0.48 0.52 0.60 0.75 0.63 0.64 0.52 0.46 0.54 0.56 0.58
0.42 0.30 0.15 0.04 0.07 0.11 0.09 0.08 0.03 0.03 0.02 0.01 0.04 0.13 0.14 0.04 0.02 0.02 0.01 0.01 0.01 0.00 0.00 0.02 0.05 0.18 0.35 0.75 0.92 0.72 0.63 0.81 0.80 0.70 0.74 0.84 1.06 1.14 0.80 0.97 0.78 0.78 0.68 0.55
0.14 0.21 0.08 0.02 0.01 0.02 0.02 0.02 0.00 0.00 0.01 0.00 0.00 0.04 0.22 0.29 0.12 0.05 0.02 0.01 0.01 0.01 0.02 0.04 0.03 0.08 0.20 0.35 0.94 1.21 0.79 0.81 0.88 0.75 0.73 0.89 0.99 0.98 0.72 0.61 0.65 0.58 0.63 0.60
0.12 0.15 0.01 0.00 0.00 0.00 0.03 0.02 0.00 0.00 0.00 0.00 0.00 0.00 0.01 0.16 0.24 0.16 0.10 0.07 0.09 0.09 0.17 0.22 0.17 0.32 0.49 0.49 0.81 1.10 0.86 0.88 0.70 0.73 0.45 0.61 0.69 0.62 0.47 0.37 0.42 0.43 0.39 0.32
0.05 0.07 0.00 0.00 0.00 0.00 0.00 0.00 0.00 0.01 0.01 0.00 0.01 0.00 0.00 0.01 0.04 0.16 0.17 0.15 0.16 0.24 0.55 0.66 0.68 0.58 0.54 0.44 0.32 0.33 0.44 0.46 0.31 0.26 0.23 0.18 0.19 0.27 0.24 0.14 0.10 0.04 0.01 0.00
0.00 0.00 0.00 0.00 0.00 0.00 0.00 0.00 0.00 0.00 0.00 0.00 0.01 0.00 0.00 0.01 0.00 0.00 0.01 0.02 0.05 0.15 0.16 0.09 0.13 0.10 0.14 0.05 0.02 0.02 0.02 0.01 0.01 0.01 0.01 0.00 0.00 0.00 0.00 0.00 0.00 0.00 0.00 0.00
0.00 0.00 0.00 0.00 0.00 0.00 0.00 0.00 0.00 0.01 0.01 0.00 0.00 0.00 0.00 0.00 0.00 0.00 0.00 0.00 0.00 0.00 0.00 0.00 0.00 0.00 0.00 0.00 0.00 0.00 0.00 0.00 0.00 0.00 0.00 0.00 0.00 0.00 0.00 0.00 0.00 0.00 0.00 0.00
0.00 0.00 0.00 0.00 0.00 0.00 0.00 0.00 0.00 0.00 0.00 0.00 0.00 0.00 0.00 0.00 0.00 0.00 0.00 0.00 0.00 0.00 0.00 0.00 0.00 0.00 0.00 0.00 0.00 0.00 0.00 0.00 0.00 0.00 0.00 0.00 0.00 0.00 0.00 0.00 0.00 0.00 0.00 0.00
0.00 0.00 0.00 0.00 0.00 0.00 0.00 0.00 0.00 0.00 0.00 0.00 0.00 0.00 0.00 0.00 0.00 0.00 0.00 0.00 0.00 0.02 0.00 0.00 0.00 0.00 0.00 0.00 0.00 0.00 0.00 0.00 0.00 0.00 0.00 0.00 0.00 0.00 0.00 0.00 0.00 0.00 0.00 0.00
0.00 0.00 0.00 0.00 0.00 0.00 0.00 0.00 0.00 0.00 0.00 0.00 0.00 0.00 0.01 0.00 0.00 0.00 0.00 0.00 0.00 0.02 0.00 0.00 0.00 0.00 0.00 0.00 0.00 0.00 0.00 0.00 0.00 0.00 0.00 0.00 0.00 0.00 0.00 0.00 0.00 0.00 0.00 0.00
0.00 0.00 0.00 0.00 0.00 0.00 0.00 0.00 0.00 0.00 0.00 0.00 0.00 0.00 0.00 0.00 0.00 0.00 0.00 0.00 0.00 0.00 0.00 0.00 0.00 0.00 0.00 0.00 0.00 0.00 0.00 0.00 0.00 0.00 0.00 0.00 0.00 0.00 0.00 0.00 0.00 0.00 0.00 0.00
0.00 0.00 0.00 0.00 0.00 0.00 0.00 0.00 0.00 0.00 0.00 0.00 0.00 0.00 0.00 0.00 0.00 0.00 0.00 0.00 0.00 0.00 0.00 0.00 0.00 0.00 0.00 0.00 0.00 0.00 0.00 0.00 0.00 0.00 0.00 0.00 0.00 0.00 0.00 0.00 0.00 0.00 0.00 0.00
0.00 0.00 0.00 0.00 0.00 0.00 0.00 0.00 0.00 0.00 0.00 0.01 0.01 0.01 0.00 0.00 0.00 0.00 0.00 0.01 0.02 0.01 0.00 0.00 0.00 0.00 0.00 0.00 0.00 0.00 0.00 0.00 0.00 0.00 0.00 0.00 0.00 0.00 0.00 0.00 0.00 0.00 0.00 0.00
0.00 0.00 0.00 0.00 0.00 0.00 0.00 0.00 0.00 0.00 0.01 0.02 0.03 0.03 0.02 0.02 0.01 0.00 0.00 0.00 0.01 0.01 0.00 0.00 0.00 0.00 0.00 0.00 0.00 0.00 0.00 0.00 0.00 0.00 0.00 0.00 0.00 0.00 0.00 0.00 0.00 0.00 0.00 0.00
0.00 0.00 0.00 0.00 0.00 0.00 0.00 0.00 0.00 0.00 0.03 0.06 0.05 0.03 0.02 0.01 0.00 0.00 0.00 0.00 0.00 0.00 0.00 0.00 0.00 0.00 0.00 0.00 0.00 0.00 0.00 0.00 0.00 0.00 0.00 0.00 0.00 0.00 0.00 0.00 0.00 0.00 0.00 0.00
0.00 0.00 0.00 0.00 0.00 0.00 0.00 0.00 0.00 0.00 0.01 0.00 0.00 0.01 0.01 0.02 0.00 0.00 0.00 0.00 0.00 0.00 0.01 0.01 0.02 0.01 0.01 0.01 0.00 0.00 0.00 0.00 0.00 0.00 0.00 0.00 0.00 0.00 0.00 0.00 0.00 0.00 0.00 0.00
0.03 0.03 0.02 0.03 0.05 0.08 0.08 0.06 0.06 0.06 0.05 0.02 0.01 0.00 0.00 0.00 0.00 0.00 0.00 0.00 0.00 0.00 0.01 0.01 0.02 0.02 0.01 0.01 0.01 0.00 0.00 0.00 0.00 0.00 0.00 0.00 0.00 0.00 0.00 0.00 0.00 0.00 0.00 0.00
0.17 0.20 0.21 0.32 0.34 0.27 0.19 0.15 0.12 0.11 0.07 0.06 0.07 0.05 0.03 0.02 0.01 0.01 0.00 0.00 0.00 0.00 0.00 0.01 0.02 0.02 0.01 0.01 0.01 0.00 0.00 0.00 0.00 0.00 0.00 0.00 0.00 0.00 0.00 0.00 0.00 0.00 0.00 0.00
0.08 0.06 0.03 0.07 0.07 0.17 0.25 0.21 0.13 0.10 0.09 0.08 0.10 0.06 0.05 0.03 0.02 0.01 0.03 0.04 0.04 0.02 0.02 0.03 0.03 0.03 0.04 0.04 0.01 0.00 0.00 0.00 0.00 0.00 0.00 0.00 0.00 0.00 0.00 0.00 0.00 0.00 0.00 0.00
0.01 0.01 0.00 0.00 0.00 0.02 0.08 0.21 0.20 0.17 0.19 0.18 0.16 0.13 0.10 0.09 0.09 0.09 0.11 0.13 0.12 0.04 0.03 0.07 0.09 0.09 0.08 0.03 0.00 0.00 0.00 0.00 0.00 0.00 0.00 0.00 0.00 0.00 0.00 0.00 0.00 0.00 0.00 0.00
0.00 0.00 0.01 0.00 0.00 0.00 0.00 0.01 0.06 0.14 0.20 0.18 0.18 0.20 0.19 0.17 0.16 0.15 0.13 0.13 0.12 0.10 0.13 0.16 0.13 0.08 0.05 0.02 0.02 0.00 0.00 0.00 0.00 0.00 0.00 0.00 0.00 0.00 0.00 0.00 0.00 0.00 0.00 0.00
0.00 0.00 0.00 0.00 0.00 0.00 0.00 0.00 0.00 0.00 0.01 0.03 0.06 0.10 0.15 0.15 0.13 0.11 0.07 0.06 0.11 0.17 0.19 0.18 0.13 0.09 0.07 0.06 0.04 0.01 0.00 0.00 0.00 0.00 0.00 0.00 0.00 0.00 0.00 0.00 0.00 0.00 0.01 0.00
0.00 0.00 0.00 0.00 0.00 0.00 0.00 0.00 0.00 0.00 0.00 0.00 0.00 0.01 0.04 0.07 0.08 0.08 0.08 0.11 0.12 0.15 0.12 0.13 0.13 0.11 0.07 0.06 0.02 0.00 0.00 0.00 0.00 0.00 0.00 0.00 0.00 0.00 0.00 0.00 0.00 0.00 0.00 0.00
0.00 0.00 0.00 0.00 0.00 0.00 0.00 0.00 0.00 0.00 0.00 0.00 0.00 0.00 0.01 0.03 0.06 0.07 0.07 0.13 0.15 0.13 0.06 0.05 0.06 0.06 0.05 0.05 0.02 0.01 0.01 0.01 0.00 0.00 0.00 0.00 0.00 0.00 0.00 0.00 0.00 0.00 0.00 0.00

GFSNGP_prec_precacc_048.txt.gz
Total_Precipitation_Accumulation
0.12 0.22 0.58 0.38 0.14 0.10 0.37 0.18 0.24 0.08 0.04 0.04 0.04 0.05 0.05 0.04 0.03 0.03 0.03 0.02 0.02 0.00 0.00 0.01 0.05 0.23 0.17 0.14 0.20 0.19 0.16 0.13 0.09 0.08 0.09 0.07 0.05 0.07 0.07 0.06 0.06 0.04 0.08 0.15
0.34 0.25 0.35 0.27 0.07 0.11 0.12 0.04 0.04 0.02 0.04 0.05 0.05 0.03 0.08 0.06 0.02 0.01 0.00 0.00 0.00 0.00 0.00 0.00 0.03 0.08 0.15 0.24 0.15 0.18 0.11 0.11 0.08 0.08 0.08 0.09 0.08 0.05 0.08 0.08 0.08 0.12 0.11 0.11
0.48 0.18 0.19 0.26 0.08 0.06 0.09 0.07 0.03 0.04 0.05 0.07 0.25 0.45 0.39 0.10 0.04 0.02 0.02 0.00 0.00 0.00 0.00 0.00 0.01 0.11 0.51 0.64 0.29 0.28 0.15 0.17 0.17 0.13 0.20 0.20 0.15 0.13 0.11 0.15 0.24 0.23 0.22 0.26
0.82 0.44 0.44 0.25 0.10 0.14 0.15 0.12 0.06 0.05 0.07 0.08 0.13 0.18 0.12 0.04 0.02 0.02 0.01 0.01 0.00 0.00 0.00 0.00 0.03 0.28 0.83 0.87 0.28 0.25 0.22 0.33 0.57 0.48 0.52 0.60 0.75 0.63 0.64 0.52 0.46 0.54 0.56 0.58
0.42 0.30 0.15 0.04 0.07 0.11 0.09 0.08 0.03 0.03 0.02 0.01 0.04 0.13 0.14 0.04 0.02 0.02 0.01 0.01 0.01 0.00 0.00 0.02 0.05 0.18 0.35 0.75 0.92 0.72 0.63 0.81 0.80 0.70 0.74 0.84 1.06 1.14 0.80 0.97 0.78 0.78 0.68 0.55
0.15 0.21 0.08 0.02 0.01 0.02 0.02 0.02 0.00 0.00 0.01 0.00 0.00 0.04 0.22 0.29 0.12 0.05 0.02 0.01 0.01 0.01 0.02 0.04 0.03 0.08 0.20 0.35 0.94 1.21 0.79 0.81 0.88 0.75 0.73 0.89 0.99 0.98 0.72 0.61 0.65 0.58 0.63 0.60
0.13 0.15 0.01 0.00 0.00 0.00 0.03 0.02 0.00 0.00 0.00 0.00 0.00 0.00 0.01 0.16 0.24 0.16 0.10 0.07 0.09 0.09 0.17 0.22 0.17 0.32 0.49 0.49 0.81 1.10 0.86 0.88 0.70 0.73 0.45 0.61 0.69 0.62 0.47 0.37 0.42 0.43 0.39 0.32
0.06 0.08 0.00 0.00 0.00 0.00 0.00 0.00 0.00 0.01 0.01 0.00 0.01 0.00 0.00 0.01 0.04 0.16 0.17 0.15 0.16 0.24 0.55 0.66 0.68 0.58 0.54 0.44 0.32 0.33 0.44 0.46 0.31 0.26 0.23 0.18 0.19 0.27 0.24 0.14 0.10 0.04 0.01 0.00
0.00 0.00 0.00 0.00 0.00 0.00 0.00 0.00 0.00 0.00 0.00 0.00 0.01 0.00 0.00 0.01 0.00 0.00 0.01 0.02 0.05 0.15 0.16 0.09 0.13 0.10 0.14 0.05 0.02 0.02 0.02 0.01 0.01 0.01 0.01 0.00 0.00 0.00 0.00 0.00 0.00 0.00 0.00 0.00
0.00 0.00 0.00 0.00 0.00 0.00 0.00 0.00 0.00 0.01 0.01 0.00 0.00 0.00 0.01 0.02 0.02 0.02 0.00 0.00 0.00 0.00 0.00 0.00 0.00 0.00 0.00 0.00 0.00 0.00 0.00 0.00 0.00 0.00 0.00 0.00 0.00 0.00 0.00 0.00 0.00 0.00 0.00 0.00
0.00 0.00 0.00 0.00 0.00 0.00 0.00 0.00 0.00 0.00 0.00 0.00 0.00 0.00 0.00 0.00 0.01 0.02 0.03 0.02 0.00 0.00 0.00 0.00 0.00 0.00 0.00 0.00 0.00 0.00 0.00 0.00 0.00 0.00 0.00 0.00 0.00 0.00 0.00 0.00 0.00 0.00 0.00 0.00
0.00 0.00 0.00 0.00 0.00 0.00 0.00 0.00 0.00 0.00 0.00 0.00 0.00 0.00 0.00 0.00 0.00 0.00 0.01 0.01 0.01 0.02 0.00 0.00 0.00 0.00 0.00 0.00 0.00 0.00 0.00 0.00 0.00 0.00 0.00 0.00 0.00 0.00 0.00 0.00 0.00 0.00 0.00 0.00
0.00 0.00 0.00 0.00 0.00 0.00 0.00 0.00 0.00 0.00 0.00 0.00 0.00 0.00 0.01 0.00 0.00 0.00 0.00 0.00 0.00 0.03 0.00 0.00 0.00 0.00 0.00 0.00 0.00 0.00 0.00 0.00 0.00 0.00 0.00 0.00 0.00 0.00 0.00 0.00 0.00 0.00 0.00 0.00
0.01 0.00 0.00 0.00 0.00 0.00 0.00 0.00 0.00 0.00 0.00 0.00 0.00 0.00 0.00 0.00 0.00 0.00 0.00 0.00 0.00 0.00 0.00 0.00 0.00 0.00 0.00 0.00 0.00 0.00 0.00 0.00 0.00 0.00 0.00 0.00 0.00 0.00 0.00 0.00 0.00 0.00 0.00 0.00
0.01 0.01 0.01 0.00 0.00 0.00 0.00 0.00 0.00 0.00 0.00 0.00 0.00 0.00 0.00 0.00 0.00 0.00 0.00 0.00 0.00 0.00 0.00 0.00 0.00 0.00 0.00 0.00 0.00 0.00 0.00 0.00 0.00 0.00 0.00 0.00 0.00 0.00 0.00 0.00 0.00 0.00 0.00 0.00
0.13 0.04 0.02 0.02 0.00 0.00 0.00 0.00 0.00 0.00 0.00 0.01 0.01 0.01 0.00 0.00 0.00 0.00 0.00 0.01 0.02 0.01 0.00 0.00 0.00 0.00 0.00 0.00 0.00 0.00 0.00 0.00 0.00 0.00 0.00 0.00 0.00 0.00 0.00 0.00 0.00 0.00 0.00 0.00
0.27 0.10 0.03 0.02 0.00 0.00 0.00 0.00 0.00 0.00 0.01 0.02 0.03 0.03 0.02 0.02 0.01 0.00 0.00 0.00 0.01 0.01 0.00 0.00 0.00 0.00 0.00 0.00 0.01 0.02 0.01 0.01 0.00 0.00 0.00 0.00 0.00 0.00 0.00 0.00 0.00 0.00 0.00 0.00
0.13 0.05 0.01 0.00 0.00 0.00 0.00 0.00 0.00 0.00 0.03 0.06 0.05 0.03 0.02 0.01 0.00 0.00 0.00 0.00 0.00 0.00 0.00 0.00 0.00 0.00 0.00 0.00 0.00 0.00 0.00 0.00 0.00 0.00 0.00 0.00 0.00 0.00 0.00 0.00 0.00 0.00 0.00 0.00
0.01 0.01 0.00 0.00 0.00 0.00 0.00 0.00 0.00 0.00 0.01 0.00 0.00 0.01 0.01 0.02 0.00 0.00 0.00 0.00 0.00 0.00 0.01 0.01 0.02 0.01 0.01 0.01 0.01 0.00 0.00 0.00 0.00 0.00 0.00 0.00 0.00 0.00 0.00 0.00 0.00 0.00 0.00 0.00
0.23 0.10 0.03 0.03 0.05 0.08 0.08 0.06 0.06 0.06 0.05 0.02 0.01 0.00 0.00 0.00 0.00 0.00 0.00 0.00 0.00 0.00 0.01 0.01 0.03 0.02 0.01 0.01 0.01 0.01 0.01 0.01 0.01 0.01 0.01 0.01 0.00 0.00 0.00 0.00 0.00 0.00 0.00 0.00
0.44 0.40 0.27 0.32 0.34 0.27 0.19 0.15 0.12 0.11 0.07 0.06 0.07 0.05 0.03 0.02 0.01 0.01 0.00 0.00 0.00 0.00 0.01 0.01 0.02 0.03 0.02 0.02 0.02 0.02 0.05 0.06 0.05 0.03 0.02 0.02 0.01 0.00 0.00 0.00 0.00 0.00 0.00 0.00
0.18 0.21 0.18 0.08 0.07 0.17 0.25 0.21 0.13 0.10 0.09 0.08 0.10 0.06 0.05 0.03 0.02 0.01 0.03 0.04 0.04 0.02 0.02 0.03 0.03 0.03 0.04 0.06 0.05 0.06 0.12 0.10 0.08 0.07 0.04 0.03 0.02 0.00 0.00 0.00 0.00 0.00 0.00 0.00
0.04 0.06 0.04 0.01 0.01 0.02 0.08 0.21 0.20 0.17 0.19 0.18 0.16 0.13 0.10 0.09 0.09 0.09 0.11 0.13 0.12 0.04 0.03 0.07 0.10 0.11 0.11 0.10 0.07 0.11 0.15 0.12 0.10 0.07 0.05 0.02 0.01 0.00 0.00 0.00 0.00 0.00 0.00 0.00
0.08 0.08 0.09 0.07 0.02 0.00 0.00 0.01 0.06 0.14 0.20 0.18 0.18 0.20 0.19 0.17 0.16 0.15 0.13 0.13 0.12 0.11 0.14 0.18 0.16 0.14 0.13 0.10 0.14 0.18 0.17 0.15 0.12 0.09 0.05 0.01 0.00 0.00 0.00 0.00 0.00 0.00 0.00 0.00
0.15 0.13 0.12 0.10 0.07 0.03 0.00 0.00 0.00 0.00 0.01 0.03 0.06 0.10 0.15 0.15 0.13 0.11 0.07 0.06 0.11 0.17 0.19 0.19 0.16 0.14 0.13 0.16 0.21 0.18 0.16 0.14 0.11 0.06 0.02 0.01 0.00 0.00 0.00 0.00 0.00 0.00 0.01 0.00
0.02 0.00 0.01 0.02 0.03 0.02 0.00 0.00 0.00 0.00 0.00 0.00 0.00 0.01 0.04 0.07 0.08 0.08 0.08 0.11 0.12 0.15 0.13 0.13 0.14 0.13 0.11 0.14 0.12 0.09 0.08 0.07 0.06 0.05 0.02 0.01 0.00 0.00 0.00 0.00 0.00 0.00 0.00 0.00
0.04 0.02 0.00 0.00 0.00 0.00 0.00 0.00 0.00 0.00 0.00 0.00 0.00 0.00 0.01 0.03 0.06 0.07 0.07 0.13 0.15 0.13 0.07 0.05 0.07 0.07 0.07 0.07 0.04 0.03 0.03 0.01 0.01 0.00 0.00 0.00 0.00 0.00 0.00 0.00 0.00 0.00 0.00 0.00

GFSNGP_prec_precacc_051.txt.gz
Total_Precipitation_Accumulation
0.12 0.22 0.58 0.38 0.14 0.10 0.38 0.18 0.25 0.09 0.04 0.04 0.04 0.05 0.05 0.04 0.03 0.03 0.03 0.02 0.02 0.00 0.00 0.01 0.05 0.23 0.17 0.14 0.20 0.19 0.16 0.13 0.09 0.08 0.09 0.07 0.05 0.07 0.07 0.06 0.06 0.04 0.08 0.15
0.34 0.25 0.35 0.27 0.07 0.11 0.12 0.04 0.04 0.02 0.04 0.05 0.05 0.03 0.08 0.06 0.02 0.01 0.00 0.00 0.00 0.00 0.00 0.00 0.03 0.08 0.15 0.24 0.15 0.18 0.11 0.11 0.08 0.08 0.08 0.09 0.08 0.05 0.08 0.08 0.08 0.12 0.11 0.11
0.48 0.18 0.19 0.26 0.08 0.06 0.09 0.07 0.03 0.04 0.05 0.07 0.25 0.45 0.39 0.10 0.04 0.02 0.02 0.00 0.00 0.00 0.00 0.00 0.01 0.11 0.51 0.64 0.29 0.28 0.15 0.17 0.17 0.13 0.20 0.20 0.15 0.13 0.11 0.15 0.24 0.23 0.22 0.26
0.82 0.44 0.44 0.25 0.10 0.14 0.15 0.12 0.06 0.05 0.07 0.08 0.13 0.18 0.12 0.04 0.02 0.02 0.01 0.01 0.00 0.00 0.00 0.00 0.03 0.28 0.83 0.87 0.28 0.25 0.22 0.33 0.57 0.48 0.52 0.60 0.75 0.63 0.64 0.52 0.46 0.54 0.56 0.58
0.42 0.30 0.15 0.04 0.07 0.11 0.09 0.08 0.03 0.03 0.02 0.01 0.04 0.13 0.14 0.04 0.02 0.02 0.01 0.01 0.01 0.00 0.00 0.02 0.05 0.18 0.35 0.75 0.92 0.72 0.63 0.81 0.80 0.70 0.74 0.84 1.06 1.14 0.80 0.97 0.78 0.78 0.68 0.55
0.15 0.21 0.08 0.02 0.01 0.02 0.02 0.02 0.00 0.00 0.01 0.00 0.00 0.04 0.22 0.29 0.12 0.05 0.02 0.01 0.01 0.01 0.02 0.04 0.03 0.08 0.20 0.35 0.94 1.21 0.79 0.81 0.88 0.75 0.73 0.89 0.99 0.98 0.72 0.61 0.65 0.58 0.63 0.60
0.13 0.16 0.01 0.00 0.00 0.00 0.03 0.02 0.00 0.00 0.00 0.00 0.00 0.00 0.01 0.16 0.24 0.16 0.10 0.07 0.09 0.09 0.17 0.22 0.17 0.32 0.49 0.49 0.81 1.10 0.86 0.88 0.70 0.73 0.45 0.61 0.69 0.62 0.47 0.37 0.42 0.43 0.39 0.32
0.06 0.09 0.00 0.00 0.00 0.00 0.00 0.00 0.00 0.01 0.01 0.00 0.01 0.00 0.00 0.01 0.04 0.16 0.17 0.15 0.16 0.24 0.55 0.66 0.68 0.58 0.54 0.44 0.32 0.33 0.44 0.46 0.31 0.26 0.23 0.18 0.19 0.27 0.24 0.14 0.10 0.04 0.01 0.00
0.00 0.00 0.00 0.00 0.00 0.00 0.00 0.00 0.00 0.00 0.00 0.00 0.01 0.00 0.00 0.01 0.00 0.00 0.01 0.02 0.05 0.15 0.16 0.09 0.13 0.10 0.14 0.05 0.02 0.02 0.02 0.01 0.01 0.01 0.01 0.00 0.00 0.00 0.00 0.00 0.00 0.00 0.00 0.00
0.00 0.00 0.00 0.00 0.00 0.00 0.00 0.00 0.00 0.01 0.01 0.00 0.00 0.00 0.01 0.02 0.02 0.03 0.02 0.00 0.00 0.00 0.00 0.00 0.00 0.00 0.00 0.00 0.00 0.00 0.00 0.00 0.00 0.00 0.00 0.00 0.00 0.00 0.00 0.00 0.00 0.00 0.00 0.00
0.00 0.00 0.00 0.00 0.00 0.00 0.00 0.00 0.00 0.00 0.00 0.00 0.00 0.00 0.00 0.00 0.01 0.02 0.06 0.07 0.04 0.01 0.01 0.00 0.00 0.00 0.00 0.00 0.00 0.00 0.00 0.00 0.00 0.00 0.00 0.00 0.00 0.00 0.00 0.00 0.00 0.00 0.00 0.00
0.00 0.00 0.00 0.00 0.00 0.00 0.00 0.00 0.00 0.00 0.00 0.00 0.00 0.00 0.00 0.00 0.00 0.00 0.01 0.02 0.06 0.11 0.09 0.04 0.01 0.00 0.00 0.00 0.00 0.00 0.00 0.00 0.00 0.00 0.00 0.00 0.00 0.00 0.00 0.00 0.00 0.00 0.00 0.00
0.00 0.00 0.00 0.00 0.00 0.00 0.00 0.00 0.00 0.00 0.00 0.00 0.00 0.00 0.01 0.00 0.00 0.00 0.00 0.00 0.00 0.03 0.03 0.02 0.01 0.00 0.00 0.00 0.00 0.00 0.00 0.00 0.00 0.00 0.00 0.00 0.00 0.00 0.00 0.00 0.00 0.00 0.00 0.00
0.01 0.00 0.00 0.00 0.00 0.00 0.00 0.00 0.00 0.00 0.00 0.00 0.00 0.00 0.00 0.00 0.00 0.00 0.00 0.00 0.00 0.00 0.00 0.00 0.00 0.01 0.01 0.00 0.00 0.00 0.00 0.00 0.00 0.00 0.00 0.00 0.00 0.00 0.00 0.00 0.00 0.00 0.00 0.00
0.01 0.01 0.01 0.01 0.00 0.00 0.00 0.00 0.00 0.00 0.00 0.00 0.00 0.00 0.00 0.00 0.00 0.00 0.00 0.00 0.00 0.00 0.00 0.00 0.00 0.00 0.00 0.00 0.00 0.00 0.00 0.00 0.00 0.00 0.00 0.00 0.00 0.00 0.00 0.00 0.00 0.00 0.00 0.00
0.13 0.06 0.05 0.03 0.02 0.02 0.00 0.00 0.00 0.00 0.00 0.01 0.01 0.01 0.00 0.00 0.00 0.00 0.00 0.01 0.02 0.01 0.00 0.00 0.00 0.00 0.00 0.00 0.01 0.00 0.00 0.00 0.00 0.00 0.00 0.00 0.00 0.00 0.00 0.00 0.00 0.00 0.00 0.00
0.40 0.27 0.13 0.18 0.10 0.06 0.02 0.00 0.00 0.00 0.01 0.02 0.03 0.03 0.02 0.02 0.01 0.00 0.00 0.00 0.01 0.01 0.00 0.00 0.00 0.00 0.00 0.00 0.01 0.02 0.04 0.05 0.04 0.01 0.00 0.00 0.00 0.00 0.00 0.00 0.00 0.00 0.00 0.00
0.27 0.25 0.10 0.11 0.13 0.09 0.03 0.00 0.00 0.00 0.03 0.06 0.05 0.03 0.02 0.01 0.00 0.00 0.00 0.00 0.00 0.00 0.00 0.00 0.00 0.00 0.00 0.00 0.00 0.00 0.02 0.04 0.04 0.02 0.02 0.01 0.00 0.00 0.00 0.00 0.00 0.00 0.00 0.00
0.08 0.16 0.09 0.01 0.01 0.01 0.00 0.00 0.00 0.00 0.01 0.00 0.00 0.01 0.01 0.02 0.00 0.00 0.00 0.00 0.00 0.00 0.01 0.01 0.02 0.01 0.01 0.01 0.01 0.00 0.01 0.01 0.02 0.01 0.01 0.01 0.01 0.00 0.00 0.00 0.00 0.00 0.00 0.00
0.26 0.17 0.09 0.04 0.05 0.08 0.08 0.06 0.06 0.06 0.05 0.02 0.01 0.00 0.00 0.00 0.00 0.00 0.00 0.00 0.00 0.00 0.01 0.01 0.03 0.02 0.01 0.02 0.02 0.01 0.01 0.03 0.04 0.03 0.03 0.03 0.02 0.00 0.00 0.00 0.00 0.00 0.00 0.00
0.56 0.59 0.41 0.40 0.35 0.27 0.19 0.15 0.12 0.11 0.07 0.06 0.07 0.05 0.03 0.02 0.01 0.01 0.00 0.00 0.00 0.00 0.01 0.01 0.02 0.03 0.02 0.02 0.02 0.02 0.06 0.09 0.10 0.08 0.07 0.06 0.03 0.01 0.00 0.00 0.00 0.00 0.00 0.00
0.25 0.32 0.36 0.23 0.09 0.17 0.25 0.21 0.13 0.10 0.09 0.08 0.10 0.06 0.05 0.03 0.02 0.01 0.03 0.04 0.04 0.02 0.02 0.03 0.03 0.03 0.04 0.06 0.05 0.07 0.15 0.16 0.15 0.12 0.09 0.06 0.05 0.03 0.01 0.01 0.00 0.00 0.00 0.00
0.14 0.18 0.20 0.16 0.07 0.06 0.10 0.21 0.20 0.17 0.19 0.18 0.16 0.13 0.10 0.09 0.09 0.09 0.11 0.13 0.12 0.04 0.03 0.07 0.10 0.11 0.11 0.10 0.07 0.14 0.22 0.19 0.15 0.12 0.10 0.08 0.06 0.04 0.02 0.01 0.00 0.00 0.00 0.00
0.09 0.12 0.16 0.19 0.12 0.06 0.03 0.02 0.06 0.14 0.20 0.18 0.18 0.20 0.19 0.17 0.16 0.15 0.13 0.13 0.12 0.11 0.14 0.18 0.16 0.14 0.13 0.10 0.15 0.21 0.21 0.20 0.19 0.16 0.12 0.09 0.05 0.03 0.01 0.00 0.00 0.00 0.00 0.00
0.16 0.15 0.14 0.11 0.08 0.05 0.02 0.00 0.00 0.00 0.01 0.03 0.06 0.10 0.15 0.15 0.13 0.11 0.07 0.06 0.11 0.17 0.19 0.19 0.16 0.14 0.14 0.17 0.22 0.19 0.18 0.17 0.15 0.13 0.09 0.06 0.04 0.01 0.00 0.00 0.00 0.00 0.01 0.00
0.05 0.04 0.02 0.02 0.04 0.04 0.03 0.01 0.00 0.00 0.00 0.00 0.00 0.01 0.04 0.07 0.08 0.08 0.08 0.11 0.12 0.15 0.13 0.13 0.14 0.13 0.11 0.15 0.13 0.10 0.09 0.08 0.08 0.07 0.05 0.03 0.01 0.00 0.00 0.00 0.00 0.00 0.00 0.00
0.08 0.08 0.05 0.02 0.00 0.00 0.00 0.00 0.00 0.00 0.00 0.00 0.00 0.00 0.01 0.03 0.06 0.07 0.07 0.13 0.15 0.13 0.07 0.05 0.07 0.07 0.07 0.08 0.04 0.03 0.03 0.02 0.01 0.00 0.00 0.00 0.00 0.00 0.00 0.00 0.00 0.00 0.00 0.00

GFSNGP_prec_precacc_054.txt.gz
Total_Precipitation_Accumulation
0.12 0.22 0.58 0.38 0.14 0.10 0.38 0.19 0.25 0.09 0.04 0.04 0.04 0.05 0.05 0.04 0.03 0.03 0.03 0.02 0.02 0.00 0.00 0.01 0.05 0.23 0.17 0.14 0.20 0.19 0.16 0.13 0.09 0.08 0.09 0.07 0.05 0.07 0.07 0.06 0.06 0.04 0.08 0.15
0.34 0.25 0.35 0.27 0.07 0.11 0.12 0.04 0.04 0.02 0.04 0.05 0.05 0.03 0.08 0.06 0.02 0.01 0.00 0.00 0.00 0.00 0.00 0.00 0.03 0.08 0.15 0.24 0.15 0.18 0.11 0.11 0.08 0.08 0.08 0.09 0.08 0.05 0.08 0.08 0.08 0.12 0.11 0.11
0.48 0.18 0.19 0.26 0.08 0.06 0.09 0.07 0.03 0.04 0.05 0.07 0.25 0.45 0.39 0.10 0.04 0.02 0.02 0.00 0.00 0.00 0.00 0.00 0.01 0.11 0.51 0.64 0.29 0.28 0.15 0.17 0.17 0.13 0.20 0.20 0.15 0.13 0.11 0.15 0.24 0.23 0.22 0.26
0.82 0.44 0.44 0.25 0.10 0.14 0.15 0.12 0.06 0.05 0.07 0.08 0.13 0.18 0.12 0.04 0.02 0.02 0.01 0.01 0.00 0.00 0.00 0.00 0.03 0.28 0.83 0.87 0.28 0.25 0.22 0.33 0.57 0.48 0.52 0.60 0.75 0.63 0.64 0.52 0.46 0.54 0.56 0.58
0.42 0.30 0.15 0.04 0.07 0.11 0.09 0.08 0.03 0.03 0.02 0.01 0.04 0.13 0.14 0.04 0.02 0.02 0.01 0.01 0.01 0.00 0.00 0.02 0.05 0.18 0.35 0.75 0.92 0.72 0.63 0.81 0.80 0.70 0.74 0.84 1.06 1.14 0.80 0.97 0.78 0.78 0.68 0.55
0.15 0.21 0.08 0.02 0.01 0.02 0.02 0.02 0.00 0.00 0.01 0.00 0.00 0.04 0.22 0.29 0.12 0.05 0.02 0.01 0.01 0.01 0.02 0.04 0.03 0.08 0.20 0.35 0.94 1.21 0.79 0.81 0.88 0.75 0.73 0.89 0.99 0.98 0.72 0.61 0.65 0.58 0.63 0.60
0.13 0.16 0.01 0.00 0.00 0.00 0.03 0.02 0.00 0.00 0.00 0.00 0.00 0.00 0.01 0.16 0.24 0.16 0.10 0.07 0.09 0.09 0.17 0.22 0.17 0.32 0.49 0.49 0.81 1.10 0.86 0.88 0.70 0.73 0.45 0.61 0.69 0.62 0.47 0.37 0.42 0.43 0.39 0.32
0.06 0.09 0.00 0.00 0.00 0.00 0.00 0.00 0.00 0.01 0.01 0.00 0.01 0.00 0.00 0.01 0.04 0.16 0.17 0.15 0.16 0.24 0.55 0.66 0.68 0.58 0.54 0.44 0.32 0.33 0.44 0.46 0.31 0.26 0.23 0.18 0.19 0.27 0.24 0.14 0.10 0.04 0.01 0.00
0.00 0.00 0.00 0.00 0.00 0.00 0.00 0.00 0.00 0.00 0.00 0.00 0.01 0.00 0.00 0.01 0.00 0.00 0.01 0.02 0.05 0.15 0.16 0.09 0.14 0.10 0.14 0.05 0.02 0.02 0.02 0.01 0.01 0.01 0.01 0.00 0.00 0.00 0.00 0.00 0.00 0.00 0.00 0.00
0.00 0.00 0.00 0.00 0.00 0.00 0.00 0.00 0.00 0.01 0.01 0.00 0.00 0.00 0.01 0.02 0.02 0.03 0.02 0.00 0.00 0.00 0.00 0.00 0.00 0.00 0.00 0.00 0.00 0.00 0.00 0.00 0.00 0.00 0.00 0.00 0.00 0.00 0.00 0.00 0.00 0.00 0.00 0.00
0.00 0.00 0.00 0.00 0.00 0.00 0.00 0.00 0.00 0.00 0.00 0.00 0.00 0.00 0.00 0.00 0.01 0.02 0.06 0.08 0.07 0.06 0.03 0.00 0.00 0.00 0.00 0.00 0.00 0.00 0.00 0.00 0.00 0.00 0.00 0.00 0.00 0.00 0.00 0.00 0.00 0.00 0.00 0.00
0.00 0.00 0.00 0.00 0.00 0.00 0.00 0.00 0.00 0.00 0.00 0.00 0.00 0.00 0.00 0.00 0.00 0.00 0.01 0.02 0.06 0.15 0.19 0.17 0.11 0.05 0.01 0.00 0.00 0.00 0.00 0.00 0.00 0.00 0.00 0.00 0.00 0.00 0.00 0.00 0.00 0.00 0.00 0.00
0.00 0.00 0.00 0.00 0.00 0.00 0.00 0.00 0.00 0.00 0.00 0.00 0.00 0.00 0.01 0.00 0.00 0.00 0.00 0.00 0.00 0.03 0.03 0.06 0.14 0.19 0.10 0.01 0.00 0.00 0.00 0.00 0.00 0.00 0.00 0.00 0.00 0.00 0.00 0.00 0.00 0.00 0.00 0.00
0.01 0.00 0.00 0.00 0.00 0.00 0.00 0.00 0.00 0.00 0.00 0.00 0.00 0.00 0.00 0.00 0.00 0.00 0.00 0.00 0.00 0.00 0.00 0.00 0.00 0.02 0.04 0.02 0.00 0.00 0.00 0.00 0.00 0.00 0.00 0.00 0.00 0.00 0.00 0.00 0.00 0.00 0.00 0.00
0.01 0.01 0.01 0.01 0.00 0.00 0.00 0.00 0.00 0.00 0.00 0.00 0.00 0.00 0.00 0.00 0.00 0.00 0.00 0.00 0.00 0.00 0.00 0.00 0.00 0.00 0.00 0.00 0.00 0.01 0.01 0.00 0.00 0.00 0.00 0.00 0.00 0.00 0.00 0.00 0.00 0.00 0.00 0.00
0.13 0.06 0.06 0.04 0.02 0.03 0.02 0.03 0.04 0.02 0.00 0.01 0.01 0.01 0.00 0.00 0.00 0.00 0.00 0.01 0.02 0.01 0.00 0.00 0.00 0.00 0.00 0.00 0.01 0.01 0.00 0.02 0.01 0.00 0.00 0.00 0.00 0.00 0.00 0.00 0.00 0.00 0.00 0.00
0.42 0.29 0.16 0.22 0.13 0.08 0.14 0.10 0.10 0.06 0.01 0.02 0.03 0.03 0.02 0.02 0.01 0.00 0.00 0.00 0.01 0.01 0.00 0.00 0.00 0.00 0.00 0.00 0.01 0.02 0.04 0.07 0.10 0.04 0.01 0.00 0.00 0.00 0.00 0.00 0.00 0.00 0.00 0.00
0.30 0.32 0.18 0.26 0.31 0.19 0.22 0.23 0.19 0.08 0.04 0.06 0.05 0.03 0.02 0.01 0.00 0.00 0.00 0.00 0.00 0.00 0.00 0.00 0.00 0.00 0.00 0.00 0.00 0.00 0.02 0.04 0.05 0.03 0.04 0.04 0.03 0.03 0.02 0.01 0.00 0.00 0.00 0.00
0.10 0.22 0.18 0.09 0.13 0.15 0.17 0.14 0.08 0.04 0.01 0.00 0.00 0.01 0.01 0.02 0.00 0.00 0.00 0.00 0.00 0.00 0.01 0.01 0.02 0.01 0.01 0.01 0.01 0.00 0.01 0.01 0.02 0.02 0.03 0.06 0.09 0.05 0.03 0.02 0.00 0.00 0.00 0.00
0.27 0.17 0.11 0.08 0.09 0.11 0.11 0.07 0.06 0.06 0.05 0.02 0.01 0.00 0.00 0.00 0.00 0.00 0.00 0.00 0.00 0.00 0.01 0.01 0.03 0.02 0.01 0.02 0.02 0.01 0.01 0.03 0.04 0.05 0.05 0.07 0.07 0.07 0.06 0.03 0.01 0.00 0.00 0.00
0.56 0.60 0.43 0.43 0.38 0.28 0.20 0.15 0.12 0.11 0.07 0.06 0.07 0.05 0.03 0.02 0.01 0.01 0.00 0.00 0.00 0.00 0.01 0.01 0.02 0.03 0.02 0.02 0.02 0.02 0.06 0.09 0.11 0.11 0.11 0.11 0.07 0.06 0.03 0.02 0.01 0.01 0.01 0.00
0.25 0.33 0.39 0.27 0.14 0.18 0.25 0.24 0.16 0.11 0.09 0.08 0.10 0.06 0.05 0.03 0.02 0.01 0.03 0.04 0.04 0.02 0.02 0.03 0.03 0.03 0.04 0.06 0.05 0.07 0.15 0.16 0.17 0.16 0.12 0.10 0.07 0.06 0.05 0.06 0.05 0.03 0.01 0.00
0.14 0.19 0.23 0.20 0.12 0.09 0.13 0.24 0.21 0.17 0.19 0.18 0.16 0.13 0.10 0.09 0.09 0.09 0.11 0.13 0.12 0.05 0.03 0.07 0.10 0.11 0.11 0.10 0.07 0.14 0.23 0.21 0.17 0.14 0.13 0.12 0.10 0.09 0.09 0.08 0.06 0.03 0.01 0.00
0.09 0.13 0.20 0.24 0.20 0.12 0.09 0.08 0.11 0.15 0.20 0.18 0.18 0.20 0.19 0.17 0.16 0.15 0.13 0.13 0.12 0.12 0.14 0.18 0.17 0.15 0.14 0.10 0.16 0.21 0.22 0.21 0.20 0.18 0.16 0.14 0.11 0.10 0.08 0.07 0.04 0.01 0.00 0.00
0.17 0.16 0.17 0.16 0.12 0.07 0.04 0.01 0.02 0.02 0.01 0.03 0.06 0.10 0.15 0.15 0.13 0.11 0.07 0.06 0.11 0.18 0.19 0.19 0.16 0.14 0.14 0.17 0.22 0.19 0.18 0.18 0.16 0.14 0.11 0.10 0.08 0.08 0.06 0.04 0.02 0.00 0.01 0.00
0.05 0.06 0.05 0.06 0.07 0.05 0.04 0.03 0.01 0.00 0.00 0.00 0.00 0.01 0.04 0.07 0.08 0.08 0.08 0.11 0.12 0.15 0.13 0.13 0.14 0.13 0.11 0.15 0.13 0.10 0.09 0.09 0.08 0.08 0.06 0.04 0.03 0.03 0.02 0.01 0.00 0.00 0.00 0.00
0.09 0.10 0.09 0.07 0.05 0.02 0.01 0.01 0.01 0.01 0.01 0.00 0.00 0.00 0.01 0.03 0.06 0.07 0.07 0.13 0.15 0.13 0.07 0.05 0.07 0.07 0.07 0.08 0.05 0.03 0.03 0.02 0.01 0.01 0.01 0.01 0.01 0.01 0.01 0.00 0.00 0.00 0.00 0.00

GFSNGP_prec_precacc_057.txt.gz
Total_Precipitation_Accumulation
0.12 0.22 0.58 0.38 0.14 0.10 0.38 0.19 0.25 0.09 0.04 0.04 0.04 0.05 0.05 0.04 0.03 0.03 0.03 0.02 0.02 0.00 0.00 0.01 0.05 0.23 0.17 0.14 0.20 0.19 0.16 0.13 0.09 0.08 0.09 0.07 0.05 0.07 0.07 0.06 0.06 0.04 0.08 0.15
0.34 0.25 0.35 0.27 0.07 0.11 0.12 0.04 0.04 0.02 0.04 0.05 0.05 0.03 0.08 0.06 0.02 0.01 0.00 0.00 0.00 0.00 0.00 0.00 0.03 0.08 0.15 0.24 0.15 0.18 0.11 0.11 0.08 0.08 0.08 0.09 0.08 0.05 0.08 0.08 0.08 0.12 0.11 0.11
0.48 0.18 0.19 0.26 0.08 0.06 0.09 0.07 0.03 0.04 0.05 0.07 0.25 0.45 0.39 0.10 0.04 0.02 0.02 0.00 0.00 0.00 0.00 0.00 0.01 0.11 0.51 0.64 0.29 0.28 0.15 0.17 0.17 0.13 0.20 0.20 0.15 0.13 0.11 0.15 0.24 0.23 0.22 0.26
0.82 0.44 0.44 0.25 0.10 0.14 0.15 0.12 0.06 0.05 0.07 0.08 0.13 0.18 0.12 0.04 0.02 0.02 0.01 0.01 0.00 0.00 0.00 0.00 0.03 0.28 0.83 0.87 0.28 0.25 0.22 0.33 0.57 0.48 0.52 0.60 0.75 0.63 0.64 0.52 0.46 0.54 0.56 0.58
0.42 0.30 0.15 0.04 0.07 0.11 0.09 0.08 0.03 0.03 0.02 0.01 0.04 0.13 0.14 0.04 0.02 0.02 0.01 0.01 0.01 0.00 0.00 0.02 0.05 0.18 0.35 0.75 0.92 0.72 0.63 0.81 0.80 0.70 0.74 0.84 1.06 1.14 0.80 0.97 0.78 0.78 0.68 0.55
0.15 0.21 0.08 0.02 0.01 0.02 0.02 0.02 0.00 0.00 0.01 0.00 0.00 0.04 0.22 0.29 0.12 0.05 0.02 0.01 0.01 0.01 0.02 0.04 0.03 0.08 0.20 0.35 0.94 1.21 0.79 0.81 0.88 0.75 0.73 0.89 0.99 0.98 0.72 0.61 0.65 0.58 0.63 0.60
0.13 0.16 0.01 0.00 0.00 0.00 0.03 0.02 0.00 0.00 0.00 0.00 0.00 0.00 0.01 0.16 0.24 0.16 0.10 0.07 0.09 0.09 0.17 0.22 0.17 0.32 0.49 0.49 0.81 1.10 0.86 0.88 0.70 0.73 0.45 0.61 0.69 0.62 0.47 0.37 0.42 0.43 0.39 0.32
0.06 0.09 0.00 0.00 0.00 0.00 0.00 0.00 0.00 0.01 0.01 0.00 0.01 0.00 0.00 0.01 0.04 0.16 0.17 0.15 0.16 0.24 0.55 0.66 0.68 0.58 0.54 0.44 0.32 0.33 0.44 0.46 0.31 0.26 0.23 0.18 0.19 0.27 0.24 0.14 0.10 0.04 0.01 0.00
0.00 0.00 0.00 0.00 0.00 0.00 0.00 0.00 0.00 0.00 0.00 0.00 0.01 0.00 0.00 0.01 0.00 0.00 0.01 0.02 0.05 0.15 0.16 0.09 0.14 0.12 0.15 0.06 0.02 0.02 0.02 0.01 0.01 0.01 0.01 0.00 0.00 0.00 0.00 0.00 0.00 0.00 0.00 0.00
0.00 0.00 0.00 0.00 0.00 0.00 0.00 0.00 0.00 0.01 0.01 0.00 0.00 0.00 0.01 0.02 0.02 0.03 0.02 0.00 0.00 0.00 0.00 0.00 0.00 0.00 0.00 0.00 0.00 0.00 0.00 0.00 0.00 0.00 0.00 0.00 0.00 0.00 0.00 0.00 0.00 0.00 0.00 0.00
0.00 0.00 0.00 0.00 0.00 0.00 0.00 0.00 0.00 0.00 0.00 0.00 0.00 0.00 0.00 0.00 0.01 0.02 0.06 0.08 0.08 0.07 0.04 0.01 0.00 0.01 0.00 0.00 0.00 0.00 0.00 0.00 0.00 0.00 0.00 0.00 0.00 0.00 0.00 0.00 0.00 0.00 0.00 0.00
0.00 0.00 0.00 0.00 0.00 0.00 0.00 0.00 0.00 0.00 0.00 0.00 0.00 0.00 0.00 0.00 0.00 0.00 0.01 0.02 0.07 0.15 0.21 0.22 0.16 0.10 0.06 0.03 0.01 0.00 0.00 0.00 0.00 0.00 0.00 0.00 0.00 0.00 0.00 0.00 0.00 0.00 0.00 0.00
0.00 0.00 0.00 0.00 0.00 0.00 0.00 0.00 0.00 0.00 0.00 0.00 0.00 0.00 0.01 0.00 0.00 0.00 0.00 0.00 0.00 0.03 0.03 0.06 0.15 0.22 0.20 0.13 0.09 0.05 0.00 0.00 0.00 0.00 0.00 0.00 0.00 0.00 0.00 0.00 0.00 0.00 0.00 0.00
0.01 0.00 0.00 0.00 0.00 0.00 0.00 0.00 0.00 0.00 0.00 0.00 0.00 0.00 0.00 0.00 0.00 0.00 0.00 0.00 0.00 0.00 0.00 0.00 0.00 0.02 0.06 0.10 0.11 0.08 0.03 0.00 0.00 0.00 0.00 0.00 0.00 0.00 0.00 0.00 0.00 0.00 0.00 0.00
0.01 0.01 0.01 0.01 0.00 0.00 0.00 0.00 0.00 0.00 0.00 0.00 0.00 0.00 0.00 0.00 0.00 0.00 0.00 0.00 0.00 0.00 0.00 0.00 0.00 0.00 0.00 0.00 0.00 0.01 0.01 0.00 0.00 0.00 0.00 0.00 0.00 0.00 0.00 0.00 0.00 0.00 0.00 0.00
0.13 0.06 0.06 0.05 0.02 0.03 0.02 0.03 0.04 0.04 0.04 0.03 0.02 0.01 0.00 0.00 0.00 0.00 0.00 0.01 0.02 0.01 0.00 0.00 0.00 0.00 0.00 0.00 0.01 0.01 0.00 0.02 0.02 0.00 0.00 0.00 0.00 0.00 0.00 0.00 0.00 0.00 0.00 0.00
0.42 0.30 0.17 0.23 0.14 0.10 0.15 0.11 0.11 0.13 0.13 0.12 0.10 0.04 0.02 0.02 0.01 0.00 0.00 0.00 0.01 0.01 0.00 0.00 0.00 0.00 0.00 0.00 0.01 0.02 0.04 0.07 0.10 0.04 0.02 0.01 0.01 0.01 0.01 0.01 0.01 0.00 0.00 0.00
0.31 0.32 0.20 0.30 0.35 0.24 0.28 0.32 0.33 0.32 0.30 0.28 0.17 0.06 0.02 0.01 0.00 0.00 0.00 0.00 0.00 0.00 0.00 0.00 0.00 0.00 0.00 0.00 0.00 0.00 0.02 0.04 0.05 0.03 0.04 0.05 0.04 0.04 0.04 0.03 0.02 0.01 0.01 0.01
0.10 0.22 0.18 0.11 0.16 0.19 0.27 0.29 0.27 0.29 0.26 0.18 0.12 0.06 0.02 0.02 0.00 0.00 0.00 0.00 0.00 0.00 0.01 0.01 0.02 0.01 0.01 0.01 0.01 0.00 0.01 0.01 0.02 0.02 0.03 0.07 0.11 0.06 0.05 0.04 0.04 0.03 0.02 0.01
0.27 0.18 0.11 0.09 0.11 0.14 0.15 0.11 0.10 0.10 0.08 0.05 0.04 0.01 0.00 0.00 0.00 0.00 0.00 0.00 0.00 0.00 0.01 0.01 0.03 0.02 0.01 0.02 0.02 0.01 0.01 0.03 0.04 0.05 0.05 0.09 0.10 0.10 0.09 0.09 0.08 0.05 0.03 0.01
0.56 0.60 0.44 0.44 0.40 0.30 0.21 0.15 0.12 0.11 0.07 0.06 0.07 0.05 0.03 0.02 0.01 0.01 0.00 0.00 0.00 0.00 0.01 0.01 0.02 0.03 0.02 0.02 0.02 0.02 0.06 0.09 0.11 0.11 0.13 0.14 0.11 0.10 0.08 0.08 0.07 0.05 0.04 0.03
0.25 0.33 0.40 0.29 0.16 0.20 0.26 0.24 0.16 0.12 0.09 0.09 0.10 0.06 0.05 0.03 0.02 0.01 0.03 0.04 0.04 0.03 0.02 0.03 0.03 0.03 0.04 0.06 0.05 0.07 0.15 0.16 0.17 0.17 0.14 0.12 0.10 0.10 0.10 0.12 0.11 0.09 0.07 0.05
0.14 0.19 0.24 0.22 0.16 0.13 0.16 0.25 0.22 0.18 0.20 0.20 0.17 0.14 0.10 0.09 0.09 0.09 0.11 0.13 0.12 0.05 0.03 0.07 0.10 0.12 0.12 0.10 0.07 0.14 0.23 0.21 0.17 0.15 0.14 0.14 0.13 0.12 0.13 0.12 0.13 0.10 0.07 0.04
0.09 0.13 0.20 0.25 0.23 0.17 0.15 0.15 0.14 0.19 0.22 0.19 0.19 0.20 0.19 0.17 0.16 0.15 0.13 0.13 0.12 0.12 0.15 0.18 0.17 0.15 0.14 0.10 0.16 0.21 0.22 0.21 0.20 0.18 0.16 0.15 0.12 0.12 0.11 0.11 0.09 0.06 0.05 0.03
0.17 0.16 0.17 0.17 0.16 0.11 0.09 0.07 0.06 0.05 0.05 0.06 0.06 0.10 0.15 0.15 0.13 0.11 0.07 0.06 0.11 0.18 0.19 0.20 0.16 0.14 0.14 0.17 0.23 0.20 0.19 0.18 0.16 0.15 0.12 0.10 0.09 0.09 0.08 0.07 0.06 0.05 0.05 0.03
0.05 0.06 0.05 0.06 0.09 0.10 0.09 0.06 0.03 0.02 0.02 0.02 0.01 0.01 0.04 0.07 0.08 0.08 0.08 0.11 0.12 0.15 0.13 0.13 0.14 0.14 0.11 0.15 0.13 0.11 0.10 0.09 0.09 0.08 0.07 0.05 0.04 0.03 0.04 0.03 0.03 0.02 0.01 0.00
0.09 0.10 0.09 0.07 0.06 0.06 0.06 0.04 0.03 0.03 0.02 0.01 0.02 0.01 0.01 0.03 0.06 0.07 0.07 0.13 0.15 0.13 0.07 0.05 0.07 0.08 0.07 0.08 0.05 0.03 0.03 0.02 0.02 0.01 0.01 0.01 0.01 0.01 0.01 0.01 0.00 0.00 0.00 0.00

GFSNGP_prec_precacc_060.txt.gz
Total_Precipitation_Accumulation
0.12 0.22 0.58 0.38 0.14 0.10 0.38 0.19 0.25 0.09 0.04 0.04 0.04 0.05 0.05 0.04 0.03 0.03 0.03 0.02 0.02 0.00 0.00 0.01 0.05 0.23 0.17 0.14 0.20 0.19 0.16 0.13 0.09 0.08 0.09 0.07 0.05 0.07 0.07 0.06 0.06 0.04 0.08 0.15
0.34 0.25 0.35 0.27 0.07 0.11 0.12 0.04 0.04 0.02 0.04 0.05 0.05 0.03 0.08 0.06 0.02 0.01 0.00 0.00 0.00 0.00 0.00 0.00 0.03 0.08 0.15 0.24 0.15 0.18 0.11 0.11 0.08 0.08 0.08 0.09 0.08 0.05 0.08 0.08 0.08 0.12 0.11 0.11
0.48 0.18 0.19 0.26 0.08 0.06 0.09 0.07 0.03 0.04 0.05 0.07 0.25 0.45 0.39 0.10 0.04 0.02 0.02 0.00 0.00 0.00 0.00 0.00 0.01 0.11 0.51 0.64 0.29 0.28 0.15 0.17 0.17 0.13 0.20 0.20 0.15 0.13 0.11 0.15 0.24 0.23 0.22 0.26
0.82 0.44 0.44 0.25 0.10 0.14 0.15 0.12 0.06 0.05 0.07 0.08 0.13 0.18 0.12 0.04 0.02 0.02 0.01 0.01 0.00 0.00 0.00 0.00 0.03 0.28 0.83 0.87 0.28 0.25 0.22 0.33 0.57 0.48 0.52 0.60 0.75 0.63 0.64 0.52 0.46 0.54 0.56 0.58
0.42 0.30 0.15 0.04 0.07 0.11 0.09 0.08 0.03 0.03 0.02 0.01 0.04 0.13 0.14 0.04 0.02 0.02 0.01 0.01 0.01 0.00 0.00 0.02 0.05 0.18 0.35 0.75 0.92 0.72 0.63 0.81 0.80 0.70 0.74 0.84 1.06 1.14 0.80 0.97 0.78 0.78 0.68 0.55
0.15 0.21 0.08 0.02 0.01 0.02 0.02 0.02 0.00 0.00 0.01 0.00 0.00 0.04 0.22 0.29 0.12 0.05 0.02 0.01 0.01 0.01 0.02 0.04 0.03 0.08 0.20 0.35 0.94 1.21 0.79 0.81 0.88 0.75 0.73 0.89 0.99 0.98 0.72 0.61 0.65 0.58 0.63 0.60
0.13 0.16 0.01 0.00 0.00 0.00 0.03 0.02 0.00 0.00 0.00 0.00 0.00 0.00 0.01 0.16 0.24 0.16 0.10 0.07 0.09 0.09 0.17 0.22 0.17 0.32 0.49 0.49 0.81 1.10 0.86 0.88 0.70 0.73 0.45 0.61 0.69 0.62 0.47 0.37 0.42 0.43 0.39 0.32
0.06 0.09 0.00 0.00 0.00 0.00 0.00 0.00 0.00 0.01 0.01 0.00 0.01 0.00 0.00 0.01 0.04 0.16 0.17 0.15 0.16 0.24 0.55 0.66 0.68 0.58 0.54 0.44 0.32 0.33 0.44 0.46 0.31 0.26 0.23 0.18 0.19 0.27 0.24 0.14 0.10 0.04 0.01 0.00
0.00 0.00 0.00 0.00 0.00 0.00 0.00 0.00 0.00 0.00 0.00 0.00 0.01 0.00 0.00 0.01 0.00 0.00 0.01 0.02 0.05 0.15 0.16 0.09 0.14 0.12 0.15 0.06 0.02 0.02 0.02 0.01 0.01 0.01 0.01 0.00 0.00 0.00 0.00 0.00 0.00 0.00 0.00 0.00
0.00 0.00 0.00 0.00 0.00 0.00 0.00 0.00 0.00 0.01 0.01 0.00 0.00 0.00 0.01 0.02 0.02 0.03 0.02 0.00 0.00 0.00 0.00 0.00 0.00 0.00 0.00 0.01 0.02 0.02 0.01 0.00 0.00 0.00 0.00 0.00 0.00 0.00 0.00 0.00 0.00 0.00 0.00 0.00
0.00 0.00 0.00 0.00 0.00 0.00 0.00 0.00 0.00 0.00 0.00 0.00 0.00 0.00 0.00 0.00 0.01 0.02 0.06 0.08 0.08 0.07 0.04 0.01 0.00 0.01 0.00 0.00 0.00 0.00 0.00 0.00 0.00 0.00 0.00 0.00 0.00 0.00 0.00 0.00 0.00 0.00 0.00 0.00
0.00 0.00 0.00 0.00 0.00 0.00 0.00 0.00 0.00 0.00 0.00 0.00 0.00 0.00 0.00 0.00 0.00 0.00 0.01 0.03 0.07 0.16 0.22 0.25 0.20 0.14 0.09 0.07 0.06 0.04 0.02 0.00 0.00 0.00 0.00 0.00 0.00 0.00 0.00 0.00 0.00 0.00 0.00 0.00
0.00 0.00 0.00 0.00 0.00 0.00 0.00 0.00 0.00 0.00 0.00 0.00 0.00 0.00 0.01 0.00 0.00 0.00 0.00 0.00 0.00 0.03 0.03 0.06 0.15 0.22 0.20 0.15 0.11 0.09 0.07 0.04 0.01 0.00 0.00 0.00 0.00 0.00 0.00 0.00 0.00 0.00 0.00 0.00
0.01 0.00 0.00 0.00 0.00 0.00 0.00 0.00 0.00 0.00 0.00 0.00 0.00 0.00 0.00 0.00 0.00 0.00 0.00 0.00 0.00 0.00 0.00 0.00 0.00 0.02 0.06 0.10 0.11 0.11 0.11 0.10 0.07 0.03 0.00 0.00 0.00 0.00 0.00 0.00 0.00 0.00 0.00 0.00
0.01 0.02 0.01 0.01 0.00 0.00 0.00 0.00 0.00 0.00 0.00 0.00 0.00 0.00 0.00 0.00 0.00 0.00 0.00 0.00 0.00 0.00 0.00 0.00 0.00 0.00 0.00 0.00 0.00 0.01 0.03 0.06 0.07 0.04 0.00 0.00 0.00 0.00 0.00 0.00 0.00 0.00 0.00 0.00
0.13 0.06 0.06 0.05 0.02 0.03 0.02 0.03 0.04 0.04 0.04 0.03 0.02 0.01 0.01 0.01 0.00 0.00 0.00 0.01 0.02 0.01 0.00 0.00 0.00 0.00 0.00 0.00 0.01 0.01 0.00 0.02 0.03 0.01 0.01 0.01 0.01 0.00 0.00 0.00 0.00 0.00 0.00 0.00
0.42 0.30 0.17 0.23 0.14 0.10 0.15 0.11 0.12 0.14 0.14 0.13 0.13 0.12 0.09 0.07 0.03 0.00 0.00 0.00 0.01 0.01 0.00 0.00 0.00 0.00 0.00 0.00 0.01 0.02 0.04 0.07 0.10 0.04 0.02 0.01 0.01 0.01 0.01 0.02 0.02 0.01 0.01 0.01
0.31 0.32 0.20 0.30 0.35 0.25 0.29 0.33 0.34 0.35 0.34 0.35 0.28 0.20 0.17 0.15 0.07 0.00 0.00 0.00 0.00 0.00 0.00 0.00 0.00 0.00 0.00 0.00 0.00 0.00 0.02 0.04 0.05 0.03 0.04 0.05 0.04 0.04 0.04 0.03 0.02 0.02 0.01 0.02
0.10 0.22 0.18 0.11 0.16 0.19 0.27 0.30 0.29 0.34 0.36 0.33 0.29 0.26 0.20 0.14 0.07 0.01 0.00 0.00 0.00 0.00 0.01 0.01 0.02 0.01 0.01 0.01 0.01 0.00 0.01 0.01 0.02 0.02 0.03 0.07 0.12 0.07 0.05 0.05 0.04 0.04 0.03 0.03
0.27 0.18 0.11 0.09 0.11 0.14 0.15 0.11 0.10 0.11 0.10 0.08 0.08 0.07 0.07 0.03 0.01 0.00 0.00 0.00 0.00 0.00 0.01 0.01 0.03 0.02 0.01 0.02 0.02 0.01 0.01 0.03 0.04 0.05 0.05 0.09 0.11 0.12 0.11 0.11 0.10 0.08 0.06 0.05
0.56 0.60 0.44 0.44 0.40 0.30 0.21 0.15 0.12 0.11 0.07 0.06 0.07 0.05 0.03 0.03 0.01 0.01 0.00 0.00 0.00 0.00 0.01 0.01 0.02 0.03 0.02 0.02 0.02 0.02 0.06 0.09 0.11 0.11 0.13 0.15 0.11 0.11 0.09 0.09 0.10 0.07 0.06 0.06
0.25 0.33 0.40 0.29 0.16 0.20 0.27 0.25 0.17 0.12 0.09 0.09 0.10 0.06 0.05 0.03 0.02 0.01 0.03 0.04 0.04 0.03 0.02 0.03 0.03 0.03 0.05 0.06 0.05 0.07 0.15 0.16 0.17 0.17 0.14 0.12 0.10 0.10 0.10 0.12 0.13 0.11 0.09 0.07
0.14 0.19 0.24 0.22 0.16 0.13 0.17 0.27 0.23 0.19 0.20 0.20 0.19 0.16 0.14 0.11 0.10 0.10 0.11 0.13 0.12 0.05 0.03 0.07 0.10 0.12 0.12 0.10 0.07 0.14 0.23 0.21 0.17 0.15 0.14 0.14 0.13 0.12 0.13 0.13 0.14 0.11 0.08 0.06
0.09 0.13 0.20 0.25 0.24 0.18 0.16 0.16 0.16 0.21 0.25 0.21 0.20 0.23 0.23 0.20 0.18 0.16 0.13 0.13 0.12 0.12 0.15 0.19 0.18 0.16 0.14 0.11 0.16 0.21 0.22 0.21 0.20 0.18 0.16 0.15 0.12 0.12 0.11 0.11 0.09 0.07 0.06 0.06
0.17 0.16 0.17 0.17 0.16 0.12 0.11 0.10 0.09 0.08 0.07 0.07 0.08 0.11 0.17 0.17 0.15 0.12 0.08 0.06 0.11 0.18 0.19 0.20 0.16 0.15 0.14 0.17 0.23 0.20 0.19 0.18 0.17 0.15 0.12 0.10 0.09 0.09 0.08 0.07 0.06 0.05 0.06 0.05
0.05 0.06 0.05 0.06 0.09 0.10 0.10 0.10 0.08 0.06 0.04 0.03 0.02 0.02 0.04 0.07 0.08 0.08 0.09 0.11 0.12 0.15 0.13 0.13 0.14 0.14 0.11 0.15 0.13 0.11 0.10 0.09 0.09 0.08 0.07 0.05 0.04 0.04 0.04 0.03 0.03 0.02 0.01 0.00
0.09 0.10 0.09 0.07 0.06 0.06 0.06 0.07 0.09 0.09 0.06 0.03 0.02 0.02 0.02 0.03 0.06 0.07 0.07 0.13 0.15 0.13 0.07 0.05 0.07 0.08 0.07 0.08 0.05 0.04 0.03 0.02 0.02 0.01 0.01 0.01 0.01 0.01 0.01 0.01 0.00 0.00 0.00 0.00

GFSNGP_prec_precacc_063.txt.gz
Total_Precipitation_Accumulation
0.12 0.22 0.58 0.38 0.14 0.10 0.38 0.19 0.25 0.09 0.04 0.04 0.04 0.05 0.05 0.04 0.03 0.03 0.03 0.02 0.02 0.00 0.00 0.01 0.05 0.23 0.17 0.14 0.20 0.19 0.16 0.13 0.09 0.08 0.09 0.07 0.05 0.07 0.07 0.06 0.06 0.04 0.08 0.15
0.34 0.25 0.35 0.27 0.07 0.11 0.12 0.04 0.04 0.02 0.04 0.05 0.05 0.03 0.08 0.06 0.02 0.01 0.00 0.00 0.00 0.00 0.00 0.00 0.03 0.08 0.15 0.24 0.15 0.18 0.11 0.11 0.08 0.08 0.08 0.09 0.08 0.05 0.08 0.08 0.08 0.12 0.11 0.11
0.48 0.18 0.19 0.26 0.08 0.06 0.09 0.07 0.03 0.04 0.05 0.07 0.25 0.45 0.39 0.10 0.04 0.02 0.02 0.00 0.00 0.00 0.00 0.00 0.01 0.11 0.51 0.64 0.29 0.28 0.15 0.17 0.17 0.13 0.20 0.20 0.15 0.13 0.11 0.15 0.24 0.23 0.22 0.26
0.82 0.44 0.44 0.25 0.10 0.14 0.15 0.12 0.06 0.05 0.07 0.08 0.13 0.18 0.12 0.04 0.02 0.02 0.01 0.01 0.00 0.00 0.00 0.00 0.03 0.28 0.83 0.87 0.28 0.25 0.22 0.33 0.57 0.48 0.52 0.60 0.75 0.63 0.64 0.52 0.46 0.54 0.56 0.58
0.42 0.30 0.15 0.04 0.07 0.11 0.09 0.08 0.03 0.03 0.02 0.01 0.04 0.13 0.14 0.04 0.02 0.02 0.01 0.01 0.01 0.00 0.00 0.02 0.05 0.18 0.35 0.75 0.92 0.72 0.63 0.81 0.80 0.70 0.74 0.84 1.06 1.14 0.80 0.97 0.78 0.78 0.68 0.55
0.15 0.21 0.08 0.02 0.01 0.02 0.02 0.02 0.00 0.00 0.01 0.00 0.00 0.04 0.22 0.29 0.12 0.05 0.02 0.01 0.01 0.01 0.02 0.04 0.03 0.08 0.20 0.35 0.94 1.21 0.79 0.81 0.88 0.75 0.73 0.89 0.99 0.98 0.72 0.61 0.65 0.58 0.63 0.60
0.13 0.16 0.01 0.00 0.00 0.00 0.03 0.02 0.00 0.00 0.00 0.00 0.00 0.00 0.01 0.16 0.24 0.16 0.10 0.07 0.09 0.09 0.17 0.22 0.17 0.32 0.49 0.49 0.81 1.10 0.86 0.88 0.70 0.73 0.45 0.61 0.69 0.62 0.47 0.37 0.42 0.43 0.39 0.32
0.06 0.10 0.01 0.00 0.00 0.00 0.00 0.00 0.00 0.01 0.01 0.00 0.01 0.00 0.00 0.01 0.04 0.16 0.17 0.15 0.16 0.24 0.55 0.66 0.68 0.58 0.54 0.44 0.32 0.33 0.44 0.46 0.31 0.26 0.23 0.18 0.19 0.27 0.24 0.14 0.10 0.04 0.01 0.00
0.00 0.00 0.00 0.00 0.00 0.00 0.00 0.00 0.00 0.00 0.00 0.00 0.01 0.00 0.00 0.01 0.00 0.00 0.01 0.02 0.05 0.15 0.16 0.09 0.14 0.12 0.15 0.06 0.02 0.02 0.02 0.01 0.02 0.02 0.02 0.01 0.00 0.00 0.00 0.00 0.00 0.00 0.00 0.00
0.00 0.00 0.00 0.00 0.00 0.00 0.00 0.00 0.00 0.01 0.01 0.00 0.00 0.00 0.01 0.02 0.02 0.03 0.02 0.00 0.00 0.00 0.00 0.00 0.00 0.00 0.00 0.01 0.02 0.02 0.01 0.00 0.00 0.01 0.01 0.00 0.00 0.00 0.00 0.00 0.00 0.00 0.00 0.00
0.00 0.00 0.00 0.00 0.00 0.00 0.00 0.00 0.00 0.00 0.00 0.00 0.00 0.00 0.00 0.00 0.01 0.02 0.06 0.08 0.08 0.07 0.04 0.01 0.00 0.01 0.00 0.00 0.00 0.00 0.01 0.01 0.00 0.00 0.00 0.00 0.00 0.00 0.00 0.00 0.00 0.00 0.00 0.00
0.00 0.00 0.00 0.00 0.00 0.00 0.00 0.00 0.00 0.00 0.00 0.00 0.00 0.00 0.00 0.00 0.00 0.00 0.01 0.03 0.07 0.16 0.22 0.25 0.21 0.17 0.13 0.10 0.10 0.08 0.05 0.02 0.01 0.01 0.01 0.00 0.00 0.00 0.00 0.00 0.00 0.00 0.00 0.00
0.00 0.00 0.00 0.00 0.00 0.00 0.00 0.00 0.00 0.00 0.00 0.00 0.00 0.00 0.01 0.00 0.00 0.00 0.00 0.00 0.01 0.04 0.04 0.07 0.15 0.22 0.20 0.15 0.12 0.11 0.10 0.07 0.05 0.04 0.02 0.01 0.00 0.00 0.00 0.00 0.00 0.00 0.00 0.00
0.01 0.00 0.00 0.00 0.00 0.00 0.00 0.00 0.00 0.00 0.00 0.00 0.00 0.00 0.00 0.00 0.00 0.00 0.00 0.00 0.00 0.00 0.00 0.00 0.00 0.02 0.06 0.10 0.11 0.11 0.11 0.14 0.09 0.08 0.05 0.04 0.01 0.00 0.00 0.00 0.00 0.00 0.00 0.00
0.01 0.02 0.01 0.01 0.00 0.00 0.00 0.00 0.00 0.00 0.00 0.00 0.00 0.00 0.00 0.00 0.00 0.00 0.00 0.00 0.00 0.00 0.00 0.00 0.00 0.00 0.00 0.00 0.00 0.01 0.04 0.07 0.10 0.12 0.08 0.06 0.03 0.01 0.00 0.00 0.01 0.02 0.01 0.00
0.13 0.06 0.06 0.05 0.02 0.03 0.02 0.03 0.04 0.04 0.04 0.03 0.02 0.01 0.01 0.01 0.01 0.00 0.00 0.01 0.02 0.01 0.00 0.00 0.00 0.00 0.00 0.00 0.01 0.01 0.00 0.03 0.04 0.03 0.05 0.05 0.03 0.01 0.00 0.00 0.00 0.00 0.00 0.01
0.42 0.30 0.17 0.23 0.14 0.10 0.15 0.11 0.12 0.14 0.14 0.13 0.13 0.12 0.10 0.07 0.06 0.04 0.02 0.02 0.01 0.01 0.00 0.00 0.00 0.00 0.00 0.00 0.01 0.02 0.04 0.07 0.10 0.04 0.02 0.02 0.01 0.01 0.01 0.02 0.02 0.02 0.01 0.01
0.31 0.32 0.20 0.30 0.35 0.25 0.29 0.33 0.34 0.35 0.34 0.35 0.28 0.21 0.19 0.17 0.14 0.11 0.08 0.05 0.03 0.02 0.01 0.00 0.00 0.00 0.00 0.00 0.00 0.00 0.02 0.04 0.05 0.03 0.04 0.05 0.04 0.04 0.04 0.03 0.02 0.02 0.02 0.02
0.10 0.22 0.18 0.11 0.16 0.19 0.27 0.30 0.29 0.34 0.36 0.33 0.29 0.27 0.23 0.18 0.15 0.12 0.10 0.07 0.04 0.02 0.01 0.01 0.02 0.01 0.01 0.01 0.01 0.00 0.01 0.01 0.02 0.02 0.03 0.08 0.13 0.07 0.05 0.05 0.04 0.04 0.04 0.04
0.27 0.18 0.11 0.09 0.11 0.14 0.15 0.11 0.10 0.11 0.10 0.08 0.08 0.07 0.08 0.06 0.04 0.02 0.02 0.03 0.01 0.01 0.01 0.01 0.03 0.02 0.01 0.02 0.02 0.01 0.01 0.03 0.04 0.05 0.06 0.10 0.12 0.13 0.12 0.12 0.11 0.10 0.08 0.06
0.56 0.60 0.44 0.44 0.40 0.30 0.21 0.15 0.12 0.11 0.07 0.06 0.07 0.05 0.03 0.03 0.02 0.02 0.02 0.01 0.00 0.00 0.01 0.01 0.02 0.03 0.02 0.02 0.02 0.02 0.06 0.09 0.11 0.11 0.13 0.15 0.12 0.12 0.10 0.09 0.10 0.08 0.07 0.07
0.25 0.33 0.40 0.29 0.16 0.20 0.27 0.25 0.17 0.12 0.09 0.09 0.10 0.06 0.05 0.04 0.02 0.01 0.03 0.05 0.04 0.03 0.02 0.03 0.03 0.03 0.05 0.06 0.05 0.07 0.15 0.16 0.17 0.17 0.14 0.12 0.10 0.10 0.10 0.12 0.13 0.11 0.09 0.08
0.14 0.19 0.24 0.22 0.16 0.13 0.17 0.27 0.23 0.19 0.21 0.20 0.19 0.16 0.16 0.14 0.12 0.10 0.11 0.13 0.12 0.05 0.03 0.07 0.10 0.12 0.12 0.10 0.07 0.14 0.23 0.21 0.17 0.15 0.14 0.14 0.13 0.12 0.13 0.13 0.14 0.12 0.08 0.06
0.09 0.13 0.20 0.25 0.24 0.18 0.16 0.16 0.16 0.21 0.27 0.24 0.22 0.24 0.24 0.27 0.23 0.18 0.14 0.13 0.12 0.12 0.15 0.19 0.18 0.16 0.15 0.11 0.16 0.21 0.22 0.21 0.20 0.18 0.16 0.15 0.12 0.12 0.11 0.11 0.09 0.07 0.06 0.06
0.17 0.16 0.17 0.17 0.16 0.12 0.11 0.10 0.10 0.09 0.09 0.11 0.12 0.16 0.20 0.23 0.21 0.16 0.13 0.07 0.12 0.18 0.19 0.20 0.16 0.15 0.14 0.17 0.23 0.20 0.19 0.18 0.17 0.15 0.12 0.10 0.09 0.09 0.08 0.07 0.06 0.05 0.06 0.05
0.05 0.06 0.05 0.06 0.09 0.10 0.10 0.10 0.09 0.08 0.08 0.06 0.04 0.03 0.07 0.09 0.09 0.09 0.11 0.13 0.12 0.15 0.13 0.13 0.14 0.14 0.11 0.15 0.14 0.11 0.10 0.09 0.09 0.08 0.07 0.05 0.04 0.04 0.04 0.03 0.03 0.02 0.01 0.00
0.09 0.10 0.09 0.07 0.06 0.06 0.06 0.07 0.09 0.10 0.10 0.07 0.07 0.06 0.04 0.04 0.06 0.07 0.07 0.13 0.16 0.14 0.07 0.05 0.07 0.08 0.07 0.08 0.05 0.04 0.03 0.02 0.02 0.01 0.01 0.01 0.01 0.01 0.01 0.01 0.00 0.00 0.00 0.00

GFSNGP_prec_precacc_066.txt.gz
Total_Precipitation_Accumulation
0.12 0.22 0.58 0.38 0.14 0.10 0.38 0.19 0.26 0.09 0.04 0.04 0.04 0.05 0.05 0.04 0.03 0.03 0.03 0.02 0.02 0.00 0.00 0.01 0.05 0.23 0.17 0.14 0.20 0.19 0.16 0.13 0.09 0.08 0.09 0.07 0.05 0.07 0.07 0.06 0.06 0.04 0.08 0.15
0.34 0.25 0.35 0.27 0.07 0.11 0.12 0.04 0.05 0.02 0.04 0.05 0.05 0.03 0.08 0.06 0.02 0.01 0.00 0.00 0.00 0.00 0.00 0.00 0.03 0.08 0.15 0.24 0.15 0.18 0.11 0.11 0.08 0.08 0.08 0.09 0.08 0.05 0.08 0.08 0.08 0.12 0.11 0.11
0.48 0.18 0.19 0.26 0.08 0.06 0.09 0.07 0.03 0.04 0.05 0.07 0.25 0.45 0.39 0.10 0.04 0.02 0.02 0.00 0.00 0.00 0.00 0.00 0.01 0.11 0.51 0.64 0.29 0.28 0.15 0.17 0.17 0.13 0.20 0.20 0.15 0.13 0.11 0.15 0.24 0.23 0.22 0.26
0.83 0.44 0.44 0.25 0.10 0.14 0.15 0.12 0.06 0.05 0.07 0.08 0.13 0.18 0.12 0.04 0.02 0.02 0.01 0.01 0.00 0.00 0.00 0.00 0.03 0.28 0.83 0.87 0.28 0.25 0.22 0.33 0.57 0.48 0.52 0.60 0.75 0.63 0.64 0.52 0.46 0.54 0.56 0.58
0.42 0.30 0.15 0.04 0.07 0.11 0.09 0.09 0.03 0.03 0.02 0.01 0.04 0.13 0.14 0.04 0.02 0.02 0.01 0.01 0.01 0.00 0.00 0.02 0.05 0.18 0.35 0.75 0.92 0.72 0.63 0.81 0.80 0.70 0.74 0.84 1.06 1.14 0.80 0.97 0.78 0.78 0.68 0.55
0.15 0.21 0.08 0.02 0.01 0.02 0.02 0.02 0.00 0.00 0.01 0.00 0.00 0.04 0.22 0.29 0.12 0.05 0.02 0.01 0.01 0.01 0.02 0.04 0.03 0.08 0.20 0.35 0.94 1.21 0.79 0.81 0.88 0.75 0.73 0.89 0.99 0.98 0.72 0.61 0.65 0.58 0.63 0.60
0.13 0.17 0.01 0.00 0.00 0.00 0.03 0.02 0.00 0.00 0.00 0.00 0.00 0.00 0.01 0.16 0.24 0.16 0.10 0.07 0.09 0.09 0.17 0.22 0.17 0.32 0.49 0.49 0.81 1.10 0.86 0.88 0.70 0.73 0.45 0.61 0.69 0.62 0.47 0.37 0.42 0.43 0.39 0.32
0.06 0.10 0.01 0.00 0.00 0.00 0.00 0.00 0.00 0.01 0.01 0.00 0.01 0.00 0.00 0.01 0.04 0.16 0.17 0.15 0.16 0.24 0.55 0.66 0.68 0.58 0.54 0.44 0.32 0.33 0.44 0.46 0.31 0.26 0.23 0.18 0.19 0.27 0.24 0.14 0.10 0.04 0.01 0.00
0.00 0.00 0.00 0.00 0.00 0.00 0.00 0.00 0.00 0.00 0.00 0.00 0.01 0.00 0.00 0.01 0.00 0.00 0.01 0.02 0.05 0.15 0.16 0.09 0.14 0.12 0.15 0.06 0.02 0.02 0.02 0.01 0.02 0.02 0.02 0.01 0.00 0.00 0.00 0.00 0.00 0.00 0.00 0.00
0.00 0.00 0.00 0.00 0.00 0.00 0.00 0.00 0.00 0.01 0.01 0.00 0.00 0.00 0.01 0.02 0.02 0.03 0.02 0.00 0.00 0.00 0.00 0.00 0.00 0.00 0.00 0.01 0.02 0.02 0.01 0.00 0.00 0.01 0.01 0.01 0.00 0.00 0.00 0.00 0.00 0.00 0.00 0.00
0.00 0.00 0.00 0.00 0.00 0.00 0.00 0.00 0.00 0.00 0.00 0.00 0.00 0.00 0.00 0.00 0.01 0.02 0.06 0.08 0.08 0.07 0.04 0.01 0.00 0.01 0.00 0.00 0.00 0.00 0.01 0.01 0.00 0.00 0.00 0.00 0.00 0.00 0.00 0.00 0.00 0.00 0.00 0.00
0.00 0.00 0.00 0.00 0.00 0.00 0.00 0.00 0.00 0.00 0.00 0.00 0.00 0.00 0.00 0.00 0.00 0.00 0.01 0.03 0.07 0.16 0.22 0.25 0.21 0.17 0.13 0.10 0.10 0.08 0.05 0.03 0.02 0.02 0.02 0.01 0.01 0.00 0.00 0.00 0.00 0.00 0.00 0.00
0.00 0.00 0.00 0.00 0.00 0.00 0.00 0.00 0.00 0.00 0.00 0.00 0.00 0.00 0.01 0.00 0.00 0.00 0.00 0.00 0.01 0.04 0.04 0.08 0.16 0.24 0.21 0.15 0.12 0.11 0.10 0.08 0.06 0.05 0.03 0.02 0.01 0.01 0.00 0.00 0.00 0.00 0.00 0.00
0.01 0.00 0.00 0.00 0.00 0.00 0.00 0.00 0.00 0.00 0.00 0.00 0.00 0.00 0.00 0.00 0.00 0.00 0.00 0.00 0.00 0.00 0.00 0.00 0.01 0.02 0.06 0.10 0.11 0.11 0.11 0.14 0.10 0.09 0.07 0.05 0.04 0.03 0.01 0.00 0.00 0.00 0.00 0.00
0.01 0.02 0.01 0.01 0.00 0.00 0.00 0.00 0.00 0.00 0.00 0.00 0.00 0.00 0.00 0.00 0.00 0.00 0.00 0.00 0.00 0.00 0.00 0.00 0.00 0.00 0.00 0.00 0.00 0.01 0.04 0.07 0.10 0.12 0.10 0.09 0.05 0.03 0.02 0.02 0.02 0.02 0.01 0.00
0.13 0.06 0.06 0.05 0.02 0.03 0.02 0.03 0.04 0.04 0.04 0.03 0.02 0.01 0.01 0.01 0.01 0.00 0.00 0.01 0.03 0.01 0.00 0.00 0.00 0.00 0.00 0.00 0.01 0.01 0.00 0.03 0.05 0.03 0.06 0.07 0.05 0.05 0.03 0.02 0.01 0.00 0.01 0.01
0.42 0.30 0.17 0.23 0.14 0.10 0.15 0.11 0.12 0.14 0.14 0.13 0.13 0.12 0.10 0.08 0.06 0.04 0.02 0.02 0.02 0.02 0.01 0.01 0.01 0.01 0.00 0.00 0.01 0.02 0.04 0.07 0.10 0.04 0.02 0.02 0.02 0.02 0.02 0.03 0.02 0.02 0.01 0.01
0.31 0.32 0.20 0.30 0.35 0.25 0.29 0.33 0.34 0.35 0.34 0.35 0.29 0.21 0.19 0.17 0.15 0.11 0.09 0.06 0.04 0.04 0.03 0.03 0.02 0.02 0.01 0.00 0.00 0.00 0.02 0.04 0.05 0.03 0.04 0.05 0.05 0.05 0.04 0.04 0.03 0.03 0.02 0.03
0.10 0.22 0.18 0.11 0.16 0.19 0.27 0.30 0.29 0.34 0.36 0.33 0.29 0.27 0.23 0.18 0.15 0.13 0.11 0.08 0.07 0.07 0.06 0.06 0.07 0.06 0.04 0.02 0.01 0.00 0.01 0.01 0.02 0.02 0.03 0.09 0.15 0.08 0.05 0.05 0.04 0.04 0.04 0.05
0.27 0.18 0.11 0.09 0.11 0.14 0.15 0.11 0.10 0.11 0.10 0.08 0.08 0.07 0.08 0.06 0.04 0.03 0.03 0.04 0.05 0.05 0.05 0.07 0.09 0.06 0.04 0.03 0.02 0.01 0.01 0.03 0.04 0.05 0.07 0.11 0.13 0.14 0.13 0.14 0.13 0.11 0.09 0.08
0.56 0.60 0.44 0.44 0.40 0.30 0.21 0.15 0.12 0.11 0.07 0.06 0.07 0.05 0.03 0.03 0.02 0.02 0.03 0.02 0.01 0.01 0.02 0.03 0.03 0.04 0.02 0.02 0.02 0.02 0.06 0.09 0.11 0.12 0.14 0.16 0.13 0.13 0.11 0.11 0.11 0.08 0.07 0.07
0.25 0.33 0.40 0.29 0.16 0.20 0.27 0.25 0.17 0.13 0.10 0.09 0.11 0.07 0.05 0.04 0.02 0.02 0.03 0.06 0.06 0.04 0.03 0.05 0.06 0.06 0.06 0.07 0.05 0.07 0.15 0.16 0.17 0.17 0.14 0.12 0.11 0.11 0.10 0.13 0.13 0.11 0.09 0.08
0.14 0.19 0.24 0.22 0.16 0.13 0.17 0.27 0.23 0.20 0.22 0.22 0.21 0.18 0.17 0.16 0.15 0.15 0.13 0.14 0.12 0.05 0.04 0.08 0.12 0.15 0.14 0.11 0.08 0.14 0.23 0.21 0.17 0.15 0.14 0.14 0.13 0.12 0.13 0.13 0.14 0.12 0.08 0.07
0.09 0.13 0.20 0.25 0.24 0.18 0.16 0.16 0.16 0.22 0.28 0.27 0.26 0.27 0.27 0.29 0.26 0.24 0.19 0.17 0.14 0.12 0.15 0.19 0.19 0.17 0.16 0.12 0.17 0.22 0.23 0.22 0.21 0.18 0.16 0.15 0.12 0.12 0.11 0.11 0.09 0.07 0.06 0.06
0.17 0.16 0.17 0.17 0.16 0.12 0.11 0.10 0.10 0.09 0.10 0.12 0.14 0.19 0.23 0.26 0.26 0.23 0.20 0.14 0.15 0.19 0.20 0.20 0.17 0.15 0.14 0.18 0.23 0.21 0.20 0.19 0.17 0.15 0.12 0.11 0.09 0.09 0.08 0.07 0.06 0.05 0.06 0.05
0.05 0.06 0.05 0.06 0.09 0.10 0.10 0.10 0.09 0.08 0.09 0.08 0.06 0.06 0.10 0.13 0.13 0.13 0.14 0.17 0.16 0.16 0.13 0.13 0.15 0.14 0.12 0.15 0.14 0.11 0.10 0.09 0.10 0.09 0.07 0.05 0.04 0.04 0.04 0.04 0.03 0.02 0.01 0.01
0.09 0.10 0.09 0.07 0.06 0.06 0.06 0.07 0.09 0.10 0.10 0.08 0.09 0.09 0.08 0.08 0.10 0.10 0.08 0.14 0.17 0.14 0.07 0.05 0.07 0.08 0.07 0.08 0.05 0.04 0.03 0.03 0.02 0.02 0.02 0.02 0.02 0.02 0.02 0.01 0.01 0.01 0.01 0.01

GFSNGP_prec_precacc_072.txt.gz
Total_Precipitation_Accumulation
0.12 0.22 0.58 0.38 0.14 0.10 0.39 0.19 0.26 0.09 0.04 0.04 0.04 0.05 0.05 0.04 0.03 0.03 0.03 0.02 0.02 0.00 0.00 0.01 0.05 0.23 0.17 0.14 0.20 0.19 0.16 0.13 0.09 0.08 0.09 0.07 0.05 0.07 0.07 0.06 0.06 0.04 0.08 0.15
0.34 0.25 0.35 0.27 0.07 0.11 0.12 0.04 0.05 0.02 0.04 0.05 0.05 0.03 0.08 0.06 0.02 0.01 0.00 0.00 0.00 0.00 0.00 0.00 0.03 0.08 0.15 0.24 0.15 0.18 0.11 0.11 0.08 0.08 0.08 0.09 0.08 0.05 0.08 0.08 0.08 0.12 0.11 0.11
0.48 0.18 0.19 0.26 0.08 0.06 0.09 0.07 0.03 0.04 0.05 0.07 0.25 0.45 0.39 0.10 0.04 0.02 0.02 0.00 0.00 0.00 0.00 0.00 0.01 0.11 0.51 0.64 0.29 0.28 0.15 0.17 0.17 0.13 0.20 0.20 0.15 0.13 0.11 0.15 0.24 0.23 0.22 0.26
0.83 0.44 0.44 0.25 0.10 0.14 0.15 0.12 0.06 0.05 0.07 0.08 0.13 0.18 0.12 0.04 0.02 0.02 0.01 0.01 0.00 0.00 0.00 0.00 0.03 0.28 0.83 0.87 0.28 0.25 0.22 0.33 0.57 0.48 0.52 0.60 0.75 0.63 0.64 0.52 0.46 0.54 0.56 0.58
0.42 0.30 0.15 0.04 0.07 0.11 0.09 0.09 0.03 0.03 0.02 0.01 0.04 0.13 0.14 0.04 0.02 0.02 0.01 0.01 0.01 0.00 0.00 0.02 0.05 0.18 0.35 0.75 0.92 0.72 0.63 0.81 0.80 0.70 0.74 0.84 1.06 1.14 0.80 0.97 0.78 0.78 0.68 0.55
0.15 0.21 0.08 0.02 0.01 0.02 0.02 0.02 0.00 0.00 0.01 0.00 0.00 0.04 0.22 0.29 0.12 0.05 0.02 0.01 0.01 0.01 0.02 0.04 0.03 0.08 0.20 0.35 0.94 1.21 0.79 0.81 0.88 0.75 0.73 0.89 0.99 0.98 0.72 0.61 0.65 0.58 0.63 0.60
0.13 0.17 0.01 0.00 0.00 0.00 0.03 0.02 0.00 0.00 0.00 0.00 0.00 0.00 0.01 0.16 0.24 0.16 0.10 0.07 0.09 0.09 0.17 0.22 0.17 0.32 0.49 0.49 0.81 1.10 0.86 0.88 0.70 0.73 0.45 0.61 0.69 0.62 0.47 0.37 0.42 0.43 0.39 0.32
0.06 0.10 0.01 0.00 0.00 0.00 0.00 0.00 0.00 0.01 0.01 0.00 0.01 0.00 0.00 0.01 0.04 0.16 0.17 0.15 0.16 0.24 0.55 0.66 0.68 0.58 0.54 0.44 0.32 0.33 0.44 0.46 0.31 0.26 0.23 0.18 0.19 0.27 0.24 0.14 0.10 0.04 0.01 0.00
0.00 0.00 0.00 0.00 0.00 0.00 0.00 0.00 0.00 0.00 0.00 0.00 0.01 0.00 0.00 0.01 0.00 0.00 0.01 0.02 0.05 0.15 0.16 0.09 0.14 0.12 0.15 0.06 0.02 0.02 0.02 0.01 0.02 0.02 0.02 0.01 0.00 0.00 0.00 0.00 0.00 0.00 0.00 0.00
0.00 0.00 0.00 0.00 0.00 0.00 0.00 0.00 0.00 0.01 0.01 0.00 0.00 0.00 0.01 0.02 0.02 0.03 0.02 0.00 0.00 0.00 0.00 0.00 0.00 0.00 0.00 0.01 0.02 0.02 0.01 0.00 0.00 0.01 0.01 0.01 0.00 0.00 0.00 0.00 0.00 0.00 0.00 0.00
0.00 0.00 0.00 0.00 0.00 0.00 0.00 0.00 0.00 0.00 0.00 0.00 0.00 0.00 0.00 0.00 0.01 0.02 0.06 0.08 0.08 0.07 0.04 0.01 0.00 0.01 0.00 0.00 0.00 0.00 0.01 0.01 0.00 0.00 0.00 0.00 0.00 0.00 0.00 0.00 0.00 0.00 0.00 0.00
0.00 0.00 0.00 0.00 0.00 0.00 0.00 0.00 0.00 0.00 0.00 0.00 0.00 0.00 0.00 0.00 0.00 0.00 0.01 0.03 0.07 0.16 0.22 0.25 0.21 0.17 0.13 0.11 0.11 0.09 0.06 0.04 0.04 0.04 0.04 0.04 0.03 0.02 0.03 0.02 0.02 0.01 0.01 0.00
0.00 0.00 0.00 0.00 0.00 0.00 0.00 0.00 0.00 0.00 0.00 0.00 0.00 0.00 0.01 0.00 0.00 0.00 0.00 0.00 0.01 0.04 0.04 0.08 0.17 0.24 0.22 0.18 0.16 0.15 0.14 0.10 0.08 0.06 0.03 0.02 0.02 0.02 0.03 0.05 0.04 0.02 0.01 0.00
0.01 0.00 0.00 0.00 0.00 0.00 0.00 0.00 0.00 0.00 0.00 0.00 0.00 0.00 0.00 0.00 0.00 0.00 0.00 0.00 0.00 0.00 0.00 0.00 0.01 0.02 0.07 0.12 0.13 0.12 0.13 0.17 0.12 0.10 0.08 0.05 0.04 0.03 0.03 0.04 0.04 0.05 0.05 0.03
0.01 0.02 0.01 0.01 0.00 0.00 0.00 0.00 0.00 0.00 0.00 0.00 0.00 0.00 0.00 0.00 0.00 0.00 0.00 0.00 0.00 0.00 0.00 0.00 0.00 0.00 0.00 0.01 0.01 0.02 0.05 0.08 0.11 0.12 0.10 0.10 0.05 0.03 0.02 0.03 0.04 0.06 0.06 0.04
0.13 0.06 0.06 0.05 0.02 0.03 0.02 0.03 0.04 0.04 0.04 0.03 0.02 0.01 0.01 0.01 0.01 0.00 0.00 0.01 0.03 0.01 0.00 0.00 0.00 0.01 0.01 0.01 0.02 0.02 0.02 0.08 0.08 0.04 0.07 0.08 0.05 0.05 0.04 0.03 0.04 0.04 0.03 0.02
0.42 0.30 0.17 0.23 0.14 0.10 0.15 0.11 0.12 0.14 0.14 0.13 0.13 0.12 0.10 0.08 0.06 0.04 0.02 0.02 0.02 0.02 0.01 0.01 0.01 0.02 0.03 0.03 0.03 0.03 0.04 0.08 0.15 0.06 0.03 0.02 0.02 0.02 0.02 0.04 0.04 0.05 0.05 0.07
0.31 0.32 0.20 0.30 0.35 0.25 0.29 0.33 0.34 0.35 0.34 0.35 0.29 0.21 0.19 0.17 0.15 0.11 0.09 0.06 0.04 0.04 0.03 0.03 0.03 0.03 0.03 0.03 0.03 0.03 0.04 0.06 0.06 0.04 0.05 0.05 0.06 0.05 0.05 0.04 0.03 0.03 0.03 0.10
0.10 0.22 0.18 0.11 0.16 0.19 0.27 0.30 0.29 0.34 0.36 0.33 0.29 0.27 0.23 0.18 0.15 0.13 0.11 0.09 0.07 0.07 0.06 0.06 0.09 0.08 0.06 0.05 0.05 0.04 0.03 0.03 0.04 0.04 0.05 0.12 0.18 0.08 0.05 0.05 0.04 0.04 0.05 0.06
0.27 0.18 0.11 0.09 0.11 0.14 0.15 0.11 0.10 0.11 0.10 0.08 0.08 0.07 0.09 0.06 0.04 0.04 0.04 0.05 0.05 0.05 0.06 0.07 0.10 0.08 0.07 0.09 0.10 0.06 0.06 0.07 0.07 0.07 0.10 0.15 0.14 0.15 0.14 0.17 0.16 0.12 0.11 0.10
0.56 0.60 0.44 0.44 0.40 0.30 0.21 0.15 0.12 0.11 0.07 0.06 0.07 0.05 0.04 0.04 0.03 0.05 0.06 0.03 0.01 0.02 0.03 0.03 0.04 0.05 0.05 0.06 0.06 0.08 0.13 0.16 0.18 0.17 0.20 0.22 0.17 0.18 0.15 0.15 0.16 0.13 0.12 0.12
0.25 0.33 0.40 0.29 0.16 0.20 0.27 0.25 0.17 0.13 0.10 0.09 0.11 0.08 0.07 0.05 0.03 0.04 0.07 0.13 0.08 0.05 0.05 0.06 0.07 0.07 0.09 0.09 0.07 0.10 0.18 0.22 0.26 0.26 0.22 0.21 0.20 0.19 0.18 0.20 0.20 0.17 0.14 0.11
0.14 0.19 0.24 0.22 0.16 0.13 0.17 0.27 0.23 0.20 0.22 0.22 0.22 0.19 0.19 0.17 0.19 0.25 0.18 0.16 0.17 0.10 0.08 0.10 0.14 0.17 0.19 0.15 0.11 0.17 0.25 0.24 0.21 0.20 0.21 0.21 0.19 0.18 0.18 0.18 0.17 0.14 0.10 0.08
0.09 0.13 0.20 0.25 0.24 0.18 0.16 0.16 0.16 0.22 0.28 0.27 0.26 0.28 0.30 0.33 0.29 0.29 0.28 0.24 0.21 0.20 0.21 0.23 0.23 0.20 0.18 0.16 0.23 0.28 0.27 0.26 0.24 0.21 0.19 0.18 0.16 0.15 0.14 0.13 0.11 0.08 0.06 0.06
0.17 0.16 0.17 0.17 0.16 0.12 0.11 0.10 0.10 0.09 0.10 0.12 0.14 0.19 0.23 0.28 0.30 0.26 0.26 0.20 0.21 0.26 0.25 0.23 0.21 0.18 0.15 0.19 0.27 0.26 0.25 0.23 0.22 0.20 0.16 0.14 0.11 0.11 0.10 0.09 0.07 0.06 0.06 0.05
0.05 0.06 0.05 0.06 0.09 0.10 0.10 0.10 0.09 0.08 0.09 0.08 0.06 0.06 0.10 0.14 0.16 0.17 0.18 0.22 0.22 0.24 0.17 0.15 0.16 0.15 0.13 0.16 0.15 0.12 0.11 0.11 0.11 0.11 0.10 0.08 0.07 0.06 0.05 0.05 0.04 0.03 0.02 0.01
0.09 0.10 0.09 0.07 0.06 0.06 0.06 0.07 0.09 0.10 0.10 0.08 0.09 0.09 0.08 0.09 0.13 0.15 0.13 0.17 0.20 0.19 0.11 0.06 0.07 0.08 0.08 0.08 0.05 0.04 0.03 0.03 0.03 0.04 0.04 0.04 0.04 0.03 0.03 0.03 0.02 0.02 0.02 0.02

GFSNGP_prec_precacc_075.txt.gz
Total_Precipitation_Accumulation
0.12 0.22 0.58 0.38 0.14 0.10 0.39 0.19 0.26 0.09 0.04 0.04 0.04 0.05 0.05 0.04 0.03 0.03 0.03 0.02 0.02 0.00 0.00 0.01 0.05 0.23 0.17 0.14 0.20 0.19 0.16 0.13 0.09 0.08 0.09 0.07 0.05 0.07 0.07 0.06 0.06 0.04 0.08 0.15
0.34 0.25 0.35 0.27 0.07 0.11 0.12 0.04 0.05 0.02 0.04 0.05 0.05 0.03 0.08 0.06 0.02 0.01 0.00 0.00 0.00 0.00 0.00 0.00 0.03 0.08 0.15 0.24 0.15 0.18 0.11 0.11 0.08 0.08 0.08 0.09 0.08 0.05 0.08 0.08 0.08 0.12 0.11 0.11
0.48 0.18 0.19 0.26 0.08 0.06 0.09 0.07 0.03 0.04 0.05 0.07 0.25 0.45 0.39 0.10 0.04 0.02 0.02 0.00 0.00 0.00 0.00 0.00 0.01 0.11 0.51 0.64 0.29 0.28 0.15 0.17 0.17 0.13 0.20 0.20 0.15 0.13 0.11 0.15 0.24 0.23 0.22 0.26
0.83 0.44 0.44 0.25 0.10 0.14 0.15 0.12 0.06 0.05 0.07 0.08 0.13 0.18 0.12 0.04 0.02 0.02 0.01 0.01 0.00 0.00 0.00 0.00 0.03 0.28 0.83 0.87 0.28 0.25 0.22 0.33 0.57 0.48 0.52 0.60 0.75 0.63 0.64 0.52 0.46 0.54 0.56 0.58
0.42 0.30 0.15 0.04 0.07 0.11 0.09 0.09 0.03 0.03 0.02 0.01 0.04 0.13 0.14 0.04 0.02 0.02 0.01 0.01 0.01 0.00 0.00 0.02 0.05 0.18 0.35 0.75 0.92 0.72 0.63 0.81 0.80 0.70 0.74 0.84 1.06 1.14 0.80 0.97 0.78 0.78 0.68 0.55
0.15 0.21 0.08 0.02 0.01 0.02 0.02 0.02 0.00 0.00 0.01 0.00 0.00 0.04 0.22 0.29 0.12 0.05 0.02 0.01 0.01 0.01 0.02 0.04 0.03 0.08 0.20 0.35 0.94 1.21 0.79 0.81 0.88 0.75 0.73 0.89 0.99 0.98 0.72 0.61 0.65 0.58 0.63 0.60
0.13 0.17 0.01 0.00 0.00 0.00 0.03 0.02 0.00 0.00 0.00 0.00 0.00 0.00 0.01 0.16 0.24 0.16 0.10 0.07 0.09 0.09 0.17 0.22 0.17 0.32 0.49 0.49 0.81 1.10 0.86 0.88 0.70 0.73 0.45 0.61 0.69 0.62 0.47 0.37 0.42 0.43 0.39 0.32
0.06 0.10 0.01 0.00 0.00 0.00 0.00 0.00 0.00 0.01 0.01 0.00 0.01 0.00 0.00 0.01 0.04 0.16 0.17 0.15 0.16 0.24 0.55 0.66 0.68 0.58 0.54 0.44 0.32 0.33 0.44 0.46 0.31 0.26 0.23 0.18 0.19 0.27 0.24 0.14 0.10 0.04 0.01 0.00
0.00 0.00 0.00 0.00 0.00 0.00 0.00 0.00 0.00 0.00 0.00 0.00 0.01 0.00 0.00 0.01 0.00 0.00 0.01 0.02 0.05 0.15 0.16 0.09 0.14 0.12 0.15 0.06 0.02 0.02 0.02 0.01 0.02 0.02 0.02 0.01 0.00 0.00 0.00 0.00 0.00 0.00 0.00 0.00
0.00 0.00 0.00 0.00 0.00 0.00 0.00 0.00 0.00 0.01 0.01 0.00 0.00 0.00 0.01 0.02 0.02 0.03 0.02 0.00 0.00 0.00 0.00 0.00 0.00 0.00 0.00 0.01 0.02 0.02 0.01 0.00 0.00 0.01 0.01 0.01 0.00 0.00 0.00 0.00 0.00 0.00 0.00 0.00
0.00 0.00 0.00 0.00 0.00 0.00 0.00 0.00 0.00 0.00 0.00 0.00 0.00 0.00 0.00 0.00 0.01 0.02 0.06 0.08 0.08 0.07 0.04 0.01 0.00 0.01 0.00 0.00 0.00 0.00 0.01 0.01 0.00 0.00 0.00 0.00 0.00 0.00 0.00 0.00 0.00 0.00 0.00 0.00
0.00 0.00 0.00 0.00 0.00 0.00 0.00 0.00 0.00 0.00 0.00 0.00 0.00 0.00 0.00 0.00 0.00 0.00 0.01 0.03 0.07 0.16 0.22 0.25 0.21 0.17 0.13 0.11 0.11 0.09 0.06 0.04 0.04 0.04 0.04 0.04 0.03 0.02 0.04 0.02 0.02 0.01 0.01 0.01
0.00 0.00 0.00 0.00 0.00 0.00 0.00 0.00 0.00 0.00 0.00 0.00 0.00 0.00 0.01 0.00 0.00 0.00 0.00 0.00 0.01 0.04 0.04 0.08 0.17 0.24 0.22 0.18 0.16 0.16 0.15 0.13 0.12 0.12 0.05 0.03 0.02 0.02 0.03 0.05 0.05 0.03 0.02 0.02
0.01 0.00 0.00 0.00 0.00 0.00 0.00 0.00 0.00 0.00 0.00 0.00 0.00 0.00 0.00 0.00 0.00 0.00 0.00 0.00 0.00 0.00 0.00 0.00 0.01 0.02 0.07 0.12 0.13 0.12 0.13 0.21 0.15 0.14 0.13 0.10 0.06 0.04 0.03 0.04 0.04 0.06 0.08 0.07
0.01 0.02 0.01 0.01 0.00 0.00 0.00 0.00 0.00 0.00 0.00 0.00 0.00 0.00 0.00 0.00 0.00 0.00 0.00 0.00 0.00 0.00 0.00 0.00 0.00 0.00 0.00 0.01 0.01 0.02 0.06 0.09 0.12 0.14 0.14 0.14 0.07 0.04 0.03 0.03 0.04 0.06 0.07 0.07
0.13 0.06 0.06 0.05 0.02 0.03 0.02 0.03 0.04 0.04 0.04 0.03 0.02 0.01 0.01 0.01 0.01 0.00 0.00 0.01 0.03 0.01 0.00 0.00 0.00 0.01 0.01 0.01 0.02 0.02 0.02 0.11 0.13 0.07 0.09 0.11 0.06 0.05 0.04 0.03 0.04 0.04 0.03 0.02
0.42 0.30 0.17 0.23 0.14 0.10 0.15 0.11 0.12 0.14 0.14 0.13 0.13 0.12 0.10 0.08 0.06 0.04 0.02 0.02 0.02 0.02 0.01 0.01 0.01 0.02 0.03 0.03 0.04 0.03 0.04 0.09 0.17 0.08 0.04 0.04 0.04 0.04 0.03 0.05 0.05 0.05 0.06 0.10
0.31 0.32 0.20 0.30 0.35 0.25 0.29 0.33 0.34 0.35 0.34 0.35 0.29 0.21 0.19 0.17 0.15 0.11 0.09 0.06 0.04 0.04 0.03 0.03 0.03 0.03 0.03 0.03 0.04 0.04 0.04 0.06 0.07 0.05 0.06 0.06 0.08 0.07 0.07 0.06 0.04 0.04 0.03 0.13
0.10 0.22 0.18 0.11 0.16 0.19 0.27 0.30 0.29 0.34 0.36 0.33 0.29 0.27 0.23 0.18 0.15 0.13 0.11 0.09 0.07 0.07 0.06 0.06 0.09 0.08 0.06 0.05 0.05 0.04 0.04 0.04 0.05 0.05 0.06 0.15 0.21 0.10 0.07 0.06 0.05 0.05 0.05 0.07
0.27 0.18 0.11 0.09 0.11 0.14 0.15 0.11 0.10 0.11 0.10 0.08 0.08 0.07 0.09 0.06 0.04 0.04 0.04 0.05 0.05 0.05 0.06 0.07 0.10 0.08 0.07 0.09 0.10 0.07 0.06 0.08 0.08 0.08 0.12 0.16 0.15 0.15 0.14 0.19 0.16 0.13 0.12 0.11
0.56 0.60 0.44 0.44 0.40 0.30 0.21 0.15 0.12 0.11 0.07 0.06 0.07 0.05 0.04 0.04 0.03 0.05 0.07 0.04 0.01 0.02 0.03 0.03 0.06 0.06 0.05 0.06 0.06 0.08 0.13 0.17 0.20 0.19 0.21 0.23 0.18 0.19 0.16 0.16 0.18 0.15 0.13 0.13
0.25 0.33 0.40 0.29 0.16 0.20 0.27 0.25 0.17 0.13 0.10 0.09 0.11 0.08 0.07 0.05 0.03 0.04 0.07 0.14 0.08 0.06 0.07 0.08 0.09 0.09 0.10 0.10 0.09 0.11 0.18 0.23 0.27 0.28 0.24 0.23 0.22 0.22 0.21 0.23 0.23 0.20 0.17 0.14
0.14 0.19 0.24 0.22 0.16 0.13 0.17 0.27 0.23 0.20 0.22 0.22 0.22 0.19 0.19 0.17 0.19 0.25 0.19 0.17 0.18 0.12 0.12 0.13 0.17 0.21 0.23 0.19 0.13 0.17 0.25 0.24 0.22 0.23 0.24 0.24 0.23 0.22 0.23 0.22 0.21 0.17 0.13 0.10
0.09 0.13 0.20 0.25 0.24 0.18 0.16 0.16 0.16 0.22 0.28 0.27 0.26 0.28 0.30 0.33 0.29 0.29 0.28 0.24 0.23 0.23 0.24 0.26 0.27 0.27 0.24 0.17 0.24 0.29 0.28 0.27 0.26 0.23 0.22 0.22 0.20 0.20 0.20 0.19 0.15 0.12 0.10 0.09
0.17 0.16 0.17 0.17 0.16 0.12 0.11 0.10 0.10 0.09 0.10 0.12 0.14 0.19 0.23 0.28 0.30 0.26 0.26 0.20 0.23 0.28 0.25 0.24 0.24 0.22 0.17 0.21 0.30 0.28 0.27 0.25 0.24 0.22 0.18 0.16 0.14 0.15 0.15 0.14 0.11 0.09 0.09 0.07
0.05 0.06 0.05 0.06 0.09 0.10 0.10 0.10 0.09 0.08 0.09 0.08 0.06 0.06 0.10 0.14 0.16 0.17 0.18 0.23 0.24 0.25 0.18 0.16 0.19 0.19 0.15 0.18 0.16 0.13 0.13 0.13 0.13 0.14 0.12 0.11 0.09 0.07 0.08 0.07 0.06 0.05 0.03 0.02
0.09 0.10 0.09 0.07 0.06 0.06 0.06 0.07 0.10 0.11 0.10 0.08 0.09 0.09 0.08 0.09 0.13 0.15 0.13 0.18 0.21 0.21 0.14 0.09 0.10 0.12 0.11 0.09 0.05 0.04 0.04 0.03 0.04 0.06 0.06 0.06 0.07 0.06 0.05 0.04 0.04 0.03 0.03 0.03

GFSNGP_prec_precacc_078.txt.gz
Total_Precipitation_Accumulation
0.12 0.22 0.58 0.38 0.14 0.10 0.39 0.19 0.26 0.09 0.04 0.04 0.04 0.05 0.05 0.04 0.03 0.03 0.03 0.02 0.02 0.00 0.00 0.01 0.05 0.23 0.17 0.14 0.20 0.19 0.16 0.13 0.09 0.08 0.09 0.07 0.05 0.07 0.07 0.06 0.06 0.04 0.08 0.15
0.34 0.25 0.35 0.27 0.07 0.11 0.12 0.04 0.05 0.02 0.04 0.05 0.05 0.03 0.08 0.06 0.02 0.01 0.00 0.00 0.00 0.00 0.00 0.00 0.03 0.08 0.15 0.24 0.15 0.18 0.11 0.11 0.08 0.08 0.08 0.09 0.08 0.05 0.08 0.08 0.08 0.12 0.11 0.11
0.48 0.18 0.19 0.26 0.08 0.06 0.09 0.07 0.03 0.04 0.05 0.07 0.25 0.45 0.39 0.10 0.04 0.02 0.02 0.00 0.00 0.00 0.00 0.00 0.01 0.11 0.51 0.64 0.29 0.28 0.15 0.17 0.17 0.13 0.20 0.20 0.15 0.13 0.11 0.15 0.24 0.23 0.22 0.26
0.83 0.44 0.44 0.25 0.10 0.14 0.15 0.12 0.06 0.05 0.07 0.08 0.13 0.18 0.12 0.04 0.02 0.02 0.01 0.01 0.00 0.00 0.00 0.00 0.03 0.28 0.83 0.87 0.28 0.25 0.22 0.33 0.57 0.48 0.52 0.60 0.75 0.63 0.64 0.52 0.46 0.54 0.56 0.58
0.42 0.30 0.15 0.04 0.07 0.11 0.09 0.09 0.03 0.03 0.02 0.01 0.04 0.13 0.14 0.04 0.02 0.02 0.01 0.01 0.01 0.00 0.00 0.02 0.05 0.18 0.35 0.75 0.92 0.72 0.63 0.81 0.80 0.70 0.74 0.84 1.06 1.14 0.80 0.97 0.78 0.78 0.68 0.55
0.15 0.21 0.08 0.02 0.01 0.02 0.02 0.02 0.00 0.00 0.01 0.00 0.00 0.04 0.22 0.29 0.12 0.05 0.02 0.01 0.01 0.01 0.02 0.04 0.03 0.08 0.20 0.35 0.94 1.21 0.79 0.81 0.88 0.75 0.73 0.89 0.99 0.98 0.72 0.61 0.65 0.58 0.63 0.60
0.13 0.17 0.01 0.00 0.00 0.00 0.03 0.02 0.00 0.00 0.00 0.00 0.00 0.00 0.01 0.16 0.24 0.16 0.10 0.07 0.09 0.09 0.17 0.22 0.17 0.32 0.49 0.49 0.81 1.10 0.86 0.88 0.70 0.73 0.45 0.61 0.69 0.62 0.47 0.37 0.42 0.43 0.39 0.32
0.06 0.10 0.01 0.00 0.00 0.00 0.00 0.00 0.00 0.01 0.01 0.00 0.01 0.00 0.00 0.01 0.04 0.16 0.17 0.15 0.16 0.24 0.55 0.66 0.68 0.58 0.54 0.44 0.32 0.33 0.44 0.46 0.31 0.26 0.23 0.18 0.19 0.27 0.24 0.14 0.10 0.04 0.01 0.00
0.00 0.00 0.00 0.00 0.00 0.00 0.00 0.00 0.00 0.00 0.00 0.00 0.01 0.00 0.00 0.01 0.00 0.00 0.01 0.02 0.05 0.15 0.16 0.09 0.14 0.12 0.15 0.06 0.02 0.02 0.02 0.01 0.02 0.02 0.02 0.01 0.00 0.00 0.00 0.00 0.00 0.00 0.00 0.00
0.00 0.00 0.00 0.00 0.00 0.00 0.00 0.00 0.00 0.01 0.01 0.00 0.00 0.00 0.01 0.02 0.02 0.03 0.02 0.00 0.00 0.00 0.00 0.00 0.00 0.00 0.00 0.01 0.02 0.02 0.01 0.00 0.00 0.01 0.01 0.01 0.00 0.00 0.00 0.00 0.00 0.00 0.00 0.00
0.00 0.00 0.00 0.00 0.00 0.00 0.00 0.00 0.00 0.00 0.00 0.00 0.00 0.00 0.00 0.00 0.01 0.02 0.06 0.08 0.08 0.07 0.04 0.01 0.00 0.01 0.00 0.00 0.00 0.00 0.01 0.01 0.00 0.00 0.00 0.00 0.00 0.00 0.00 0.00 0.00 0.00 0.00 0.00
0.00 0.00 0.00 0.00 0.00 0.00 0.00 0.00 0.00 0.00 0.00 0.00 0.00 0.00 0.00 0.00 0.00 0.00 0.01 0.03 0.07 0.16 0.22 0.25 0.21 0.17 0.13 0.11 0.11 0.09 0.06 0.04 0.04 0.04 0.04 0.04 0.03 0.02 0.04 0.03 0.02 0.01 0.01 0.01
0.00 0.00 0.00 0.00 0.00 0.00 0.00 0.00 0.00 0.00 0.00 0.00 0.00 0.00 0.01 0.00 0.00 0.00 0.00 0.00 0.01 0.04 0.04 0.08 0.17 0.24 0.22 0.18 0.16 0.16 0.15 0.13 0.13 0.14 0.09 0.05 0.03 0.02 0.03 0.05 0.05 0.03 0.03 0.02
0.01 0.00 0.00 0.00 0.00 0.00 0.00 0.00 0.00 0.00 0.00 0.00 0.00 0.00 0.00 0.00 0.00 0.00 0.00 0.00 0.00 0.00 0.00 0.00 0.01 0.02 0.07 0.12 0.13 0.12 0.13 0.22 0.16 0.16 0.16 0.16 0.15 0.13 0.09 0.07 0.06 0.06 0.08 0.08
0.01 0.02 0.01 0.01 0.00 0.00 0.00 0.00 0.00 0.00 0.00 0.00 0.00 0.00 0.00 0.00 0.00 0.00 0.00 0.00 0.00 0.00 0.00 0.00 0.00 0.00 0.00 0.01 0.01 0.02 0.06 0.09 0.13 0.15 0.16 0.20 0.13 0.12 0.11 0.09 0.07 0.07 0.08 0.08
0.13 0.06 0.06 0.05 0.02 0.03 0.02 0.03 0.04 0.04 0.04 0.03 0.02 0.01 0.01 0.01 0.01 0.00 0.00 0.01 0.03 0.01 0.00 0.00 0.00 0.01 0.01 0.01 0.02 0.02 0.03 0.11 0.13 0.07 0.10 0.14 0.11 0.11 0.09 0.08 0.07 0.05 0.04 0.03
0.42 0.30 0.17 0.23 0.14 0.10 0.15 0.11 0.12 0.14 0.14 0.13 0.13 0.12 0.10 0.08 0.06 0.04 0.02 0.02 0.02 0.02 0.01 0.01 0.01 0.02 0.03 0.03 0.04 0.04 0.05 0.09 0.17 0.09 0.04 0.05 0.06 0.07 0.07 0.09 0.07 0.07 0.07 0.12
0.31 0.32 0.20 0.30 0.35 0.25 0.29 0.33 0.34 0.35 0.34 0.35 0.29 0.21 0.19 0.17 0.15 0.11 0.09 0.06 0.04 0.04 0.03 0.03 0.03 0.03 0.03 0.03 0.04 0.04 0.05 0.07 0.08 0.06 0.06 0.07 0.08 0.08 0.08 0.08 0.07 0.06 0.05 0.17
0.10 0.22 0.18 0.11 0.16 0.19 0.27 0.30 0.29 0.34 0.36 0.33 0.29 0.27 0.23 0.18 0.15 0.13 0.11 0.09 0.07 0.07 0.06 0.06 0.09 0.08 0.06 0.05 0.06 0.06 0.04 0.04 0.06 0.06 0.07 0.16 0.23 0.11 0.07 0.07 0.05 0.05 0.06 0.08
0.27 0.18 0.11 0.09 0.11 0.14 0.15 0.11 0.10 0.11 0.10 0.08 0.08 0.07 0.09 0.06 0.04 0.04 0.04 0.05 0.05 0.05 0.06 0.07 0.10 0.09 0.08 0.10 0.12 0.09 0.07 0.09 0.10 0.10 0.14 0.18 0.16 0.16 0.15 0.21 0.18 0.13 0.12 0.12
0.56 0.60 0.44 0.44 0.40 0.30 0.21 0.15 0.12 0.11 0.07 0.06 0.07 0.05 0.04 0.04 0.03 0.05 0.07 0.04 0.01 0.02 0.03 0.03 0.06 0.07 0.05 0.07 0.08 0.10 0.14 0.18 0.22 0.20 0.23 0.25 0.20 0.20 0.18 0.18 0.20 0.17 0.15 0.15
0.25 0.33 0.40 0.29 0.16 0.20 0.27 0.25 0.17 0.13 0.10 0.09 0.11 0.08 0.07 0.05 0.03 0.04 0.07 0.14 0.08 0.06 0.07 0.08 0.09 0.10 0.11 0.12 0.12 0.14 0.22 0.26 0.28 0.28 0.25 0.24 0.24 0.23 0.22 0.24 0.25 0.22 0.20 0.17
0.14 0.19 0.24 0.22 0.16 0.13 0.17 0.27 0.23 0.20 0.22 0.22 0.22 0.19 0.19 0.17 0.19 0.25 0.19 0.17 0.18 0.12 0.12 0.13 0.17 0.23 0.26 0.22 0.15 0.19 0.27 0.25 0.23 0.23 0.25 0.26 0.25 0.24 0.24 0.23 0.22 0.19 0.15 0.13
0.09 0.13 0.20 0.25 0.24 0.18 0.16 0.16 0.16 0.22 0.28 0.27 0.26 0.28 0.30 0.33 0.29 0.29 0.28 0.24 0.23 0.23 0.24 0.26 0.28 0.28 0.28 0.20 0.25 0.30 0.30 0.29 0.27 0.25 0.24 0.24 0.22 0.22 0.21 0.20 0.17 0.14 0.12 0.12
0.17 0.16 0.17 0.17 0.16 0.12 0.11 0.10 0.10 0.09 0.10 0.12 0.14 0.19 0.23 0.28 0.31 0.27 0.26 0.20 0.23 0.28 0.26 0.24 0.24 0.23 0.19 0.23 0.32 0.31 0.29 0.28 0.27 0.24 0.20 0.18 0.16 0.16 0.16 0.15 0.14 0.13 0.13 0.12
0.05 0.06 0.05 0.06 0.09 0.10 0.10 0.10 0.09 0.09 0.09 0.08 0.06 0.06 0.10 0.14 0.16 0.17 0.18 0.23 0.24 0.25 0.18 0.17 0.20 0.20 0.16 0.20 0.17 0.15 0.16 0.16 0.16 0.16 0.14 0.12 0.11 0.09 0.09 0.09 0.09 0.09 0.08 0.08
0.09 0.10 0.09 0.07 0.06 0.06 0.06 0.07 0.11 0.11 0.11 0.09 0.10 0.09 0.08 0.09 0.13 0.15 0.13 0.18 0.21 0.21 0.15 0.10 0.12 0.14 0.14 0.12 0.07 0.05 0.06 0.05 0.05 0.08 0.08 0.09 0.08 0.07 0.07 0.07 0.06 0.05 0.05 0.05

GFSNGP_prec_precacc_081.txt.gz
Total_Precipitation_Accumulation
0.12 0.22 0.58 0.38 0.14 0.10 0.39 0.19 0.26 0.09 0.04 0.04 0.04 0.05 0.05 0.04 0.03 0.03 0.03 0.02 0.02 0.00 0.00 0.01 0.05 0.23 0.17 0.14 0.20 0.19 0.16 0.13 0.09 0.08 0.09 0.07 0.05 0.07 0.07 0.06 0.06 0.04 0.08 0.15
0.34 0.25 0.35 0.27 0.07 0.11 0.12 0.04 0.05 0.02 0.04 0.05 0.05 0.03 0.08 0.06 0.02 0.01 0.00 0.00 0.00 0.00 0.00 0.00 0.03 0.08 0.15 0.24 0.15 0.18 0.11 0.11 0.08 0.08 0.08 0.09 0.08 0.05 0.08 0.08 0.08 0.12 0.11 0.11
0.48 0.18 0.19 0.26 0.08 0.06 0.09 0.07 0.03 0.04 0.05 0.07 0.25 0.45 0.39 0.10 0.04 0.02 0.02 0.00 0.00 0.00 0.00 0.00 0.01 0.11 0.51 0.64 0.29 0.28 0.15 0.17 0.17 0.13 0.20 0.20 0.15 0.13 0.11 0.15 0.24 0.23 0.22 0.26
0.83 0.44 0.44 0.25 0.10 0.14 0.15 0.12 0.06 0.05 0.07 0.08 0.13 0.18 0.12 0.04 0.02 0.02 0.01 0.01 0.00 0.00 0.00 0.00 0.03 0.28 0.83 0.87 0.28 0.25 0.22 0.33 0.57 0.48 0.52 0.60 0.75 0.63 0.64 0.52 0.46 0.54 0.56 0.58
0.42 0.30 0.15 0.04 0.07 0.11 0.09 0.09 0.03 0.03 0.02 0.01 0.04 0.13 0.14 0.04 0.02 0.02 0.01 0.01 0.01 0.00 0.00 0.02 0.05 0.18 0.35 0.75 0.92 0.72 0.63 0.81 0.80 0.70 0.74 0.84 1.06 1.14 0.80 0.97 0.78 0.78 0.68 0.55
0.15 0.21 0.08 0.02 0.01 0.02 0.02 0.02 0.00 0.00 0.01 0.00 0.00 0.04 0.22 0.29 0.12 0.05 0.02 0.01 0.01 0.01 0.02 0.04 0.03 0.08 0.20 0.35 0.94 1.21 0.79 0.81 0.88 0.75 0.73 0.89 0.99 0.98 0.72 0.61 0.65 0.58 0.63 0.60
0.13 0.17 0.01 0.00 0.00 0.00 0.03 0.02 0.00 0.00 0.00 0.00 0.00 0.00 0.01 0.16 0.24 0.16 0.10 0.07 0.09 0.09 0.17 0.22 0.17 0.32 0.49 0.49 0.81 1.10 0.86 0.88 0.70 0.73 0.45 0.61 0.69 0.62 0.47 0.37 0.42 0.43 0.39 0.32
0.06 0.10 0.01 0.00 0.00 0.00 0.00 0.00 0.00 0.01 0.01 0.00 0.01 0.00 0.00 0.01 0.04 0.16 0.17 0.15 0.16 0.24 0.55 0.66 0.68 0.58 0.54 0.44 0.32 0.33 0.44 0.46 0.31 0.26 0.23 0.18 0.19 0.27 0.24 0.14 0.10 0.04 0.01 0.00
0.00 0.00 0.00 0.00 0.00 0.00 0.00 0.00 0.00 0.00 0.00 0.00 0.01 0.00 0.00 0.01 0.00 0.00 0.01 0.02 0.05 0.15 0.16 0.09 0.14 0.12 0.15 0.06 0.02 0.02 0.02 0.01 0.02 0.02 0.02 0.01 0.00 0.00 0.00 0.00 0.00 0.00 0.00 0.00
0.00 0.00 0.00 0.00 0.00 0.00 0.00 0.00 0.00 0.01 0.01 0.00 0.00 0.00 0.01 0.02 0.02 0.03 0.02 0.00 0.00 0.00 0.00 0.00 0.00 0.00 0.00 0.01 0.02 0.02 0.01 0.00 0.00 0.01 0.01 0.01 0.00 0.00 0.00 0.00 0.00 0.00 0.00 0.00
0.00 0.00 0.00 0.00 0.00 0.00 0.00 0.00 0.00 0.00 0.00 0.00 0.00 0.00 0.00 0.00 0.01 0.02 0.06 0.08 0.08 0.07 0.04 0.01 0.00 0.01 0.00 0.00 0.00 0.00 0.01 0.01 0.00 0.00 0.00 0.00 0.00 0.00 0.00 0.00 0.01 0.00 0.00 0.00
0.00 0.00 0.00 0.00 0.00 0.00 0.00 0.00 0.00 0.00 0.00 0.00 0.00 0.00 0.00 0.00 0.00 0.00 0.01 0.03 0.07 0.16 0.22 0.25 0.21 0.17 0.13 0.11 0.11 0.09 0.06 0.04 0.04 0.04 0.04 0.05 0.04 0.04 0.06 0.04 0.03 0.02 0.01 0.01
0.00 0.00 0.00 0.00 0.00 0.00 0.00 0.00 0.00 0.00 0.00 0.00 0.00 0.00 0.01 0.00 0.00 0.00 0.00 0.00 0.01 0.04 0.04 0.08 0.17 0.24 0.22 0.18 0.16 0.16 0.15 0.13 0.13 0.14 0.09 0.06 0.06 0.07 0.09 0.10 0.08 0.05 0.04 0.03
0.01 0.00 0.00 0.00 0.00 0.00 0.00 0.00 0.00 0.00 0.00 0.00 0.00 0.00 0.00 0.00 0.00 0.00 0.00 0.00 0.00 0.00 0.00 0.00 0.01 0.02 0.07 0.12 0.13 0.12 0.13 0.22 0.16 0.16 0.17 0.17 0.17 0.17 0.15 0.12 0.10 0.08 0.11 0.11
0.01 0.02 0.01 0.01 0.00 0.00 0.00 0.00 0.00 0.00 0.00 0.00 0.00 0.00 0.00 0.00 0.00 0.00 0.00 0.00 0.00 0.00 0.00 0.00 0.00 0.00 0.00 0.01 0.01 0.02 0.06 0.09 0.13 0.15 0.16 0.20 0.14 0.13 0.15 0.17 0.17 0.15 0.14 0.16
0.13 0.06 0.06 0.05 0.02 0.03 0.02 0.03 0.04 0.04 0.04 0.03 0.02 0.01 0.01 0.01 0.01 0.00 0.00 0.01 0.03 0.01 0.00 0.00 0.00 0.01 0.01 0.01 0.02 0.02 0.03 0.12 0.13 0.07 0.11 0.14 0.11 0.11 0.10 0.11 0.13 0.14 0.13 0.11
0.42 0.30 0.17 0.23 0.14 0.10 0.15 0.11 0.12 0.14 0.14 0.13 0.13 0.12 0.10 0.08 0.06 0.04 0.02 0.02 0.02 0.02 0.01 0.01 0.01 0.02 0.03 0.03 0.04 0.04 0.05 0.09 0.17 0.09 0.05 0.05 0.06 0.07 0.08 0.11 0.11 0.11 0.13 0.21
0.31 0.32 0.20 0.30 0.35 0.25 0.29 0.33 0.34 0.35 0.34 0.35 0.29 0.21 0.19 0.17 0.15 0.11 0.09 0.06 0.04 0.04 0.03 0.03 0.03 0.03 0.03 0.03 0.04 0.05 0.05 0.07 0.08 0.06 0.06 0.07 0.09 0.09 0.09 0.09 0.08 0.08 0.07 0.24
0.10 0.22 0.18 0.11 0.16 0.19 0.27 0.30 0.29 0.34 0.36 0.33 0.29 0.27 0.23 0.18 0.15 0.13 0.11 0.09 0.07 0.07 0.06 0.06 0.09 0.08 0.06 0.05 0.07 0.07 0.06 0.05 0.06 0.06 0.07 0.17 0.24 0.12 0.09 0.08 0.06 0.06 0.07 0.09
0.27 0.18 0.11 0.09 0.11 0.14 0.15 0.11 0.10 0.11 0.10 0.08 0.08 0.07 0.09 0.06 0.04 0.04 0.04 0.05 0.05 0.05 0.06 0.07 0.10 0.09 0.08 0.10 0.12 0.10 0.07 0.09 0.10 0.10 0.15 0.20 0.18 0.17 0.16 0.23 0.19 0.15 0.13 0.12
0.56 0.60 0.44 0.44 0.40 0.30 0.21 0.15 0.12 0.11 0.07 0.06 0.07 0.05 0.04 0.04 0.03 0.05 0.07 0.04 0.01 0.02 0.03 0.03 0.06 0.07 0.05 0.07 0.09 0.11 0.15 0.19 0.23 0.22 0.25 0.26 0.20 0.20 0.18 0.18 0.21 0.18 0.16 0.15
0.25 0.33 0.40 0.29 0.16 0.20 0.27 0.25 0.17 0.13 0.10 0.09 0.11 0.08 0.07 0.05 0.03 0.04 0.07 0.14 0.08 0.06 0.07 0.08 0.09 0.10 0.12 0.13 0.13 0.16 0.25 0.28 0.30 0.29 0.25 0.25 0.24 0.24 0.23 0.25 0.26 0.23 0.21 0.18
0.14 0.19 0.24 0.22 0.16 0.13 0.17 0.27 0.23 0.20 0.22 0.22 0.22 0.19 0.19 0.17 0.19 0.25 0.19 0.17 0.18 0.12 0.12 0.13 0.17 0.23 0.27 0.24 0.16 0.21 0.29 0.27 0.24 0.24 0.26 0.27 0.26 0.25 0.25 0.25 0.24 0.21 0.16 0.14
0.09 0.13 0.20 0.25 0.24 0.18 0.16 0.16 0.16 0.22 0.28 0.27 0.26 0.28 0.31 0.35 0.30 0.29 0.28 0.24 0.24 0.23 0.24 0.26 0.28 0.29 0.30 0.21 0.26 0.31 0.31 0.31 0.29 0.27 0.26 0.27 0.25 0.25 0.24 0.22 0.19 0.16 0.14 0.14
0.17 0.16 0.17 0.17 0.16 0.12 0.11 0.10 0.10 0.09 0.10 0.12 0.14 0.19 0.23 0.28 0.34 0.28 0.27 0.20 0.23 0.28 0.26 0.24 0.25 0.25 0.20 0.24 0.32 0.32 0.31 0.30 0.29 0.26 0.22 0.20 0.19 0.18 0.18 0.17 0.16 0.15 0.15 0.13
0.05 0.06 0.05 0.06 0.09 0.10 0.10 0.10 0.10 0.09 0.09 0.09 0.06 0.06 0.10 0.14 0.16 0.18 0.19 0.23 0.24 0.25 0.18 0.17 0.22 0.22 0.18 0.22 0.19 0.16 0.18 0.17 0.17 0.17 0.16 0.15 0.13 0.11 0.10 0.11 0.11 0.11 0.10 0.09
0.09 0.10 0.09 0.07 0.06 0.06 0.06 0.07 0.11 0.11 0.11 0.09 0.10 0.09 0.09 0.09 0.13 0.15 0.13 0.18 0.21 0.22 0.15 0.12 0.14 0.17 0.16 0.14 0.09 0.08 0.09 0.08 0.07 0.10 0.10 0.11 0.11 0.09 0.08 0.08 0.07 0.07 0.07 0.06

GFSNGP_prec_precacc_084.txt.gz
Total_Precipitation_Accumulation
0.12 0.22 0.58 0.38 0.14 0.10 0.39 0.19 0.26 0.09 0.04 0.04 0.04 0.05 0.05 0.04 0.03 0.03 0.03 0.02 0.02 0.00 0.00 0.01 0.05 0.23 0.17 0.14 0.20 0.19 0.16 0.13 0.09 0.08 0.09 0.07 0.05 0.07 0.07 0.06 0.06 0.04 0.08 0.15
0.34 0.25 0.35 0.27 0.07 0.11 0.12 0.04 0.05 0.02 0.04 0.05 0.05 0.03 0.08 0.06 0.02 0.01 0.00 0.00 0.00 0.00 0.00 0.00 0.03 0.08 0.15 0.24 0.15 0.18 0.11 0.11 0.08 0.08 0.08 0.09 0.08 0.05 0.08 0.08 0.08 0.12 0.11 0.11
0.48 0.18 0.19 0.26 0.08 0.06 0.09 0.07 0.03 0.04 0.05 0.07 0.25 0.45 0.39 0.10 0.04 0.02 0.02 0.00 0.00 0.00 0.00 0.00 0.01 0.11 0.51 0.64 0.29 0.28 0.15 0.17 0.17 0.13 0.20 0.20 0.15 0.13 0.11 0.15 0.24 0.23 0.22 0.26
0.83 0.44 0.44 0.25 0.10 0.14 0.15 0.12 0.06 0.05 0.07 0.08 0.13 0.18 0.12 0.04 0.02 0.02 0.01 0.01 0.00 0.00 0.00 0.00 0.03 0.28 0.83 0.87 0.28 0.25 0.22 0.33 0.57 0.48 0.52 0.60 0.75 0.63 0.64 0.52 0.46 0.54 0.56 0.58
0.42 0.30 0.15 0.04 0.07 0.11 0.09 0.09 0.03 0.03 0.02 0.01 0.04 0.13 0.14 0.04 0.02 0.02 0.01 0.01 0.01 0.00 0.00 0.02 0.05 0.18 0.35 0.75 0.92 0.72 0.63 0.81 0.80 0.70 0.74 0.84 1.06 1.14 0.80 0.97 0.78 0.78 0.68 0.55
0.15 0.21 0.08 0.02 0.01 0.02 0.02 0.02 0.00 0.00 0.01 0.00 0.00 0.04 0.22 0.29 0.12 0.05 0.02 0.01 0.01 0.01 0.02 0.04 0.03 0.08 0.20 0.35 0.94 1.21 0.79 0.81 0.88 0.75 0.73 0.89 0.99 0.98 0.72 0.61 0.65 0.58 0.63 0.60
0.13 0.17 0.01 0.00 0.00 0.00 0.03 0.02 0.00 0.00 0.00 0.00 0.00 0.00 0.01 0.16 0.24 0.16 0.10 0.07 0.09 0.09 0.17 0.22 0.17 0.32 0.49 0.49 0.81 1.10 0.86 0.88 0.70 0.73 0.45 0.61 0.69 0.62 0.47 0.37 0.42 0.43 0.39 0.32
0.06 0.10 0.01 0.00 0.00 0.00 0.00 0.00 0.00 0.01 0.01 0.00 0.01 0.00 0.00 0.01 0.04 0.16 0.17 0.15 0.16 0.24 0.55 0.66 0.68 0.58 0.54 0.44 0.32 0.33 0.44 0.46 0.31 0.26 0.23 0.18 0.19 0.27 0.24 0.14 0.10 0.04 0.01 0.00
0.00 0.00 0.00 0.00 0.00 0.00 0.00 0.00 0.00 0.00 0.00 0.00 0.01 0.00 0.00 0.01 0.00 0.00 0.01 0.02 0.05 0.15 0.16 0.09 0.14 0.12 0.15 0.06 0.02 0.02 0.02 0.01 0.02 0.02 0.02 0.01 0.00 0.00 0.00 0.00 0.00 0.00 0.00 0.00
0.00 0.00 0.00 0.00 0.00 0.00 0.00 0.00 0.00 0.01 0.01 0.00 0.00 0.00 0.01 0.02 0.02 0.03 0.02 0.00 0.00 0.00 0.00 0.00 0.00 0.00 0.00 0.01 0.02 0.02 0.01 0.00 0.00 0.01 0.01 0.01 0.00 0.00 0.00 0.00 0.00 0.00 0.00 0.00
0.00 0.00 0.00 0.00 0.00 0.00 0.00 0.00 0.00 0.00 0.00 0.00 0.00 0.00 0.00 0.00 0.01 0.02 0.06 0.08 0.08 0.07 0.04 0.01 0.00 0.01 0.00 0.00 0.00 0.00 0.01 0.01 0.00 0.00 0.00 0.00 0.00 0.00 0.00 0.00 0.01 0.01 0.01 0.01
0.00 0.00 0.00 0.00 0.00 0.00 0.00 0.00 0.00 0.00 0.00 0.00 0.00 0.00 0.00 0.00 0.00 0.00 0.01 0.03 0.07 0.16 0.22 0.25 0.21 0.17 0.13 0.11 0.11 0.09 0.06 0.04 0.04 0.04 0.04 0.05 0.04 0.04 0.08 0.07 0.07 0.05 0.03 0.02
0.00 0.00 0.00 0.00 0.00 0.00 0.00 0.00 0.00 0.00 0.00 0.00 0.00 0.00 0.01 0.00 0.00 0.00 0.00 0.00 0.01 0.04 0.04 0.08 0.17 0.24 0.22 0.18 0.16 0.16 0.15 0.13 0.13 0.14 0.09 0.07 0.06 0.07 0.09 0.14 0.15 0.10 0.07 0.05
0.01 0.00 0.00 0.00 0.00 0.00 0.00 0.00 0.00 0.00 0.00 0.00 0.00 0.00 0.00 0.00 0.00 0.00 0.00 0.00 0.00 0.00 0.00 0.00 0.01 0.02 0.07 0.12 0.13 0.12 0.13 0.22 0.16 0.16 0.17 0.17 0.17 0.17 0.15 0.13 0.13 0.15 0.20 0.19
0.01 0.02 0.01 0.01 0.00 0.00 0.00 0.00 0.00 0.00 0.00 0.00 0.00 0.00 0.00 0.00 0.00 0.00 0.00 0.00 0.00 0.00 0.00 0.00 0.00 0.00 0.00 0.01 0.01 0.02 0.06 0.09 0.13 0.15 0.16 0.21 0.14 0.13 0.15 0.18 0.18 0.17 0.19 0.30
0.13 0.06 0.06 0.05 0.02 0.03 0.02 0.03 0.04 0.04 0.04 0.03 0.02 0.01 0.01 0.01 0.01 0.00 0.00 0.01 0.03 0.01 0.00 0.00 0.00 0.01 0.01 0.01 0.02 0.02 0.03 0.12 0.13 0.07 0.11 0.14 0.11 0.12 0.11 0.11 0.14 0.15 0.16 0.17
0.42 0.30 0.17 0.23 0.14 0.10 0.15 0.11 0.12 0.14 0.14 0.13 0.13 0.12 0.10 0.08 0.06 0.04 0.02 0.02 0.02 0.02 0.01 0.01 0.01 0.02 0.03 0.03 0.04 0.04 0.05 0.09 0.18 0.09 0.05 0.05 0.06 0.08 0.09 0.13 0.13 0.13 0.15 0.28
0.31 0.32 0.20 0.30 0.35 0.25 0.29 0.33 0.34 0.35 0.34 0.35 0.29 0.21 0.19 0.17 0.15 0.11 0.09 0.06 0.04 0.04 0.03 0.03 0.03 0.03 0.03 0.03 0.04 0.05 0.05 0.07 0.09 0.07 0.07 0.08 0.10 0.09 0.10 0.11 0.10 0.10 0.09 0.31
0.10 0.22 0.18 0.11 0.16 0.19 0.27 0.30 0.29 0.34 0.36 0.33 0.29 0.27 0.23 0.18 0.15 0.13 0.11 0.09 0.07 0.07 0.06 0.06 0.09 0.08 0.06 0.05 0.07 0.07 0.06 0.06 0.07 0.07 0.08 0.17 0.25 0.13 0.10 0.09 0.08 0.08 0.09 0.15
0.27 0.18 0.11 0.09 0.11 0.14 0.15 0.11 0.10 0.11 0.10 0.08 0.08 0.07 0.09 0.06 0.04 0.04 0.04 0.05 0.05 0.05 0.06 0.07 0.10 0.09 0.08 0.10 0.13 0.10 0.08 0.10 0.11 0.11 0.15 0.21 0.19 0.18 0.17 0.24 0.20 0.16 0.15 0.16
0.56 0.60 0.44 0.44 0.40 0.30 0.21 0.15 0.12 0.11 0.07 0.06 0.07 0.05 0.04 0.04 0.03 0.05 0.07 0.04 0.01 0.02 0.03 0.03 0.06 0.07 0.05 0.07 0.09 0.11 0.16 0.20 0.24 0.24 0.26 0.27 0.21 0.21 0.18 0.19 0.21 0.18 0.16 0.18
0.25 0.33 0.40 0.29 0.16 0.20 0.27 0.25 0.17 0.13 0.10 0.09 0.11 0.08 0.07 0.05 0.03 0.04 0.07 0.14 0.08 0.06 0.07 0.08 0.09 0.10 0.12 0.14 0.15 0.18 0.26 0.30 0.31 0.30 0.26 0.25 0.25 0.24 0.23 0.26 0.27 0.23 0.22 0.20
0.14 0.19 0.24 0.22 0.16 0.13 0.17 0.27 0.23 0.20 0.22 0.22 0.22 0.19 0.20 0.18 0.19 0.27 0.20 0.17 0.19 0.12 0.13 0.14 0.18 0.24 0.27 0.25 0.18 0.23 0.30 0.27 0.25 0.26 0.27 0.29 0.28 0.27 0.27 0.26 0.26 0.22 0.17 0.15
0.09 0.13 0.20 0.25 0.24 0.18 0.16 0.16 0.16 0.22 0.28 0.27 0.26 0.28 0.31 0.36 0.31 0.29 0.28 0.25 0.24 0.24 0.24 0.27 0.28 0.30 0.31 0.25 0.28 0.32 0.32 0.32 0.31 0.29 0.28 0.29 0.28 0.28 0.27 0.25 0.22 0.18 0.16 0.16
0.17 0.16 0.17 0.17 0.16 0.12 0.11 0.10 0.10 0.09 0.10 0.12 0.14 0.19 0.23 0.28 0.36 0.30 0.27 0.21 0.23 0.28 0.26 0.24 0.25 0.26 0.24 0.26 0.34 0.33 0.32 0.31 0.31 0.29 0.24 0.22 0.21 0.22 0.21 0.21 0.19 0.18 0.17 0.16
0.05 0.06 0.05 0.06 0.09 0.10 0.10 0.10 0.10 0.09 0.09 0.09 0.06 0.06 0.10 0.14 0.16 0.18 0.19 0.23 0.24 0.25 0.18 0.18 0.23 0.25 0.21 0.24 0.21 0.18 0.20 0.19 0.19 0.19 0.18 0.16 0.16 0.14 0.13 0.13 0.13 0.13 0.12 0.12
0.09 0.10 0.09 0.07 0.06 0.06 0.06 0.08 0.11 0.11 0.11 0.10 0.11 0.09 0.09 0.09 0.13 0.15 0.13 0.18 0.22 0.22 0.16 0.13 0.17 0.20 0.19 0.17 0.12 0.10 0.11 0.10 0.10 0.12 0.12 0.13 0.13 0.11 0.10 0.09 0.09 0.08 0.08 0.08

GFSNGP_prec_precacc_087.txt.gz
Total_Precipitation_Accumulation
0.12 0.22 0.58 0.38 0.14 0.10 0.39 0.19 0.26 0.09 0.04 0.04 0.04 0.05 0.05 0.04 0.03 0.03 0.03 0.02 0.02 0.00 0.00 0.01 0.05 0.23 0.17 0.14 0.20 0.19 0.16 0.13 0.09 0.08 0.09 0.07 0.05 0.07 0.07 0.06 0.06 0.04 0.08 0.15
0.34 0.25 0.35 0.27 0.07 0.11 0.12 0.04 0.05 0.02 0.04 0.05 0.05 0.03 0.08 0.06 0.02 0.01 0.00 0.00 0.00 0.00 0.00 0.00 0.03 0.08 0.15 0.24 0.15 0.18 0.11 0.11 0.08 0.08 0.08 0.09 0.08 0.05 0.08 0.08 0.08 0.12 0.11 0.11
0.48 0.18 0.19 0.26 0.08 0.06 0.09 0.07 0.03 0.04 0.05 0.07 0.25 0.45 0.39 0.10 0.04 0.02 0.02 0.00 0.00 0.00 0.00 0.00 0.01 0.11 0.51 0.64 0.29 0.28 0.15 0.17 0.17 0.13 0.20 0.20 0.15 0.13 0.11 0.15 0.24 0.23 0.22 0.26
0.83 0.44 0.44 0.25 0.10 0.14 0.15 0.12 0.06 0.05 0.07 0.08 0.13 0.18 0.12 0.04 0.02 0.02 0.01 0.01 0.00 0.00 0.00 0.00 0.03 0.28 0.83 0.87 0.28 0.25 0.22 0.33 0.57 0.48 0.52 0.60 0.75 0.63 0.64 0.52 0.46 0.54 0.56 0.58
0.42 0.30 0.15 0.04 0.07 0.11 0.09 0.09 0.03 0.03 0.02 0.01 0.04 0.13 0.14 0.04 0.02 0.02 0.01 0.01 0.01 0.00 0.00 0.02 0.05 0.18 0.35 0.75 0.92 0.72 0.63 0.81 0.80 0.70 0.74 0.84 1.06 1.14 0.80 0.97 0.78 0.78 0.68 0.55
0.15 0.21 0.08 0.02 0.01 0.02 0.02 0.02 0.00 0.00 0.01 0.00 0.00 0.04 0.22 0.29 0.12 0.05 0.02 0.01 0.01 0.01 0.02 0.04 0.03 0.08 0.20 0.35 0.94 1.21 0.79 0.81 0.88 0.75 0.73 0.89 0.99 0.98 0.72 0.61 0.65 0.58 0.63 0.60
0.13 0.17 0.01 0.00 0.00 0.00 0.03 0.02 0.00 0.00 0.00 0.00 0.00 0.00 0.01 0.16 0.24 0.16 0.10 0.07 0.09 0.09 0.17 0.22 0.17 0.32 0.49 0.49 0.81 1.10 0.86 0.88 0.70 0.73 0.45 0.61 0.69 0.62 0.47 0.37 0.42 0.43 0.39 0.32
0.06 0.10 0.01 0.00 0.00 0.00 0.00 0.00 0.00 0.01 0.01 0.00 0.01 0.00 0.00 0.01 0.04 0.16 0.17 0.15 0.16 0.24 0.55 0.66 0.68 0.58 0.54 0.44 0.32 0.33 0.44 0.46 0.31 0.26 0.23 0.18 0.19 0.27 0.24 0.14 0.10 0.04 0.01 0.00
0.00 0.00 0.00 0.00 0.00 0.00 0.00 0.00 0.00 0.00 0.00 0.00 0.01 0.00 0.00 0.01 0.00 0.00 0.01 0.02 0.05 0.15 0.16 0.09 0.14 0.12 0.15 0.06 0.02 0.02 0.02 0.01 0.02 0.02 0.02 0.01 0.00 0.00 0.00 0.00 0.00 0.00 0.00 0.00
0.00 0.00 0.00 0.00 0.00 0.00 0.00 0.00 0.00 0.01 0.01 0.00 0.00 0.00 0.01 0.02 0.02 0.03 0.02 0.00 0.00 0.00 0.00 0.00 0.00 0.00 0.00 0.01 0.02 0.02 0.01 0.00 0.00 0.01 0.01 0.01 0.00 0.00 0.00 0.00 0.00 0.00 0.00 0.00
0.00 0.00 0.00 0.00 0.00 0.00 0.00 0.00 0.00 0.00 0.00 0.00 0.00 0.00 0.00 0.00 0.01 0.02 0.06 0.08 0.08 0.07 0.04 0.01 0.00 0.01 0.00 0.00 0.00 0.00 0.01 0.01 0.00 0.00 0.00 0.00 0.00 0.00 0.00 0.00 0.02 0.01 0.01 0.01
0.00 0.00 0.00 0.00 0.00 0.00 0.00 0.00 0.00 0.00 0.00 0.00 0.00 0.00 0.00 0.00 0.00 0.00 0.01 0.03 0.07 0.16 0.22 0.25 0.21 0.17 0.13 0.11 0.11 0.09 0.06 0.04 0.04 0.04 0.04 0.05 0.04 0.04 0.08 0.08 0.08 0.06 0.05 0.03
0.00 0.00 0.00 0.00 0.00 0.00 0.00 0.00 0.00 0.00 0.00 0.00 0.00 0.00 0.01 0.00 0.00 0.00 0.00 0.00 0.01 0.04 0.04 0.08 0.17 0.24 0.22 0.18 0.16 0.16 0.15 0.13 0.13 0.14 0.09 0.07 0.06 0.07 0.09 0.14 0.15 0.10 0.09 0.08
0.01 0.00 0.00 0.00 0.00 0.00 0.00 0.00 0.00 0.00 0.00 0.00 0.00 0.00 0.00 0.00 0.00 0.00 0.00 0.00 0.00 0.00 0.00 0.00 0.01 0.02 0.07 0.12 0.13 0.12 0.13 0.22 0.16 0.16 0.17 0.17 0.17 0.17 0.15 0.13 0.13 0.15 0.21 0.23
0.01 0.02 0.01 0.01 0.00 0.00 0.00 0.00 0.00 0.00 0.00 0.00 0.00 0.00 0.00 0.00 0.00 0.00 0.00 0.00 0.00 0.00 0.00 0.00 0.00 0.00 0.00 0.01 0.01 0.02 0.06 0.09 0.13 0.15 0.16 0.21 0.14 0.14 0.15 0.18 0.18 0.17 0.19 0.32
0.13 0.06 0.06 0.05 0.02 0.03 0.02 0.03 0.04 0.04 0.04 0.03 0.02 0.01 0.01 0.01 0.01 0.00 0.00 0.01 0.03 0.01 0.00 0.00 0.00 0.01 0.01 0.01 0.02 0.02 0.03 0.12 0.13 0.07 0.11 0.15 0.11 0.12 0.11 0.11 0.14 0.16 0.16 0.17
0.42 0.30 0.17 0.23 0.14 0.10 0.15 0.11 0.12 0.14 0.14 0.13 0.13 0.12 0.10 0.08 0.06 0.04 0.02 0.02 0.02 0.02 0.01 0.01 0.01 0.02 0.03 0.03 0.04 0.04 0.05 0.09 0.18 0.10 0.05 0.06 0.07 0.08 0.09 0.13 0.14 0.13 0.15 0.29
0.31 0.32 0.20 0.30 0.35 0.25 0.29 0.33 0.34 0.35 0.34 0.35 0.29 0.21 0.19 0.17 0.15 0.11 0.09 0.06 0.04 0.04 0.03 0.03 0.03 0.03 0.03 0.03 0.04 0.05 0.05 0.07 0.09 0.08 0.08 0.08 0.10 0.10 0.10 0.11 0.10 0.11 0.09 0.33
0.10 0.22 0.18 0.11 0.16 0.19 0.27 0.30 0.29 0.34 0.36 0.33 0.29 0.27 0.23 0.18 0.15 0.13 0.11 0.09 0.07 0.07 0.06 0.06 0.09 0.08 0.06 0.05 0.07 0.08 0.07 0.06 0.07 0.08 0.09 0.18 0.25 0.13 0.10 0.09 0.08 0.08 0.09 0.15
0.27 0.18 0.11 0.09 0.11 0.14 0.15 0.11 0.10 0.11 0.10 0.08 0.08 0.07 0.09 0.06 0.04 0.04 0.04 0.05 0.05 0.05 0.06 0.07 0.10 0.09 0.08 0.10 0.15 0.14 0.10 0.11 0.12 0.11 0.16 0.21 0.20 0.18 0.17 0.25 0.21 0.16 0.15 0.16
0.56 0.60 0.44 0.44 0.40 0.30 0.21 0.15 0.12 0.11 0.07 0.06 0.07 0.05 0.04 0.04 0.03 0.05 0.07 0.04 0.01 0.02 0.03 0.04 0.06 0.07 0.06 0.08 0.10 0.12 0.16 0.21 0.26 0.25 0.28 0.29 0.22 0.22 0.19 0.19 0.22 0.18 0.16 0.18
0.25 0.33 0.40 0.29 0.16 0.20 0.27 0.25 0.17 0.13 0.10 0.09 0.11 0.08 0.07 0.05 0.04 0.05 0.07 0.14 0.09 0.06 0.08 0.09 0.10 0.11 0.14 0.16 0.17 0.20 0.28 0.32 0.33 0.31 0.27 0.26 0.26 0.25 0.23 0.26 0.27 0.24 0.22 0.20
0.14 0.19 0.24 0.22 0.16 0.13 0.17 0.27 0.23 0.20 0.22 0.22 0.22 0.20 0.20 0.18 0.20 0.27 0.21 0.17 0.19 0.13 0.14 0.15 0.18 0.24 0.28 0.26 0.19 0.25 0.31 0.28 0.26 0.26 0.28 0.30 0.29 0.29 0.28 0.27 0.27 0.24 0.19 0.16
0.09 0.13 0.20 0.25 0.24 0.18 0.16 0.16 0.16 0.22 0.28 0.27 0.26 0.28 0.31 0.36 0.31 0.29 0.29 0.25 0.24 0.24 0.24 0.27 0.28 0.30 0.32 0.26 0.31 0.34 0.32 0.32 0.31 0.30 0.30 0.30 0.29 0.30 0.29 0.28 0.25 0.22 0.19 0.18
0.17 0.16 0.17 0.17 0.16 0.12 0.11 0.10 0.10 0.09 0.10 0.12 0.14 0.19 0.23 0.28 0.37 0.30 0.28 0.21 0.23 0.28 0.26 0.24 0.26 0.27 0.25 0.28 0.35 0.33 0.33 0.32 0.32 0.31 0.26 0.23 0.23 0.24 0.24 0.24 0.23 0.22 0.21 0.20
0.05 0.06 0.05 0.06 0.09 0.10 0.10 0.10 0.10 0.09 0.09 0.09 0.06 0.06 0.10 0.14 0.16 0.18 0.19 0.23 0.24 0.26 0.18 0.18 0.23 0.26 0.22 0.25 0.22 0.19 0.21 0.21 0.21 0.21 0.20 0.18 0.17 0.16 0.15 0.15 0.16 0.16 0.16 0.16
0.09 0.10 0.09 0.07 0.06 0.06 0.06 0.08 0.11 0.11 0.11 0.10 0.11 0.09 0.09 0.09 0.13 0.15 0.13 0.18 0.22 0.22 0.16 0.13 0.17 0.21 0.20 0.18 0.12 0.11 0.12 0.11 0.12 0.15 0.14 0.15 0.14 0.13 0.12 0.11 0.11 0.11 0.12 0.12

GFSNGP_prec_precacc_090.txt.gz
Total_Precipitation_Accumulation
0.12 0.22 0.58 0.38 0.14 0.10 0.39 0.19 0.26 0.09 0.04 0.04 0.04 0.05 0.05 0.04 0.03 0.03 0.03 0.02 0.02 0.00 0.00 0.01 0.05 0.23 0.17 0.14 0.20 0.19 0.16 0.13 0.09 0.08 0.09 0.07 0.05 0.07 0.07 0.06 0.06 0.04 0.08 0.15
0.34 0.25 0.35 0.27 0.07 0.11 0.12 0.04 0.05 0.02 0.04 0.05 0.05 0.03 0.08 0.06 0.02 0.01 0.00 0.00 0.00 0.00 0.00 0.00 0.03 0.08 0.15 0.24 0.15 0.18 0.11 0.11 0.08 0.08 0.08 0.09 0.08 0.05 0.08 0.08 0.08 0.12 0.11 0.11
0.48 0.18 0.19 0.26 0.08 0.06 0.09 0.07 0.03 0.04 0.05 0.07 0.25 0.45 0.39 0.10 0.04 0.02 0.02 0.00 0.00 0.00 0.00 0.00 0.01 0.11 0.51 0.64 0.29 0.28 0.15 0.17 0.17 0.13 0.20 0.20 0.15 0.13 0.11 0.15 0.24 0.23 0.22 0.26
0.83 0.44 0.44 0.25 0.10 0.14 0.15 0.12 0.06 0.05 0.07 0.08 0.13 0.18 0.12 0.04 0.02 0.02 0.01 0.01 0.00 0.00 0.00 0.00 0.03 0.28 0.83 0.87 0.28 0.25 0.22 0.33 0.57 0.48 0.52 0.60 0.75 0.63 0.64 0.52 0.46 0.54 0.56 0.58
0.42 0.30 0.15 0.04 0.07 0.11 0.09 0.09 0.03 0.03 0.02 0.01 0.04 0.13 0.14 0.04 0.02 0.02 0.01 0.01 0.01 0.00 0.00 0.02 0.05 0.18 0.35 0.75 0.92 0.72 0.63 0.81 0.80 0.70 0.74 0.84 1.06 1.14 0.80 0.97 0.78 0.78 0.68 0.55
0.15 0.21 0.08 0.02 0.01 0.02 0.02 0.02 0.00 0.00 0.01 0.00 0.00 0.04 0.22 0.29 0.12 0.05 0.02 0.01 0.01 0.01 0.02 0.04 0.03 0.08 0.20 0.35 0.94 1.21 0.79 0.81 0.88 0.75 0.73 0.89 0.99 0.98 0.72 0.61 0.66 0.58 0.63 0.60
0.13 0.17 0.01 0.00 0.00 0.00 0.03 0.02 0.00 0.00 0.00 0.00 0.00 0.00 0.01 0.16 0.24 0.16 0.10 0.07 0.09 0.09 0.17 0.22 0.17 0.32 0.49 0.49 0.81 1.10 0.86 0.88 0.70 0.73 0.45 0.61 0.69 0.62 0.47 0.37 0.42 0.43 0.39 0.32
0.06 0.10 0.01 0.00 0.00 0.00 0.00 0.00 0.00 0.01 0.01 0.00 0.01 0.00 0.00 0.01 0.04 0.16 0.17 0.15 0.16 0.24 0.55 0.66 0.68 0.58 0.54 0.44 0.32 0.33 0.44 0.46 0.31 0.26 0.23 0.18 0.19 0.27 0.24 0.14 0.10 0.04 0.01 0.00
0.00 0.00 0.00 0.00 0.00 0.00 0.00 0.00 0.00 0.00 0.00 0.00 0.01 0.00 0.00 0.01 0.00 0.00 0.01 0.02 0.05 0.15 0.16 0.09 0.14 0.12 0.15 0.06 0.02 0.02 0.02 0.01 0.02 0.02 0.02 0.01 0.00 0.00 0.00 0.00 0.00 0.00 0.00 0.00
0.00 0.00 0.00 0.00 0.00 0.00 0.00 0.00 0.00 0.01 0.01 0.00 0.00 0.00 0.01 0.02 0.02 0.03 0.02 0.00 0.00 0.00 0.00 0.00 0.00 0.00 0.00 0.01 0.02 0.02 0.01 0.00 0.00 0.01 0.01 0.01 0.00 0.00 0.00 0.00 0.00 0.00 0.01 0.00
0.00 0.00 0.00 0.00 0.00 0.00 0.00 0.00 0.00 0.00 0.00 0.00 0.00 0.00 0.00 0.00 0.01 0.02 0.06 0.08 0.08 0.07 0.04 0.01 0.00 0.01 0.00 0.00 0.00 0.00 0.01 0.01 0.00 0.00 0.00 0.00 0.00 0.00 0.00 0.00 0.02 0.02 0.01 0.01
0.00 0.00 0.00 0.00 0.00 0.00 0.00 0.00 0.00 0.00 0.00 0.00 0.00 0.00 0.00 0.00 0.00 0.00 0.01 0.03 0.07 0.16 0.22 0.25 0.21 0.17 0.13 0.11 0.11 0.09 0.06 0.04 0.04 0.04 0.04 0.05 0.04 0.04 0.08 0.08 0.08 0.07 0.05 0.04
0.00 0.00 0.00 0.00 0.00 0.00 0.00 0.00 0.00 0.00 0.00 0.00 0.00 0.00 0.01 0.00 0.00 0.00 0.00 0.00 0.01 0.04 0.04 0.08 0.17 0.24 0.22 0.18 0.16 0.16 0.15 0.13 0.13 0.14 0.09 0.07 0.06 0.07 0.09 0.14 0.15 0.10 0.09 0.08
0.01 0.00 0.00 0.00 0.00 0.00 0.00 0.00 0.00 0.00 0.00 0.00 0.00 0.00 0.00 0.00 0.00 0.00 0.00 0.00 0.00 0.00 0.00 0.00 0.01 0.02 0.07 0.12 0.13 0.12 0.13 0.22 0.16 0.16 0.17 0.17 0.17 0.17 0.15 0.13 0.13 0.15 0.21 0.23
0.01 0.02 0.01 0.01 0.00 0.00 0.00 0.00 0.00 0.00 0.00 0.00 0.00 0.00 0.00 0.00 0.00 0.00 0.00 0.00 0.00 0.00 0.00 0.00 0.00 0.00 0.00 0.01 0.01 0.02 0.06 0.09 0.13 0.15 0.16 0.21 0.14 0.14 0.16 0.18 0.18 0.17 0.19 0.33
0.13 0.06 0.06 0.05 0.02 0.03 0.02 0.03 0.04 0.04 0.04 0.03 0.02 0.01 0.01 0.01 0.01 0.00 0.00 0.01 0.03 0.01 0.00 0.00 0.00 0.01 0.01 0.01 0.02 0.02 0.03 0.12 0.13 0.07 0.11 0.15 0.11 0.12 0.11 0.11 0.14 0.16 0.17 0.17
0.42 0.30 0.17 0.23 0.14 0.10 0.15 0.11 0.12 0.14 0.14 0.13 0.13 0.12 0.10 0.08 0.06 0.04 0.02 0.02 0.02 0.02 0.01 0.01 0.01 0.02 0.03 0.03 0.04 0.04 0.05 0.09 0.18 0.10 0.05 0.06 0.07 0.08 0.09 0.13 0.14 0.13 0.15 0.29
0.31 0.32 0.20 0.30 0.35 0.25 0.29 0.33 0.34 0.35 0.34 0.35 0.29 0.21 0.19 0.17 0.15 0.11 0.09 0.06 0.04 0.04 0.03 0.03 0.03 0.03 0.03 0.03 0.04 0.05 0.06 0.08 0.09 0.08 0.08 0.09 0.10 0.10 0.11 0.11 0.10 0.11 0.09 0.33
0.10 0.22 0.18 0.11 0.16 0.19 0.27 0.30 0.29 0.34 0.36 0.33 0.29 0.27 0.23 0.18 0.15 0.13 0.11 0.09 0.07 0.07 0.06 0.07 0.09 0.08 0.06 0.05 0.07 0.10 0.10 0.10 0.10 0.10 0.10 0.18 0.25 0.13 0.10 0.09 0.08 0.08 0.10 0.15
0.27 0.18 0.11 0.09 0.11 0.14 0.15 0.11 0.10 0.11 0.10 0.08 0.08 0.07 0.09 0.06 0.04 0.04 0.04 0.05 0.06 0.06 0.06 0.07 0.10 0.09 0.08 0.11 0.16 0.20 0.16 0.15 0.13 0.12 0.16 0.21 0.20 0.19 0.18 0.25 0.22 0.17 0.16 0.16
0.56 0.60 0.44 0.44 0.40 0.30 0.21 0.15 0.12 0.11 0.07 0.06 0.07 0.05 0.04 0.04 0.03 0.05 0.07 0.04 0.01 0.02 0.03 0.04 0.07 0.08 0.07 0.09 0.12 0.14 0.18 0.22 0.27 0.27 0.31 0.31 0.23 0.22 0.19 0.19 0.22 0.19 0.17 0.18
0.25 0.33 0.40 0.29 0.16 0.20 0.27 0.25 0.17 0.13 0.10 0.09 0.11 0.08 0.07 0.05 0.04 0.05 0.07 0.15 0.09 0.06 0.08 0.09 0.10 0.12 0.15 0.18 0.18 0.20 0.29 0.33 0.36 0.34 0.28 0.26 0.26 0.25 0.23 0.26 0.27 0.24 0.22 0.20
0.14 0.19 0.24 0.22 0.16 0.13 0.17 0.27 0.23 0.20 0.22 0.22 0.22 0.20 0.20 0.18 0.20 0.27 0.21 0.17 0.19 0.13 0.14 0.15 0.18 0.25 0.29 0.27 0.19 0.26 0.35 0.32 0.28 0.27 0.28 0.30 0.29 0.29 0.29 0.28 0.28 0.24 0.20 0.17
0.09 0.13 0.20 0.25 0.24 0.18 0.16 0.16 0.16 0.22 0.28 0.27 0.26 0.28 0.31 0.36 0.31 0.29 0.29 0.25 0.24 0.24 0.25 0.27 0.29 0.31 0.33 0.27 0.32 0.36 0.34 0.34 0.32 0.31 0.30 0.31 0.31 0.31 0.30 0.29 0.26 0.23 0.21 0.20
0.17 0.16 0.17 0.17 0.16 0.12 0.11 0.10 0.10 0.09 0.10 0.12 0.14 0.19 0.23 0.28 0.37 0.30 0.28 0.21 0.23 0.29 0.26 0.24 0.26 0.27 0.25 0.29 0.36 0.35 0.34 0.34 0.34 0.33 0.27 0.25 0.24 0.25 0.25 0.26 0.24 0.24 0.24 0.23
0.05 0.06 0.05 0.06 0.09 0.10 0.10 0.10 0.10 0.09 0.09 0.09 0.06 0.06 0.10 0.14 0.16 0.18 0.19 0.23 0.24 0.26 0.18 0.18 0.24 0.27 0.23 0.26 0.23 0.20 0.22 0.22 0.22 0.22 0.21 0.20 0.18 0.16 0.16 0.16 0.17 0.19 0.20 0.21
0.09 0.10 0.09 0.07 0.06 0.06 0.06 0.08 0.11 0.11 0.11 0.10 0.11 0.09 0.09 0.09 0.13 0.15 0.13 0.18 0.22 0.22 0.16 0.13 0.18 0.22 0.21 0.18 0.13 0.12 0.13 0.13 0.14 0.16 0.15 0.16 0.16 0.14 0.13 0.13 0.13 0.14 0.16 0.17

GFSNGP_prec_precacc_096.txt.gz
Total_Precipitation_Accumulation
0.12 0.22 0.58 0.38 0.14 0.10 0.39 0.19 0.26 0.09 0.04 0.04 0.04 0.05 0.05 0.04 0.03 0.03 0.03 0.02 0.02 0.00 0.00 0.01 0.05 0.23 0.17 0.14 0.20 0.19 0.16 0.13 0.09 0.08 0.09 0.07 0.05 0.07 0.07 0.06 0.06 0.04 0.08 0.15
0.34 0.25 0.35 0.27 0.07 0.11 0.12 0.04 0.05 0.02 0.04 0.05 0.05 0.03 0.08 0.06 0.02 0.01 0.00 0.00 0.00 0.00 0.00 0.00 0.03 0.08 0.15 0.24 0.15 0.18 0.11 0.11 0.08 0.08 0.08 0.09 0.08 0.05 0.08 0.08 0.08 0.12 0.11 0.11
0.48 0.18 0.19 0.26 0.08 0.06 0.09 0.07 0.03 0.04 0.05 0.07 0.25 0.45 0.39 0.10 0.04 0.02 0.02 0.00 0.00 0.00 0.00 0.00 0.01 0.11 0.51 0.64 0.29 0.28 0.15 0.17 0.17 0.13 0.20 0.20 0.15 0.13 0.11 0.15 0.24 0.23 0.22 0.26
0.83 0.44 0.44 0.25 0.10 0.14 0.15 0.12 0.06 0.05 0.07 0.08 0.13 0.18 0.12 0.04 0.02 0.02 0.01 0.01 0.00 0.00 0.00 0.00 0.03 0.28 0.83 0.87 0.28 0.25 0.22 0.33 0.57 0.48 0.52 0.60 0.75 0.63 0.64 0.52 0.46 0.54 0.56 0.58
0.42 0.30 0.15 0.04 0.07 0.11 0.09 0.09 0.03 0.03 0.02 0.01 0.04 0.13 0.14 0.04 0.02 0.02 0.01 0.01 0.01 0.00 0.00 0.02 0.05 0.18 0.35 0.75 0.92 0.72 0.63 0.81 0.80 0.70 0.74 0.84 1.06 1.14 0.80 0.97 0.78 0.78 0.68 0.55
0.15 0.21 0.08 0.02 0.01 0.02 0.02 0.02 0.00 0.00 0.01 0.00 0.00 0.04 0.22 0.29 0.12 0.05 0.02 0.01 0.01 0.01 0.02 0.04 0.03 0.08 0.20 0.35 0.94 1.21 0.79 0.81 0.88 0.75 0.73 0.89 0.99 0.98 0.72 0.61 0.66 0.58 0.63 0.60
0.13 0.17 0.01 0.00 0.00 0.00 0.03 0.02 0.00 0.00 0.00 0.00 0.00 0.00 0.01 0.16 0.24 0.16 0.10 0.07 0.09 0.09 0.17 0.22 0.17 0.32 0.49 0.49 0.81 1.10 0.86 0.88 0.70 0.73 0.45 0.61 0.69 0.62 0.47 0.37 0.42 0.43 0.39 0.32
0.06 0.10 0.01 0.00 0.00 0.00 0.00 0.00 0.00 0.01 0.01 0.00 0.01 0.00 0.00 0.01 0.04 0.16 0.17 0.15 0.16 0.24 0.55 0.66 0.68 0.58 0.54 0.44 0.32 0.33 0.44 0.46 0.31 0.26 0.23 0.18 0.19 0.27 0.24 0.14 0.10 0.04 0.01 0.00
0.00 0.00 0.00 0.00 0.00 0.00 0.00 0.00 0.00 0.00 0.00 0.00 0.01 0.00 0.00 0.01 0.00 0.00 0.01 0.02 0.05 0.15 0.16 0.09 0.14 0.12 0.15 0.06 0.02 0.02 0.02 0.01 0.02 0.02 0.02 0.01 0.00 0.00 0.00 0.00 0.00 0.00 0.00 0.00
0.00 0.00 0.00 0.00 0.00 0.00 0.00 0.00 0.00 0.01 0.01 0.00 0.00 0.00 0.01 0.02 0.02 0.03 0.02 0.00 0.00 0.00 0.00 0.00 0.00 0.00 0.00 0.01 0.02 0.02 0.01 0.00 0.00 0.01 0.01 0.01 0.00 0.00 0.00 0.00 0.00 0.00 0.01 0.01
0.00 0.00 0.00 0.00 0.00 0.00 0.00 0.00 0.00 0.00 0.00 0.00 0.00 0.00 0.00 0.00 0.01 0.02 0.06 0.08 0.08 0.07 0.04 0.01 0.00 0.01 0.00 0.00 0.00 0.00 0.01 0.01 0.00 0.00 0.00 0.00 0.00 0.00 0.00 0.00 0.02 0.02 0.01 0.01
0.00 0.00 0.00 0.00 0.00 0.00 0.00 0.00 0.00 0.00 0.00 0.00 0.00 0.00 0.00 0.00 0.00 0.00 0.01 0.03 0.07 0.16 0.22 0.25 0.21 0.17 0.13 0.11 0.11 0.09 0.06 0.04 0.04 0.04 0.04 0.05 0.04 0.04 0.08 0.08 0.08 0.07 0.06 0.04
0.00 0.00 0.00 0.00 0.00 0.00 0.00 0.00 0.00 0.00 0.00 0.00 0.00 0.00 0.01 0.00 0.00 0.00 0.00 0.00 0.01 0.04 0.04 0.08 0.17 0.24 0.22 0.18 0.16 0.16 0.15 0.13 0.13 0.14 0.09 0.07 0.06 0.07 0.09 0.14 0.15 0.10 0.09 0.09
0.01 0.00 0.00 0.00 0.00 0.00 0.00 0.00 0.00 0.00 0.00 0.00 0.00 0.00 0.00 0.00 0.00 0.00 0.00 0.00 0.00 0.00 0.00 0.00 0.01 0.02 0.07 0.12 0.13 0.12 0.13 0.22 0.16 0.16 0.17 0.17 0.17 0.17 0.15 0.13 0.13 0.15 0.21 0.23
0.01 0.02 0.01 0.01 0.00 0.00 0.00 0.00 0.00 0.00 0.00 0.00 0.00 0.00 0.00 0.00 0.00 0.00 0.00 0.00 0.00 0.00 0.00 0.00 0.00 0.00 0.00 0.01 0.01 0.02 0.06 0.09 0.13 0.15 0.16 0.21 0.15 0.14 0.16 0.18 0.18 0.17 0.19 0.33
0.13 0.06 0.06 0.05 0.02 0.03 0.02 0.03 0.04 0.04 0.04 0.03 0.02 0.01 0.01 0.01 0.01 0.00 0.00 0.01 0.03 0.01 0.00 0.00 0.00 0.01 0.01 0.01 0.02 0.02 0.03 0.12 0.14 0.08 0.12 0.15 0.12 0.14 0.14 0.13 0.14 0.16 0.17 0.17
0.42 0.30 0.17 0.23 0.14 0.10 0.15 0.11 0.12 0.14 0.14 0.13 0.13 0.12 0.10 0.08 0.06 0.04 0.02 0.02 0.02 0.02 0.01 0.01 0.01 0.02 0.03 0.03 0.04 0.04 0.05 0.09 0.19 0.11 0.08 0.10 0.12 0.13 0.12 0.15 0.14 0.14 0.15 0.29
0.31 0.32 0.20 0.30 0.35 0.25 0.29 0.33 0.34 0.35 0.34 0.35 0.29 0.21 0.19 0.17 0.15 0.11 0.09 0.06 0.04 0.04 0.03 0.03 0.03 0.04 0.03 0.03 0.04 0.06 0.07 0.10 0.12 0.11 0.11 0.13 0.13 0.12 0.12 0.13 0.11 0.12 0.09 0.33
0.10 0.22 0.18 0.11 0.16 0.19 0.27 0.30 0.29 0.34 0.36 0.33 0.29 0.27 0.23 0.18 0.15 0.13 0.11 0.09 0.07 0.07 0.06 0.07 0.09 0.08 0.06 0.05 0.08 0.12 0.13 0.13 0.14 0.14 0.13 0.20 0.27 0.14 0.11 0.10 0.09 0.09 0.10 0.15
0.27 0.18 0.11 0.09 0.11 0.14 0.15 0.11 0.10 0.11 0.10 0.08 0.08 0.07 0.09 0.06 0.04 0.04 0.04 0.05 0.06 0.06 0.06 0.07 0.10 0.09 0.08 0.11 0.17 0.22 0.18 0.16 0.15 0.13 0.17 0.23 0.23 0.22 0.20 0.27 0.24 0.18 0.16 0.17
0.56 0.60 0.44 0.44 0.40 0.30 0.21 0.15 0.12 0.11 0.07 0.06 0.07 0.05 0.04 0.04 0.03 0.05 0.07 0.04 0.01 0.02 0.04 0.04 0.07 0.08 0.07 0.10 0.16 0.16 0.18 0.23 0.29 0.28 0.33 0.36 0.30 0.26 0.20 0.20 0.22 0.19 0.17 0.18
0.25 0.33 0.40 0.29 0.16 0.20 0.27 0.25 0.17 0.13 0.10 0.09 0.11 0.08 0.07 0.05 0.04 0.05 0.07 0.15 0.09 0.06 0.08 0.09 0.10 0.12 0.17 0.21 0.21 0.21 0.30 0.35 0.39 0.38 0.33 0.29 0.27 0.26 0.24 0.27 0.28 0.24 0.23 0.20
0.14 0.19 0.24 0.22 0.16 0.13 0.17 0.27 0.23 0.20 0.22 0.22 0.22 0.20 0.20 0.18 0.20 0.27 0.22 0.17 0.19 0.13 0.14 0.15 0.19 0.26 0.32 0.29 0.20 0.28 0.37 0.34 0.31 0.29 0.30 0.32 0.32 0.31 0.31 0.30 0.28 0.25 0.21 0.18
0.09 0.13 0.20 0.25 0.24 0.18 0.16 0.16 0.16 0.22 0.28 0.27 0.26 0.28 0.31 0.36 0.31 0.29 0.29 0.25 0.24 0.25 0.25 0.27 0.29 0.32 0.34 0.27 0.33 0.37 0.35 0.35 0.34 0.32 0.32 0.33 0.33 0.33 0.31 0.30 0.27 0.24 0.22 0.21
0.17 0.16 0.17 0.17 0.16 0.12 0.11 0.10 0.10 0.09 0.10 0.12 0.14 0.19 0.23 0.28 0.37 0.30 0.28 0.21 0.23 0.29 0.26 0.24 0.26 0.27 0.26 0.30 0.38 0.37 0.36 0.36 0.37 0.37 0.29 0.27 0.26 0.27 0.26 0.27 0.26 0.26 0.26 0.24
0.05 0.06 0.05 0.06 0.09 0.10 0.10 0.10 0.10 0.09 0.09 0.09 0.06 0.06 0.10 0.14 0.16 0.18 0.19 0.23 0.24 0.26 0.18 0.18 0.24 0.27 0.24 0.28 0.26 0.22 0.24 0.24 0.24 0.24 0.24 0.22 0.21 0.18 0.18 0.18 0.19 0.21 0.23 0.24
0.09 0.10 0.09 0.07 0.06 0.06 0.06 0.08 0.11 0.11 0.11 0.10 0.11 0.09 0.09 0.09 0.13 0.15 0.13 0.18 0.22 0.22 0.16 0.13 0.18 0.22 0.23 0.22 0.14 0.14 0.15 0.15 0.16 0.20 0.18 0.19 0.18 0.17 0.16 0.16 0.17 0.19 0.21 0.22

GFSNGP_prec_precacc_099.txt.gz
Total_Precipitation_Accumulation
0.12 0.22 0.58 0.38 0.14 0.10 0.39 0.19 0.26 0.09 0.04 0.04 0.04 0.05 0.05 0.04 0.03 0.03 0.03 0.02 0.02 0.00 0.00 0.01 0.05 0.23 0.17 0.14 0.20 0.19 0.16 0.13 0.09 0.08 0.09 0.07 0.05 0.07 0.07 0.06 0.06 0.04 0.08 0.15
0.34 0.25 0.35 0.27 0.07 0.11 0.12 0.04 0.05 0.02 0.04 0.05 0.05 0.03 0.08 0.06 0.02 0.01 0.00 0.00 0.00 0.00 0.00 0.00 0.03 0.08 0.15 0.24 0.15 0.18 0.11 0.11 0.08 0.08 0.08 0.09 0.08 0.05 0.08 0.08 0.08 0.12 0.11 0.11
0.48 0.18 0.19 0.26 0.08 0.06 0.09 0.07 0.03 0.04 0.05 0.07 0.25 0.45 0.39 0.10 0.04 0.02 0.02 0.00 0.00 0.00 0.00 0.00 0.01 0.11 0.51 0.64 0.29 0.28 0.15 0.17 0.17 0.13 0.20 0.20 0.15 0.13 0.11 0.15 0.24 0.23 0.22 0.26
0.83 0.44 0.44 0.25 0.10 0.14 0.15 0.12 0.06 0.05 0.07 0.08 0.13 0.18 0.12 0.04 0.02 0.02 0.01 0.01 0.00 0.00 0.00 0.00 0.03 0.28 0.83 0.87 0.28 0.25 0.22 0.33 0.57 0.48 0.52 0.60 0.75 0.63 0.64 0.52 0.46 0.54 0.56 0.58
0.42 0.30 0.15 0.04 0.07 0.11 0.09 0.09 0.03 0.03 0.02 0.01 0.04 0.13 0.14 0.04 0.02 0.02 0.01 0.01 0.01 0.00 0.00 0.02 0.05 0.18 0.35 0.75 0.92 0.72 0.63 0.81 0.80 0.70 0.74 0.84 1.06 1.14 0.80 0.97 0.78 0.78 0.68 0.55
0.15 0.21 0.08 0.02 0.01 0.02 0.02 0.02 0.00 0.00 0.01 0.00 0.00 0.04 0.22 0.29 0.12 0.05 0.02 0.01 0.01 0.01 0.02 0.04 0.03 0.08 0.20 0.35 0.94 1.21 0.79 0.81 0.88 0.75 0.73 0.89 0.99 0.98 0.72 0.61 0.66 0.58 0.63 0.60
0.13 0.17 0.01 0.00 0.00 0.00 0.03 0.02 0.00 0.00 0.00 0.00 0.00 0.00 0.01 0.16 0.24 0.16 0.10 0.07 0.09 0.09 0.17 0.22 0.17 0.32 0.49 0.49 0.81 1.10 0.86 0.88 0.70 0.73 0.45 0.61 0.69 0.62 0.47 0.37 0.42 0.43 0.39 0.32
0.06 0.10 0.01 0.00 0.00 0.00 0.00 0.00 0.00 0.01 0.01 0.00 0.01 0.00 0.00 0.01 0.04 0.16 0.17 0.15 0.16 0.24 0.55 0.66 0.68 0.58 0.54 0.44 0.32 0.33 0.44 0.46 0.31 0.26 0.23 0.18 0.19 0.27 0.24 0.14 0.10 0.04 0.01 0.00
0.00 0.00 0.00 0.00 0.00 0.00 0.00 0.00 0.00 0.00 0.00 0.00 0.01 0.00 0.00 0.01 0.00 0.00 0.01 0.02 0.05 0.15 0.16 0.09 0.14 0.12 0.15 0.06 0.02 0.02 0.02 0.01 0.02 0.02 0.02 0.01 0.00 0.00 0.00 0.00 0.00 0.00 0.00 0.00
0.00 0.00 0.00 0.00 0.00 0.00 0.00 0.00 0.00 0.01 0.01 0.00 0.00 0.00 0.01 0.02 0.02 0.03 0.02 0.00 0.00 0.00 0.00 0.00 0.00 0.00 0.00 0.01 0.02 0.02 0.01 0.00 0.00 0.01 0.01 0.01 0.00 0.00 0.00 0.00 0.00 0.00 0.01 0.01
0.00 0.00 0.00 0.00 0.00 0.00 0.00 0.00 0.00 0.00 0.00 0.00 0.00 0.00 0.00 0.00 0.01 0.02 0.06 0.08 0.08 0.07 0.04 0.01 0.00 0.01 0.00 0.00 0.00 0.00 0.01 0.01 0.00 0.00 0.00 0.00 0.00 0.00 0.00 0.00 0.02 0.02 0.01 0.01
0.00 0.00 0.00 0.00 0.00 0.00 0.00 0.00 0.00 0.00 0.00 0.00 0.00 0.00 0.00 0.00 0.00 0.00 0.01 0.03 0.07 0.16 0.22 0.25 0.21 0.17 0.13 0.11 0.11 0.09 0.06 0.04 0.04 0.04 0.04 0.05 0.04 0.04 0.08 0.08 0.08 0.07 0.06 0.04
0.00 0.00 0.00 0.00 0.00 0.00 0.00 0.00 0.00 0.00 0.00 0.00 0.00 0.00 0.01 0.00 0.00 0.00 0.00 0.00 0.01 0.04 0.04 0.08 0.17 0.24 0.22 0.18 0.16 0.16 0.15 0.13 0.13 0.14 0.09 0.07 0.06 0.07 0.09 0.14 0.15 0.10 0.09 0.09
0.01 0.00 0.00 0.00 0.00 0.00 0.00 0.00 0.00 0.00 0.00 0.00 0.00 0.00 0.00 0.00 0.00 0.00 0.00 0.00 0.00 0.00 0.00 0.00 0.01 0.02 0.07 0.12 0.13 0.12 0.13 0.22 0.16 0.16 0.17 0.17 0.17 0.17 0.15 0.13 0.13 0.15 0.21 0.23
0.01 0.02 0.01 0.01 0.00 0.00 0.00 0.00 0.00 0.00 0.00 0.00 0.00 0.00 0.00 0.00 0.00 0.00 0.00 0.00 0.00 0.00 0.00 0.00 0.00 0.00 0.00 0.01 0.01 0.02 0.06 0.09 0.13 0.16 0.16 0.21 0.15 0.14 0.16 0.18 0.18 0.18 0.19 0.33
0.13 0.06 0.06 0.05 0.02 0.03 0.02 0.03 0.04 0.04 0.04 0.03 0.02 0.01 0.01 0.01 0.01 0.00 0.00 0.01 0.03 0.01 0.00 0.00 0.00 0.01 0.01 0.01 0.02 0.02 0.03 0.12 0.14 0.08 0.12 0.15 0.12 0.14 0.14 0.16 0.19 0.18 0.17 0.17
0.42 0.30 0.17 0.23 0.14 0.10 0.15 0.11 0.12 0.14 0.14 0.13 0.13 0.12 0.10 0.08 0.06 0.04 0.02 0.02 0.02 0.02 0.01 0.01 0.01 0.02 0.03 0.03 0.04 0.04 0.05 0.09 0.19 0.11 0.08 0.10 0.12 0.13 0.12 0.16 0.15 0.14 0.15 0.29
0.31 0.32 0.20 0.30 0.35 0.25 0.29 0.33 0.34 0.35 0.34 0.35 0.29 0.21 0.19 0.17 0.15 0.11 0.09 0.06 0.04 0.04 0.03 0.03 0.03 0.04 0.03 0.03 0.04 0.06 0.07 0.10 0.12 0.11 0.11 0.13 0.14 0.12 0.13 0.13 0.12 0.12 0.09 0.33
0.10 0.22 0.18 0.11 0.16 0.19 0.27 0.30 0.29 0.34 0.36 0.33 0.29 0.27 0.23 0.18 0.15 0.13 0.11 0.09 0.07 0.07 0.06 0.07 0.09 0.08 0.06 0.05 0.08 0.12 0.14 0.14 0.14 0.14 0.13 0.20 0.27 0.14 0.11 0.11 0.10 0.10 0.10 0.16
0.27 0.18 0.11 0.09 0.11 0.14 0.15 0.11 0.10 0.11 0.10 0.08 0.08 0.07 0.09 0.06 0.04 0.04 0.04 0.05 0.06 0.06 0.06 0.07 0.10 0.09 0.08 0.11 0.17 0.25 0.19 0.16 0.16 0.13 0.17 0.24 0.24 0.23 0.21 0.28 0.25 0.19 0.16 0.17
0.56 0.60 0.44 0.44 0.40 0.30 0.21 0.15 0.12 0.11 0.07 0.06 0.07 0.05 0.04 0.04 0.03 0.05 0.07 0.04 0.01 0.02 0.04 0.04 0.07 0.08 0.07 0.11 0.19 0.17 0.18 0.23 0.29 0.29 0.33 0.36 0.31 0.26 0.21 0.20 0.23 0.19 0.17 0.18
0.25 0.33 0.40 0.29 0.16 0.20 0.27 0.25 0.17 0.13 0.10 0.09 0.11 0.08 0.07 0.05 0.04 0.05 0.07 0.15 0.09 0.06 0.08 0.09 0.10 0.13 0.18 0.23 0.22 0.21 0.30 0.35 0.39 0.39 0.33 0.29 0.28 0.27 0.25 0.27 0.29 0.25 0.23 0.20
0.14 0.19 0.24 0.22 0.16 0.13 0.17 0.27 0.23 0.20 0.22 0.22 0.22 0.20 0.20 0.18 0.20 0.27 0.22 0.17 0.19 0.13 0.14 0.15 0.19 0.27 0.32 0.30 0.20 0.28 0.37 0.35 0.31 0.29 0.31 0.33 0.33 0.32 0.32 0.30 0.29 0.26 0.21 0.18
0.09 0.13 0.20 0.25 0.24 0.18 0.16 0.16 0.16 0.22 0.28 0.27 0.26 0.28 0.31 0.36 0.31 0.29 0.29 0.25 0.24 0.25 0.25 0.27 0.29 0.32 0.34 0.28 0.33 0.38 0.35 0.35 0.34 0.33 0.33 0.34 0.33 0.34 0.32 0.31 0.28 0.24 0.22 0.22
0.17 0.16 0.17 0.17 0.16 0.12 0.11 0.10 0.10 0.09 0.10 0.12 0.14 0.19 0.23 0.28 0.37 0.30 0.28 0.21 0.23 0.29 0.26 0.24 0.26 0.27 0.26 0.30 0.38 0.37 0.36 0.36 0.38 0.39 0.30 0.28 0.27 0.28 0.27 0.28 0.27 0.27 0.26 0.25
0.05 0.06 0.05 0.06 0.09 0.10 0.10 0.10 0.10 0.09 0.09 0.09 0.06 0.06 0.10 0.14 0.16 0.18 0.19 0.23 0.24 0.26 0.18 0.18 0.24 0.27 0.24 0.28 0.26 0.22 0.25 0.24 0.24 0.24 0.25 0.23 0.22 0.20 0.20 0.20 0.21 0.23 0.24 0.25
0.09 0.10 0.09 0.07 0.06 0.06 0.06 0.08 0.11 0.11 0.11 0.10 0.11 0.09 0.09 0.09 0.13 0.15 0.13 0.18 0.22 0.22 0.16 0.13 0.18 0.22 0.23 0.22 0.14 0.14 0.16 0.15 0.17 0.20 0.18 0.19 0.19 0.19 0.18 0.18 0.19 0.21 0.23 0.23

GFSNGP_prec_precacc_102.txt.gz
Total_Precipitation_Accumulation
0.12 0.22 0.58 0.38 0.14 0.10 0.39 0.19 0.26 0.09 0.04 0.04 0.04 0.05 0.05 0.04 0.03 0.03 0.03 0.02 0.02 0.00 0.00 0.01 0.05 0.23 0.17 0.14 0.20 0.19 0.16 0.13 0.09 0.08 0.09 0.07 0.05 0.07 0.07 0.06 0.06 0.04 0.08 0.15
0.34 0.25 0.35 0.27 0.07 0.11 0.12 0.04 0.05 0.02 0.04 0.05 0.05 0.03 0.08 0.06 0.02 0.01 0.00 0.00 0.00 0.00 0.00 0.00 0.03 0.08 0.15 0.24 0.15 0.18 0.11 0.11 0.08 0.08 0.08 0.09 0.08 0.05 0.08 0.08 0.08 0.12 0.11 0.11
0.48 0.18 0.19 0.26 0.08 0.06 0.09 0.07 0.03 0.04 0.05 0.07 0.25 0.45 0.39 0.10 0.04 0.02 0.02 0.00 0.00 0.00 0.00 0.00 0.01 0.11 0.51 0.64 0.29 0.28 0.15 0.17 0.17 0.13 0.20 0.20 0.15 0.13 0.11 0.15 0.24 0.23 0.22 0.26
0.83 0.44 0.44 0.25 0.10 0.14 0.15 0.12 0.06 0.05 0.07 0.08 0.13 0.18 0.12 0.04 0.02 0.02 0.01 0.01 0.00 0.00 0.00 0.00 0.03 0.28 0.83 0.87 0.28 0.25 0.22 0.33 0.57 0.48 0.52 0.60 0.75 0.63 0.64 0.52 0.46 0.54 0.56 0.58
0.42 0.30 0.15 0.04 0.07 0.11 0.09 0.09 0.03 0.03 0.02 0.01 0.04 0.13 0.14 0.04 0.02 0.02 0.01 0.01 0.01 0.00 0.00 0.02 0.05 0.18 0.35 0.75 0.92 0.72 0.63 0.81 0.80 0.70 0.74 0.84 1.06 1.14 0.80 0.97 0.78 0.78 0.68 0.55
0.15 0.21 0.08 0.02 0.01 0.02 0.02 0.02 0.00 0.00 0.01 0.00 0.00 0.04 0.22 0.29 0.12 0.05 0.02 0.01 0.01 0.01 0.02 0.04 0.03 0.08 0.20 0.35 0.94 1.21 0.79 0.81 0.88 0.75 0.73 0.89 0.99 0.98 0.72 0.61 0.66 0.58 0.63 0.60
0.13 0.17 0.01 0.00 0.00 0.00 0.03 0.02 0.00 0.00 0.00 0.00 0.00 0.00 0.01 0.16 0.24 0.16 0.10 0.07 0.09 0.09 0.17 0.22 0.17 0.32 0.49 0.49 0.81 1.10 0.86 0.88 0.70 0.73 0.45 0.61 0.69 0.62 0.47 0.37 0.42 0.43 0.39 0.32
0.06 0.10 0.01 0.00 0.00 0.00 0.00 0.00 0.00 0.01 0.01 0.00 0.01 0.00 0.00 0.01 0.04 0.16 0.17 0.15 0.16 0.24 0.55 0.66 0.68 0.58 0.54 0.44 0.32 0.33 0.44 0.46 0.31 0.26 0.23 0.18 0.19 0.27 0.24 0.14 0.10 0.04 0.01 0.00
0.00 0.00 0.00 0.00 0.00 0.00 0.00 0.00 0.00 0.00 0.00 0.00 0.01 0.00 0.00 0.01 0.00 0.00 0.01 0.02 0.05 0.15 0.16 0.09 0.14 0.12 0.15 0.06 0.02 0.02 0.02 0.01 0.02 0.02 0.02 0.01 0.00 0.00 0.00 0.00 0.00 0.00 0.00 0.00
0.00 0.00 0.00 0.00 0.00 0.00 0.00 0.00 0.00 0.01 0.01 0.00 0.00 0.00 0.01 0.02 0.02 0.03 0.02 0.00 0.00 0.00 0.00 0.00 0.00 0.00 0.00 0.01 0.02 0.02 0.01 0.00 0.00 0.01 0.01 0.01 0.00 0.00 0.00 0.00 0.00 0.00 0.01 0.01
0.00 0.00 0.00 0.00 0.00 0.00 0.00 0.00 0.00 0.00 0.00 0.00 0.00 0.00 0.00 0.00 0.01 0.02 0.06 0.08 0.08 0.07 0.04 0.01 0.00 0.01 0.00 0.00 0.00 0.00 0.01 0.01 0.00 0.00 0.00 0.00 0.00 0.00 0.00 0.00 0.02 0.02 0.01 0.02
0.00 0.00 0.00 0.00 0.00 0.00 0.00 0.00 0.00 0.00 0.00 0.00 0.00 0.00 0.00 0.00 0.00 0.00 0.01 0.03 0.07 0.16 0.22 0.25 0.21 0.17 0.13 0.11 0.11 0.09 0.06 0.04 0.04 0.04 0.04 0.05 0.04 0.04 0.08 0.08 0.08 0.07 0.06 0.05
0.00 0.00 0.00 0.00 0.00 0.00 0.00 0.00 0.00 0.00 0.00 0.00 0.00 0.00 0.01 0.00 0.00 0.00 0.00 0.00 0.01 0.04 0.04 0.08 0.17 0.24 0.22 0.18 0.16 0.16 0.15 0.13 0.13 0.14 0.09 0.07 0.06 0.07 0.09 0.14 0.15 0.10 0.09 0.09
0.01 0.00 0.00 0.00 0.00 0.00 0.00 0.00 0.00 0.00 0.00 0.00 0.00 0.00 0.00 0.00 0.00 0.00 0.00 0.00 0.00 0.00 0.00 0.00 0.01 0.02 0.07 0.12 0.13 0.12 0.13 0.22 0.16 0.16 0.17 0.17 0.17 0.17 0.15 0.13 0.13 0.15 0.21 0.23
0.01 0.02 0.01 0.01 0.00 0.00 0.00 0.00 0.00 0.00 0.00 0.00 0.00 0.00 0.00 0.00 0.00 0.00 0.00 0.00 0.00 0.00 0.00 0.00 0.00 0.00 0.00 0.01 0.01 0.02 0.06 0.09 0.13 0.16 0.16 0.22 0.15 0.14 0.16 0.18 0.19 0.18 0.20 0.33
0.13 0.06 0.06 0.05 0.02 0.03 0.02 0.03 0.04 0.04 0.04 0.03 0.02 0.01 0.01 0.01 0.01 0.00 0.00 0.01 0.03 0.01 0.00 0.00 0.00 0.01 0.01 0.01 0.02 0.02 0.03 0.12 0.14 0.09 0.13 0.15 0.12 0.14 0.15 0.16 0.19 0.19 0.17 0.17
0.42 0.30 0.17 0.23 0.14 0.10 0.15 0.11 0.12 0.14 0.14 0.13 0.13 0.12 0.10 0.08 0.06 0.04 0.02 0.02 0.02 0.02 0.01 0.01 0.01 0.02 0.03 0.03 0.04 0.04 0.05 0.09 0.19 0.12 0.09 0.10 0.13 0.14 0.13 0.16 0.16 0.15 0.16 0.29
0.31 0.32 0.20 0.30 0.35 0.25 0.29 0.33 0.34 0.35 0.34 0.35 0.29 0.21 0.19 0.17 0.15 0.11 0.09 0.06 0.04 0.04 0.03 0.03 0.03 0.04 0.03 0.03 0.04 0.06 0.07 0.10 0.12 0.12 0.12 0.13 0.14 0.13 0.14 0.14 0.12 0.13 0.10 0.33
0.10 0.22 0.18 0.11 0.16 0.19 0.27 0.30 0.29 0.34 0.36 0.33 0.29 0.27 0.23 0.18 0.15 0.13 0.11 0.09 0.07 0.07 0.06 0.07 0.09 0.08 0.06 0.05 0.08 0.12 0.14 0.15 0.15 0.14 0.13 0.21 0.27 0.15 0.11 0.12 0.12 0.11 0.12 0.16
0.27 0.18 0.11 0.09 0.11 0.14 0.15 0.11 0.10 0.11 0.10 0.08 0.08 0.07 0.09 0.06 0.04 0.04 0.04 0.05 0.06 0.06 0.06 0.07 0.10 0.09 0.08 0.11 0.17 0.25 0.20 0.17 0.16 0.13 0.17 0.24 0.24 0.23 0.22 0.28 0.26 0.20 0.17 0.17
0.56 0.60 0.44 0.44 0.40 0.30 0.21 0.15 0.12 0.11 0.07 0.06 0.07 0.05 0.04 0.04 0.03 0.05 0.07 0.04 0.01 0.02 0.04 0.04 0.07 0.08 0.07 0.11 0.20 0.18 0.18 0.23 0.29 0.29 0.34 0.37 0.31 0.27 0.21 0.20 0.23 0.20 0.18 0.19
0.25 0.33 0.40 0.29 0.16 0.20 0.27 0.25 0.17 0.13 0.10 0.09 0.11 0.08 0.07 0.05 0.04 0.05 0.07 0.15 0.09 0.06 0.08 0.10 0.10 0.13 0.18 0.23 0.23 0.21 0.30 0.36 0.39 0.39 0.34 0.30 0.29 0.28 0.25 0.28 0.29 0.25 0.23 0.21
0.14 0.19 0.24 0.22 0.16 0.13 0.17 0.27 0.23 0.20 0.22 0.22 0.22 0.20 0.20 0.18 0.20 0.27 0.22 0.17 0.19 0.13 0.14 0.15 0.19 0.27 0.32 0.30 0.20 0.28 0.37 0.35 0.31 0.30 0.31 0.34 0.34 0.33 0.33 0.31 0.30 0.26 0.21 0.19
0.09 0.13 0.20 0.25 0.24 0.18 0.16 0.16 0.16 0.22 0.28 0.27 0.26 0.28 0.31 0.36 0.31 0.29 0.29 0.25 0.24 0.25 0.25 0.27 0.29 0.32 0.34 0.28 0.33 0.38 0.36 0.36 0.35 0.33 0.34 0.35 0.34 0.35 0.33 0.31 0.28 0.24 0.23 0.22
0.17 0.16 0.17 0.17 0.16 0.12 0.11 0.10 0.10 0.09 0.10 0.12 0.14 0.19 0.23 0.28 0.37 0.30 0.28 0.21 0.23 0.29 0.26 0.24 0.26 0.27 0.26 0.30 0.38 0.37 0.36 0.36 0.38 0.40 0.30 0.29 0.27 0.28 0.28 0.29 0.28 0.28 0.28 0.25
0.05 0.06 0.05 0.06 0.09 0.10 0.10 0.10 0.10 0.09 0.09 0.09 0.06 0.06 0.10 0.14 0.16 0.18 0.19 0.23 0.24 0.26 0.18 0.18 0.24 0.27 0.24 0.28 0.27 0.22 0.25 0.24 0.24 0.24 0.26 0.23 0.22 0.21 0.21 0.21 0.22 0.24 0.26 0.26
0.09 0.10 0.09 0.07 0.06 0.06 0.06 0.08 0.11 0.11 0.11 0.10 0.11 0.09 0.09 0.09 0.13 0.15 0.13 0.18 0.22 0.22 0.16 0.13 0.18 0.22 0.23 0.22 0.15 0.14 0.16 0.15 0.17 0.21 0.18 0.19 0.20 0.19 0.19 0.19 0.20 0.23 0.25 0.26

GFSNGP_prec_precacc_105.txt.gz
Total_Precipitation_Accumulation
0.12 0.22 0.58 0.38 0.14 0.10 0.39 0.19 0.26 0.09 0.04 0.04 0.04 0.05 0.05 0.04 0.03 0.03 0.03 0.02 0.02 0.00 0.00 0.01 0.05 0.23 0.17 0.14 0.20 0.19 0.16 0.13 0.09 0.08 0.09 0.07 0.05 0.07 0.07 0.06 0.06 0.04 0.08 0.15
0.34 0.25 0.35 0.27 0.07 0.11 0.12 0.04 0.05 0.02 0.04 0.05 0.05 0.03 0.08 0.06 0.02 0.01 0.00 0.00 0.00 0.00 0.00 0.00 0.03 0.08 0.15 0.24 0.15 0.18 0.11 0.11 0.08 0.08 0.08 0.09 0.08 0.05 0.08 0.08 0.08 0.12 0.11 0.11
0.48 0.18 0.19 0.26 0.08 0.06 0.09 0.07 0.03 0.04 0.05 0.07 0.25 0.45 0.39 0.10 0.04 0.02 0.02 0.00 0.00 0.00 0.00 0.00 0.01 0.11 0.51 0.64 0.29 0.28 0.15 0.17 0.17 0.13 0.20 0.20 0.15 0.13 0.11 0.15 0.24 0.23 0.22 0.26
0.83 0.44 0.44 0.25 0.10 0.14 0.15 0.12 0.06 0.05 0.07 0.08 0.13 0.18 0.12 0.04 0.02 0.02 0.01 0.01 0.00 0.00 0.00 0.00 0.03 0.28 0.83 0.87 0.28 0.25 0.22 0.33 0.57 0.48 0.52 0.60 0.75 0.63 0.64 0.52 0.46 0.54 0.56 0.58
0.42 0.30 0.15 0.04 0.07 0.11 0.09 0.09 0.03 0.03 0.02 0.01 0.04 0.13 0.14 0.04 0.02 0.02 0.01 0.01 0.01 0.00 0.00 0.02 0.05 0.18 0.35 0.75 0.92 0.72 0.63 0.81 0.80 0.70 0.74 0.84 1.06 1.14 0.80 0.97 0.78 0.78 0.68 0.55
0.15 0.21 0.08 0.02 0.01 0.02 0.02 0.02 0.00 0.00 0.01 0.00 0.00 0.04 0.22 0.29 0.12 0.05 0.02 0.01 0.01 0.01 0.02 0.04 0.03 0.08 0.20 0.35 0.94 1.21 0.79 0.81 0.88 0.75 0.73 0.89 0.99 0.98 0.72 0.61 0.66 0.58 0.63 0.60
0.13 0.17 0.01 0.00 0.00 0.00 0.03 0.02 0.00 0.00 0.00 0.00 0.00 0.00 0.01 0.16 0.24 0.16 0.10 0.07 0.09 0.09 0.17 0.22 0.17 0.32 0.49 0.49 0.81 1.10 0.86 0.88 0.70 0.73 0.45 0.61 0.69 0.62 0.47 0.37 0.42 0.43 0.39 0.32
0.06 0.10 0.01 0.00 0.00 0.00 0.00 0.00 0.00 0.01 0.01 0.00 0.01 0.00 0.00 0.01 0.04 0.16 0.17 0.15 0.16 0.24 0.55 0.66 0.68 0.58 0.54 0.44 0.32 0.33 0.44 0.46 0.31 0.26 0.23 0.18 0.19 0.27 0.24 0.14 0.10 0.04 0.01 0.00
0.00 0.00 0.00 0.00 0.00 0.00 0.00 0.00 0.00 0.00 0.00 0.00 0.01 0.00 0.00 0.01 0.00 0.00 0.01 0.02 0.05 0.15 0.16 0.09 0.14 0.12 0.15 0.06 0.02 0.02 0.02 0.01 0.02 0.02 0.02 0.01 0.00 0.00 0.00 0.00 0.00 0.00 0.00 0.00
0.00 0.00 0.00 0.00 0.00 0.00 0.00 0.00 0.00 0.01 0.01 0.00 0.00 0.00 0.01 0.02 0.02 0.03 0.02 0.00 0.00 0.00 0.00 0.00 0.00 0.00 0.00 0.01 0.02 0.02 0.01 0.00 0.00 0.01 0.01 0.01 0.00 0.00 0.00 0.00 0.00 0.00 0.01 0.01
0.00 0.00 0.00 0.00 0.00 0.00 0.00 0.00 0.00 0.00 0.00 0.00 0.00 0.00 0.00 0.00 0.01 0.02 0.06 0.08 0.08 0.07 0.04 0.01 0.00 0.01 0.00 0.00 0.00 0.00 0.01 0.01 0.00 0.00 0.00 0.00 0.00 0.00 0.00 0.00 0.02 0.02 0.02 0.03
0.00 0.00 0.00 0.00 0.00 0.00 0.00 0.00 0.00 0.00 0.00 0.00 0.00 0.00 0.00 0.00 0.00 0.00 0.01 0.03 0.07 0.16 0.22 0.25 0.21 0.17 0.13 0.11 0.11 0.09 0.06 0.04 0.04 0.04 0.04 0.05 0.04 0.04 0.08 0.08 0.08 0.07 0.06 0.05
0.00 0.00 0.00 0.00 0.00 0.00 0.00 0.00 0.00 0.00 0.00 0.00 0.00 0.00 0.01 0.00 0.00 0.00 0.00 0.00 0.01 0.04 0.04 0.08 0.17 0.24 0.22 0.18 0.16 0.16 0.15 0.13 0.13 0.14 0.09 0.07 0.06 0.07 0.09 0.14 0.15 0.10 0.09 0.09
0.01 0.00 0.00 0.00 0.00 0.00 0.00 0.00 0.00 0.00 0.00 0.00 0.00 0.00 0.00 0.00 0.00 0.00 0.00 0.00 0.00 0.00 0.00 0.00 0.01 0.02 0.07 0.12 0.13 0.12 0.13 0.22 0.16 0.16 0.17 0.17 0.18 0.18 0.16 0.14 0.14 0.15 0.21 0.23
0.01 0.02 0.01 0.01 0.00 0.00 0.00 0.00 0.00 0.00 0.00 0.00 0.00 0.00 0.00 0.00 0.00 0.00 0.00 0.00 0.00 0.00 0.00 0.00 0.00 0.00 0.00 0.01 0.01 0.02 0.06 0.09 0.13 0.16 0.16 0.22 0.16 0.15 0.16 0.18 0.19 0.18 0.20 0.33
0.13 0.06 0.06 0.05 0.02 0.03 0.02 0.03 0.04 0.04 0.04 0.03 0.02 0.01 0.01 0.01 0.01 0.00 0.00 0.01 0.03 0.01 0.00 0.00 0.00 0.01 0.01 0.01 0.02 0.02 0.03 0.12 0.14 0.09 0.13 0.15 0.12 0.14 0.15 0.16 0.19 0.19 0.18 0.17
0.42 0.30 0.17 0.23 0.14 0.10 0.15 0.11 0.12 0.14 0.14 0.13 0.13 0.12 0.10 0.08 0.06 0.04 0.02 0.02 0.02 0.02 0.01 0.01 0.01 0.02 0.03 0.03 0.04 0.04 0.05 0.09 0.19 0.12 0.09 0.10 0.13 0.14 0.13 0.17 0.16 0.15 0.16 0.30
0.31 0.32 0.20 0.30 0.35 0.25 0.29 0.33 0.34 0.35 0.34 0.35 0.29 0.21 0.19 0.17 0.15 0.11 0.09 0.06 0.04 0.04 0.03 0.03 0.03 0.04 0.03 0.03 0.04 0.06 0.07 0.10 0.13 0.12 0.12 0.14 0.14 0.13 0.14 0.14 0.13 0.14 0.11 0.34
0.10 0.22 0.18 0.11 0.16 0.19 0.27 0.30 0.29 0.34 0.36 0.33 0.29 0.27 0.23 0.18 0.15 0.13 0.11 0.09 0.07 0.07 0.06 0.07 0.09 0.08 0.06 0.05 0.08 0.12 0.14 0.15 0.15 0.15 0.13 0.21 0.28 0.15 0.11 0.12 0.13 0.12 0.12 0.17
0.27 0.18 0.11 0.09 0.11 0.14 0.15 0.11 0.10 0.11 0.10 0.08 0.08 0.07 0.09 0.06 0.04 0.04 0.04 0.05 0.06 0.06 0.06 0.07 0.10 0.09 0.08 0.11 0.17 0.26 0.22 0.18 0.16 0.13 0.17 0.25 0.24 0.23 0.22 0.28 0.26 0.20 0.17 0.17
0.56 0.60 0.44 0.44 0.40 0.30 0.21 0.15 0.12 0.11 0.07 0.06 0.07 0.05 0.04 0.04 0.03 0.05 0.07 0.04 0.01 0.02 0.04 0.04 0.07 0.08 0.07 0.11 0.21 0.19 0.19 0.23 0.29 0.29 0.34 0.37 0.31 0.27 0.22 0.21 0.23 0.20 0.18 0.19
0.25 0.33 0.40 0.29 0.16 0.20 0.27 0.25 0.17 0.13 0.10 0.09 0.11 0.08 0.07 0.05 0.04 0.05 0.07 0.15 0.09 0.06 0.08 0.10 0.10 0.13 0.18 0.23 0.23 0.21 0.30 0.36 0.39 0.39 0.34 0.30 0.29 0.29 0.26 0.28 0.30 0.25 0.23 0.21
0.14 0.19 0.24 0.22 0.16 0.13 0.17 0.27 0.23 0.20 0.22 0.22 0.22 0.20 0.20 0.18 0.20 0.27 0.22 0.17 0.19 0.13 0.14 0.15 0.19 0.27 0.32 0.30 0.20 0.28 0.37 0.35 0.31 0.30 0.31 0.34 0.34 0.34 0.34 0.32 0.31 0.27 0.22 0.19
0.09 0.13 0.20 0.25 0.24 0.18 0.16 0.16 0.16 0.22 0.28 0.27 0.26 0.28 0.31 0.36 0.31 0.29 0.29 0.25 0.24 0.25 0.25 0.27 0.29 0.32 0.34 0.28 0.33 0.38 0.36 0.36 0.35 0.33 0.34 0.35 0.34 0.35 0.33 0.33 0.29 0.25 0.23 0.22
0.17 0.16 0.17 0.17 0.16 0.12 0.11 0.10 0.10 0.09 0.10 0.12 0.14 0.19 0.23 0.28 0.37 0.30 0.28 0.21 0.23 0.29 0.26 0.24 0.26 0.27 0.26 0.30 0.38 0.37 0.36 0.36 0.39 0.40 0.31 0.29 0.28 0.29 0.29 0.31 0.30 0.30 0.30 0.27
0.05 0.06 0.05 0.06 0.09 0.10 0.10 0.10 0.10 0.09 0.09 0.09 0.06 0.06 0.10 0.14 0.16 0.18 0.19 0.23 0.24 0.26 0.18 0.18 0.24 0.27 0.24 0.28 0.27 0.22 0.25 0.24 0.24 0.25 0.26 0.23 0.23 0.21 0.22 0.22 0.23 0.26 0.28 0.28
0.09 0.10 0.09 0.07 0.06 0.06 0.06 0.08 0.11 0.11 0.11 0.10 0.11 0.09 0.09 0.09 0.13 0.15 0.13 0.18 0.22 0.22 0.16 0.13 0.18 0.22 0.23 0.22 0.15 0.14 0.16 0.15 0.17 0.21 0.19 0.19 0.20 0.20 0.20 0.20 0.21 0.25 0.28 0.28

GFSNGP_prec_precacc_108.txt.gz
Total_Precipitation_Accumulation
0.12 0.22 0.58 0.38 0.14 0.10 0.39 0.19 0.26 0.09 0.04 0.04 0.04 0.05 0.05 0.04 0.03 0.03 0.03 0.02 0.02 0.00 0.00 0.01 0.05 0.23 0.17 0.14 0.20 0.19 0.16 0.13 0.10 0.08 0.09 0.07 0.05 0.07 0.07 0.06 0.06 0.04 0.08 0.15
0.34 0.25 0.35 0.27 0.07 0.11 0.12 0.04 0.05 0.02 0.04 0.05 0.05 0.03 0.08 0.06 0.02 0.01 0.00 0.00 0.00 0.00 0.00 0.00 0.03 0.08 0.15 0.24 0.15 0.18 0.11 0.11 0.08 0.08 0.08 0.09 0.08 0.05 0.08 0.08 0.08 0.12 0.11 0.11
0.48 0.18 0.19 0.26 0.08 0.06 0.09 0.07 0.03 0.04 0.05 0.07 0.25 0.45 0.39 0.10 0.04 0.02 0.02 0.00 0.00 0.00 0.00 0.00 0.01 0.11 0.51 0.64 0.29 0.28 0.15 0.17 0.17 0.13 0.20 0.20 0.15 0.13 0.11 0.15 0.24 0.23 0.22 0.26
0.83 0.44 0.44 0.25 0.10 0.14 0.15 0.12 0.06 0.05 0.07 0.08 0.13 0.18 0.12 0.04 0.02 0.02 0.01 0.01 0.00 0.00 0.00 0.00 0.03 0.28 0.83 0.87 0.28 0.25 0.22 0.33 0.57 0.48 0.52 0.60 0.75 0.63 0.64 0.52 0.46 0.54 0.56 0.58
0.42 0.30 0.15 0.04 0.07 0.11 0.09 0.09 0.03 0.03 0.02 0.01 0.04 0.13 0.14 0.04 0.02 0.02 0.01 0.01 0.01 0.00 0.00 0.02 0.05 0.18 0.35 0.75 0.92 0.72 0.63 0.81 0.80 0.70 0.74 0.84 1.06 1.14 0.80 0.97 0.78 0.78 0.68 0.55
0.15 0.21 0.08 0.02 0.01 0.02 0.02 0.02 0.00 0.00 0.01 0.00 0.00 0.04 0.22 0.29 0.12 0.05 0.02 0.01 0.01 0.01 0.02 0.04 0.03 0.08 0.20 0.35 0.94 1.21 0.79 0.81 0.88 0.75 0.73 0.89 0.99 0.98 0.72 0.61 0.66 0.58 0.63 0.60
0.13 0.17 0.01 0.00 0.00 0.00 0.03 0.02 0.00 0.00 0.00 0.00 0.00 0.00 0.01 0.16 0.24 0.16 0.10 0.07 0.09 0.09 0.17 0.22 0.17 0.32 0.49 0.49 0.81 1.10 0.86 0.88 0.70 0.73 0.45 0.61 0.69 0.62 0.47 0.37 0.42 0.43 0.39 0.32
0.06 0.10 0.01 0.00 0.00 0.00 0.00 0.00 0.00 0.01 0.01 0.00 0.01 0.00 0.00 0.01 0.04 0.16 0.17 0.15 0.16 0.24 0.55 0.66 0.68 0.58 0.54 0.44 0.32 0.33 0.44 0.46 0.31 0.26 0.23 0.18 0.19 0.27 0.24 0.14 0.10 0.04 0.01 0.00
0.00 0.00 0.00 0.00 0.00 0.00 0.00 0.00 0.00 0.00 0.00 0.00 0.01 0.00 0.00 0.01 0.00 0.00 0.01 0.02 0.05 0.15 0.16 0.09 0.14 0.12 0.15 0.06 0.02 0.02 0.02 0.01 0.02 0.02 0.02 0.01 0.00 0.00 0.00 0.00 0.00 0.00 0.00 0.00
0.00 0.00 0.00 0.00 0.00 0.00 0.00 0.00 0.00 0.01 0.01 0.00 0.00 0.00 0.01 0.02 0.02 0.03 0.02 0.00 0.00 0.00 0.00 0.00 0.00 0.00 0.00 0.01 0.02 0.02 0.01 0.00 0.00 0.01 0.01 0.01 0.00 0.00 0.00 0.00 0.00 0.00 0.01 0.01
0.00 0.00 0.00 0.00 0.00 0.00 0.00 0.00 0.00 0.00 0.00 0.00 0.00 0.00 0.00 0.00 0.01 0.02 0.06 0.08 0.08 0.07 0.04 0.01 0.00 0.01 0.00 0.00 0.00 0.00 0.01 0.01 0.00 0.00 0.00 0.00 0.00 0.00 0.00 0.00 0.02 0.02 0.02 0.03
0.00 0.00 0.00 0.00 0.00 0.00 0.00 0.00 0.00 0.00 0.00 0.00 0.00 0.00 0.00 0.00 0.00 0.00 0.01 0.03 0.07 0.16 0.22 0.25 0.21 0.17 0.13 0.11 0.11 0.09 0.06 0.04 0.04 0.04 0.04 0.05 0.04 0.04 0.08 0.08 0.08 0.07 0.07 0.06
0.00 0.00 0.00 0.00 0.00 0.00 0.00 0.00 0.00 0.00 0.00 0.00 0.00 0.00 0.01 0.00 0.00 0.00 0.00 0.00 0.01 0.04 0.04 0.08 0.17 0.24 0.22 0.18 0.16 0.16 0.15 0.13 0.13 0.14 0.09 0.07 0.06 0.07 0.10 0.14 0.15 0.10 0.09 0.09
0.01 0.00 0.00 0.00 0.00 0.00 0.00 0.00 0.00 0.00 0.00 0.00 0.00 0.00 0.00 0.00 0.00 0.00 0.00 0.00 0.00 0.00 0.00 0.00 0.01 0.02 0.07 0.12 0.13 0.12 0.13 0.22 0.16 0.16 0.17 0.17 0.18 0.18 0.16 0.14 0.14 0.15 0.21 0.23
0.01 0.02 0.01 0.01 0.00 0.00 0.00 0.00 0.00 0.00 0.00 0.00 0.00 0.00 0.00 0.00 0.00 0.00 0.00 0.00 0.00 0.00 0.00 0.00 0.00 0.00 0.00 0.01 0.01 0.02 0.06 0.09 0.13 0.16 0.16 0.22 0.16 0.15 0.17 0.19 0.19 0.18 0.20 0.33
0.13 0.06 0.06 0.05 0.02 0.03 0.02 0.03 0.04 0.04 0.04 0.03 0.02 0.01 0.01 0.01 0.01 0.00 0.00 0.01 0.03 0.01 0.00 0.00 0.00 0.01 0.01 0.01 0.02 0.02 0.03 0.12 0.14 0.09 0.13 0.15 0.12 0.15 0.15 0.16 0.20 0.19 0.18 0.18
0.42 0.30 0.17 0.23 0.14 0.10 0.15 0.11 0.12 0.14 0.14 0.13 0.13 0.12 0.10 0.08 0.06 0.04 0.02 0.02 0.02 0.02 0.01 0.01 0.01 0.02 0.03 0.03 0.04 0.04 0.05 0.09 0.19 0.12 0.09 0.11 0.13 0.14 0.14 0.17 0.17 0.15 0.16 0.30
0.31 0.32 0.20 0.30 0.35 0.25 0.29 0.33 0.34 0.35 0.34 0.35 0.29 0.21 0.19 0.17 0.15 0.11 0.09 0.06 0.04 0.04 0.03 0.03 0.03 0.04 0.03 0.03 0.04 0.06 0.07 0.10 0.13 0.12 0.12 0.14 0.14 0.13 0.14 0.14 0.13 0.14 0.11 0.34
0.10 0.22 0.18 0.11 0.16 0.19 0.27 0.30 0.29 0.34 0.36 0.33 0.29 0.27 0.23 0.18 0.15 0.13 0.11 0.09 0.07 0.07 0.06 0.07 0.09 0.08 0.06 0.05 0.08 0.12 0.14 0.16 0.15 0.15 0.13 0.21 0.28 0.15 0.11 0.12 0.13 0.12 0.12 0.17
0.27 0.18 0.11 0.09 0.11 0.14 0.15 0.11 0.10 0.11 0.10 0.08 0.08 0.07 0.09 0.06 0.04 0.04 0.04 0.05 0.06 0.06 0.06 0.07 0.10 0.09 0.08 0.11 0.17 0.26 0.22 0.18 0.16 0.13 0.18 0.25 0.24 0.23 0.22 0.29 0.26 0.20 0.17 0.17
0.56 0.60 0.44 0.44 0.40 0.30 0.21 0.15 0.12 0.11 0.07 0.06 0.07 0.05 0.04 0.04 0.03 0.05 0.07 0.04 0.01 0.02 0.04 0.04 0.07 0.08 0.07 0.11 0.21 0.19 0.19 0.23 0.29 0.29 0.34 0.37 0.31 0.27 0.22 0.21 0.23 0.20 0.18 0.19
0.25 0.33 0.40 0.29 0.16 0.20 0.27 0.25 0.17 0.13 0.10 0.09 0.11 0.08 0.07 0.05 0.04 0.05 0.07 0.15 0.09 0.06 0.08 0.10 0.10 0.13 0.18 0.24 0.23 0.21 0.30 0.36 0.40 0.39 0.34 0.30 0.29 0.29 0.26 0.28 0.30 0.26 0.24 0.21
0.14 0.19 0.24 0.22 0.16 0.13 0.17 0.27 0.23 0.20 0.22 0.22 0.22 0.20 0.20 0.18 0.20 0.27 0.22 0.17 0.19 0.13 0.14 0.15 0.19 0.27 0.33 0.30 0.20 0.28 0.37 0.35 0.31 0.30 0.31 0.34 0.34 0.34 0.34 0.32 0.31 0.28 0.22 0.20
0.09 0.13 0.20 0.25 0.24 0.18 0.16 0.16 0.16 0.22 0.28 0.27 0.26 0.28 0.31 0.36 0.31 0.29 0.29 0.25 0.24 0.25 0.25 0.27 0.29 0.32 0.34 0.28 0.33 0.38 0.36 0.36 0.35 0.33 0.34 0.35 0.34 0.36 0.33 0.33 0.30 0.25 0.23 0.23
0.17 0.16 0.17 0.17 0.16 0.12 0.11 0.10 0.10 0.09 0.10 0.12 0.14 0.19 0.23 0.28 0.37 0.30 0.28 0.21 0.23 0.29 0.26 0.24 0.26 0.27 0.26 0.30 0.38 0.37 0.37 0.36 0.39 0.40 0.31 0.29 0.28 0.29 0.29 0.31 0.30 0.31 0.32 0.29
0.05 0.06 0.05 0.06 0.09 0.10 0.10 0.10 0.10 0.09 0.09 0.09 0.06 0.06 0.10 0.14 0.16 0.18 0.19 0.23 0.24 0.26 0.18 0.18 0.24 0.27 0.24 0.28 0.27 0.22 0.25 0.24 0.24 0.25 0.26 0.23 0.23 0.21 0.22 0.22 0.23 0.27 0.29 0.29
0.09 0.10 0.09 0.07 0.06 0.06 0.06 0.08 0.11 0.11 0.11 0.10 0.11 0.09 0.09 0.09 0.13 0.15 0.13 0.18 0.22 0.22 0.16 0.13 0.18 0.22 0.23 0.22 0.15 0.14 0.16 0.15 0.17 0.21 0.19 0.20 0.20 0.20 0.20 0.20 0.22 0.25 0.29 0.30

GFSNGP_prec_precacc_111.txt.gz
Total_Precipitation_Accumulation
0.12 0.22 0.58 0.38 0.14 0.10 0.39 0.19 0.26 0.09 0.04 0.04 0.04 0.05 0.05 0.04 0.03 0.03 0.03 0.02 0.02 0.00 0.00 0.01 0.05 0.23 0.17 0.14 0.20 0.19 0.16 0.13 0.10 0.08 0.09 0.07 0.05 0.07 0.07 0.06 0.06 0.04 0.08 0.15
0.34 0.25 0.35 0.27 0.07 0.11 0.12 0.04 0.05 0.02 0.04 0.05 0.05 0.03 0.08 0.06 0.02 0.01 0.00 0.00 0.00 0.00 0.00 0.00 0.03 0.08 0.15 0.24 0.15 0.18 0.11 0.11 0.08 0.08 0.08 0.09 0.08 0.05 0.08 0.08 0.08 0.12 0.11 0.11
0.48 0.18 0.19 0.26 0.08 0.06 0.09 0.07 0.03 0.04 0.05 0.07 0.25 0.45 0.39 0.10 0.04 0.02 0.02 0.00 0.00 0.00 0.00 0.00 0.01 0.11 0.51 0.64 0.29 0.28 0.15 0.17 0.17 0.13 0.20 0.20 0.15 0.13 0.11 0.15 0.24 0.23 0.22 0.26
0.83 0.44 0.44 0.25 0.10 0.14 0.15 0.12 0.06 0.05 0.07 0.08 0.13 0.18 0.12 0.04 0.02 0.02 0.01 0.01 0.00 0.00 0.00 0.00 0.03 0.28 0.83 0.87 0.28 0.25 0.22 0.33 0.57 0.48 0.52 0.60 0.75 0.63 0.64 0.52 0.46 0.54 0.56 0.58
0.42 0.30 0.15 0.04 0.07 0.11 0.09 0.09 0.03 0.03 0.02 0.01 0.04 0.13 0.14 0.04 0.02 0.02 0.01 0.01 0.01 0.00 0.00 0.02 0.05 0.18 0.35 0.75 0.92 0.72 0.63 0.81 0.80 0.70 0.74 0.84 1.06 1.14 0.80 0.97 0.78 0.78 0.68 0.55
0.15 0.21 0.08 0.02 0.01 0.02 0.02 0.02 0.00 0.00 0.01 0.00 0.00 0.04 0.22 0.29 0.12 0.05 0.02 0.01 0.01 0.01 0.02 0.04 0.03 0.08 0.20 0.35 0.94 1.21 0.79 0.81 0.88 0.75 0.73 0.89 0.99 0.98 0.72 0.61 0.66 0.58 0.63 0.60
0.13 0.17 0.01 0.00 0.00 0.00 0.03 0.02 0.00 0.00 0.00 0.00 0.00 0.00 0.01 0.16 0.24 0.16 0.10 0.07 0.09 0.09 0.17 0.22 0.17 0.32 0.49 0.49 0.81 1.10 0.86 0.88 0.70 0.73 0.45 0.61 0.69 0.62 0.47 0.37 0.42 0.43 0.39 0.32
0.06 0.10 0.01 0.00 0.00 0.00 0.00 0.00 0.00 0.01 0.01 0.00 0.01 0.00 0.00 0.01 0.04 0.16 0.17 0.15 0.16 0.24 0.55 0.66 0.68 0.58 0.54 0.44 0.32 0.33 0.44 0.46 0.31 0.26 0.23 0.18 0.19 0.27 0.24 0.14 0.10 0.04 0.01 0.00
0.00 0.00 0.00 0.00 0.00 0.00 0.00 0.00 0.00 0.00 0.00 0.00 0.01 0.00 0.00 0.01 0.00 0.00 0.01 0.02 0.05 0.15 0.16 0.09 0.14 0.12 0.15 0.06 0.02 0.02 0.02 0.01 0.02 0.02 0.02 0.01 0.00 0.00 0.00 0.00 0.00 0.00 0.00 0.00
0.00 0.00 0.00 0.00 0.00 0.00 0.00 0.00 0.00 0.01 0.01 0.00 0.00 0.00 0.01 0.02 0.02 0.03 0.02 0.00 0.00 0.00 0.00 0.00 0.00 0.00 0.00 0.01 0.02 0.02 0.01 0.00 0.00 0.01 0.01 0.01 0.00 0.00 0.00 0.00 0.00 0.00 0.01 0.01
0.00 0.00 0.00 0.00 0.00 0.00 0.00 0.00 0.00 0.00 0.00 0.00 0.00 0.00 0.00 0.00 0.01 0.02 0.06 0.08 0.08 0.07 0.04 0.01 0.00 0.01 0.00 0.00 0.00 0.00 0.01 0.01 0.00 0.00 0.00 0.00 0.00 0.00 0.00 0.00 0.02 0.02 0.02 0.03
0.00 0.00 0.00 0.00 0.00 0.00 0.00 0.00 0.00 0.00 0.00 0.00 0.00 0.00 0.00 0.00 0.00 0.00 0.01 0.03 0.07 0.16 0.22 0.25 0.21 0.17 0.13 0.11 0.11 0.09 0.06 0.04 0.04 0.04 0.04 0.05 0.04 0.04 0.08 0.08 0.08 0.07 0.07 0.06
0.00 0.00 0.00 0.00 0.00 0.00 0.00 0.00 0.00 0.00 0.00 0.00 0.00 0.00 0.01 0.00 0.00 0.00 0.00 0.00 0.01 0.04 0.04 0.08 0.17 0.24 0.22 0.18 0.16 0.16 0.15 0.13 0.13 0.14 0.09 0.07 0.06 0.07 0.10 0.14 0.15 0.10 0.09 0.09
0.01 0.00 0.00 0.00 0.00 0.00 0.00 0.00 0.00 0.00 0.00 0.00 0.00 0.00 0.00 0.00 0.00 0.00 0.00 0.00 0.00 0.00 0.00 0.00 0.01 0.02 0.07 0.12 0.13 0.12 0.13 0.22 0.16 0.16 0.17 0.17 0.18 0.18 0.16 0.14 0.14 0.15 0.21 0.23
0.01 0.02 0.01 0.01 0.00 0.00 0.00 0.00 0.00 0.00 0.00 0.00 0.00 0.00 0.00 0.00 0.00 0.00 0.00 0.00 0.00 0.00 0.00 0.00 0.00 0.00 0.00 0.01 0.01 0.02 0.06 0.09 0.13 0.16 0.16 0.22 0.16 0.15 0.17 0.19 0.19 0.18 0.20 0.33
0.13 0.06 0.06 0.05 0.02 0.03 0.02 0.03 0.04 0.04 0.04 0.03 0.02 0.01 0.01 0.01 0.01 0.00 0.00 0.01 0.03 0.01 0.00 0.00 0.00 0.01 0.01 0.01 0.02 0.02 0.03 0.12 0.14 0.09 0.13 0.15 0.12 0.15 0.15 0.16 0.20 0.20 0.18 0.18
0.42 0.30 0.17 0.23 0.14 0.10 0.15 0.11 0.12 0.14 0.14 0.13 0.13 0.12 0.10 0.08 0.06 0.04 0.02 0.02 0.02 0.02 0.01 0.01 0.01 0.02 0.03 0.03 0.04 0.04 0.05 0.09 0.19 0.12 0.09 0.11 0.13 0.14 0.14 0.18 0.17 0.15 0.16 0.30
0.31 0.32 0.20 0.30 0.35 0.25 0.29 0.33 0.34 0.35 0.34 0.35 0.29 0.21 0.19 0.17 0.15 0.11 0.09 0.06 0.04 0.04 0.03 0.03 0.03 0.04 0.03 0.03 0.04 0.06 0.07 0.10 0.13 0.12 0.12 0.14 0.14 0.13 0.14 0.15 0.13 0.14 0.11 0.34
0.10 0.22 0.18 0.11 0.16 0.19 0.27 0.30 0.29 0.34 0.36 0.33 0.29 0.27 0.23 0.18 0.15 0.13 0.11 0.09 0.07 0.07 0.06 0.07 0.09 0.08 0.06 0.05 0.08 0.12 0.14 0.16 0.15 0.15 0.13 0.21 0.28 0.15 0.11 0.12 0.13 0.12 0.12 0.17
0.27 0.18 0.11 0.09 0.11 0.14 0.15 0.11 0.10 0.11 0.10 0.08 0.08 0.07 0.09 0.06 0.04 0.04 0.04 0.05 0.06 0.06 0.06 0.07 0.10 0.09 0.08 0.11 0.17 0.26 0.22 0.18 0.16 0.13 0.18 0.25 0.24 0.23 0.22 0.29 0.26 0.20 0.17 0.17
0.56 0.60 0.44 0.44 0.40 0.30 0.21 0.15 0.12 0.11 0.07 0.06 0.07 0.05 0.04 0.04 0.03 0.05 0.07 0.04 0.01 0.02 0.04 0.04 0.07 0.08 0.07 0.11 0.21 0.19 0.19 0.23 0.29 0.29 0.34 0.37 0.31 0.27 0.22 0.21 0.23 0.20 0.18 0.19
0.25 0.33 0.40 0.29 0.16 0.20 0.27 0.25 0.17 0.13 0.10 0.09 0.11 0.08 0.07 0.05 0.04 0.05 0.07 0.15 0.09 0.06 0.08 0.10 0.10 0.13 0.18 0.24 0.23 0.21 0.30 0.36 0.40 0.39 0.34 0.30 0.29 0.29 0.26 0.28 0.30 0.26 0.24 0.21
0.14 0.19 0.24 0.22 0.16 0.13 0.17 0.27 0.23 0.20 0.22 0.22 0.22 0.20 0.20 0.18 0.20 0.27 0.22 0.17 0.19 0.13 0.14 0.15 0.19 0.27 0.33 0.30 0.20 0.28 0.37 0.35 0.31 0.30 0.31 0.34 0.35 0.35 0.35 0.32 0.31 0.28 0.22 0.20
0.09 0.13 0.20 0.25 0.24 0.18 0.16 0.16 0.16 0.22 0.28 0.27 0.26 0.28 0.31 0.36 0.31 0.29 0.29 0.25 0.24 0.25 0.25 0.27 0.29 0.32 0.34 0.28 0.33 0.38 0.36 0.36 0.35 0.33 0.34 0.35 0.35 0.36 0.34 0.33 0.30 0.25 0.24 0.23
0.17 0.16 0.17 0.17 0.16 0.12 0.11 0.10 0.10 0.09 0.10 0.12 0.14 0.19 0.23 0.28 0.37 0.30 0.28 0.21 0.23 0.29 0.26 0.24 0.26 0.27 0.26 0.30 0.38 0.37 0.37 0.36 0.39 0.40 0.31 0.29 0.28 0.29 0.29 0.31 0.30 0.31 0.32 0.29
0.05 0.06 0.05 0.06 0.09 0.10 0.10 0.10 0.10 0.09 0.09 0.09 0.06 0.06 0.10 0.14 0.16 0.18 0.19 0.23 0.24 0.26 0.18 0.18 0.24 0.27 0.24 0.28 0.27 0.22 0.25 0.24 0.24 0.25 0.26 0.24 0.23 0.22 0.22 0.22 0.23 0.27 0.29 0.30
0.09 0.10 0.09 0.07 0.06 0.06 0.07 0.08 0.11 0.11 0.11 0.10 0.11 0.09 0.09 0.09 0.13 0.15 0.13 0.18 0.22 0.22 0.16 0.13 0.18 0.22 0.23 0.22 0.15 0.14 0.16 0.15 0.17 0.21 0.19 0.20 0.20 0.20 0.21 0.21 0.22 0.26 0.29 0.30

GFSNGP_prec_precacc_114.txt.gz
Total_Precipitation_Accumulation
0.12 0.22 0.58 0.38 0.14 0.10 0.39 0.19 0.26 0.09 0.04 0.04 0.04 0.05 0.05 0.04 0.03 0.03 0.03 0.02 0.02 0.00 0.00 0.01 0.05 0.23 0.17 0.14 0.20 0.19 0.16 0.13 0.10 0.08 0.09 0.07 0.05 0.07 0.07 0.06 0.06 0.04 0.08 0.15
0.34 0.25 0.35 0.27 0.07 0.11 0.12 0.04 0.05 0.02 0.04 0.05 0.05 0.03 0.08 0.06 0.02 0.01 0.00 0.00 0.00 0.00 0.00 0.00 0.03 0.08 0.15 0.24 0.15 0.18 0.11 0.11 0.08 0.08 0.08 0.09 0.08 0.05 0.08 0.08 0.08 0.12 0.11 0.11
0.48 0.18 0.19 0.26 0.08 0.06 0.09 0.07 0.03 0.04 0.05 0.07 0.25 0.45 0.39 0.10 0.04 0.02 0.02 0.00 0.00 0.00 0.00 0.00 0.01 0.11 0.51 0.64 0.29 0.28 0.15 0.17 0.17 0.13 0.20 0.20 0.15 0.13 0.11 0.15 0.24 0.23 0.22 0.26
0.83 0.44 0.44 0.25 0.10 0.14 0.15 0.12 0.06 0.05 0.07 0.08 0.13 0.18 0.12 0.04 0.02 0.02 0.01 0.01 0.00 0.00 0.00 0.00 0.03 0.28 0.83 0.87 0.28 0.25 0.22 0.33 0.57 0.48 0.52 0.60 0.75 0.63 0.64 0.52 0.46 0.54 0.56 0.58
0.42 0.30 0.15 0.04 0.07 0.11 0.09 0.09 0.03 0.03 0.02 0.01 0.04 0.13 0.14 0.04 0.02 0.02 0.01 0.01 0.01 0.00 0.00 0.02 0.05 0.18 0.35 0.75 0.92 0.72 0.63 0.81 0.80 0.70 0.74 0.84 1.06 1.14 0.80 0.97 0.78 0.78 0.68 0.55
0.15 0.21 0.08 0.02 0.01 0.02 0.02 0.02 0.00 0.00 0.01 0.00 0.00 0.04 0.22 0.29 0.12 0.05 0.02 0.01 0.01 0.01 0.02 0.04 0.03 0.08 0.20 0.35 0.94 1.21 0.79 0.81 0.88 0.75 0.73 0.89 0.99 0.98 0.72 0.61 0.66 0.58 0.63 0.60
0.14 0.17 0.01 0.00 0.00 0.00 0.03 0.02 0.00 0.00 0.00 0.00 0.00 0.00 0.01 0.16 0.24 0.16 0.10 0.07 0.09 0.09 0.17 0.22 0.17 0.32 0.49 0.49 0.81 1.10 0.86 0.88 0.70 0.73 0.45 0.61 0.69 0.62 0.47 0.37 0.42 0.43 0.39 0.32
0.06 0.10 0.01 0.00 0.00 0.00 0.00 0.00 0.00 0.01 0.01 0.00 0.01 0.00 0.00 0.01 0.04 0.16 0.17 0.15 0.16 0.24 0.55 0.66 0.68 0.58 0.54 0.44 0.32 0.33 0.44 0.46 0.31 0.26 0.23 0.18 0.19 0.27 0.24 0.14 0.10 0.04 0.01 0.00
0.00 0.00 0.00 0.00 0.00 0.00 0.00 0.00 0.00 0.00 0.00 0.00 0.01 0.00 0.00 0.01 0.00 0.00 0.01 0.02 0.05 0.15 0.16 0.09 0.14 0.12 0.15 0.06 0.02 0.02 0.02 0.01 0.02 0.02 0.02 0.01 0.00 0.00 0.00 0.00 0.00 0.00 0.00 0.00
0.00 0.00 0.00 0.00 0.00 0.00 0.00 0.00 0.00 0.01 0.01 0.00 0.00 0.00 0.01 0.02 0.02 0.03 0.02 0.00 0.00 0.00 0.00 0.00 0.00 0.00 0.00 0.01 0.02 0.02 0.01 0.00 0.00 0.01 0.01 0.01 0.00 0.00 0.00 0.00 0.00 0.00 0.01 0.01
0.00 0.00 0.00 0.00 0.00 0.00 0.00 0.00 0.00 0.00 0.00 0.00 0.00 0.00 0.00 0.00 0.01 0.02 0.06 0.08 0.08 0.07 0.04 0.01 0.00 0.01 0.00 0.00 0.00 0.00 0.01 0.01 0.00 0.00 0.00 0.00 0.00 0.00 0.00 0.00 0.02 0.02 0.02 0.03
0.00 0.00 0.00 0.00 0.00 0.00 0.00 0.00 0.00 0.00 0.00 0.00 0.00 0.00 0.00 0.00 0.00 0.00 0.01 0.03 0.07 0.16 0.22 0.25 0.21 0.17 0.13 0.11 0.11 0.09 0.06 0.04 0.04 0.04 0.04 0.05 0.04 0.04 0.08 0.08 0.08 0.07 0.07 0.06
0.00 0.00 0.00 0.00 0.00 0.00 0.00 0.00 0.00 0.00 0.00 0.00 0.00 0.00 0.01 0.00 0.00 0.00 0.00 0.00 0.01 0.04 0.04 0.08 0.17 0.24 0.22 0.18 0.16 0.16 0.15 0.13 0.13 0.14 0.09 0.07 0.06 0.07 0.10 0.14 0.15 0.10 0.09 0.09
0.01 0.00 0.00 0.00 0.00 0.00 0.00 0.00 0.00 0.00 0.00 0.00 0.00 0.00 0.00 0.00 0.00 0.00 0.00 0.00 0.00 0.00 0.00 0.00 0.01 0.02 0.07 0.12 0.13 0.12 0.13 0.22 0.16 0.16 0.17 0.17 0.18 0.18 0.16 0.14 0.14 0.15 0.21 0.23
0.01 0.02 0.01 0.01 0.00 0.00 0.00 0.00 0.00 0.00 0.00 0.00 0.00 0.00 0.00 0.00 0.00 0.00 0.00 0.00 0.00 0.00 0.00 0.00 0.00 0.00 0.00 0.01 0.01 0.02 0.06 0.09 0.13 0.16 0.16 0.22 0.16 0.15 0.17 0.19 0.19 0.19 0.20 0.33
0.13 0.06 0.06 0.05 0.02 0.03 0.02 0.03 0.04 0.04 0.04 0.03 0.02 0.01 0.01 0.01 0.01 0.00 0.00 0.01 0.03 0.01 0.00 0.00 0.00 0.01 0.01 0.01 0.02 0.02 0.03 0.12 0.14 0.09 0.13 0.15 0.12 0.15 0.15 0.17 0.20 0.20 0.18 0.18
0.42 0.30 0.17 0.23 0.14 0.10 0.15 0.11 0.12 0.14 0.14 0.13 0.13 0.12 0.10 0.08 0.06 0.04 0.02 0.02 0.02 0.02 0.01 0.01 0.01 0.02 0.03 0.03 0.04 0.04 0.05 0.09 0.19 0.12 0.09 0.11 0.13 0.14 0.14 0.18 0.17 0.15 0.16 0.30
0.31 0.32 0.20 0.30 0.35 0.25 0.29 0.33 0.34 0.35 0.34 0.35 0.29 0.21 0.19 0.17 0.15 0.11 0.09 0.06 0.04 0.04 0.03 0.03 0.03 0.04 0.03 0.03 0.04 0.06 0.07 0.10 0.13 0.12 0.12 0.14 0.14 0.13 0.14 0.15 0.13 0.14 0.11 0.34
0.10 0.22 0.18 0.11 0.16 0.19 0.27 0.30 0.29 0.34 0.36 0.33 0.29 0.27 0.23 0.18 0.15 0.13 0.11 0.09 0.07 0.07 0.06 0.07 0.09 0.08 0.06 0.05 0.08 0.12 0.14 0.16 0.15 0.15 0.13 0.21 0.28 0.15 0.11 0.12 0.13 0.12 0.12 0.17
0.27 0.18 0.11 0.09 0.11 0.14 0.15 0.11 0.10 0.11 0.10 0.08 0.08 0.07 0.09 0.06 0.04 0.04 0.04 0.05 0.06 0.06 0.06 0.07 0.10 0.09 0.08 0.11 0.17 0.26 0.22 0.18 0.16 0.13 0.18 0.25 0.24 0.23 0.22 0.29 0.26 0.20 0.17 0.17
0.56 0.60 0.44 0.44 0.40 0.30 0.21 0.15 0.12 0.11 0.07 0.06 0.07 0.05 0.04 0.04 0.03 0.05 0.07 0.04 0.01 0.02 0.04 0.04 0.07 0.08 0.07 0.11 0.21 0.19 0.19 0.23 0.29 0.29 0.34 0.37 0.32 0.28 0.22 0.21 0.23 0.20 0.18 0.19
0.25 0.33 0.40 0.29 0.16 0.20 0.27 0.25 0.17 0.13 0.10 0.09 0.11 0.08 0.07 0.05 0.04 0.05 0.07 0.15 0.09 0.06 0.08 0.10 0.10 0.13 0.18 0.24 0.23 0.21 0.30 0.36 0.40 0.39 0.34 0.30 0.29 0.29 0.26 0.28 0.30 0.26 0.24 0.21
0.14 0.19 0.24 0.22 0.16 0.13 0.17 0.27 0.23 0.20 0.22 0.22 0.22 0.20 0.20 0.18 0.20 0.27 0.22 0.17 0.19 0.13 0.14 0.15 0.19 0.27 0.33 0.30 0.20 0.28 0.37 0.35 0.31 0.30 0.31 0.34 0.35 0.35 0.35 0.32 0.31 0.28 0.23 0.20
0.09 0.13 0.20 0.25 0.24 0.18 0.16 0.16 0.16 0.22 0.28 0.27 0.26 0.28 0.31 0.36 0.31 0.29 0.29 0.25 0.24 0.25 0.25 0.27 0.29 0.32 0.34 0.28 0.33 0.38 0.36 0.36 0.35 0.33 0.34 0.35 0.35 0.36 0.34 0.33 0.30 0.26 0.24 0.23
0.17 0.16 0.17 0.17 0.16 0.12 0.11 0.10 0.10 0.09 0.10 0.12 0.14 0.19 0.23 0.28 0.37 0.30 0.28 0.21 0.23 0.29 0.26 0.24 0.26 0.27 0.26 0.30 0.38 0.37 0.37 0.36 0.39 0.40 0.31 0.29 0.28 0.30 0.30 0.31 0.30 0.32 0.33 0.29
0.05 0.06 0.05 0.06 0.09 0.10 0.10 0.10 0.10 0.09 0.09 0.09 0.07 0.06 0.11 0.14 0.16 0.18 0.19 0.23 0.24 0.26 0.18 0.18 0.24 0.27 0.24 0.28 0.27 0.22 0.25 0.24 0.24 0.25 0.26 0.24 0.23 0.22 0.22 0.22 0.24 0.27 0.29 0.30
0.09 0.10 0.09 0.07 0.06 0.06 0.07 0.08 0.11 0.12 0.12 0.12 0.14 0.12 0.11 0.10 0.13 0.15 0.13 0.18 0.22 0.22 0.16 0.13 0.18 0.22 0.23 0.22 0.15 0.14 0.16 0.15 0.17 0.21 0.19 0.20 0.20 0.20 0.21 0.21 0.22 0.26 0.29 0.31

GFSNGP_prec_precacc_117.txt.gz
Total_Precipitation_Accumulation
0.12 0.22 0.58 0.38 0.14 0.10 0.39 0.19 0.26 0.09 0.04 0.04 0.04 0.05 0.05 0.04 0.03 0.03 0.03 0.02 0.02 0.00 0.00 0.01 0.05 0.23 0.17 0.14 0.20 0.19 0.16 0.13 0.10 0.08 0.09 0.07 0.05 0.07 0.07 0.06 0.06 0.04 0.08 0.15
0.34 0.25 0.35 0.27 0.07 0.11 0.12 0.04 0.05 0.02 0.04 0.05 0.05 0.03 0.08 0.06 0.02 0.01 0.00 0.00 0.00 0.00 0.00 0.00 0.03 0.08 0.15 0.24 0.15 0.18 0.11 0.11 0.08 0.08 0.08 0.09 0.08 0.05 0.08 0.08 0.08 0.12 0.11 0.11
0.48 0.18 0.19 0.26 0.08 0.06 0.09 0.07 0.03 0.04 0.05 0.07 0.25 0.45 0.39 0.10 0.04 0.02 0.02 0.00 0.00 0.00 0.00 0.00 0.01 0.11 0.51 0.64 0.29 0.28 0.15 0.17 0.17 0.13 0.20 0.20 0.15 0.13 0.11 0.15 0.24 0.23 0.22 0.26
0.83 0.44 0.44 0.25 0.10 0.14 0.15 0.12 0.06 0.05 0.07 0.08 0.13 0.18 0.12 0.04 0.02 0.02 0.01 0.01 0.00 0.00 0.00 0.00 0.03 0.28 0.83 0.87 0.28 0.25 0.22 0.33 0.57 0.48 0.52 0.60 0.75 0.63 0.64 0.52 0.46 0.54 0.56 0.58
0.42 0.30 0.15 0.04 0.07 0.11 0.09 0.09 0.03 0.03 0.02 0.01 0.04 0.13 0.14 0.04 0.02 0.02 0.01 0.01 0.01 0.00 0.00 0.02 0.05 0.18 0.35 0.75 0.92 0.72 0.63 0.81 0.80 0.70 0.74 0.84 1.06 1.14 0.80 0.97 0.78 0.78 0.68 0.55
0.15 0.21 0.08 0.02 0.01 0.02 0.02 0.02 0.00 0.00 0.01 0.00 0.00 0.04 0.22 0.29 0.12 0.05 0.02 0.01 0.01 0.01 0.02 0.04 0.03 0.08 0.20 0.35 0.94 1.21 0.79 0.81 0.88 0.75 0.73 0.89 0.99 0.98 0.72 0.61 0.66 0.58 0.63 0.60
0.14 0.17 0.01 0.00 0.00 0.00 0.03 0.02 0.00 0.00 0.00 0.00 0.00 0.00 0.01 0.16 0.24 0.16 0.10 0.07 0.09 0.09 0.17 0.22 0.17 0.32 0.49 0.49 0.81 1.10 0.86 0.88 0.70 0.73 0.45 0.61 0.69 0.62 0.47 0.37 0.42 0.43 0.39 0.32
0.06 0.10 0.01 0.00 0.00 0.00 0.00 0.00 0.00 0.01 0.01 0.00 0.01 0.00 0.00 0.01 0.04 0.16 0.17 0.15 0.16 0.24 0.55 0.66 0.68 0.58 0.54 0.44 0.32 0.33 0.44 0.46 0.31 0.26 0.23 0.18 0.19 0.27 0.24 0.14 0.10 0.04 0.01 0.00
0.00 0.00 0.00 0.00 0.00 0.00 0.00 0.00 0.00 0.00 0.00 0.00 0.01 0.00 0.00 0.01 0.00 0.00 0.01 0.02 0.05 0.15 0.16 0.09 0.14 0.12 0.15 0.06 0.02 0.02 0.02 0.01 0.02 0.02 0.02 0.01 0.00 0.00 0.00 0.00 0.00 0.00 0.00 0.00
0.00 0.00 0.00 0.00 0.00 0.00 0.00 0.00 0.00 0.01 0.01 0.00 0.00 0.00 0.01 0.02 0.02 0.03 0.02 0.00 0.00 0.00 0.00 0.00 0.00 0.00 0.00 0.01 0.02 0.02 0.01 0.00 0.00 0.01 0.01 0.01 0.00 0.00 0.00 0.00 0.00 0.00 0.01 0.01
0.00 0.00 0.00 0.00 0.00 0.00 0.00 0.00 0.00 0.00 0.00 0.00 0.00 0.00 0.00 0.00 0.01 0.02 0.06 0.08 0.08 0.07 0.04 0.01 0.00 0.01 0.00 0.00 0.00 0.00 0.01 0.01 0.00 0.00 0.00 0.00 0.00 0.00 0.00 0.00 0.02 0.02 0.02 0.03
0.00 0.00 0.00 0.00 0.00 0.00 0.00 0.00 0.00 0.00 0.00 0.00 0.00 0.00 0.00 0.00 0.00 0.00 0.01 0.03 0.07 0.16 0.22 0.25 0.21 0.17 0.13 0.11 0.11 0.09 0.06 0.04 0.04 0.04 0.04 0.05 0.04 0.04 0.08 0.08 0.08 0.07 0.07 0.06
0.00 0.00 0.00 0.00 0.00 0.00 0.00 0.00 0.00 0.00 0.00 0.00 0.00 0.00 0.01 0.00 0.00 0.00 0.00 0.00 0.01 0.04 0.04 0.08 0.17 0.24 0.22 0.18 0.16 0.16 0.15 0.13 0.13 0.14 0.09 0.07 0.06 0.07 0.10 0.14 0.15 0.10 0.09 0.09
0.01 0.00 0.00 0.00 0.00 0.00 0.00 0.00 0.00 0.00 0.00 0.00 0.00 0.00 0.00 0.00 0.00 0.00 0.00 0.00 0.00 0.00 0.00 0.00 0.01 0.02 0.07 0.12 0.13 0.12 0.13 0.22 0.16 0.16 0.17 0.17 0.18 0.18 0.16 0.14 0.14 0.15 0.21 0.23
0.01 0.02 0.01 0.01 0.00 0.00 0.00 0.00 0.00 0.00 0.00 0.00 0.00 0.00 0.00 0.00 0.00 0.00 0.00 0.00 0.00 0.00 0.00 0.00 0.00 0.00 0.00 0.01 0.01 0.02 0.06 0.09 0.13 0.16 0.16 0.22 0.16 0.15 0.17 0.19 0.19 0.19 0.20 0.33
0.13 0.06 0.06 0.05 0.02 0.03 0.02 0.03 0.04 0.04 0.04 0.03 0.02 0.01 0.01 0.01 0.01 0.00 0.00 0.01 0.03 0.01 0.00 0.00 0.00 0.01 0.01 0.01 0.02 0.02 0.03 0.12 0.14 0.09 0.13 0.15 0.12 0.15 0.15 0.17 0.20 0.20 0.18 0.18
0.42 0.30 0.17 0.23 0.14 0.10 0.15 0.11 0.12 0.14 0.14 0.13 0.13 0.12 0.10 0.08 0.06 0.04 0.02 0.02 0.02 0.02 0.01 0.01 0.01 0.02 0.03 0.03 0.04 0.04 0.05 0.09 0.19 0.12 0.09 0.11 0.13 0.14 0.14 0.18 0.17 0.15 0.16 0.30
0.31 0.32 0.20 0.30 0.35 0.25 0.29 0.33 0.34 0.35 0.34 0.35 0.29 0.21 0.19 0.17 0.15 0.11 0.09 0.06 0.04 0.04 0.03 0.03 0.03 0.04 0.03 0.03 0.04 0.06 0.07 0.10 0.13 0.12 0.12 0.14 0.14 0.13 0.14 0.15 0.13 0.14 0.11 0.34
0.10 0.22 0.18 0.11 0.16 0.19 0.27 0.30 0.29 0.34 0.36 0.33 0.29 0.27 0.23 0.18 0.15 0.13 0.11 0.09 0.07 0.07 0.06 0.07 0.09 0.08 0.06 0.05 0.08 0.12 0.14 0.16 0.15 0.15 0.13 0.21 0.28 0.15 0.11 0.12 0.13 0.12 0.12 0.17
0.27 0.18 0.11 0.09 0.11 0.14 0.15 0.11 0.10 0.11 0.10 0.08 0.08 0.07 0.09 0.06 0.04 0.04 0.04 0.05 0.06 0.06 0.06 0.07 0.10 0.09 0.08 0.11 0.17 0.26 0.22 0.18 0.16 0.13 0.18 0.25 0.24 0.23 0.22 0.29 0.26 0.20 0.17 0.17
0.56 0.60 0.44 0.44 0.40 0.30 0.21 0.15 0.12 0.11 0.07 0.06 0.07 0.05 0.04 0.04 0.03 0.05 0.07 0.04 0.01 0.02 0.04 0.04 0.07 0.08 0.07 0.11 0.21 0.19 0.19 0.23 0.29 0.29 0.34 0.37 0.32 0.28 0.22 0.21 0.23 0.20 0.18 0.19
0.25 0.33 0.40 0.29 0.16 0.20 0.27 0.25 0.17 0.13 0.10 0.09 0.11 0.08 0.07 0.05 0.04 0.05 0.07 0.15 0.09 0.06 0.08 0.10 0.10 0.13 0.18 0.24 0.23 0.21 0.30 0.36 0.40 0.39 0.34 0.30 0.29 0.29 0.26 0.28 0.30 0.26 0.24 0.21
0.14 0.19 0.24 0.22 0.16 0.13 0.17 0.27 0.23 0.20 0.22 0.22 0.22 0.20 0.20 0.18 0.20 0.27 0.22 0.17 0.19 0.13 0.15 0.15 0.19 0.27 0.33 0.30 0.20 0.28 0.37 0.35 0.31 0.30 0.31 0.34 0.35 0.35 0.35 0.32 0.31 0.28 0.23 0.20
0.09 0.13 0.20 0.25 0.24 0.18 0.16 0.16 0.16 0.22 0.28 0.27 0.26 0.28 0.31 0.37 0.31 0.29 0.29 0.25 0.25 0.25 0.25 0.27 0.29 0.32 0.34 0.28 0.33 0.38 0.36 0.36 0.35 0.33 0.34 0.35 0.35 0.36 0.34 0.33 0.30 0.26 0.24 0.23
0.17 0.16 0.17 0.17 0.16 0.12 0.11 0.10 0.10 0.09 0.10 0.12 0.14 0.19 0.23 0.29 0.37 0.30 0.28 0.21 0.24 0.29 0.27 0.24 0.26 0.27 0.26 0.30 0.38 0.37 0.37 0.36 0.39 0.40 0.31 0.29 0.28 0.30 0.30 0.31 0.31 0.32 0.33 0.30
0.05 0.06 0.05 0.06 0.09 0.10 0.10 0.10 0.10 0.09 0.09 0.09 0.07 0.06 0.11 0.15 0.17 0.19 0.20 0.24 0.25 0.26 0.19 0.18 0.24 0.27 0.24 0.28 0.27 0.22 0.25 0.24 0.24 0.25 0.26 0.24 0.23 0.22 0.22 0.22 0.24 0.27 0.30 0.30
0.09 0.10 0.09 0.07 0.06 0.06 0.07 0.08 0.11 0.12 0.12 0.12 0.14 0.12 0.13 0.14 0.18 0.20 0.17 0.21 0.23 0.23 0.16 0.13 0.18 0.22 0.23 0.22 0.15 0.14 0.16 0.15 0.17 0.21 0.19 0.20 0.20 0.20 0.21 0.21 0.22 0.26 0.30 0.31

GFSNGP_prec_precacc_123.txt.gz
Total_Precipitation_Accumulation
0.12 0.22 0.58 0.38 0.14 0.10 0.39 0.19 0.26 0.09 0.04 0.04 0.04 0.05 0.05 0.04 0.03 0.03 0.03 0.02 0.02 0.00 0.00 0.01 0.05 0.23 0.17 0.14 0.20 0.19 0.16 0.13 0.10 0.08 0.09 0.07 0.05 0.07 0.07 0.06 0.06 0.04 0.08 0.15
0.34 0.25 0.35 0.27 0.07 0.11 0.12 0.04 0.05 0.02 0.04 0.05 0.05 0.03 0.08 0.06 0.02 0.01 0.00 0.00 0.00 0.00 0.00 0.00 0.03 0.08 0.15 0.24 0.15 0.18 0.11 0.11 0.08 0.08 0.08 0.09 0.08 0.05 0.08 0.08 0.08 0.12 0.11 0.11
0.48 0.18 0.19 0.26 0.08 0.06 0.09 0.07 0.03 0.04 0.05 0.07 0.25 0.45 0.39 0.10 0.04 0.02 0.02 0.00 0.00 0.00 0.00 0.00 0.01 0.11 0.51 0.64 0.29 0.28 0.15 0.17 0.17 0.13 0.20 0.20 0.15 0.13 0.11 0.15 0.24 0.23 0.22 0.26
0.83 0.44 0.44 0.25 0.10 0.14 0.15 0.12 0.06 0.05 0.07 0.08 0.13 0.18 0.12 0.04 0.02 0.02 0.01 0.01 0.00 0.00 0.00 0.00 0.03 0.28 0.83 0.87 0.28 0.25 0.22 0.33 0.57 0.48 0.52 0.60 0.75 0.63 0.64 0.52 0.46 0.54 0.56 0.58
0.42 0.30 0.15 0.04 0.07 0.11 0.09 0.09 0.03 0.03 0.02 0.01 0.04 0.13 0.14 0.04 0.02 0.02 0.01 0.01 0.01 0.00 0.00 0.02 0.05 0.18 0.35 0.75 0.92 0.72 0.63 0.81 0.80 0.70 0.74 0.84 1.06 1.14 0.80 0.97 0.78 0.78 0.68 0.55
0.15 0.21 0.08 0.02 0.01 0.02 0.02 0.02 0.00 0.00 0.01 0.00 0.00 0.04 0.22 0.29 0.12 0.05 0.02 0.01 0.01 0.01 0.02 0.04 0.03 0.08 0.20 0.35 0.94 1.21 0.79 0.81 0.88 0.75 0.73 0.89 0.99 0.98 0.72 0.61 0.66 0.58 0.63 0.60
0.14 0.17 0.01 0.00 0.00 0.00 0.03 0.02 0.00 0.00 0.00 0.00 0.00 0.00 0.01 0.16 0.24 0.16 0.10 0.07 0.09 0.09 0.17 0.22 0.17 0.32 0.49 0.49 0.81 1.10 0.86 0.88 0.70 0.73 0.45 0.61 0.69 0.62 0.47 0.37 0.42 0.43 0.39 0.32
0.06 0.10 0.01 0.00 0.00 0.00 0.00 0.00 0.00 0.01 0.01 0.00 0.01 0.00 0.00 0.01 0.04 0.16 0.17 0.15 0.16 0.24 0.55 0.66 0.68 0.58 0.54 0.44 0.32 0.33 0.44 0.46 0.31 0.26 0.23 0.18 0.19 0.27 0.24 0.14 0.10 0.04 0.01 0.00
0.00 0.00 0.00 0.00 0.00 0.00 0.00 0.00 0.00 0.00 0.00 0.00 0.01 0.00 0.00 0.01 0.00 0.00 0.01 0.02 0.05 0.15 0.16 0.09 0.14 0.12 0.15 0.06 0.02 0.02 0.02 0.01 0.02 0.02 0.02 0.01 0.00 0.00 0.00 0.00 0.00 0.00 0.00 0.00
0.00 0.00 0.00 0.00 0.00 0.00 0.00 0.00 0.00 0.01 0.01 0.00 0.00 0.00 0.01 0.02 0.02 0.03 0.02 0.00 0.00 0.00 0.00 0.00 0.00 0.00 0.00 0.01 0.02 0.02 0.01 0.00 0.00 0.01 0.01 0.01 0.00 0.00 0.00 0.00 0.00 0.00 0.01 0.01
0.00 0.00 0.00 0.00 0.00 0.00 0.00 0.00 0.00 0.00 0.00 0.00 0.00 0.00 0.00 0.00 0.01 0.02 0.06 0.08 0.08 0.07 0.04 0.01 0.00 0.01 0.00 0.00 0.00 0.00 0.01 0.01 0.00 0.00 0.00 0.00 0.00 0.00 0.00 0.00 0.02 0.02 0.02 0.03
0.00 0.00 0.00 0.00 0.00 0.00 0.00 0.00 0.00 0.00 0.00 0.00 0.00 0.00 0.00 0.00 0.00 0.00 0.01 0.03 0.07 0.16 0.22 0.25 0.21 0.17 0.13 0.11 0.11 0.09 0.06 0.04 0.04 0.04 0.04 0.05 0.04 0.04 0.08 0.08 0.08 0.07 0.07 0.06
0.00 0.00 0.00 0.00 0.00 0.00 0.00 0.00 0.00 0.00 0.00 0.00 0.00 0.00 0.01 0.00 0.00 0.00 0.00 0.00 0.01 0.04 0.04 0.08 0.17 0.24 0.22 0.18 0.16 0.16 0.15 0.13 0.13 0.14 0.09 0.07 0.06 0.07 0.10 0.14 0.15 0.10 0.09 0.09
0.01 0.00 0.00 0.00 0.00 0.00 0.00 0.00 0.00 0.00 0.00 0.00 0.00 0.00 0.00 0.00 0.00 0.00 0.00 0.00 0.00 0.00 0.00 0.00 0.01 0.02 0.07 0.12 0.13 0.12 0.13 0.22 0.16 0.16 0.17 0.17 0.18 0.18 0.16 0.14 0.14 0.15 0.21 0.23
0.01 0.02 0.01 0.01 0.00 0.00 0.00 0.00 0.00 0.00 0.00 0.00 0.00 0.00 0.00 0.00 0.00 0.00 0.00 0.00 0.00 0.00 0.00 0.00 0.00 0.00 0.00 0.01 0.01 0.03 0.06 0.09 0.13 0.16 0.16 0.22 0.16 0.15 0.17 0.19 0.19 0.19 0.20 0.33
0.13 0.06 0.06 0.05 0.02 0.03 0.02 0.03 0.04 0.04 0.04 0.03 0.02 0.01 0.01 0.01 0.01 0.00 0.00 0.01 0.03 0.01 0.00 0.00 0.00 0.01 0.01 0.01 0.02 0.02 0.03 0.12 0.14 0.09 0.13 0.15 0.12 0.15 0.15 0.17 0.20 0.20 0.18 0.18
0.42 0.30 0.17 0.23 0.14 0.10 0.15 0.11 0.12 0.14 0.14 0.13 0.13 0.12 0.10 0.08 0.06 0.04 0.02 0.02 0.02 0.02 0.01 0.01 0.01 0.02 0.03 0.04 0.04 0.04 0.05 0.09 0.19 0.12 0.09 0.11 0.13 0.14 0.14 0.18 0.17 0.15 0.16 0.30
0.31 0.32 0.20 0.30 0.35 0.25 0.29 0.33 0.34 0.35 0.34 0.35 0.29 0.21 0.19 0.17 0.15 0.11 0.09 0.06 0.04 0.04 0.03 0.03 0.04 0.04 0.04 0.04 0.05 0.06 0.07 0.10 0.13 0.12 0.12 0.14 0.14 0.13 0.14 0.15 0.13 0.14 0.11 0.34
0.10 0.22 0.18 0.11 0.16 0.19 0.27 0.30 0.29 0.34 0.36 0.33 0.29 0.27 0.23 0.18 0.16 0.13 0.11 0.09 0.07 0.07 0.06 0.07 0.09 0.09 0.07 0.06 0.09 0.12 0.14 0.16 0.15 0.15 0.13 0.21 0.28 0.15 0.11 0.12 0.13 0.12 0.12 0.17
0.27 0.18 0.11 0.09 0.11 0.14 0.15 0.11 0.10 0.11 0.10 0.08 0.08 0.07 0.09 0.06 0.04 0.04 0.04 0.05 0.06 0.06 0.06 0.08 0.11 0.09 0.08 0.11 0.17 0.26 0.22 0.18 0.16 0.13 0.18 0.25 0.24 0.23 0.22 0.29 0.26 0.20 0.17 0.17
0.56 0.60 0.44 0.44 0.40 0.30 0.21 0.15 0.12 0.11 0.07 0.06 0.07 0.05 0.04 0.04 0.03 0.05 0.07 0.04 0.01 0.02 0.04 0.04 0.07 0.08 0.07 0.11 0.21 0.19 0.19 0.23 0.29 0.29 0.34 0.37 0.32 0.28 0.22 0.21 0.23 0.20 0.18 0.19
0.25 0.33 0.40 0.29 0.16 0.20 0.27 0.25 0.17 0.13 0.10 0.09 0.11 0.08 0.07 0.05 0.04 0.05 0.07 0.15 0.09 0.07 0.09 0.11 0.11 0.13 0.18 0.24 0.23 0.21 0.30 0.36 0.40 0.39 0.34 0.30 0.29 0.29 0.26 0.28 0.30 0.26 0.24 0.21
0.14 0.19 0.24 0.22 0.16 0.13 0.17 0.27 0.23 0.20 0.22 0.22 0.22 0.20 0.20 0.18 0.20 0.28 0.22 0.18 0.20 0.14 0.15 0.16 0.20 0.27 0.33 0.30 0.20 0.28 0.37 0.35 0.31 0.30 0.31 0.34 0.35 0.35 0.35 0.32 0.31 0.28 0.23 0.20
0.09 0.13 0.20 0.25 0.24 0.18 0.16 0.16 0.16 0.22 0.28 0.27 0.26 0.28 0.31 0.37 0.31 0.29 0.29 0.25 0.25 0.26 0.25 0.28 0.30 0.32 0.34 0.28 0.33 0.38 0.36 0.36 0.35 0.33 0.34 0.35 0.35 0.36 0.34 0.33 0.30 0.26 0.24 0.24
0.17 0.16 0.17 0.17 0.16 0.12 0.11 0.10 0.10 0.09 0.10 0.12 0.14 0.19 0.23 0.29 0.37 0.30 0.28 0.21 0.24 0.29 0.27 0.25 0.27 0.28 0.26 0.30 0.38 0.38 0.37 0.36 0.39 0.40 0.31 0.29 0.28 0.30 0.30 0.31 0.31 0.32 0.33 0.30
0.05 0.06 0.05 0.06 0.09 0.10 0.10 0.10 0.10 0.09 0.09 0.09 0.07 0.06 0.11 0.15 0.17 0.19 0.20 0.24 0.25 0.27 0.19 0.19 0.25 0.29 0.25 0.28 0.27 0.23 0.26 0.25 0.24 0.25 0.26 0.24 0.23 0.22 0.22 0.22 0.24 0.27 0.30 0.30
0.09 0.10 0.09 0.07 0.06 0.06 0.07 0.08 0.11 0.12 0.12 0.12 0.14 0.12 0.13 0.14 0.18 0.20 0.17 0.22 0.26 0.27 0.21 0.17 0.23 0.27 0.27 0.25 0.18 0.18 0.18 0.16 0.17 0.21 0.19 0.20 0.20 0.20 0.21 0.21 0.22 0.26 0.30 0.31

GFSNGP_prec_precacc_126.txt.gz
Total_Precipitation_Accumulation
0.12 0.22 0.58 0.38 0.14 0.10 0.39 0.19 0.26 0.09 0.04 0.04 0.04 0.05 0.05 0.04 0.03 0.03 0.03 0.02 0.02 0.00 0.00 0.01 0.05 0.23 0.17 0.14 0.20 0.19 0.16 0.13 0.10 0.08 0.09 0.07 0.05 0.07 0.07 0.06 0.06 0.04 0.08 0.15
0.34 0.25 0.35 0.27 0.07 0.11 0.12 0.04 0.05 0.02 0.04 0.05 0.05 0.03 0.08 0.06 0.02 0.01 0.00 0.00 0.00 0.00 0.00 0.00 0.03 0.08 0.15 0.24 0.15 0.18 0.11 0.11 0.08 0.08 0.08 0.09 0.08 0.05 0.08 0.08 0.08 0.12 0.11 0.11
0.48 0.18 0.19 0.26 0.08 0.06 0.09 0.07 0.03 0.04 0.05 0.07 0.25 0.45 0.39 0.10 0.04 0.02 0.02 0.00 0.00 0.00 0.00 0.00 0.01 0.11 0.51 0.64 0.29 0.28 0.15 0.17 0.17 0.13 0.20 0.20 0.15 0.13 0.11 0.15 0.24 0.23 0.22 0.26
0.83 0.44 0.44 0.25 0.10 0.14 0.15 0.12 0.06 0.05 0.07 0.08 0.13 0.18 0.12 0.04 0.02 0.02 0.01 0.01 0.00 0.00 0.00 0.00 0.03 0.28 0.83 0.87 0.28 0.25 0.22 0.33 0.57 0.48 0.52 0.60 0.75 0.63 0.64 0.52 0.46 0.54 0.56 0.58
0.42 0.30 0.15 0.04 0.07 0.11 0.09 0.09 0.03 0.03 0.02 0.01 0.04 0.13 0.14 0.04 0.02 0.02 0.01 0.01 0.01 0.00 0.00 0.02 0.05 0.18 0.35 0.75 0.92 0.72 0.63 0.81 0.80 0.70 0.74 0.84 1.06 1.14 0.80 0.97 0.78 0.78 0.68 0.55
0.15 0.21 0.08 0.02 0.01 0.02 0.02 0.02 0.00 0.00 0.01 0.00 0.00 0.04 0.22 0.29 0.12 0.05 0.02 0.01 0.01 0.01 0.02 0.04 0.03 0.08 0.20 0.35 0.94 1.21 0.79 0.81 0.88 0.75 0.73 0.89 0.99 0.98 0.72 0.61 0.66 0.58 0.63 0.60
0.14 0.17 0.01 0.00 0.00 0.00 0.03 0.02 0.00 0.00 0.00 0.00 0.00 0.00 0.01 0.16 0.24 0.16 0.10 0.07 0.09 0.09 0.17 0.22 0.17 0.32 0.49 0.49 0.81 1.10 0.86 0.88 0.70 0.73 0.45 0.61 0.69 0.62 0.47 0.37 0.42 0.43 0.39 0.32
0.06 0.10 0.01 0.00 0.00 0.00 0.00 0.00 0.00 0.01 0.01 0.00 0.01 0.00 0.00 0.01 0.04 0.16 0.17 0.15 0.16 0.24 0.55 0.66 0.68 0.58 0.54 0.44 0.32 0.33 0.44 0.46 0.31 0.26 0.23 0.18 0.19 0.27 0.24 0.14 0.10 0.04 0.01 0.00
0.00 0.00 0.00 0.00 0.00 0.00 0.00 0.00 0.00 0.00 0.00 0.00 0.01 0.00 0.00 0.01 0.00 0.00 0.01 0.02 0.05 0.15 0.16 0.09 0.14 0.12 0.15 0.06 0.02 0.02 0.02 0.01 0.02 0.02 0.02 0.01 0.00 0.00 0.00 0.00 0.00 0.00 0.00 0.00
0.00 0.00 0.00 0.00 0.00 0.00 0.00 0.00 0.00 0.01 0.01 0.00 0.00 0.00 0.01 0.02 0.02 0.03 0.02 0.00 0.00 0.00 0.00 0.00 0.00 0.00 0.00 0.01 0.02 0.02 0.01 0.00 0.00 0.01 0.01 0.01 0.00 0.00 0.00 0.00 0.00 0.00 0.01 0.01
0.00 0.00 0.00 0.00 0.00 0.00 0.00 0.00 0.00 0.00 0.00 0.00 0.00 0.00 0.00 0.00 0.01 0.02 0.06 0.08 0.08 0.07 0.04 0.01 0.00 0.01 0.00 0.00 0.00 0.00 0.01 0.01 0.00 0.00 0.00 0.00 0.00 0.00 0.00 0.00 0.02 0.02 0.02 0.03
0.00 0.00 0.00 0.00 0.00 0.00 0.00 0.00 0.00 0.00 0.00 0.00 0.00 0.00 0.00 0.00 0.00 0.00 0.01 0.03 0.07 0.16 0.22 0.25 0.21 0.17 0.13 0.11 0.11 0.09 0.06 0.04 0.04 0.04 0.04 0.05 0.04 0.04 0.08 0.08 0.08 0.07 0.07 0.06
0.00 0.00 0.00 0.00 0.00 0.00 0.00 0.00 0.00 0.00 0.00 0.00 0.00 0.00 0.01 0.00 0.00 0.00 0.00 0.00 0.01 0.04 0.04 0.08 0.17 0.24 0.22 0.18 0.16 0.16 0.15 0.13 0.13 0.14 0.09 0.07 0.06 0.07 0.10 0.14 0.15 0.10 0.09 0.09
0.01 0.00 0.00 0.00 0.00 0.00 0.00 0.00 0.00 0.00 0.00 0.00 0.00 0.00 0.00 0.00 0.00 0.00 0.00 0.00 0.00 0.00 0.00 0.00 0.01 0.02 0.07 0.12 0.13 0.12 0.13 0.22 0.16 0.16 0.17 0.17 0.18 0.18 0.16 0.14 0.14 0.15 0.21 0.23
0.01 0.02 0.01 0.01 0.00 0.00 0.00 0.00 0.00 0.00 0.00 0.00 0.00 0.00 0.00 0.00 0.00 0.00 0.00 0.00 0.00 0.00 0.00 0.00 0.00 0.00 0.00 0.01 0.01 0.03 0.06 0.09 0.13 0.16 0.16 0.22 0.16 0.15 0.17 0.19 0.19 0.19 0.20 0.33
0.13 0.06 0.06 0.05 0.02 0.03 0.02 0.03 0.04 0.04 0.04 0.03 0.02 0.01 0.01 0.01 0.01 0.00 0.00 0.01 0.03 0.01 0.00 0.00 0.00 0.01 0.01 0.01 0.02 0.02 0.03 0.12 0.15 0.09 0.13 0.15 0.12 0.15 0.15 0.17 0.20 0.20 0.18 0.18
0.42 0.30 0.17 0.23 0.14 0.10 0.15 0.11 0.12 0.14 0.14 0.13 0.13 0.12 0.10 0.08 0.06 0.04 0.02 0.02 0.02 0.02 0.01 0.01 0.01 0.02 0.03 0.04 0.04 0.04 0.06 0.10 0.19 0.12 0.09 0.11 0.13 0.14 0.14 0.18 0.17 0.15 0.16 0.30
0.31 0.32 0.20 0.30 0.35 0.25 0.29 0.33 0.34 0.35 0.34 0.35 0.29 0.21 0.19 0.17 0.15 0.11 0.09 0.06 0.04 0.04 0.03 0.03 0.04 0.04 0.04 0.04 0.05 0.06 0.07 0.10 0.13 0.12 0.12 0.14 0.14 0.13 0.14 0.15 0.13 0.14 0.11 0.34
0.10 0.22 0.18 0.11 0.16 0.19 0.27 0.30 0.29 0.34 0.36 0.33 0.29 0.27 0.23 0.18 0.16 0.13 0.11 0.09 0.07 0.07 0.06 0.07 0.09 0.09 0.07 0.06 0.09 0.12 0.14 0.16 0.15 0.15 0.13 0.21 0.28 0.15 0.11 0.12 0.13 0.12 0.12 0.17
0.27 0.18 0.11 0.09 0.11 0.14 0.15 0.11 0.10 0.11 0.10 0.08 0.08 0.07 0.09 0.06 0.04 0.04 0.04 0.05 0.06 0.06 0.06 0.08 0.11 0.09 0.08 0.11 0.17 0.26 0.22 0.18 0.16 0.13 0.18 0.25 0.24 0.23 0.22 0.29 0.26 0.20 0.17 0.17
0.56 0.60 0.44 0.44 0.40 0.30 0.21 0.15 0.12 0.11 0.07 0.06 0.07 0.05 0.04 0.04 0.03 0.05 0.07 0.04 0.01 0.02 0.04 0.04 0.07 0.08 0.07 0.11 0.21 0.19 0.19 0.24 0.29 0.29 0.34 0.37 0.32 0.28 0.22 0.21 0.23 0.20 0.18 0.19
0.25 0.33 0.40 0.29 0.16 0.20 0.27 0.25 0.17 0.13 0.10 0.09 0.11 0.08 0.07 0.05 0.04 0.05 0.07 0.15 0.09 0.07 0.09 0.11 0.11 0.13 0.18 0.24 0.23 0.21 0.30 0.36 0.40 0.39 0.34 0.30 0.29 0.29 0.26 0.28 0.30 0.26 0.24 0.21
0.14 0.19 0.24 0.22 0.16 0.13 0.17 0.27 0.23 0.20 0.22 0.22 0.22 0.20 0.20 0.18 0.20 0.28 0.22 0.18 0.20 0.14 0.15 0.16 0.20 0.27 0.33 0.30 0.20 0.28 0.37 0.35 0.31 0.30 0.31 0.34 0.35 0.35 0.35 0.32 0.31 0.28 0.23 0.20
0.09 0.13 0.20 0.25 0.24 0.18 0.16 0.16 0.16 0.22 0.28 0.27 0.26 0.28 0.31 0.37 0.31 0.29 0.29 0.25 0.25 0.26 0.25 0.28 0.30 0.32 0.34 0.28 0.33 0.38 0.37 0.36 0.35 0.33 0.34 0.35 0.35 0.36 0.34 0.33 0.30 0.26 0.24 0.24
0.17 0.16 0.17 0.17 0.16 0.12 0.11 0.10 0.10 0.09 0.10 0.12 0.14 0.19 0.23 0.29 0.38 0.30 0.28 0.21 0.24 0.29 0.27 0.25 0.27 0.28 0.26 0.30 0.38 0.38 0.39 0.38 0.39 0.40 0.31 0.29 0.28 0.30 0.30 0.31 0.31 0.32 0.33 0.30
0.05 0.06 0.05 0.06 0.09 0.10 0.10 0.10 0.10 0.09 0.10 0.11 0.07 0.06 0.11 0.15 0.17 0.19 0.20 0.24 0.25 0.27 0.19 0.19 0.25 0.29 0.25 0.29 0.28 0.24 0.29 0.29 0.27 0.25 0.26 0.24 0.23 0.22 0.22 0.22 0.24 0.27 0.30 0.30
0.09 0.10 0.09 0.07 0.06 0.06 0.07 0.09 0.13 0.14 0.13 0.12 0.14 0.12 0.13 0.14 0.18 0.20 0.17 0.22 0.26 0.27 0.21 0.17 0.23 0.27 0.27 0.26 0.20 0.20 0.24 0.24 0.22 0.23 0.20 0.20 0.20 0.20 0.21 0.21 0.22 0.26 0.30 0.31

GFSNGP_prec_precacc_129.txt.gz
Total_Precipitation_Accumulation
0.12 0.22 0.58 0.38 0.14 0.10 0.39 0.19 0.26 0.09 0.04 0.04 0.04 0.05 0.05 0.04 0.03 0.03 0.03 0.02 0.02 0.00 0.00 0.01 0.05 0.23 0.17 0.14 0.20 0.19 0.16 0.13 0.10 0.08 0.09 0.07 0.05 0.07 0.07 0.06 0.06 0.04 0.08 0.15
0.34 0.25 0.35 0.27 0.07 0.11 0.12 0.04 0.05 0.02 0.04 0.05 0.05 0.03 0.08 0.06 0.02 0.01 0.00 0.00 0.00 0.00 0.00 0.00 0.03 0.08 0.15 0.24 0.15 0.18 0.11 0.11 0.08 0.08 0.08 0.09 0.08 0.05 0.08 0.08 0.08 0.12 0.11 0.11
0.48 0.18 0.19 0.26 0.08 0.06 0.09 0.07 0.03 0.04 0.05 0.07 0.25 0.45 0.39 0.10 0.04 0.02 0.02 0.00 0.00 0.00 0.00 0.00 0.01 0.11 0.51 0.64 0.29 0.28 0.15 0.17 0.17 0.13 0.20 0.20 0.15 0.13 0.11 0.15 0.24 0.23 0.22 0.26
0.83 0.44 0.44 0.25 0.10 0.14 0.15 0.12 0.06 0.05 0.07 0.08 0.13 0.18 0.12 0.04 0.02 0.02 0.01 0.01 0.00 0.00 0.00 0.00 0.03 0.28 0.83 0.87 0.28 0.25 0.22 0.33 0.57 0.48 0.52 0.60 0.75 0.63 0.64 0.52 0.46 0.54 0.56 0.58
0.42 0.30 0.15 0.04 0.07 0.11 0.09 0.09 0.03 0.03 0.02 0.01 0.04 0.13 0.14 0.04 0.02 0.02 0.01 0.01 0.01 0.00 0.00 0.02 0.05 0.18 0.35 0.75 0.92 0.72 0.63 0.81 0.80 0.70 0.74 0.84 1.06 1.14 0.80 0.97 0.78 0.78 0.68 0.55
0.15 0.21 0.08 0.02 0.01 0.02 0.02 0.02 0.00 0.00 0.01 0.00 0.00 0.04 0.22 0.29 0.12 0.05 0.02 0.01 0.01 0.01 0.02 0.04 0.03 0.08 0.20 0.35 0.94 1.21 0.79 0.81 0.88 0.75 0.73 0.89 0.99 0.98 0.72 0.61 0.66 0.58 0.63 0.60
0.14 0.17 0.01 0.00 0.00 0.00 0.03 0.02 0.00 0.00 0.00 0.00 0.00 0.00 0.01 0.16 0.24 0.16 0.10 0.07 0.09 0.09 0.17 0.22 0.17 0.32 0.49 0.49 0.81 1.10 0.86 0.88 0.70 0.73 0.45 0.61 0.69 0.62 0.47 0.37 0.42 0.43 0.39 0.32
0.06 0.10 0.01 0.00 0.00 0.00 0.00 0.00 0.00 0.01 0.01 0.00 0.01 0.00 0.00 0.01 0.04 0.16 0.17 0.15 0.16 0.24 0.55 0.66 0.68 0.58 0.54 0.44 0.32 0.33 0.44 0.46 0.31 0.26 0.23 0.18 0.19 0.27 0.24 0.14 0.10 0.04 0.01 0.00
0.00 0.00 0.00 0.00 0.00 0.00 0.00 0.00 0.00 0.00 0.00 0.00 0.01 0.00 0.00 0.01 0.00 0.00 0.01 0.02 0.05 0.15 0.16 0.09 0.14 0.12 0.15 0.06 0.02 0.02 0.02 0.01 0.02 0.02 0.02 0.01 0.00 0.00 0.00 0.00 0.00 0.00 0.00 0.00
0.00 0.00 0.00 0.00 0.00 0.00 0.00 0.00 0.00 0.01 0.01 0.00 0.00 0.00 0.01 0.02 0.02 0.03 0.02 0.00 0.00 0.00 0.00 0.00 0.00 0.00 0.00 0.01 0.02 0.02 0.01 0.00 0.00 0.01 0.01 0.01 0.00 0.00 0.00 0.00 0.00 0.00 0.01 0.01
0.00 0.00 0.00 0.00 0.00 0.00 0.00 0.00 0.00 0.00 0.00 0.00 0.00 0.00 0.00 0.00 0.01 0.02 0.06 0.08 0.08 0.07 0.04 0.01 0.00 0.01 0.00 0.00 0.00 0.00 0.01 0.01 0.00 0.00 0.00 0.00 0.00 0.00 0.00 0.00 0.02 0.02 0.02 0.03
0.00 0.00 0.00 0.00 0.00 0.00 0.00 0.00 0.00 0.00 0.00 0.00 0.00 0.00 0.00 0.00 0.00 0.00 0.01 0.03 0.07 0.16 0.22 0.25 0.21 0.17 0.13 0.11 0.11 0.09 0.06 0.04 0.04 0.04 0.04 0.05 0.04 0.04 0.08 0.08 0.08 0.07 0.07 0.06
0.00 0.00 0.00 0.00 0.00 0.00 0.00 0.00 0.00 0.00 0.00 0.00 0.00 0.00 0.01 0.00 0.00 0.00 0.00 0.00 0.01 0.04 0.04 0.08 0.17 0.24 0.22 0.18 0.16 0.16 0.15 0.13 0.13 0.14 0.09 0.07 0.06 0.07 0.10 0.14 0.15 0.10 0.09 0.09
0.01 0.00 0.00 0.00 0.00 0.00 0.00 0.00 0.00 0.00 0.00 0.00 0.00 0.00 0.00 0.00 0.00 0.00 0.00 0.00 0.00 0.00 0.00 0.00 0.01 0.02 0.07 0.12 0.13 0.12 0.13 0.22 0.16 0.16 0.17 0.17 0.18 0.18 0.16 0.14 0.14 0.15 0.21 0.23
0.01 0.02 0.01 0.01 0.00 0.00 0.00 0.00 0.00 0.00 0.00 0.00 0.00 0.00 0.00 0.00 0.00 0.00 0.00 0.00 0.00 0.00 0.00 0.00 0.00 0.00 0.00 0.01 0.01 0.03 0.06 0.09 0.13 0.16 0.16 0.22 0.16 0.15 0.17 0.19 0.19 0.19 0.20 0.33
0.13 0.06 0.06 0.05 0.02 0.03 0.02 0.03 0.04 0.04 0.04 0.03 0.02 0.01 0.01 0.01 0.01 0.00 0.00 0.01 0.03 0.01 0.00 0.00 0.00 0.01 0.01 0.01 0.02 0.02 0.03 0.12 0.15 0.09 0.13 0.16 0.13 0.15 0.15 0.17 0.20 0.20 0.18 0.18
0.42 0.30 0.17 0.23 0.14 0.10 0.15 0.11 0.12 0.14 0.14 0.13 0.13 0.12 0.10 0.08 0.06 0.04 0.02 0.02 0.02 0.02 0.01 0.01 0.01 0.02 0.03 0.04 0.04 0.04 0.06 0.10 0.20 0.12 0.10 0.11 0.13 0.14 0.14 0.18 0.17 0.15 0.16 0.30
0.31 0.32 0.20 0.30 0.35 0.25 0.29 0.33 0.34 0.35 0.34 0.35 0.29 0.21 0.19 0.17 0.15 0.11 0.09 0.06 0.04 0.04 0.03 0.03 0.04 0.04 0.04 0.04 0.05 0.06 0.07 0.10 0.13 0.12 0.12 0.14 0.14 0.13 0.14 0.15 0.13 0.14 0.11 0.34
0.10 0.22 0.18 0.11 0.16 0.19 0.27 0.30 0.29 0.34 0.36 0.33 0.29 0.27 0.23 0.18 0.16 0.13 0.11 0.09 0.07 0.07 0.06 0.07 0.09 0.09 0.07 0.06 0.09 0.12 0.14 0.16 0.15 0.15 0.13 0.21 0.28 0.15 0.11 0.12 0.13 0.12 0.12 0.17
0.27 0.18 0.11 0.09 0.11 0.14 0.15 0.11 0.10 0.11 0.10 0.08 0.08 0.07 0.09 0.06 0.04 0.04 0.04 0.05 0.06 0.06 0.06 0.08 0.11 0.09 0.08 0.11 0.17 0.26 0.22 0.18 0.16 0.13 0.18 0.25 0.24 0.23 0.22 0.29 0.26 0.20 0.17 0.17
0.56 0.60 0.44 0.44 0.40 0.30 0.21 0.15 0.12 0.11 0.07 0.06 0.07 0.05 0.04 0.04 0.03 0.05 0.07 0.04 0.01 0.02 0.04 0.04 0.07 0.08 0.07 0.11 0.21 0.19 0.19 0.24 0.29 0.29 0.34 0.37 0.32 0.28 0.22 0.21 0.23 0.20 0.18 0.19
0.25 0.33 0.40 0.29 0.16 0.20 0.27 0.25 0.17 0.13 0.10 0.09 0.11 0.08 0.07 0.05 0.04 0.05 0.07 0.15 0.09 0.07 0.09 0.11 0.11 0.13 0.18 0.24 0.23 0.21 0.30 0.36 0.40 0.39 0.34 0.30 0.29 0.29 0.26 0.28 0.30 0.26 0.24 0.21
0.14 0.19 0.24 0.22 0.16 0.13 0.17 0.27 0.23 0.20 0.22 0.22 0.22 0.20 0.20 0.18 0.20 0.28 0.23 0.18 0.20 0.14 0.15 0.16 0.20 0.27 0.33 0.30 0.20 0.28 0.37 0.35 0.31 0.30 0.32 0.35 0.35 0.35 0.35 0.32 0.31 0.28 0.23 0.20
0.09 0.13 0.20 0.25 0.24 0.18 0.16 0.16 0.16 0.22 0.28 0.27 0.26 0.28 0.31 0.40 0.36 0.30 0.30 0.26 0.25 0.26 0.25 0.28 0.30 0.32 0.34 0.28 0.33 0.38 0.37 0.37 0.36 0.35 0.37 0.38 0.35 0.36 0.34 0.33 0.30 0.26 0.24 0.24
0.17 0.16 0.17 0.17 0.16 0.12 0.11 0.10 0.10 0.09 0.10 0.12 0.14 0.19 0.24 0.31 0.49 0.33 0.28 0.21 0.24 0.29 0.27 0.25 0.27 0.28 0.26 0.30 0.38 0.38 0.40 0.41 0.45 0.47 0.38 0.33 0.29 0.30 0.30 0.31 0.31 0.32 0.33 0.30
0.05 0.06 0.05 0.06 0.09 0.10 0.10 0.10 0.10 0.09 0.10 0.11 0.08 0.06 0.12 0.16 0.18 0.19 0.20 0.24 0.25 0.27 0.19 0.19 0.25 0.29 0.25 0.29 0.28 0.25 0.30 0.33 0.37 0.37 0.34 0.30 0.27 0.23 0.23 0.22 0.24 0.27 0.30 0.30
0.09 0.10 0.09 0.07 0.06 0.06 0.07 0.10 0.14 0.15 0.14 0.14 0.18 0.13 0.13 0.14 0.18 0.20 0.17 0.22 0.26 0.27 0.21 0.17 0.23 0.28 0.27 0.26 0.20 0.20 0.24 0.26 0.29 0.32 0.27 0.26 0.25 0.23 0.22 0.21 0.22 0.26 0.30 0.31

GFSNGP_prec_precacc_132.txt.gz
Total_Precipitation_Accumulation
0.12 0.22 0.58 0.38 0.14 0.10 0.39 0.19 0.26 0.09 0.04 0.04 0.04 0.05 0.05 0.04 0.03 0.03 0.03 0.02 0.02 0.00 0.00 0.01 0.05 0.23 0.17 0.14 0.20 0.19 0.16 0.13 0.10 0.08 0.09 0.07 0.05 0.07 0.07 0.06 0.06 0.04 0.08 0.15
0.34 0.25 0.35 0.27 0.07 0.11 0.12 0.04 0.05 0.02 0.04 0.05 0.05 0.03 0.08 0.06 0.02 0.01 0.00 0.00 0.00 0.00 0.00 0.00 0.03 0.08 0.15 0.24 0.15 0.18 0.11 0.11 0.08 0.08 0.08 0.09 0.08 0.05 0.08 0.08 0.08 0.12 0.11 0.11
0.48 0.18 0.19 0.26 0.08 0.06 0.09 0.07 0.03 0.04 0.05 0.07 0.25 0.45 0.39 0.10 0.04 0.02 0.02 0.00 0.00 0.00 0.00 0.00 0.01 0.11 0.51 0.64 0.29 0.28 0.15 0.17 0.17 0.13 0.20 0.20 0.15 0.13 0.11 0.15 0.24 0.23 0.22 0.26
0.83 0.44 0.44 0.25 0.10 0.14 0.15 0.12 0.06 0.05 0.07 0.08 0.13 0.18 0.12 0.04 0.02 0.02 0.01 0.01 0.00 0.00 0.00 0.00 0.03 0.28 0.83 0.87 0.28 0.25 0.22 0.33 0.57 0.48 0.52 0.60 0.75 0.63 0.64 0.52 0.46 0.54 0.56 0.58
0.42 0.30 0.15 0.04 0.07 0.11 0.09 0.09 0.03 0.03 0.02 0.01 0.04 0.13 0.14 0.04 0.02 0.02 0.01 0.01 0.01 0.00 0.00 0.02 0.05 0.18 0.35 0.75 0.92 0.72 0.63 0.81 0.80 0.70 0.74 0.84 1.06 1.14 0.80 0.97 0.78 0.78 0.68 0.55
0.15 0.21 0.08 0.02 0.01 0.02 0.02 0.02 0.00 0.00 0.01 0.00 0.00 0.04 0.22 0.29 0.12 0.05 0.02 0.01 0.01 0.01 0.02 0.04 0.03 0.08 0.20 0.35 0.94 1.21 0.79 0.81 0.88 0.75 0.73 0.89 0.99 0.98 0.72 0.61 0.66 0.58 0.63 0.60
0.14 0.17 0.01 0.00 0.00 0.00 0.03 0.02 0.00 0.00 0.00 0.00 0.00 0.00 0.01 0.16 0.24 0.16 0.10 0.07 0.09 0.09 0.17 0.22 0.17 0.32 0.49 0.49 0.81 1.10 0.86 0.88 0.70 0.73 0.45 0.61 0.69 0.62 0.47 0.37 0.42 0.43 0.39 0.32
0.06 0.10 0.01 0.00 0.00 0.00 0.00 0.00 0.00 0.01 0.01 0.00 0.01 0.00 0.00 0.01 0.04 0.16 0.17 0.15 0.16 0.24 0.55 0.66 0.68 0.58 0.54 0.44 0.32 0.33 0.44 0.46 0.31 0.26 0.23 0.18 0.19 0.27 0.24 0.14 0.10 0.04 0.01 0.00
0.00 0.00 0.00 0.00 0.00 0.00 0.00 0.00 0.00 0.00 0.00 0.00 0.01 0.00 0.00 0.01 0.00 0.00 0.01 0.02 0.05 0.15 0.16 0.09 0.14 0.12 0.15 0.06 0.02 0.02 0.02 0.01 0.02 0.02 0.02 0.01 0.00 0.00 0.00 0.00 0.00 0.00 0.00 0.00
0.00 0.00 0.00 0.00 0.00 0.00 0.00 0.00 0.00 0.01 0.01 0.00 0.00 0.00 0.01 0.02 0.02 0.03 0.02 0.00 0.00 0.00 0.00 0.00 0.00 0.00 0.00 0.01 0.02 0.02 0.01 0.00 0.00 0.01 0.01 0.01 0.00 0.00 0.00 0.00 0.00 0.00 0.01 0.01
0.00 0.00 0.00 0.00 0.00 0.00 0.00 0.00 0.00 0.00 0.00 0.00 0.00 0.00 0.00 0.00 0.01 0.02 0.06 0.08 0.08 0.07 0.04 0.01 0.00 0.01 0.00 0.00 0.00 0.00 0.01 0.01 0.00 0.00 0.00 0.00 0.00 0.00 0.00 0.00 0.02 0.03 0.02 0.04
0.00 0.00 0.00 0.00 0.00 0.00 0.00 0.00 0.00 0.00 0.00 0.00 0.00 0.00 0.00 0.00 0.00 0.00 0.01 0.03 0.07 0.16 0.22 0.25 0.21 0.17 0.13 0.11 0.11 0.09 0.06 0.04 0.04 0.04 0.04 0.05 0.04 0.04 0.08 0.08 0.08 0.08 0.07 0.06
0.00 0.00 0.00 0.00 0.00 0.00 0.00 0.00 0.00 0.00 0.00 0.00 0.00 0.00 0.01 0.00 0.00 0.00 0.00 0.00 0.01 0.04 0.04 0.08 0.17 0.24 0.22 0.18 0.16 0.16 0.15 0.13 0.13 0.14 0.09 0.07 0.06 0.07 0.10 0.15 0.16 0.11 0.09 0.09
0.01 0.00 0.00 0.00 0.00 0.00 0.00 0.00 0.00 0.00 0.00 0.00 0.00 0.00 0.00 0.00 0.00 0.00 0.00 0.00 0.00 0.00 0.00 0.00 0.01 0.02 0.07 0.12 0.13 0.12 0.13 0.22 0.16 0.16 0.17 0.17 0.18 0.19 0.18 0.17 0.15 0.15 0.21 0.23
0.01 0.02 0.01 0.01 0.00 0.00 0.00 0.00 0.00 0.00 0.00 0.00 0.00 0.00 0.00 0.00 0.00 0.00 0.00 0.00 0.00 0.00 0.00 0.00 0.00 0.00 0.00 0.01 0.01 0.03 0.06 0.09 0.13 0.16 0.16 0.22 0.17 0.18 0.21 0.21 0.19 0.19 0.20 0.33
0.13 0.06 0.06 0.05 0.02 0.03 0.02 0.03 0.04 0.04 0.04 0.03 0.02 0.01 0.01 0.01 0.01 0.00 0.00 0.01 0.03 0.01 0.00 0.00 0.00 0.01 0.01 0.01 0.02 0.02 0.03 0.12 0.15 0.09 0.13 0.16 0.16 0.20 0.18 0.17 0.20 0.20 0.18 0.18
0.42 0.30 0.17 0.23 0.14 0.10 0.15 0.11 0.12 0.14 0.14 0.13 0.13 0.12 0.10 0.08 0.06 0.04 0.02 0.02 0.02 0.02 0.01 0.01 0.01 0.02 0.03 0.04 0.04 0.04 0.06 0.10 0.20 0.12 0.10 0.12 0.15 0.16 0.14 0.18 0.17 0.15 0.16 0.30
0.31 0.32 0.20 0.30 0.35 0.25 0.29 0.33 0.34 0.35 0.34 0.35 0.29 0.21 0.19 0.17 0.15 0.11 0.09 0.06 0.04 0.04 0.03 0.03 0.04 0.04 0.04 0.04 0.05 0.06 0.07 0.10 0.13 0.12 0.12 0.14 0.14 0.13 0.14 0.15 0.13 0.14 0.11 0.34
0.10 0.22 0.18 0.11 0.16 0.19 0.27 0.30 0.29 0.34 0.36 0.33 0.29 0.27 0.23 0.18 0.16 0.13 0.11 0.09 0.07 0.07 0.06 0.07 0.09 0.09 0.07 0.06 0.09 0.12 0.14 0.16 0.15 0.15 0.13 0.21 0.28 0.15 0.11 0.12 0.13 0.12 0.12 0.17
0.27 0.18 0.11 0.09 0.11 0.14 0.15 0.11 0.10 0.11 0.10 0.08 0.08 0.07 0.09 0.06 0.04 0.04 0.04 0.05 0.06 0.06 0.06 0.08 0.11 0.09 0.08 0.11 0.17 0.26 0.22 0.18 0.16 0.13 0.18 0.25 0.24 0.23 0.22 0.29 0.26 0.20 0.17 0.17
0.56 0.60 0.44 0.44 0.40 0.30 0.21 0.15 0.12 0.11 0.07 0.06 0.07 0.05 0.04 0.04 0.03 0.05 0.07 0.04 0.01 0.02 0.04 0.04 0.07 0.08 0.07 0.11 0.21 0.19 0.19 0.24 0.29 0.29 0.34 0.37 0.32 0.28 0.22 0.21 0.23 0.20 0.18 0.19
0.25 0.33 0.40 0.29 0.16 0.20 0.27 0.25 0.17 0.13 0.10 0.09 0.11 0.08 0.07 0.05 0.04 0.05 0.07 0.15 0.09 0.07 0.10 0.11 0.11 0.14 0.19 0.24 0.23 0.21 0.30 0.36 0.40 0.39 0.34 0.30 0.30 0.30 0.27 0.28 0.30 0.26 0.24 0.21
0.14 0.19 0.24 0.22 0.16 0.13 0.17 0.27 0.23 0.20 0.22 0.22 0.22 0.20 0.20 0.18 0.20 0.29 0.27 0.19 0.21 0.17 0.18 0.17 0.20 0.27 0.33 0.30 0.20 0.28 0.37 0.35 0.31 0.30 0.32 0.36 0.37 0.38 0.37 0.33 0.31 0.28 0.23 0.20
0.09 0.13 0.20 0.25 0.24 0.18 0.16 0.16 0.16 0.22 0.28 0.27 0.26 0.28 0.31 0.40 0.37 0.30 0.35 0.33 0.27 0.27 0.26 0.28 0.30 0.32 0.34 0.28 0.33 0.38 0.37 0.37 0.36 0.35 0.37 0.40 0.42 0.44 0.40 0.35 0.31 0.26 0.24 0.24
0.17 0.16 0.17 0.17 0.16 0.12 0.11 0.10 0.10 0.09 0.10 0.12 0.14 0.19 0.24 0.31 0.55 0.39 0.30 0.22 0.24 0.29 0.27 0.25 0.28 0.28 0.26 0.31 0.39 0.39 0.40 0.41 0.45 0.48 0.40 0.39 0.38 0.39 0.37 0.36 0.32 0.32 0.33 0.30
0.05 0.06 0.05 0.06 0.09 0.10 0.10 0.10 0.11 0.09 0.10 0.11 0.08 0.06 0.12 0.17 0.19 0.21 0.20 0.24 0.25 0.27 0.20 0.19 0.26 0.29 0.26 0.30 0.29 0.25 0.30 0.34 0.37 0.38 0.37 0.35 0.34 0.30 0.29 0.27 0.26 0.28 0.30 0.30
0.09 0.10 0.09 0.07 0.06 0.06 0.07 0.10 0.14 0.15 0.14 0.14 0.19 0.13 0.13 0.14 0.19 0.20 0.17 0.22 0.27 0.28 0.21 0.17 0.23 0.28 0.29 0.27 0.21 0.22 0.25 0.26 0.29 0.33 0.29 0.29 0.29 0.27 0.27 0.26 0.26 0.28 0.30 0.31

GFSNGP_prec_precacc_135.txt.gz
Total_Precipitation_Accumulation
0.12 0.22 0.58 0.38 0.14 0.10 0.39 0.19 0.26 0.09 0.04 0.04 0.04 0.05 0.05 0.04 0.03 0.03 0.03 0.02 0.02 0.00 0.00 0.01 0.05 0.23 0.17 0.14 0.20 0.19 0.16 0.13 0.10 0.08 0.09 0.07 0.05 0.07 0.07 0.06 0.06 0.04 0.08 0.15
0.34 0.25 0.35 0.27 0.07 0.11 0.12 0.04 0.05 0.02 0.04 0.05 0.05 0.03 0.08 0.06 0.02 0.01 0.00 0.00 0.00 0.00 0.00 0.00 0.03 0.08 0.15 0.24 0.15 0.18 0.11 0.11 0.08 0.08 0.08 0.09 0.08 0.05 0.08 0.08 0.08 0.12 0.11 0.11
0.48 0.18 0.19 0.26 0.08 0.06 0.09 0.07 0.03 0.04 0.05 0.07 0.25 0.45 0.39 0.10 0.04 0.02 0.02 0.00 0.00 0.00 0.00 0.00 0.01 0.11 0.51 0.64 0.29 0.28 0.15 0.17 0.17 0.13 0.20 0.20 0.15 0.13 0.11 0.15 0.24 0.23 0.22 0.26
0.83 0.44 0.44 0.25 0.10 0.14 0.15 0.12 0.06 0.05 0.07 0.08 0.13 0.18 0.12 0.04 0.02 0.02 0.01 0.01 0.00 0.00 0.00 0.00 0.03 0.28 0.83 0.87 0.28 0.25 0.22 0.33 0.57 0.48 0.52 0.60 0.75 0.63 0.64 0.52 0.46 0.54 0.56 0.58
0.42 0.30 0.15 0.04 0.07 0.11 0.09 0.09 0.03 0.03 0.02 0.01 0.04 0.13 0.14 0.04 0.02 0.02 0.01 0.01 0.01 0.00 0.00 0.02 0.05 0.18 0.35 0.75 0.92 0.72 0.63 0.81 0.80 0.70 0.74 0.84 1.06 1.14 0.80 0.97 0.78 0.78 0.68 0.55
0.15 0.21 0.08 0.02 0.01 0.02 0.02 0.02 0.00 0.00 0.01 0.00 0.00 0.04 0.22 0.29 0.12 0.05 0.02 0.01 0.01 0.01 0.02 0.04 0.03 0.08 0.20 0.35 0.94 1.21 0.79 0.81 0.88 0.75 0.73 0.89 0.99 0.98 0.72 0.61 0.66 0.58 0.63 0.60
0.14 0.17 0.01 0.00 0.00 0.00 0.03 0.02 0.00 0.00 0.00 0.00 0.00 0.00 0.01 0.16 0.24 0.16 0.10 0.07 0.09 0.09 0.17 0.22 0.17 0.32 0.49 0.49 0.81 1.10 0.86 0.88 0.70 0.73 0.45 0.61 0.69 0.62 0.47 0.37 0.42 0.43 0.40 0.33
0.06 0.10 0.01 0.00 0.00 0.00 0.00 0.00 0.00 0.01 0.01 0.00 0.01 0.00 0.00 0.01 0.04 0.16 0.17 0.15 0.16 0.24 0.55 0.66 0.68 0.58 0.54 0.44 0.32 0.33 0.44 0.46 0.31 0.26 0.23 0.18 0.19 0.27 0.24 0.14 0.10 0.05 0.02 0.00
0.00 0.00 0.00 0.00 0.00 0.00 0.00 0.00 0.00 0.00 0.00 0.00 0.01 0.00 0.00 0.01 0.00 0.00 0.01 0.02 0.05 0.15 0.16 0.09 0.14 0.12 0.15 0.06 0.02 0.02 0.02 0.01 0.02 0.02 0.02 0.01 0.00 0.00 0.00 0.00 0.00 0.01 0.01 0.00
0.00 0.00 0.00 0.00 0.00 0.00 0.00 0.00 0.00 0.01 0.01 0.00 0.00 0.00 0.01 0.02 0.02 0.03 0.02 0.00 0.00 0.00 0.00 0.00 0.00 0.00 0.00 0.01 0.02 0.02 0.01 0.00 0.00 0.01 0.01 0.01 0.00 0.00 0.00 0.00 0.00 0.00 0.01 0.01
0.00 0.00 0.00 0.00 0.00 0.00 0.00 0.00 0.00 0.00 0.00 0.00 0.00 0.00 0.00 0.00 0.01 0.02 0.06 0.08 0.08 0.07 0.04 0.01 0.00 0.01 0.00 0.00 0.00 0.00 0.01 0.01 0.00 0.00 0.00 0.00 0.00 0.00 0.00 0.00 0.02 0.03 0.02 0.04
0.00 0.00 0.00 0.00 0.00 0.00 0.00 0.00 0.00 0.00 0.00 0.00 0.00 0.00 0.00 0.00 0.00 0.00 0.01 0.03 0.07 0.16 0.22 0.25 0.21 0.17 0.13 0.11 0.11 0.09 0.06 0.04 0.04 0.04 0.04 0.05 0.04 0.04 0.08 0.08 0.08 0.08 0.08 0.07
0.00 0.00 0.00 0.00 0.00 0.00 0.00 0.00 0.00 0.00 0.00 0.00 0.00 0.00 0.01 0.00 0.00 0.00 0.00 0.00 0.01 0.04 0.04 0.08 0.17 0.24 0.22 0.18 0.16 0.16 0.15 0.13 0.13 0.14 0.09 0.07 0.06 0.07 0.10 0.15 0.17 0.13 0.11 0.10
0.01 0.00 0.00 0.00 0.00 0.00 0.00 0.00 0.00 0.00 0.00 0.00 0.00 0.00 0.00 0.00 0.00 0.00 0.00 0.00 0.00 0.00 0.00 0.00 0.01 0.02 0.07 0.12 0.13 0.12 0.13 0.22 0.16 0.16 0.17 0.17 0.18 0.19 0.18 0.18 0.18 0.17 0.22 0.23
0.01 0.02 0.01 0.01 0.00 0.00 0.00 0.00 0.00 0.00 0.00 0.00 0.00 0.00 0.00 0.00 0.00 0.00 0.00 0.00 0.00 0.00 0.00 0.00 0.00 0.00 0.00 0.01 0.01 0.03 0.06 0.09 0.13 0.16 0.16 0.22 0.17 0.18 0.22 0.23 0.21 0.19 0.20 0.33
0.13 0.06 0.06 0.05 0.02 0.03 0.02 0.03 0.04 0.04 0.04 0.03 0.02 0.01 0.01 0.01 0.01 0.00 0.00 0.01 0.03 0.01 0.00 0.00 0.00 0.01 0.01 0.01 0.02 0.02 0.03 0.12 0.15 0.09 0.13 0.16 0.16 0.20 0.20 0.19 0.20 0.20 0.18 0.18
0.42 0.30 0.17 0.23 0.14 0.10 0.15 0.11 0.12 0.14 0.14 0.13 0.13 0.12 0.10 0.08 0.06 0.04 0.02 0.02 0.02 0.02 0.01 0.01 0.01 0.02 0.03 0.04 0.04 0.04 0.06 0.10 0.20 0.12 0.10 0.12 0.15 0.16 0.15 0.18 0.17 0.15 0.16 0.30
0.31 0.32 0.20 0.30 0.35 0.25 0.29 0.33 0.34 0.35 0.34 0.35 0.29 0.21 0.19 0.17 0.15 0.11 0.09 0.06 0.04 0.04 0.03 0.03 0.04 0.04 0.04 0.04 0.05 0.06 0.07 0.10 0.13 0.12 0.12 0.14 0.14 0.13 0.14 0.15 0.13 0.14 0.11 0.34
0.10 0.22 0.18 0.11 0.16 0.19 0.27 0.30 0.29 0.34 0.36 0.33 0.29 0.27 0.23 0.18 0.16 0.13 0.11 0.09 0.07 0.07 0.06 0.07 0.09 0.09 0.07 0.06 0.09 0.13 0.14 0.16 0.15 0.15 0.13 0.21 0.28 0.15 0.11 0.12 0.13 0.12 0.12 0.17
0.27 0.18 0.11 0.09 0.11 0.14 0.15 0.11 0.10 0.11 0.10 0.08 0.08 0.07 0.09 0.06 0.04 0.04 0.04 0.05 0.06 0.06 0.06 0.08 0.11 0.10 0.09 0.13 0.20 0.28 0.23 0.18 0.16 0.13 0.18 0.25 0.24 0.23 0.22 0.29 0.26 0.20 0.17 0.17
0.56 0.60 0.44 0.44 0.40 0.30 0.21 0.15 0.12 0.11 0.07 0.06 0.07 0.05 0.04 0.04 0.03 0.05 0.07 0.04 0.01 0.02 0.04 0.05 0.09 0.11 0.13 0.18 0.28 0.23 0.21 0.26 0.30 0.29 0.34 0.37 0.32 0.28 0.22 0.22 0.25 0.21 0.18 0.19
0.25 0.33 0.40 0.29 0.16 0.20 0.27 0.25 0.17 0.13 0.10 0.09 0.11 0.08 0.07 0.05 0.04 0.05 0.07 0.15 0.09 0.07 0.10 0.13 0.13 0.18 0.26 0.32 0.28 0.23 0.32 0.38 0.41 0.40 0.34 0.30 0.30 0.30 0.29 0.32 0.34 0.29 0.25 0.21
0.14 0.19 0.24 0.22 0.16 0.13 0.17 0.27 0.23 0.20 0.22 0.22 0.22 0.20 0.20 0.18 0.20 0.30 0.27 0.19 0.21 0.17 0.20 0.18 0.20 0.28 0.34 0.31 0.21 0.28 0.38 0.36 0.33 0.32 0.33 0.36 0.37 0.38 0.40 0.38 0.37 0.33 0.24 0.20
0.09 0.13 0.20 0.25 0.24 0.18 0.16 0.16 0.16 0.22 0.28 0.27 0.26 0.28 0.31 0.40 0.38 0.30 0.35 0.33 0.28 0.27 0.26 0.28 0.31 0.33 0.35 0.29 0.34 0.39 0.38 0.38 0.38 0.37 0.38 0.41 0.42 0.44 0.42 0.41 0.37 0.30 0.26 0.24
0.17 0.16 0.17 0.17 0.16 0.12 0.11 0.10 0.10 0.09 0.10 0.12 0.14 0.19 0.24 0.31 0.55 0.39 0.30 0.22 0.24 0.30 0.27 0.25 0.28 0.28 0.27 0.31 0.40 0.40 0.41 0.42 0.46 0.49 0.41 0.40 0.38 0.39 0.39 0.39 0.37 0.36 0.35 0.30
0.05 0.06 0.05 0.06 0.09 0.10 0.10 0.10 0.11 0.09 0.10 0.11 0.08 0.06 0.12 0.17 0.19 0.21 0.20 0.24 0.25 0.27 0.20 0.19 0.26 0.30 0.27 0.30 0.30 0.26 0.31 0.35 0.38 0.40 0.40 0.36 0.34 0.31 0.31 0.30 0.30 0.31 0.31 0.31
0.09 0.10 0.09 0.07 0.06 0.06 0.07 0.10 0.14 0.15 0.14 0.14 0.19 0.13 0.13 0.14 0.19 0.20 0.17 0.22 0.27 0.28 0.22 0.17 0.23 0.30 0.31 0.28 0.22 0.22 0.26 0.28 0.32 0.37 0.32 0.30 0.30 0.29 0.29 0.29 0.29 0.31 0.32 0.32

GFSNGP_prec_precacc_138.txt.gz
Total_Precipitation_Accumulation
0.12 0.22 0.58 0.38 0.14 0.10 0.39 0.19 0.26 0.09 0.04 0.04 0.04 0.05 0.05 0.04 0.03 0.03 0.03 0.02 0.02 0.00 0.00 0.01 0.05 0.23 0.17 0.14 0.20 0.19 0.16 0.13 0.10 0.08 0.09 0.07 0.05 0.07 0.07 0.06 0.06 0.04 0.08 0.15
0.34 0.25 0.35 0.27 0.07 0.11 0.12 0.04 0.05 0.02 0.04 0.05 0.05 0.03 0.08 0.06 0.02 0.01 0.00 0.00 0.00 0.00 0.00 0.00 0.03 0.08 0.15 0.24 0.15 0.18 0.11 0.11 0.08 0.08 0.08 0.09 0.08 0.05 0.08 0.08 0.08 0.12 0.11 0.11
0.48 0.18 0.19 0.26 0.08 0.06 0.09 0.07 0.03 0.04 0.05 0.07 0.25 0.45 0.39 0.10 0.04 0.02 0.02 0.00 0.00 0.00 0.00 0.00 0.01 0.11 0.51 0.64 0.29 0.28 0.15 0.17 0.17 0.13 0.20 0.20 0.15 0.13 0.11 0.15 0.24 0.23 0.22 0.26
0.83 0.44 0.44 0.25 0.10 0.14 0.15 0.12 0.06 0.05 0.07 0.08 0.13 0.18 0.12 0.04 0.02 0.02 0.01 0.01 0.00 0.00 0.00 0.00 0.03 0.28 0.83 0.87 0.28 0.25 0.22 0.33 0.57 0.48 0.52 0.60 0.75 0.63 0.64 0.52 0.46 0.54 0.56 0.58
0.42 0.30 0.15 0.04 0.07 0.11 0.09 0.09 0.03 0.03 0.02 0.01 0.04 0.13 0.14 0.04 0.02 0.02 0.01 0.01 0.01 0.00 0.00 0.02 0.05 0.18 0.35 0.75 0.92 0.72 0.63 0.81 0.80 0.70 0.74 0.84 1.06 1.14 0.80 0.97 0.78 0.78 0.68 0.55
0.15 0.21 0.08 0.02 0.01 0.02 0.02 0.02 0.00 0.00 0.01 0.00 0.00 0.04 0.22 0.29 0.12 0.05 0.02 0.01 0.01 0.01 0.02 0.04 0.03 0.08 0.20 0.35 0.94 1.21 0.79 0.81 0.88 0.75 0.73 0.89 0.99 0.98 0.72 0.61 0.66 0.58 0.63 0.60
0.14 0.17 0.01 0.00 0.00 0.00 0.03 0.02 0.00 0.00 0.00 0.00 0.00 0.00 0.01 0.16 0.24 0.16 0.10 0.07 0.09 0.09 0.17 0.22 0.17 0.32 0.49 0.49 0.81 1.10 0.86 0.88 0.70 0.73 0.45 0.61 0.69 0.62 0.47 0.37 0.42 0.43 0.40 0.33
0.06 0.10 0.01 0.00 0.00 0.00 0.00 0.00 0.00 0.01 0.01 0.00 0.01 0.00 0.00 0.01 0.04 0.16 0.17 0.15 0.16 0.24 0.55 0.66 0.68 0.58 0.54 0.44 0.32 0.33 0.44 0.46 0.31 0.26 0.23 0.18 0.19 0.27 0.24 0.14 0.10 0.05 0.02 0.01
0.00 0.00 0.00 0.00 0.00 0.00 0.00 0.00 0.00 0.00 0.00 0.00 0.01 0.00 0.00 0.01 0.00 0.00 0.01 0.02 0.05 0.15 0.16 0.09 0.14 0.12 0.15 0.06 0.02 0.02 0.02 0.01 0.02 0.02 0.02 0.01 0.00 0.00 0.00 0.00 0.00 0.01 0.01 0.01
0.00 0.00 0.00 0.00 0.00 0.00 0.00 0.00 0.00 0.01 0.01 0.00 0.00 0.00 0.01 0.02 0.02 0.03 0.02 0.00 0.00 0.00 0.00 0.00 0.00 0.00 0.00 0.01 0.02 0.02 0.01 0.00 0.00 0.01 0.01 0.01 0.00 0.00 0.00 0.00 0.00 0.01 0.01 0.02
0.00 0.00 0.00 0.00 0.00 0.00 0.00 0.00 0.00 0.00 0.00 0.00 0.00 0.00 0.00 0.00 0.01 0.02 0.06 0.08 0.08 0.07 0.04 0.01 0.00 0.01 0.00 0.00 0.00 0.00 0.01 0.01 0.00 0.00 0.00 0.00 0.00 0.00 0.00 0.00 0.02 0.03 0.02 0.04
0.00 0.00 0.00 0.00 0.00 0.00 0.00 0.00 0.00 0.00 0.00 0.00 0.00 0.00 0.00 0.00 0.00 0.00 0.01 0.03 0.07 0.16 0.22 0.25 0.21 0.17 0.13 0.11 0.11 0.09 0.06 0.04 0.04 0.04 0.04 0.05 0.04 0.04 0.08 0.08 0.08 0.08 0.08 0.07
0.00 0.00 0.00 0.00 0.00 0.00 0.00 0.00 0.00 0.00 0.00 0.00 0.00 0.00 0.01 0.00 0.00 0.00 0.00 0.00 0.01 0.04 0.04 0.08 0.17 0.24 0.22 0.18 0.16 0.16 0.15 0.13 0.13 0.14 0.09 0.07 0.06 0.07 0.10 0.15 0.17 0.13 0.11 0.10
0.01 0.00 0.00 0.00 0.00 0.00 0.00 0.00 0.00 0.00 0.00 0.00 0.00 0.00 0.00 0.00 0.00 0.00 0.00 0.00 0.00 0.00 0.00 0.00 0.01 0.02 0.07 0.12 0.13 0.12 0.13 0.22 0.16 0.16 0.17 0.17 0.18 0.19 0.18 0.18 0.18 0.17 0.22 0.23
0.01 0.02 0.01 0.01 0.00 0.00 0.00 0.00 0.00 0.00 0.00 0.00 0.00 0.00 0.00 0.00 0.00 0.00 0.00 0.00 0.00 0.00 0.00 0.00 0.00 0.00 0.00 0.01 0.01 0.03 0.06 0.09 0.13 0.16 0.16 0.22 0.17 0.18 0.22 0.23 0.21 0.19 0.20 0.34
0.13 0.06 0.06 0.05 0.02 0.03 0.02 0.03 0.04 0.04 0.04 0.03 0.02 0.01 0.01 0.01 0.01 0.00 0.00 0.01 0.03 0.01 0.00 0.00 0.00 0.01 0.01 0.01 0.02 0.02 0.03 0.12 0.15 0.09 0.13 0.16 0.16 0.20 0.20 0.19 0.20 0.20 0.19 0.18
0.42 0.30 0.17 0.23 0.14 0.10 0.15 0.11 0.12 0.14 0.14 0.13 0.13 0.12 0.10 0.08 0.06 0.04 0.02 0.02 0.02 0.02 0.01 0.01 0.01 0.02 0.03 0.04 0.04 0.04 0.06 0.10 0.20 0.12 0.10 0.12 0.15 0.16 0.15 0.18 0.18 0.16 0.17 0.31
0.31 0.32 0.20 0.30 0.35 0.25 0.29 0.33 0.34 0.35 0.34 0.35 0.29 0.21 0.19 0.17 0.15 0.11 0.09 0.06 0.04 0.04 0.03 0.03 0.04 0.04 0.04 0.04 0.05 0.08 0.08 0.11 0.13 0.12 0.12 0.14 0.14 0.13 0.14 0.15 0.14 0.16 0.12 0.35
0.10 0.22 0.18 0.11 0.16 0.19 0.27 0.30 0.29 0.34 0.36 0.33 0.29 0.27 0.23 0.18 0.16 0.13 0.11 0.09 0.07 0.07 0.06 0.07 0.09 0.09 0.07 0.06 0.11 0.19 0.18 0.17 0.17 0.16 0.15 0.23 0.28 0.15 0.11 0.12 0.14 0.14 0.14 0.19
0.27 0.18 0.11 0.09 0.11 0.14 0.15 0.11 0.10 0.11 0.10 0.08 0.08 0.07 0.09 0.06 0.04 0.04 0.04 0.05 0.06 0.06 0.06 0.08 0.11 0.10 0.09 0.14 0.23 0.33 0.27 0.23 0.22 0.17 0.21 0.28 0.26 0.24 0.23 0.29 0.26 0.21 0.20 0.21
0.56 0.60 0.44 0.44 0.40 0.30 0.21 0.15 0.12 0.11 0.07 0.06 0.07 0.05 0.04 0.04 0.03 0.05 0.07 0.04 0.01 0.02 0.04 0.05 0.09 0.12 0.14 0.19 0.30 0.25 0.24 0.29 0.33 0.32 0.37 0.40 0.34 0.29 0.23 0.22 0.25 0.23 0.22 0.24
0.25 0.33 0.40 0.29 0.16 0.20 0.27 0.25 0.17 0.13 0.10 0.09 0.11 0.08 0.07 0.05 0.04 0.05 0.07 0.15 0.09 0.07 0.10 0.13 0.13 0.18 0.27 0.32 0.28 0.24 0.32 0.39 0.42 0.42 0.37 0.33 0.33 0.32 0.29 0.32 0.34 0.30 0.28 0.26
0.14 0.19 0.24 0.22 0.16 0.13 0.17 0.27 0.23 0.20 0.22 0.22 0.22 0.20 0.20 0.18 0.20 0.30 0.27 0.19 0.21 0.17 0.20 0.18 0.21 0.28 0.34 0.32 0.21 0.29 0.39 0.37 0.33 0.33 0.35 0.39 0.40 0.40 0.41 0.39 0.37 0.33 0.28 0.25
0.09 0.13 0.20 0.25 0.24 0.18 0.16 0.16 0.16 0.22 0.28 0.27 0.26 0.28 0.31 0.40 0.38 0.30 0.35 0.33 0.28 0.27 0.26 0.28 0.31 0.33 0.36 0.29 0.34 0.39 0.38 0.39 0.39 0.38 0.40 0.44 0.46 0.47 0.44 0.42 0.38 0.32 0.29 0.27
0.17 0.16 0.17 0.17 0.16 0.12 0.11 0.10 0.10 0.09 0.10 0.12 0.14 0.19 0.24 0.31 0.55 0.39 0.30 0.22 0.25 0.30 0.27 0.26 0.29 0.30 0.27 0.31 0.40 0.41 0.42 0.43 0.47 0.52 0.45 0.44 0.43 0.43 0.41 0.41 0.38 0.37 0.37 0.32
0.05 0.06 0.05 0.06 0.09 0.10 0.10 0.10 0.11 0.09 0.10 0.11 0.08 0.06 0.12 0.17 0.19 0.21 0.20 0.24 0.25 0.28 0.20 0.19 0.26 0.30 0.27 0.32 0.32 0.30 0.34 0.37 0.41 0.42 0.43 0.40 0.37 0.35 0.34 0.33 0.32 0.34 0.34 0.33
0.09 0.10 0.09 0.07 0.06 0.06 0.07 0.10 0.14 0.15 0.14 0.14 0.19 0.13 0.13 0.14 0.19 0.20 0.17 0.22 0.27 0.28 0.22 0.17 0.24 0.32 0.35 0.33 0.25 0.25 0.30 0.31 0.34 0.40 0.35 0.32 0.33 0.32 0.32 0.31 0.31 0.33 0.33 0.35

GFSNGP_prec_precacc_144.txt.gz
Total_Precipitation_Accumulation
0.12 0.22 0.58 0.38 0.14 0.10 0.39 0.19 0.26 0.09 0.04 0.04 0.04 0.05 0.05 0.04 0.03 0.03 0.03 0.02 0.02 0.00 0.00 0.01 0.05 0.23 0.17 0.14 0.20 0.19 0.16 0.13 0.10 0.08 0.09 0.07 0.05 0.07 0.07 0.06 0.06 0.04 0.08 0.15
0.34 0.25 0.35 0.27 0.07 0.11 0.12 0.04 0.05 0.02 0.04 0.05 0.05 0.03 0.08 0.06 0.02 0.01 0.00 0.00 0.00 0.00 0.00 0.00 0.03 0.08 0.15 0.24 0.15 0.18 0.11 0.11 0.08 0.08 0.08 0.09 0.08 0.05 0.08 0.08 0.08 0.12 0.11 0.11
0.48 0.18 0.19 0.26 0.08 0.06 0.09 0.07 0.03 0.04 0.05 0.07 0.25 0.45 0.39 0.10 0.04 0.02 0.02 0.00 0.00 0.00 0.00 0.00 0.01 0.11 0.51 0.64 0.29 0.28 0.15 0.17 0.17 0.13 0.20 0.20 0.15 0.13 0.11 0.15 0.24 0.23 0.22 0.26
0.83 0.44 0.44 0.25 0.10 0.14 0.15 0.12 0.06 0.05 0.07 0.08 0.13 0.18 0.12 0.04 0.02 0.02 0.01 0.01 0.00 0.00 0.00 0.00 0.03 0.28 0.83 0.87 0.28 0.25 0.22 0.33 0.57 0.48 0.52 0.60 0.75 0.63 0.64 0.52 0.46 0.54 0.56 0.58
0.42 0.30 0.15 0.04 0.07 0.11 0.09 0.09 0.03 0.03 0.02 0.01 0.04 0.13 0.14 0.04 0.02 0.02 0.01 0.01 0.01 0.00 0.00 0.02 0.05 0.18 0.35 0.75 0.92 0.72 0.63 0.81 0.80 0.70 0.74 0.84 1.06 1.14 0.80 0.97 0.78 0.78 0.68 0.55
0.15 0.21 0.08 0.02 0.01 0.02 0.02 0.02 0.00 0.00 0.01 0.00 0.00 0.04 0.22 0.29 0.12 0.05 0.02 0.01 0.01 0.01 0.02 0.04 0.03 0.08 0.20 0.35 0.94 1.21 0.79 0.81 0.88 0.75 0.73 0.89 0.99 0.98 0.72 0.61 0.66 0.58 0.63 0.60
0.14 0.17 0.01 0.00 0.00 0.00 0.03 0.02 0.00 0.00 0.00 0.00 0.00 0.00 0.01 0.16 0.24 0.16 0.10 0.07 0.09 0.09 0.17 0.22 0.17 0.32 0.49 0.49 0.81 1.10 0.86 0.88 0.70 0.73 0.45 0.61 0.69 0.62 0.47 0.37 0.42 0.43 0.40 0.33
0.06 0.10 0.01 0.00 0.00 0.00 0.00 0.00 0.00 0.01 0.01 0.00 0.01 0.00 0.00 0.01 0.04 0.16 0.17 0.15 0.16 0.24 0.55 0.66 0.68 0.58 0.54 0.44 0.32 0.33 0.44 0.46 0.31 0.26 0.23 0.18 0.19 0.27 0.24 0.14 0.10 0.05 0.02 0.01
0.00 0.00 0.00 0.00 0.00 0.00 0.00 0.00 0.00 0.00 0.00 0.00 0.01 0.00 0.00 0.01 0.00 0.00 0.01 0.02 0.05 0.15 0.16 0.09 0.14 0.12 0.15 0.06 0.02 0.02 0.02 0.01 0.02 0.02 0.02 0.01 0.00 0.00 0.00 0.00 0.00 0.01 0.01 0.01
0.00 0.00 0.00 0.00 0.00 0.00 0.00 0.00 0.00 0.01 0.01 0.00 0.00 0.00 0.01 0.02 0.02 0.03 0.02 0.00 0.00 0.00 0.00 0.00 0.00 0.00 0.00 0.01 0.02 0.02 0.01 0.00 0.00 0.01 0.01 0.01 0.00 0.00 0.00 0.00 0.00 0.01 0.01 0.02
0.00 0.00 0.00 0.00 0.00 0.00 0.00 0.00 0.00 0.00 0.00 0.00 0.00 0.00 0.00 0.00 0.01 0.02 0.06 0.08 0.08 0.07 0.04 0.01 0.00 0.01 0.00 0.00 0.00 0.00 0.01 0.01 0.00 0.00 0.00 0.00 0.00 0.00 0.00 0.00 0.02 0.03 0.02 0.04
0.00 0.00 0.00 0.00 0.00 0.00 0.00 0.00 0.00 0.00 0.00 0.00 0.00 0.00 0.00 0.00 0.00 0.00 0.01 0.03 0.07 0.16 0.22 0.25 0.21 0.17 0.13 0.11 0.11 0.09 0.06 0.04 0.04 0.04 0.04 0.05 0.04 0.04 0.08 0.08 0.08 0.08 0.08 0.07
0.00 0.00 0.00 0.00 0.00 0.00 0.00 0.00 0.00 0.00 0.00 0.00 0.00 0.00 0.01 0.00 0.00 0.00 0.00 0.00 0.01 0.04 0.04 0.08 0.17 0.24 0.22 0.18 0.16 0.16 0.15 0.13 0.13 0.14 0.09 0.07 0.06 0.07 0.10 0.15 0.17 0.13 0.11 0.10
0.01 0.00 0.00 0.00 0.00 0.00 0.00 0.00 0.00 0.00 0.00 0.00 0.00 0.00 0.00 0.00 0.00 0.00 0.00 0.00 0.00 0.00 0.00 0.00 0.01 0.02 0.07 0.12 0.13 0.12 0.13 0.22 0.16 0.16 0.17 0.17 0.18 0.19 0.19 0.19 0.20 0.17 0.22 0.23
0.01 0.02 0.01 0.01 0.00 0.00 0.00 0.00 0.00 0.00 0.00 0.00 0.00 0.00 0.00 0.00 0.00 0.00 0.00 0.00 0.00 0.00 0.00 0.00 0.00 0.00 0.00 0.01 0.01 0.03 0.06 0.09 0.13 0.16 0.16 0.23 0.17 0.19 0.23 0.24 0.22 0.19 0.20 0.34
0.13 0.06 0.06 0.05 0.02 0.03 0.02 0.03 0.04 0.04 0.04 0.03 0.02 0.01 0.01 0.01 0.01 0.00 0.00 0.01 0.03 0.01 0.00 0.00 0.00 0.01 0.01 0.01 0.02 0.02 0.03 0.12 0.15 0.09 0.14 0.16 0.16 0.21 0.21 0.20 0.22 0.21 0.20 0.19
0.42 0.30 0.17 0.23 0.14 0.10 0.15 0.11 0.12 0.14 0.14 0.13 0.13 0.12 0.10 0.08 0.06 0.04 0.02 0.02 0.02 0.02 0.01 0.01 0.01 0.02 0.03 0.04 0.04 0.04 0.06 0.10 0.21 0.13 0.11 0.13 0.16 0.17 0.16 0.20 0.20 0.18 0.18 0.32
0.31 0.32 0.20 0.30 0.35 0.25 0.29 0.33 0.34 0.35 0.34 0.35 0.29 0.21 0.19 0.17 0.15 0.11 0.09 0.06 0.04 0.04 0.03 0.03 0.04 0.04 0.04 0.04 0.05 0.08 0.09 0.11 0.14 0.13 0.14 0.16 0.17 0.16 0.17 0.18 0.16 0.18 0.14 0.37
0.10 0.22 0.18 0.11 0.16 0.19 0.27 0.30 0.29 0.34 0.36 0.33 0.29 0.27 0.23 0.18 0.16 0.13 0.11 0.09 0.07 0.07 0.06 0.07 0.09 0.09 0.07 0.06 0.11 0.19 0.18 0.18 0.17 0.17 0.17 0.28 0.33 0.17 0.16 0.16 0.16 0.16 0.17 0.23
0.27 0.18 0.11 0.09 0.11 0.14 0.15 0.11 0.10 0.11 0.10 0.08 0.08 0.07 0.09 0.06 0.04 0.04 0.04 0.05 0.06 0.06 0.06 0.08 0.11 0.10 0.09 0.14 0.24 0.33 0.27 0.24 0.23 0.18 0.23 0.31 0.29 0.27 0.26 0.32 0.30 0.24 0.22 0.24
0.56 0.60 0.44 0.44 0.40 0.30 0.21 0.15 0.12 0.11 0.07 0.06 0.07 0.05 0.04 0.04 0.03 0.05 0.07 0.04 0.01 0.02 0.04 0.05 0.09 0.12 0.14 0.19 0.30 0.26 0.25 0.31 0.35 0.34 0.40 0.43 0.38 0.32 0.26 0.24 0.28 0.26 0.26 0.27
0.25 0.33 0.40 0.29 0.16 0.20 0.27 0.25 0.17 0.13 0.10 0.09 0.11 0.08 0.07 0.05 0.04 0.05 0.07 0.15 0.09 0.07 0.10 0.13 0.13 0.18 0.27 0.33 0.29 0.25 0.33 0.41 0.45 0.45 0.41 0.36 0.37 0.37 0.33 0.35 0.36 0.32 0.31 0.28
0.14 0.19 0.24 0.22 0.16 0.13 0.17 0.27 0.23 0.20 0.22 0.22 0.22 0.20 0.20 0.18 0.20 0.30 0.27 0.19 0.21 0.17 0.20 0.18 0.21 0.28 0.35 0.33 0.22 0.30 0.40 0.39 0.35 0.35 0.40 0.45 0.45 0.46 0.47 0.42 0.39 0.35 0.30 0.27
0.09 0.13 0.20 0.25 0.24 0.18 0.16 0.16 0.16 0.22 0.28 0.27 0.26 0.28 0.31 0.40 0.38 0.30 0.35 0.33 0.28 0.27 0.26 0.28 0.31 0.33 0.37 0.30 0.35 0.40 0.39 0.41 0.45 0.46 0.47 0.51 0.51 0.52 0.49 0.47 0.42 0.34 0.32 0.30
0.17 0.16 0.17 0.17 0.16 0.12 0.11 0.10 0.10 0.09 0.10 0.12 0.14 0.19 0.24 0.31 0.55 0.39 0.30 0.22 0.25 0.30 0.27 0.26 0.30 0.30 0.27 0.31 0.41 0.43 0.47 0.50 0.54 0.60 0.53 0.51 0.49 0.48 0.45 0.44 0.42 0.41 0.40 0.35
0.05 0.06 0.05 0.06 0.09 0.10 0.10 0.10 0.11 0.09 0.10 0.11 0.08 0.06 0.12 0.17 0.19 0.21 0.20 0.24 0.25 0.28 0.20 0.19 0.26 0.30 0.27 0.34 0.37 0.34 0.38 0.42 0.46 0.48 0.49 0.45 0.40 0.38 0.38 0.36 0.35 0.38 0.37 0.37
0.09 0.10 0.09 0.07 0.06 0.06 0.07 0.10 0.14 0.15 0.14 0.14 0.19 0.13 0.13 0.14 0.19 0.20 0.17 0.22 0.27 0.28 0.22 0.17 0.24 0.32 0.38 0.38 0.28 0.27 0.32 0.35 0.38 0.45 0.42 0.37 0.37 0.37 0.36 0.35 0.35 0.37 0.37 0.40

GFSNGP_prec_precacc_147.txt.gz
Total_Precipitation_Accumulation
0.12 0.22 0.58 0.38 0.14 0.10 0.39 0.19 0.26 0.09 0.04 0.04 0.04 0.05 0.05 0.04 0.03 0.03 0.03 0.02 0.02 0.00 0.00 0.01 0.05 0.23 0.17 0.14 0.20 0.19 0.16 0.13 0.10 0.08 0.09 0.07 0.05 0.07 0.07 0.06 0.06 0.04 0.08 0.15
0.34 0.25 0.35 0.27 0.07 0.11 0.12 0.04 0.05 0.02 0.04 0.05 0.05 0.03 0.08 0.06 0.02 0.01 0.00 0.00 0.00 0.00 0.00 0.00 0.03 0.08 0.15 0.24 0.15 0.18 0.11 0.11 0.08 0.08 0.08 0.09 0.08 0.05 0.08 0.08 0.08 0.12 0.11 0.11
0.48 0.18 0.19 0.26 0.08 0.06 0.09 0.07 0.03 0.04 0.05 0.07 0.25 0.45 0.39 0.10 0.04 0.02 0.02 0.00 0.00 0.00 0.00 0.00 0.01 0.11 0.51 0.64 0.29 0.28 0.15 0.17 0.17 0.13 0.20 0.20 0.15 0.13 0.11 0.15 0.24 0.23 0.22 0.26
0.83 0.44 0.44 0.25 0.10 0.14 0.15 0.12 0.06 0.05 0.07 0.08 0.13 0.18 0.12 0.04 0.02 0.02 0.01 0.01 0.00 0.00 0.00 0.00 0.03 0.28 0.83 0.87 0.28 0.25 0.22 0.33 0.57 0.48 0.52 0.60 0.75 0.63 0.64 0.52 0.46 0.54 0.56 0.58
0.42 0.30 0.15 0.04 0.07 0.11 0.09 0.09 0.03 0.03 0.02 0.01 0.04 0.13 0.14 0.04 0.02 0.02 0.01 0.01 0.01 0.00 0.00 0.02 0.05 0.18 0.35 0.75 0.92 0.72 0.63 0.81 0.80 0.70 0.74 0.84 1.06 1.14 0.80 0.97 0.78 0.78 0.68 0.55
0.15 0.21 0.08 0.02 0.01 0.02 0.02 0.02 0.00 0.00 0.01 0.00 0.00 0.04 0.22 0.29 0.12 0.05 0.02 0.01 0.01 0.01 0.02 0.04 0.03 0.08 0.20 0.35 0.94 1.21 0.79 0.81 0.88 0.75 0.73 0.89 0.99 0.98 0.72 0.61 0.66 0.58 0.63 0.60
0.14 0.17 0.01 0.00 0.00 0.00 0.03 0.02 0.00 0.00 0.00 0.00 0.00 0.00 0.01 0.16 0.24 0.16 0.10 0.07 0.09 0.09 0.17 0.22 0.17 0.32 0.49 0.49 0.81 1.10 0.86 0.88 0.70 0.73 0.45 0.61 0.69 0.62 0.47 0.37 0.42 0.43 0.40 0.33
0.06 0.10 0.01 0.00 0.00 0.00 0.00 0.00 0.00 0.01 0.01 0.00 0.01 0.00 0.00 0.01 0.04 0.16 0.17 0.15 0.16 0.24 0.55 0.66 0.68 0.58 0.54 0.44 0.32 0.33 0.44 0.46 0.31 0.26 0.23 0.18 0.19 0.27 0.24 0.14 0.10 0.05 0.02 0.01
0.00 0.00 0.00 0.00 0.00 0.00 0.00 0.00 0.00 0.00 0.00 0.00 0.01 0.00 0.00 0.01 0.00 0.00 0.01 0.02 0.05 0.15 0.16 0.09 0.14 0.12 0.15 0.06 0.02 0.02 0.02 0.01 0.02 0.02 0.02 0.01 0.00 0.00 0.00 0.00 0.00 0.01 0.01 0.01
0.00 0.00 0.00 0.00 0.00 0.00 0.00 0.00 0.00 0.01 0.01 0.00 0.00 0.00 0.01 0.02 0.02 0.03 0.02 0.00 0.00 0.00 0.00 0.00 0.00 0.00 0.00 0.01 0.02 0.02 0.01 0.00 0.00 0.01 0.01 0.01 0.00 0.00 0.00 0.00 0.00 0.01 0.01 0.02
0.00 0.00 0.00 0.00 0.00 0.00 0.00 0.00 0.00 0.00 0.00 0.00 0.00 0.00 0.00 0.00 0.01 0.02 0.06 0.08 0.08 0.07 0.04 0.01 0.00 0.01 0.00 0.00 0.00 0.00 0.01 0.01 0.00 0.00 0.00 0.00 0.00 0.00 0.00 0.00 0.02 0.03 0.03 0.04
0.00 0.00 0.00 0.00 0.00 0.00 0.00 0.00 0.00 0.00 0.00 0.00 0.00 0.00 0.00 0.00 0.00 0.00 0.01 0.03 0.07 0.16 0.22 0.25 0.21 0.17 0.13 0.11 0.11 0.09 0.06 0.04 0.04 0.04 0.04 0.05 0.04 0.04 0.08 0.08 0.08 0.08 0.08 0.08
0.00 0.00 0.00 0.00 0.00 0.00 0.00 0.00 0.00 0.00 0.00 0.00 0.00 0.00 0.01 0.00 0.00 0.00 0.00 0.00 0.01 0.04 0.04 0.08 0.17 0.24 0.22 0.18 0.16 0.16 0.15 0.13 0.13 0.14 0.09 0.07 0.06 0.07 0.10 0.15 0.17 0.13 0.11 0.10
0.01 0.00 0.00 0.00 0.00 0.00 0.00 0.00 0.00 0.00 0.00 0.00 0.00 0.00 0.00 0.00 0.00 0.00 0.00 0.00 0.00 0.00 0.00 0.00 0.01 0.02 0.07 0.12 0.13 0.12 0.13 0.22 0.16 0.16 0.17 0.17 0.18 0.19 0.19 0.20 0.20 0.17 0.22 0.23
0.01 0.02 0.01 0.01 0.00 0.00 0.00 0.00 0.00 0.00 0.00 0.00 0.00 0.00 0.00 0.00 0.00 0.00 0.00 0.00 0.00 0.00 0.00 0.00 0.00 0.00 0.00 0.01 0.01 0.03 0.06 0.09 0.13 0.16 0.16 0.23 0.17 0.19 0.23 0.25 0.23 0.20 0.21 0.35
0.13 0.06 0.06 0.05 0.02 0.03 0.02 0.03 0.04 0.04 0.04 0.03 0.02 0.01 0.01 0.01 0.01 0.00 0.00 0.01 0.03 0.01 0.00 0.00 0.00 0.01 0.01 0.01 0.02 0.02 0.03 0.12 0.15 0.09 0.14 0.16 0.16 0.21 0.21 0.21 0.23 0.22 0.21 0.20
0.42 0.30 0.17 0.23 0.14 0.10 0.15 0.11 0.12 0.14 0.14 0.13 0.13 0.12 0.10 0.08 0.06 0.04 0.02 0.02 0.02 0.02 0.01 0.01 0.01 0.02 0.03 0.04 0.04 0.04 0.06 0.10 0.21 0.13 0.11 0.13 0.16 0.18 0.16 0.22 0.22 0.19 0.19 0.33
0.31 0.32 0.20 0.30 0.35 0.25 0.29 0.33 0.34 0.35 0.34 0.35 0.29 0.21 0.19 0.17 0.15 0.11 0.09 0.06 0.04 0.04 0.03 0.03 0.04 0.04 0.04 0.04 0.05 0.08 0.09 0.11 0.14 0.13 0.14 0.16 0.17 0.16 0.18 0.19 0.18 0.20 0.15 0.38
0.10 0.22 0.18 0.11 0.16 0.19 0.27 0.30 0.29 0.34 0.36 0.33 0.29 0.27 0.23 0.18 0.16 0.13 0.11 0.09 0.07 0.07 0.06 0.07 0.09 0.09 0.07 0.06 0.11 0.19 0.18 0.18 0.17 0.18 0.18 0.28 0.34 0.18 0.17 0.18 0.19 0.17 0.18 0.25
0.27 0.18 0.11 0.09 0.11 0.14 0.15 0.11 0.10 0.11 0.10 0.08 0.08 0.07 0.09 0.06 0.04 0.04 0.04 0.05 0.06 0.06 0.06 0.08 0.11 0.10 0.09 0.14 0.24 0.33 0.27 0.24 0.23 0.19 0.24 0.32 0.31 0.29 0.27 0.34 0.31 0.26 0.25 0.26
0.56 0.60 0.44 0.44 0.40 0.30 0.21 0.15 0.12 0.11 0.07 0.06 0.07 0.05 0.04 0.04 0.03 0.05 0.07 0.04 0.01 0.02 0.04 0.05 0.09 0.12 0.14 0.19 0.30 0.26 0.25 0.31 0.36 0.35 0.42 0.45 0.40 0.34 0.27 0.26 0.30 0.28 0.28 0.29
0.25 0.33 0.40 0.29 0.16 0.20 0.27 0.25 0.17 0.13 0.10 0.09 0.11 0.08 0.07 0.05 0.04 0.05 0.07 0.15 0.09 0.07 0.10 0.13 0.13 0.18 0.27 0.33 0.29 0.25 0.34 0.41 0.46 0.46 0.42 0.38 0.39 0.40 0.37 0.38 0.39 0.35 0.35 0.30
0.14 0.19 0.24 0.22 0.16 0.13 0.17 0.27 0.23 0.20 0.22 0.22 0.22 0.20 0.20 0.18 0.20 0.30 0.27 0.19 0.21 0.17 0.20 0.18 0.21 0.28 0.35 0.33 0.22 0.31 0.40 0.39 0.35 0.36 0.42 0.47 0.47 0.49 0.50 0.46 0.43 0.40 0.34 0.29
0.09 0.13 0.20 0.25 0.24 0.18 0.16 0.16 0.16 0.22 0.28 0.27 0.26 0.28 0.31 0.40 0.38 0.30 0.35 0.33 0.28 0.27 0.26 0.28 0.31 0.33 0.37 0.30 0.35 0.40 0.39 0.42 0.47 0.47 0.48 0.52 0.51 0.53 0.51 0.50 0.46 0.36 0.33 0.31
0.17 0.16 0.17 0.17 0.16 0.12 0.11 0.10 0.10 0.09 0.10 0.12 0.14 0.19 0.24 0.31 0.55 0.39 0.30 0.22 0.25 0.30 0.27 0.26 0.30 0.30 0.27 0.31 0.41 0.43 0.49 0.52 0.55 0.61 0.55 0.52 0.50 0.50 0.47 0.46 0.43 0.42 0.42 0.37
0.05 0.06 0.05 0.06 0.09 0.10 0.10 0.10 0.11 0.09 0.10 0.11 0.08 0.06 0.12 0.17 0.19 0.21 0.20 0.24 0.25 0.28 0.20 0.19 0.26 0.30 0.27 0.34 0.37 0.36 0.40 0.43 0.47 0.49 0.50 0.46 0.41 0.40 0.40 0.38 0.38 0.40 0.39 0.39
0.09 0.10 0.09 0.07 0.06 0.06 0.07 0.10 0.14 0.15 0.14 0.14 0.19 0.13 0.13 0.14 0.19 0.20 0.17 0.22 0.27 0.28 0.22 0.17 0.24 0.32 0.38 0.39 0.29 0.27 0.32 0.35 0.39 0.47 0.44 0.39 0.39 0.39 0.39 0.38 0.38 0.40 0.39 0.42

GFSNGP_prec_precacc_150.txt.gz
Total_Precipitation_Accumulation
0.12 0.22 0.58 0.38 0.14 0.10 0.39 0.19 0.26 0.09 0.04 0.04 0.04 0.05 0.05 0.04 0.03 0.03 0.03 0.02 0.02 0.00 0.00 0.01 0.05 0.23 0.17 0.14 0.20 0.19 0.16 0.13 0.10 0.08 0.09 0.07 0.05 0.07 0.07 0.06 0.06 0.04 0.08 0.15
0.34 0.25 0.35 0.27 0.07 0.11 0.12 0.04 0.05 0.02 0.04 0.05 0.05 0.03 0.08 0.06 0.02 0.01 0.00 0.00 0.00 0.00 0.00 0.00 0.03 0.08 0.15 0.24 0.15 0.18 0.11 0.11 0.08 0.08 0.08 0.09 0.08 0.05 0.08 0.08 0.08 0.12 0.11 0.11
0.48 0.18 0.19 0.26 0.08 0.06 0.09 0.07 0.03 0.04 0.05 0.07 0.25 0.45 0.39 0.10 0.04 0.02 0.02 0.00 0.00 0.00 0.00 0.00 0.01 0.11 0.51 0.64 0.29 0.28 0.15 0.17 0.17 0.13 0.20 0.20 0.15 0.13 0.11 0.15 0.24 0.23 0.22 0.26
0.83 0.44 0.44 0.25 0.10 0.14 0.15 0.12 0.06 0.05 0.07 0.08 0.13 0.18 0.12 0.04 0.02 0.02 0.01 0.01 0.00 0.00 0.00 0.00 0.03 0.28 0.83 0.87 0.28 0.25 0.22 0.33 0.57 0.48 0.52 0.60 0.75 0.63 0.64 0.52 0.46 0.54 0.56 0.58
0.42 0.30 0.15 0.04 0.07 0.11 0.09 0.09 0.03 0.03 0.02 0.01 0.04 0.13 0.14 0.04 0.02 0.02 0.01 0.01 0.01 0.00 0.00 0.02 0.05 0.18 0.35 0.75 0.92 0.72 0.63 0.81 0.80 0.70 0.74 0.84 1.06 1.14 0.80 0.97 0.78 0.78 0.68 0.55
0.15 0.21 0.08 0.02 0.01 0.02 0.02 0.02 0.00 0.00 0.01 0.00 0.00 0.04 0.22 0.29 0.12 0.05 0.02 0.01 0.01 0.01 0.02 0.04 0.03 0.08 0.20 0.35 0.94 1.21 0.79 0.81 0.88 0.75 0.73 0.89 0.99 0.98 0.72 0.61 0.66 0.58 0.63 0.60
0.14 0.17 0.01 0.00 0.00 0.00 0.03 0.02 0.00 0.00 0.00 0.00 0.00 0.00 0.01 0.16 0.24 0.16 0.10 0.07 0.09 0.09 0.17 0.22 0.17 0.32 0.49 0.49 0.81 1.10 0.86 0.88 0.70 0.73 0.45 0.61 0.69 0.62 0.47 0.37 0.42 0.43 0.40 0.33
0.06 0.10 0.01 0.00 0.00 0.00 0.00 0.00 0.00 0.01 0.01 0.00 0.01 0.00 0.00 0.01 0.04 0.16 0.17 0.15 0.16 0.24 0.55 0.66 0.68 0.58 0.54 0.44 0.32 0.33 0.44 0.46 0.31 0.26 0.23 0.18 0.19 0.27 0.24 0.14 0.10 0.05 0.02 0.01
0.00 0.00 0.00 0.00 0.00 0.00 0.00 0.00 0.00 0.00 0.00 0.00 0.01 0.00 0.00 0.01 0.00 0.00 0.01 0.02 0.05 0.15 0.16 0.09 0.14 0.12 0.15 0.06 0.02 0.02 0.02 0.01 0.02 0.02 0.02 0.01 0.00 0.00 0.00 0.00 0.00 0.01 0.01 0.01
0.00 0.00 0.00 0.00 0.00 0.00 0.00 0.00 0.00 0.01 0.01 0.00 0.00 0.00 0.01 0.02 0.02 0.03 0.02 0.00 0.00 0.00 0.00 0.00 0.00 0.00 0.00 0.01 0.02 0.02 0.01 0.00 0.00 0.01 0.01 0.01 0.00 0.00 0.00 0.00 0.00 0.01 0.01 0.02
0.00 0.00 0.00 0.00 0.00 0.00 0.00 0.00 0.00 0.00 0.00 0.00 0.00 0.00 0.00 0.00 0.01 0.02 0.06 0.08 0.08 0.07 0.04 0.01 0.00 0.01 0.00 0.00 0.00 0.00 0.01 0.01 0.00 0.00 0.00 0.00 0.00 0.00 0.00 0.00 0.02 0.03 0.03 0.04
0.00 0.00 0.00 0.00 0.00 0.00 0.00 0.00 0.00 0.00 0.00 0.00 0.00 0.00 0.00 0.00 0.00 0.00 0.01 0.03 0.07 0.16 0.22 0.25 0.21 0.17 0.13 0.11 0.11 0.09 0.06 0.04 0.04 0.04 0.04 0.05 0.04 0.04 0.08 0.08 0.08 0.08 0.09 0.08
0.00 0.00 0.00 0.00 0.00 0.00 0.00 0.00 0.00 0.00 0.00 0.00 0.00 0.00 0.01 0.00 0.00 0.00 0.00 0.00 0.01 0.04 0.04 0.08 0.17 0.24 0.22 0.18 0.16 0.16 0.15 0.13 0.13 0.14 0.09 0.07 0.06 0.07 0.10 0.15 0.17 0.13 0.11 0.10
0.01 0.00 0.00 0.00 0.00 0.00 0.00 0.00 0.00 0.00 0.00 0.00 0.00 0.00 0.00 0.00 0.00 0.00 0.00 0.00 0.00 0.00 0.00 0.00 0.01 0.02 0.07 0.12 0.13 0.12 0.13 0.22 0.16 0.16 0.17 0.17 0.18 0.20 0.20 0.21 0.21 0.17 0.22 0.24
0.01 0.02 0.01 0.01 0.00 0.00 0.00 0.00 0.00 0.00 0.00 0.00 0.00 0.00 0.00 0.00 0.00 0.00 0.00 0.00 0.00 0.00 0.00 0.00 0.00 0.00 0.00 0.01 0.01 0.03 0.06 0.09 0.13 0.16 0.16 0.23 0.17 0.19 0.23 0.25 0.23 0.20 0.21 0.35
0.13 0.06 0.06 0.05 0.02 0.03 0.02 0.03 0.04 0.04 0.04 0.03 0.02 0.01 0.01 0.01 0.01 0.00 0.00 0.01 0.03 0.01 0.00 0.00 0.00 0.01 0.01 0.01 0.02 0.02 0.03 0.12 0.15 0.09 0.14 0.16 0.16 0.22 0.21 0.21 0.23 0.23 0.22 0.20
0.42 0.30 0.17 0.23 0.14 0.10 0.15 0.11 0.12 0.14 0.14 0.13 0.13 0.12 0.10 0.08 0.06 0.04 0.02 0.02 0.02 0.02 0.01 0.01 0.01 0.02 0.03 0.04 0.04 0.04 0.06 0.10 0.21 0.13 0.11 0.13 0.16 0.18 0.17 0.23 0.24 0.21 0.20 0.33
0.31 0.32 0.20 0.30 0.35 0.25 0.29 0.33 0.34 0.35 0.34 0.35 0.29 0.21 0.19 0.17 0.15 0.11 0.09 0.06 0.04 0.04 0.03 0.03 0.04 0.04 0.04 0.04 0.05 0.08 0.09 0.11 0.14 0.13 0.14 0.16 0.18 0.17 0.19 0.21 0.19 0.22 0.16 0.39
0.10 0.22 0.18 0.11 0.16 0.19 0.27 0.30 0.29 0.34 0.36 0.33 0.29 0.27 0.23 0.18 0.16 0.13 0.11 0.09 0.07 0.07 0.06 0.07 0.09 0.09 0.07 0.06 0.11 0.19 0.18 0.18 0.17 0.18 0.18 0.29 0.34 0.19 0.17 0.19 0.20 0.19 0.20 0.26
0.27 0.18 0.11 0.09 0.11 0.14 0.15 0.11 0.10 0.11 0.10 0.08 0.08 0.07 0.09 0.06 0.04 0.04 0.04 0.05 0.06 0.06 0.06 0.08 0.11 0.10 0.09 0.14 0.24 0.33 0.27 0.24 0.23 0.19 0.25 0.33 0.31 0.29 0.28 0.35 0.33 0.27 0.26 0.28
0.56 0.60 0.44 0.44 0.40 0.30 0.21 0.15 0.12 0.11 0.07 0.06 0.07 0.05 0.04 0.04 0.03 0.05 0.07 0.04 0.01 0.02 0.04 0.05 0.09 0.12 0.14 0.19 0.30 0.26 0.25 0.31 0.36 0.36 0.43 0.46 0.41 0.34 0.27 0.27 0.32 0.31 0.31 0.31
0.25 0.33 0.40 0.29 0.16 0.20 0.27 0.25 0.17 0.13 0.10 0.09 0.11 0.08 0.07 0.05 0.04 0.05 0.07 0.15 0.09 0.07 0.10 0.13 0.13 0.18 0.27 0.33 0.29 0.25 0.34 0.41 0.46 0.47 0.42 0.38 0.40 0.42 0.38 0.39 0.41 0.36 0.36 0.33
0.14 0.19 0.24 0.22 0.16 0.13 0.17 0.27 0.23 0.20 0.22 0.22 0.22 0.20 0.20 0.18 0.20 0.30 0.27 0.19 0.21 0.17 0.20 0.18 0.21 0.28 0.35 0.33 0.22 0.31 0.40 0.39 0.36 0.37 0.44 0.49 0.49 0.50 0.52 0.48 0.44 0.41 0.36 0.31
0.09 0.13 0.20 0.25 0.24 0.18 0.16 0.16 0.16 0.22 0.28 0.27 0.26 0.28 0.31 0.40 0.38 0.30 0.35 0.33 0.28 0.27 0.26 0.28 0.31 0.33 0.37 0.30 0.35 0.40 0.39 0.42 0.48 0.49 0.49 0.52 0.52 0.54 0.52 0.51 0.48 0.37 0.34 0.32
0.17 0.16 0.17 0.17 0.16 0.12 0.11 0.10 0.10 0.09 0.10 0.12 0.14 0.19 0.24 0.31 0.55 0.39 0.30 0.22 0.25 0.30 0.27 0.26 0.30 0.30 0.27 0.31 0.41 0.43 0.50 0.54 0.56 0.62 0.55 0.53 0.51 0.51 0.48 0.47 0.45 0.45 0.45 0.40
0.05 0.06 0.05 0.06 0.09 0.10 0.10 0.10 0.11 0.09 0.10 0.11 0.08 0.06 0.12 0.17 0.19 0.21 0.20 0.24 0.25 0.28 0.20 0.19 0.26 0.30 0.27 0.34 0.37 0.36 0.41 0.43 0.47 0.49 0.50 0.47 0.42 0.41 0.42 0.40 0.40 0.42 0.42 0.42
0.09 0.10 0.09 0.07 0.06 0.06 0.07 0.10 0.14 0.15 0.14 0.14 0.19 0.13 0.13 0.14 0.19 0.20 0.17 0.22 0.27 0.28 0.22 0.17 0.24 0.32 0.38 0.39 0.30 0.28 0.32 0.35 0.39 0.48 0.45 0.40 0.40 0.41 0.41 0.40 0.41 0.43 0.42 0.45

GFSNGP_prec_precacc_153.txt.gz
Total_Precipitation_Accumulation
0.12 0.22 0.58 0.38 0.14 0.10 0.39 0.19 0.26 0.09 0.04 0.04 0.04 0.05 0.05 0.04 0.03 0.03 0.03 0.02 0.02 0.00 0.00 0.01 0.05 0.23 0.17 0.14 0.20 0.19 0.16 0.13 0.10 0.08 0.09 0.07 0.05 0.07 0.07 0.06 0.06 0.04 0.08 0.15
0.34 0.25 0.35 0.27 0.07 0.11 0.12 0.04 0.05 0.02 0.04 0.05 0.05 0.03 0.08 0.06 0.02 0.01 0.00 0.00 0.00 0.00 0.00 0.00 0.03 0.08 0.15 0.24 0.15 0.18 0.11 0.11 0.08 0.08 0.08 0.09 0.08 0.05 0.08 0.08 0.08 0.12 0.11 0.11
0.48 0.18 0.19 0.26 0.08 0.06 0.09 0.07 0.03 0.04 0.05 0.07 0.25 0.45 0.39 0.10 0.04 0.02 0.02 0.00 0.00 0.00 0.00 0.00 0.01 0.11 0.51 0.64 0.29 0.28 0.15 0.17 0.17 0.13 0.20 0.20 0.15 0.13 0.11 0.15 0.24 0.23 0.22 0.26
0.83 0.44 0.44 0.25 0.10 0.14 0.15 0.12 0.06 0.05 0.07 0.08 0.13 0.18 0.12 0.04 0.02 0.02 0.01 0.01 0.00 0.00 0.00 0.00 0.03 0.28 0.83 0.87 0.28 0.25 0.22 0.33 0.57 0.48 0.52 0.60 0.75 0.63 0.64 0.52 0.46 0.54 0.56 0.58
0.42 0.30 0.15 0.04 0.07 0.11 0.09 0.09 0.03 0.03 0.02 0.01 0.04 0.13 0.14 0.04 0.02 0.02 0.01 0.01 0.01 0.00 0.00 0.02 0.05 0.18 0.35 0.75 0.92 0.72 0.63 0.81 0.80 0.70 0.74 0.84 1.06 1.14 0.80 0.97 0.78 0.78 0.68 0.55
0.15 0.21 0.08 0.02 0.01 0.02 0.02 0.02 0.00 0.00 0.01 0.00 0.00 0.04 0.22 0.29 0.12 0.05 0.02 0.01 0.01 0.01 0.02 0.04 0.03 0.08 0.20 0.35 0.94 1.21 0.79 0.81 0.88 0.75 0.73 0.89 0.99 0.98 0.72 0.61 0.66 0.58 0.63 0.60
0.14 0.17 0.01 0.00 0.00 0.00 0.03 0.02 0.00 0.00 0.00 0.00 0.00 0.00 0.01 0.16 0.24 0.16 0.10 0.07 0.09 0.09 0.17 0.22 0.17 0.32 0.49 0.49 0.81 1.10 0.86 0.88 0.70 0.73 0.45 0.61 0.69 0.62 0.47 0.37 0.42 0.43 0.40 0.33
0.06 0.10 0.01 0.00 0.00 0.00 0.00 0.00 0.00 0.01 0.01 0.00 0.01 0.00 0.00 0.01 0.04 0.16 0.17 0.15 0.16 0.24 0.55 0.66 0.68 0.58 0.54 0.44 0.32 0.33 0.44 0.46 0.31 0.26 0.23 0.18 0.19 0.27 0.24 0.14 0.10 0.05 0.02 0.01
0.00 0.00 0.00 0.00 0.00 0.00 0.00 0.00 0.00 0.00 0.00 0.00 0.01 0.00 0.00 0.01 0.00 0.00 0.01 0.02 0.05 0.15 0.16 0.09 0.14 0.12 0.15 0.06 0.02 0.02 0.02 0.01 0.02 0.02 0.02 0.01 0.00 0.00 0.00 0.00 0.00 0.01 0.01 0.01
0.00 0.00 0.00 0.00 0.00 0.00 0.00 0.00 0.00 0.01 0.01 0.00 0.00 0.00 0.01 0.02 0.02 0.03 0.02 0.00 0.00 0.00 0.00 0.00 0.00 0.00 0.00 0.01 0.02 0.02 0.01 0.00 0.00 0.01 0.01 0.01 0.00 0.00 0.00 0.00 0.00 0.01 0.01 0.02
0.00 0.00 0.00 0.00 0.00 0.00 0.00 0.00 0.00 0.00 0.00 0.00 0.00 0.00 0.00 0.00 0.01 0.02 0.06 0.08 0.08 0.07 0.04 0.01 0.00 0.01 0.00 0.00 0.00 0.00 0.01 0.01 0.00 0.00 0.00 0.00 0.00 0.00 0.00 0.00 0.02 0.03 0.03 0.05
0.00 0.00 0.00 0.00 0.00 0.00 0.00 0.00 0.00 0.00 0.00 0.00 0.00 0.00 0.00 0.00 0.00 0.00 0.01 0.03 0.07 0.16 0.22 0.25 0.21 0.17 0.13 0.11 0.11 0.09 0.06 0.04 0.04 0.04 0.04 0.05 0.04 0.04 0.08 0.08 0.08 0.08 0.09 0.09
0.00 0.00 0.00 0.00 0.00 0.00 0.00 0.00 0.00 0.00 0.00 0.00 0.00 0.00 0.01 0.00 0.00 0.00 0.00 0.00 0.01 0.04 0.04 0.08 0.17 0.24 0.22 0.18 0.16 0.16 0.15 0.13 0.13 0.14 0.09 0.07 0.06 0.07 0.10 0.15 0.17 0.13 0.11 0.10
0.01 0.00 0.00 0.00 0.00 0.00 0.00 0.00 0.00 0.00 0.00 0.00 0.00 0.00 0.00 0.00 0.00 0.00 0.00 0.00 0.00 0.00 0.00 0.00 0.01 0.02 0.07 0.12 0.13 0.12 0.13 0.22 0.16 0.16 0.17 0.17 0.18 0.20 0.20 0.21 0.21 0.17 0.22 0.24
0.01 0.02 0.01 0.01 0.00 0.00 0.00 0.00 0.00 0.00 0.00 0.00 0.00 0.00 0.00 0.00 0.00 0.00 0.00 0.00 0.00 0.00 0.00 0.00 0.00 0.00 0.00 0.01 0.01 0.03 0.06 0.09 0.13 0.16 0.16 0.23 0.17 0.19 0.23 0.25 0.24 0.20 0.21 0.35
0.13 0.06 0.06 0.05 0.02 0.03 0.02 0.03 0.04 0.04 0.04 0.03 0.02 0.01 0.01 0.01 0.01 0.00 0.00 0.01 0.03 0.01 0.00 0.00 0.00 0.01 0.01 0.01 0.02 0.02 0.03 0.12 0.15 0.09 0.14 0.16 0.16 0.22 0.21 0.21 0.23 0.23 0.22 0.21
0.42 0.30 0.17 0.23 0.14 0.10 0.15 0.11 0.12 0.14 0.14 0.13 0.13 0.12 0.10 0.08 0.06 0.04 0.02 0.02 0.02 0.02 0.01 0.01 0.01 0.02 0.03 0.04 0.04 0.04 0.06 0.10 0.21 0.13 0.11 0.13 0.16 0.18 0.17 0.23 0.26 0.22 0.21 0.33
0.31 0.32 0.20 0.30 0.35 0.25 0.29 0.33 0.34 0.35 0.34 0.35 0.29 0.21 0.19 0.17 0.15 0.11 0.09 0.06 0.04 0.04 0.03 0.03 0.04 0.04 0.04 0.04 0.05 0.08 0.09 0.11 0.14 0.13 0.14 0.16 0.18 0.17 0.19 0.22 0.21 0.23 0.17 0.39
0.10 0.22 0.18 0.11 0.16 0.19 0.27 0.30 0.29 0.34 0.36 0.33 0.29 0.27 0.23 0.18 0.16 0.13 0.11 0.09 0.07 0.07 0.06 0.07 0.09 0.09 0.07 0.06 0.11 0.19 0.18 0.18 0.17 0.18 0.18 0.29 0.34 0.19 0.19 0.20 0.21 0.19 0.21 0.27
0.27 0.18 0.11 0.09 0.11 0.14 0.15 0.11 0.10 0.11 0.10 0.08 0.08 0.07 0.09 0.06 0.04 0.04 0.04 0.05 0.06 0.06 0.06 0.08 0.11 0.10 0.09 0.14 0.24 0.33 0.27 0.24 0.23 0.19 0.25 0.33 0.32 0.30 0.29 0.35 0.33 0.29 0.28 0.29
0.56 0.60 0.44 0.44 0.40 0.30 0.21 0.15 0.12 0.11 0.07 0.06 0.07 0.05 0.04 0.04 0.03 0.05 0.07 0.04 0.01 0.02 0.04 0.05 0.09 0.12 0.14 0.19 0.30 0.26 0.25 0.31 0.36 0.36 0.43 0.46 0.41 0.34 0.28 0.28 0.33 0.31 0.31 0.31
0.25 0.33 0.40 0.29 0.16 0.20 0.27 0.25 0.17 0.13 0.10 0.09 0.11 0.08 0.07 0.05 0.04 0.05 0.07 0.15 0.09 0.07 0.10 0.13 0.13 0.18 0.27 0.33 0.29 0.25 0.34 0.41 0.46 0.47 0.42 0.38 0.42 0.45 0.40 0.40 0.41 0.37 0.37 0.33
0.14 0.19 0.24 0.22 0.16 0.13 0.17 0.27 0.23 0.20 0.22 0.22 0.22 0.20 0.20 0.18 0.20 0.30 0.27 0.19 0.21 0.17 0.20 0.18 0.21 0.28 0.35 0.33 0.22 0.31 0.40 0.39 0.36 0.37 0.44 0.51 0.51 0.51 0.53 0.48 0.45 0.42 0.37 0.32
0.09 0.13 0.20 0.25 0.24 0.18 0.16 0.16 0.16 0.22 0.28 0.27 0.26 0.28 0.31 0.40 0.38 0.30 0.35 0.33 0.28 0.27 0.26 0.28 0.31 0.33 0.37 0.30 0.35 0.40 0.39 0.42 0.48 0.50 0.50 0.53 0.52 0.54 0.53 0.52 0.49 0.37 0.35 0.33
0.17 0.16 0.17 0.17 0.16 0.12 0.11 0.10 0.10 0.09 0.10 0.12 0.14 0.19 0.24 0.31 0.55 0.39 0.30 0.22 0.25 0.30 0.27 0.26 0.30 0.30 0.27 0.31 0.41 0.43 0.50 0.54 0.57 0.63 0.56 0.53 0.51 0.52 0.48 0.48 0.47 0.46 0.47 0.42
0.05 0.06 0.05 0.06 0.09 0.10 0.10 0.10 0.11 0.09 0.10 0.11 0.08 0.06 0.12 0.17 0.19 0.21 0.20 0.24 0.25 0.28 0.20 0.19 0.26 0.30 0.28 0.34 0.38 0.37 0.41 0.44 0.47 0.49 0.51 0.47 0.43 0.42 0.43 0.41 0.41 0.43 0.43 0.44
0.09 0.10 0.09 0.07 0.06 0.06 0.07 0.10 0.14 0.15 0.14 0.14 0.19 0.13 0.13 0.14 0.19 0.20 0.17 0.22 0.27 0.28 0.22 0.17 0.24 0.32 0.38 0.39 0.31 0.29 0.33 0.36 0.39 0.48 0.46 0.41 0.41 0.42 0.43 0.42 0.42 0.45 0.44 0.47

GFSNGP_prec_precacc_156.txt.gz
Total_Precipitation_Accumulation
0.12 0.22 0.58 0.38 0.14 0.10 0.39 0.19 0.26 0.09 0.04 0.04 0.04 0.05 0.05 0.04 0.03 0.03 0.03 0.02 0.02 0.00 0.00 0.01 0.05 0.23 0.17 0.14 0.20 0.19 0.16 0.13 0.10 0.08 0.09 0.07 0.05 0.07 0.07 0.06 0.06 0.04 0.08 0.15
0.34 0.25 0.35 0.27 0.07 0.11 0.12 0.04 0.05 0.02 0.04 0.05 0.05 0.03 0.08 0.06 0.02 0.01 0.00 0.00 0.00 0.00 0.00 0.00 0.03 0.08 0.15 0.24 0.15 0.18 0.11 0.11 0.08 0.08 0.08 0.09 0.08 0.05 0.08 0.08 0.08 0.12 0.11 0.11
0.48 0.18 0.19 0.26 0.08 0.06 0.09 0.07 0.03 0.04 0.05 0.07 0.25 0.45 0.39 0.10 0.04 0.02 0.02 0.00 0.00 0.00 0.00 0.00 0.01 0.11 0.51 0.64 0.29 0.28 0.15 0.17 0.17 0.13 0.20 0.20 0.15 0.13 0.11 0.15 0.24 0.23 0.22 0.26
0.83 0.44 0.44 0.25 0.10 0.14 0.15 0.12 0.06 0.05 0.07 0.08 0.13 0.18 0.12 0.04 0.02 0.02 0.01 0.01 0.00 0.00 0.00 0.00 0.03 0.28 0.83 0.87 0.28 0.25 0.22 0.33 0.57 0.48 0.52 0.60 0.75 0.63 0.64 0.52 0.46 0.54 0.56 0.58
0.42 0.30 0.15 0.04 0.07 0.11 0.09 0.09 0.03 0.03 0.02 0.01 0.04 0.13 0.14 0.04 0.02 0.02 0.01 0.01 0.01 0.00 0.00 0.02 0.05 0.18 0.35 0.75 0.92 0.72 0.63 0.81 0.80 0.70 0.74 0.84 1.06 1.14 0.80 0.97 0.78 0.78 0.68 0.55
0.15 0.21 0.08 0.02 0.01 0.02 0.02 0.02 0.00 0.00 0.01 0.00 0.00 0.04 0.22 0.29 0.12 0.05 0.02 0.01 0.01 0.01 0.02 0.04 0.03 0.08 0.20 0.35 0.94 1.21 0.79 0.81 0.88 0.75 0.73 0.89 0.99 0.98 0.72 0.61 0.66 0.58 0.63 0.60
0.14 0.17 0.01 0.00 0.00 0.00 0.03 0.02 0.00 0.00 0.00 0.00 0.00 0.00 0.01 0.16 0.24 0.16 0.10 0.07 0.09 0.09 0.17 0.22 0.17 0.32 0.49 0.49 0.81 1.10 0.86 0.88 0.70 0.73 0.45 0.61 0.69 0.62 0.47 0.37 0.42 0.43 0.40 0.33
0.06 0.10 0.01 0.00 0.00 0.00 0.00 0.00 0.00 0.01 0.01 0.00 0.01 0.00 0.00 0.01 0.04 0.16 0.17 0.15 0.16 0.24 0.55 0.66 0.68 0.58 0.54 0.44 0.32 0.33 0.44 0.46 0.31 0.26 0.24 0.18 0.19 0.27 0.24 0.14 0.10 0.05 0.02 0.01
0.00 0.00 0.00 0.00 0.00 0.00 0.00 0.00 0.00 0.00 0.00 0.00 0.01 0.00 0.00 0.01 0.00 0.00 0.01 0.02 0.05 0.15 0.16 0.09 0.14 0.12 0.15 0.06 0.02 0.02 0.02 0.01 0.02 0.02 0.02 0.01 0.00 0.00 0.00 0.00 0.00 0.01 0.01 0.01
0.00 0.00 0.00 0.00 0.00 0.00 0.00 0.00 0.00 0.01 0.01 0.00 0.00 0.00 0.01 0.02 0.02 0.03 0.02 0.00 0.00 0.00 0.00 0.00 0.00 0.00 0.00 0.01 0.02 0.02 0.01 0.00 0.00 0.01 0.01 0.01 0.00 0.00 0.00 0.00 0.00 0.01 0.01 0.02
0.00 0.00 0.00 0.00 0.00 0.00 0.00 0.00 0.00 0.00 0.00 0.00 0.00 0.00 0.00 0.00 0.01 0.02 0.06 0.08 0.08 0.07 0.04 0.01 0.00 0.01 0.00 0.00 0.00 0.00 0.01 0.01 0.00 0.00 0.00 0.00 0.00 0.00 0.00 0.00 0.02 0.03 0.03 0.05
0.00 0.00 0.00 0.00 0.00 0.00 0.00 0.00 0.00 0.00 0.00 0.00 0.00 0.00 0.00 0.00 0.00 0.00 0.01 0.03 0.07 0.16 0.22 0.26 0.21 0.17 0.13 0.11 0.11 0.09 0.06 0.04 0.04 0.04 0.04 0.05 0.04 0.04 0.08 0.08 0.08 0.08 0.09 0.09
0.00 0.00 0.00 0.00 0.00 0.00 0.00 0.00 0.00 0.00 0.00 0.00 0.00 0.00 0.01 0.00 0.00 0.00 0.00 0.00 0.01 0.04 0.04 0.08 0.17 0.24 0.22 0.18 0.16 0.16 0.15 0.13 0.13 0.14 0.09 0.07 0.06 0.07 0.10 0.15 0.17 0.13 0.12 0.10
0.01 0.00 0.00 0.00 0.00 0.00 0.00 0.00 0.00 0.00 0.00 0.00 0.00 0.00 0.00 0.00 0.00 0.00 0.00 0.00 0.00 0.00 0.00 0.00 0.01 0.02 0.07 0.12 0.13 0.12 0.13 0.22 0.16 0.16 0.17 0.17 0.18 0.20 0.20 0.21 0.21 0.17 0.22 0.24
0.01 0.02 0.01 0.01 0.00 0.00 0.00 0.00 0.00 0.00 0.00 0.00 0.00 0.00 0.00 0.00 0.00 0.00 0.00 0.00 0.00 0.00 0.00 0.00 0.00 0.00 0.00 0.01 0.01 0.03 0.06 0.09 0.13 0.16 0.16 0.23 0.17 0.19 0.23 0.25 0.24 0.20 0.21 0.35
0.13 0.06 0.06 0.05 0.02 0.03 0.02 0.03 0.04 0.04 0.04 0.03 0.02 0.01 0.01 0.01 0.01 0.00 0.00 0.01 0.03 0.01 0.00 0.00 0.00 0.01 0.01 0.01 0.02 0.02 0.03 0.12 0.15 0.09 0.14 0.16 0.16 0.22 0.21 0.21 0.23 0.23 0.22 0.21
0.42 0.30 0.17 0.23 0.14 0.10 0.15 0.11 0.12 0.14 0.14 0.13 0.13 0.12 0.10 0.08 0.06 0.04 0.02 0.02 0.02 0.02 0.01 0.01 0.01 0.02 0.03 0.04 0.04 0.04 0.06 0.10 0.21 0.13 0.11 0.13 0.16 0.18 0.17 0.24 0.26 0.23 0.21 0.34
0.31 0.32 0.20 0.30 0.35 0.25 0.29 0.33 0.34 0.35 0.34 0.35 0.29 0.21 0.19 0.17 0.15 0.11 0.09 0.06 0.04 0.04 0.03 0.03 0.04 0.04 0.04 0.04 0.05 0.08 0.09 0.11 0.14 0.13 0.14 0.16 0.18 0.17 0.19 0.22 0.21 0.24 0.17 0.40
0.10 0.22 0.18 0.11 0.16 0.19 0.27 0.30 0.29 0.34 0.36 0.33 0.29 0.27 0.23 0.18 0.16 0.13 0.11 0.09 0.07 0.07 0.06 0.07 0.09 0.09 0.07 0.06 0.11 0.19 0.18 0.18 0.17 0.18 0.18 0.29 0.34 0.19 0.19 0.20 0.21 0.20 0.21 0.28
0.27 0.18 0.11 0.09 0.11 0.14 0.15 0.11 0.10 0.11 0.10 0.08 0.08 0.07 0.09 0.06 0.04 0.04 0.04 0.05 0.06 0.06 0.06 0.08 0.11 0.10 0.09 0.14 0.24 0.33 0.27 0.24 0.23 0.19 0.25 0.33 0.32 0.30 0.29 0.36 0.34 0.30 0.29 0.30
0.56 0.60 0.44 0.44 0.40 0.30 0.21 0.15 0.12 0.11 0.07 0.06 0.07 0.05 0.04 0.04 0.03 0.05 0.07 0.04 0.01 0.02 0.04 0.05 0.09 0.12 0.14 0.19 0.30 0.26 0.25 0.31 0.36 0.36 0.43 0.46 0.41 0.34 0.28 0.29 0.34 0.32 0.32 0.32
0.25 0.33 0.40 0.29 0.16 0.20 0.27 0.25 0.17 0.13 0.10 0.09 0.11 0.08 0.07 0.05 0.04 0.05 0.07 0.15 0.09 0.07 0.10 0.13 0.13 0.18 0.27 0.33 0.29 0.25 0.34 0.41 0.46 0.47 0.42 0.38 0.42 0.46 0.41 0.40 0.42 0.37 0.37 0.34
0.14 0.19 0.24 0.22 0.16 0.13 0.17 0.27 0.23 0.20 0.22 0.22 0.22 0.20 0.20 0.18 0.20 0.30 0.27 0.19 0.21 0.17 0.20 0.18 0.21 0.28 0.35 0.33 0.22 0.31 0.40 0.39 0.36 0.37 0.44 0.51 0.52 0.52 0.54 0.49 0.45 0.42 0.37 0.33
0.09 0.13 0.20 0.25 0.24 0.18 0.16 0.16 0.16 0.22 0.28 0.27 0.26 0.28 0.31 0.40 0.38 0.30 0.35 0.33 0.28 0.27 0.26 0.28 0.31 0.33 0.37 0.30 0.35 0.40 0.40 0.43 0.49 0.50 0.51 0.54 0.53 0.54 0.53 0.52 0.50 0.38 0.35 0.34
0.17 0.16 0.17 0.17 0.16 0.12 0.11 0.10 0.10 0.09 0.10 0.12 0.14 0.19 0.24 0.31 0.55 0.39 0.30 0.22 0.25 0.30 0.27 0.26 0.30 0.30 0.27 0.31 0.41 0.44 0.51 0.55 0.57 0.64 0.57 0.54 0.51 0.52 0.49 0.48 0.47 0.47 0.49 0.43
0.05 0.06 0.05 0.06 0.09 0.10 0.10 0.10 0.11 0.09 0.10 0.11 0.08 0.06 0.12 0.17 0.19 0.21 0.20 0.24 0.25 0.28 0.20 0.19 0.26 0.30 0.28 0.35 0.38 0.37 0.42 0.45 0.48 0.50 0.51 0.47 0.44 0.42 0.43 0.42 0.42 0.45 0.45 0.45
0.09 0.10 0.09 0.07 0.06 0.06 0.07 0.10 0.14 0.15 0.14 0.14 0.19 0.13 0.13 0.14 0.19 0.20 0.17 0.22 0.27 0.28 0.22 0.17 0.24 0.33 0.38 0.40 0.31 0.30 0.34 0.36 0.40 0.49 0.46 0.42 0.42 0.44 0.44 0.43 0.44 0.46 0.45 0.48

GFSNGP_prec_precacc_159.txt.gz
Total_Precipitation_Accumulation
0.12 0.22 0.58 0.38 0.14 0.10 0.39 0.19 0.26 0.09 0.04 0.04 0.04 0.05 0.05 0.04 0.03 0.03 0.03 0.02 0.02 0.00 0.00 0.01 0.05 0.23 0.17 0.14 0.20 0.19 0.16 0.13 0.10 0.08 0.09 0.07 0.05 0.07 0.07 0.06 0.06 0.04 0.08 0.15
0.34 0.25 0.35 0.27 0.07 0.11 0.12 0.04 0.05 0.02 0.04 0.05 0.05 0.03 0.08 0.06 0.02 0.01 0.00 0.00 0.00 0.00 0.00 0.00 0.03 0.08 0.15 0.24 0.15 0.18 0.11 0.11 0.08 0.08 0.08 0.09 0.08 0.05 0.08 0.08 0.08 0.12 0.11 0.11
0.48 0.18 0.19 0.26 0.08 0.06 0.09 0.07 0.03 0.04 0.05 0.07 0.25 0.45 0.39 0.10 0.04 0.02 0.02 0.00 0.00 0.00 0.00 0.00 0.01 0.11 0.51 0.64 0.29 0.28 0.15 0.17 0.17 0.13 0.20 0.20 0.15 0.13 0.11 0.15 0.24 0.23 0.22 0.26
0.83 0.44 0.44 0.25 0.10 0.14 0.15 0.12 0.06 0.05 0.07 0.08 0.13 0.18 0.12 0.04 0.02 0.02 0.01 0.01 0.00 0.00 0.00 0.00 0.03 0.28 0.83 0.87 0.28 0.25 0.22 0.33 0.57 0.48 0.52 0.60 0.75 0.63 0.64 0.52 0.46 0.54 0.56 0.58
0.42 0.30 0.15 0.04 0.07 0.11 0.09 0.09 0.03 0.03 0.02 0.01 0.04 0.13 0.14 0.04 0.02 0.02 0.01 0.01 0.01 0.00 0.00 0.02 0.05 0.18 0.35 0.75 0.92 0.72 0.63 0.81 0.80 0.70 0.74 0.84 1.06 1.14 0.80 0.97 0.78 0.78 0.68 0.55
0.15 0.21 0.08 0.02 0.01 0.02 0.02 0.02 0.00 0.00 0.01 0.00 0.00 0.04 0.22 0.29 0.12 0.05 0.02 0.01 0.01 0.01 0.02 0.04 0.03 0.08 0.20 0.35 0.94 1.21 0.79 0.81 0.88 0.75 0.73 0.89 0.99 0.98 0.72 0.61 0.66 0.58 0.63 0.60
0.14 0.17 0.01 0.00 0.00 0.00 0.03 0.02 0.00 0.00 0.00 0.00 0.00 0.00 0.01 0.16 0.24 0.16 0.10 0.07 0.09 0.09 0.17 0.22 0.17 0.32 0.49 0.49 0.81 1.10 0.86 0.88 0.70 0.73 0.45 0.61 0.69 0.62 0.47 0.37 0.42 0.43 0.40 0.33
0.06 0.10 0.01 0.00 0.00 0.00 0.00 0.00 0.00 0.01 0.01 0.00 0.01 0.00 0.00 0.01 0.04 0.16 0.17 0.15 0.16 0.24 0.55 0.66 0.68 0.58 0.54 0.44 0.32 0.33 0.44 0.46 0.31 0.26 0.24 0.18 0.19 0.27 0.24 0.14 0.10 0.05 0.02 0.01
0.00 0.00 0.00 0.00 0.00 0.00 0.00 0.00 0.00 0.00 0.00 0.00 0.01 0.00 0.00 0.01 0.00 0.00 0.01 0.02 0.05 0.15 0.16 0.09 0.14 0.12 0.15 0.06 0.02 0.02 0.02 0.01 0.02 0.02 0.02 0.01 0.00 0.00 0.00 0.00 0.00 0.01 0.01 0.01
0.00 0.00 0.00 0.00 0.00 0.00 0.00 0.00 0.00 0.01 0.01 0.00 0.00 0.00 0.01 0.02 0.02 0.03 0.02 0.00 0.00 0.00 0.00 0.00 0.00 0.00 0.00 0.01 0.02 0.02 0.01 0.00 0.00 0.01 0.01 0.01 0.00 0.00 0.00 0.00 0.00 0.01 0.01 0.02
0.00 0.00 0.00 0.00 0.00 0.00 0.00 0.00 0.00 0.00 0.00 0.00 0.00 0.00 0.00 0.00 0.01 0.02 0.06 0.08 0.08 0.07 0.04 0.01 0.00 0.01 0.00 0.00 0.00 0.00 0.01 0.01 0.00 0.00 0.00 0.00 0.00 0.00 0.00 0.00 0.02 0.03 0.03 0.05
0.00 0.00 0.00 0.00 0.00 0.00 0.00 0.00 0.00 0.00 0.00 0.00 0.00 0.00 0.00 0.00 0.00 0.00 0.01 0.03 0.07 0.16 0.22 0.26 0.21 0.17 0.13 0.11 0.11 0.09 0.06 0.04 0.04 0.04 0.04 0.05 0.04 0.04 0.08 0.08 0.08 0.08 0.09 0.09
0.00 0.00 0.00 0.00 0.00 0.00 0.00 0.00 0.00 0.00 0.00 0.00 0.00 0.00 0.01 0.00 0.00 0.00 0.00 0.00 0.01 0.04 0.04 0.08 0.17 0.24 0.22 0.18 0.16 0.16 0.15 0.13 0.13 0.14 0.09 0.07 0.06 0.07 0.10 0.15 0.17 0.13 0.12 0.10
0.01 0.00 0.00 0.00 0.00 0.00 0.00 0.00 0.00 0.00 0.00 0.00 0.00 0.00 0.00 0.00 0.00 0.00 0.00 0.00 0.00 0.00 0.00 0.00 0.01 0.02 0.07 0.12 0.13 0.12 0.13 0.22 0.16 0.16 0.17 0.17 0.18 0.20 0.20 0.21 0.21 0.17 0.22 0.24
0.01 0.02 0.01 0.01 0.00 0.00 0.00 0.00 0.00 0.00 0.00 0.00 0.00 0.00 0.00 0.00 0.00 0.00 0.00 0.00 0.00 0.00 0.00 0.00 0.00 0.00 0.00 0.01 0.01 0.03 0.06 0.09 0.13 0.16 0.16 0.23 0.17 0.19 0.23 0.25 0.24 0.20 0.21 0.35
0.13 0.06 0.06 0.05 0.02 0.03 0.02 0.03 0.04 0.04 0.04 0.03 0.02 0.01 0.01 0.01 0.01 0.00 0.00 0.01 0.03 0.01 0.00 0.00 0.00 0.01 0.01 0.01 0.02 0.02 0.03 0.12 0.15 0.09 0.14 0.16 0.16 0.22 0.21 0.21 0.23 0.23 0.22 0.21
0.42 0.30 0.17 0.23 0.14 0.10 0.15 0.11 0.12 0.14 0.14 0.13 0.13 0.12 0.10 0.08 0.06 0.04 0.02 0.02 0.02 0.02 0.01 0.01 0.01 0.02 0.03 0.04 0.04 0.04 0.06 0.10 0.21 0.13 0.11 0.13 0.16 0.18 0.17 0.24 0.26 0.23 0.21 0.34
0.31 0.32 0.20 0.30 0.35 0.25 0.29 0.33 0.34 0.35 0.34 0.35 0.29 0.21 0.19 0.17 0.15 0.11 0.09 0.06 0.04 0.04 0.03 0.03 0.04 0.04 0.04 0.04 0.05 0.08 0.09 0.11 0.14 0.13 0.14 0.16 0.18 0.17 0.19 0.22 0.21 0.24 0.17 0.40
0.10 0.22 0.18 0.11 0.16 0.19 0.27 0.30 0.29 0.34 0.36 0.33 0.29 0.27 0.23 0.18 0.16 0.13 0.11 0.09 0.07 0.07 0.06 0.07 0.09 0.09 0.07 0.06 0.11 0.19 0.18 0.18 0.17 0.18 0.18 0.29 0.34 0.19 0.19 0.20 0.21 0.20 0.22 0.29
0.27 0.18 0.11 0.09 0.11 0.14 0.15 0.11 0.10 0.11 0.10 0.08 0.08 0.07 0.09 0.06 0.04 0.04 0.04 0.05 0.06 0.06 0.06 0.08 0.11 0.10 0.09 0.14 0.24 0.33 0.27 0.24 0.23 0.19 0.25 0.34 0.32 0.31 0.29 0.36 0.34 0.30 0.30 0.31
0.56 0.60 0.44 0.44 0.40 0.30 0.21 0.15 0.12 0.11 0.07 0.06 0.07 0.05 0.04 0.04 0.03 0.05 0.07 0.04 0.01 0.02 0.04 0.05 0.09 0.12 0.14 0.19 0.30 0.26 0.25 0.31 0.36 0.36 0.44 0.47 0.43 0.35 0.29 0.30 0.35 0.32 0.32 0.32
0.25 0.33 0.40 0.29 0.16 0.20 0.27 0.25 0.17 0.13 0.10 0.09 0.11 0.08 0.07 0.05 0.04 0.05 0.07 0.15 0.09 0.07 0.10 0.13 0.13 0.18 0.27 0.33 0.29 0.25 0.34 0.41 0.46 0.47 0.44 0.40 0.43 0.47 0.42 0.41 0.43 0.37 0.37 0.34
0.14 0.19 0.24 0.22 0.16 0.13 0.17 0.27 0.23 0.20 0.22 0.22 0.22 0.20 0.20 0.18 0.20 0.30 0.27 0.19 0.21 0.17 0.20 0.18 0.21 0.28 0.35 0.33 0.22 0.31 0.41 0.40 0.37 0.39 0.46 0.53 0.53 0.53 0.55 0.49 0.45 0.42 0.38 0.34
0.09 0.13 0.20 0.25 0.24 0.18 0.16 0.16 0.16 0.22 0.28 0.27 0.26 0.28 0.31 0.40 0.38 0.30 0.35 0.33 0.28 0.27 0.26 0.28 0.31 0.33 0.37 0.30 0.35 0.41 0.41 0.44 0.50 0.52 0.52 0.54 0.54 0.55 0.53 0.53 0.50 0.38 0.36 0.34
0.17 0.16 0.17 0.17 0.16 0.12 0.11 0.10 0.10 0.09 0.10 0.12 0.14 0.19 0.24 0.31 0.55 0.39 0.30 0.22 0.25 0.30 0.27 0.26 0.30 0.30 0.27 0.31 0.41 0.44 0.51 0.56 0.58 0.66 0.59 0.55 0.52 0.52 0.50 0.49 0.48 0.49 0.51 0.45
0.05 0.06 0.05 0.06 0.09 0.10 0.10 0.10 0.11 0.09 0.10 0.11 0.08 0.06 0.12 0.17 0.19 0.21 0.20 0.24 0.25 0.28 0.20 0.19 0.26 0.30 0.28 0.35 0.38 0.38 0.43 0.46 0.49 0.51 0.51 0.47 0.44 0.44 0.44 0.43 0.43 0.46 0.47 0.47
0.09 0.10 0.09 0.07 0.06 0.06 0.07 0.10 0.14 0.15 0.14 0.14 0.19 0.13 0.13 0.14 0.19 0.20 0.17 0.22 0.27 0.28 0.22 0.17 0.24 0.33 0.39 0.41 0.32 0.31 0.34 0.37 0.40 0.49 0.47 0.43 0.43 0.45 0.45 0.44 0.46 0.48 0.47 0.49